<?xml version='1.0' encoding='UTF-8'?><gpx version="1.1" creator="JPX - https://github.com/jenetics/jpx" xmlns="http://www.topografix.com/GPX/1/1"><trk><trkseg><trkpt lat="45.718544861364656" lon="9.771029438445108"><ele>338.0</ele><time>2026-04-07T12:46:29Z</time></trkpt><trkpt lat="45.71848599050777" lon="9.770973097912664"><ele>337.0</ele><time>2026-04-07T12:46:31Z</time></trkpt><trkpt lat="45.71841204278069" lon="9.770923018040174"><ele>336.0</ele><time>2026-04-07T12:46:33Z</time></trkpt><trkpt lat="45.71832566006725" lon="9.770863061544137"><ele>335.0</ele><time>2026-04-07T12:46:35Z</time></trkpt><trkpt lat="45.718220246399454" lon="9.770795119693636"><ele>334.0</ele><time>2026-04-07T12:46:37Z</time></trkpt><trkpt lat="45.71816316265864" lon="9.770755725951076"><ele>333.0</ele><time>2026-04-07T12:46:38Z</time></trkpt><trkpt lat="45.71805998029177" lon="9.770666815171907"><ele>333.0</ele><time>2026-04-07T12:46:40Z</time></trkpt><trkpt lat="45.71796771971892" lon="9.770600277228297"><ele>333.0</ele><time>2026-04-07T12:46:42Z</time></trkpt><trkpt lat="45.7178789731996" lon="9.770586269819008"><ele>333.0</ele><time>2026-04-07T12:46:44Z</time></trkpt><trkpt lat="45.717810954549414" lon="9.77060148646922"><ele>333.0</ele><time>2026-04-07T12:46:47Z</time></trkpt><trkpt lat="45.71775299461653" lon="9.770563442981503"><ele>333.0</ele><time>2026-04-07T12:46:49Z</time></trkpt><trkpt lat="45.717689415862544" lon="9.770471132973308"><ele>333.0</ele><time>2026-04-07T12:46:51Z</time></trkpt><trkpt lat="45.71759941725289" lon="9.77039001781282"><ele>331.59999999999997</ele><time>2026-04-07T12:46:52Z</time></trkpt><trkpt lat="45.71753988882377" lon="9.770318759213215"><ele>330.2</ele><time>2026-04-07T12:46:53Z</time></trkpt><trkpt lat="45.71747742717528" lon="9.770257876268554"><ele>328.8</ele><time>2026-04-07T12:46:55Z</time></trkpt><trkpt lat="45.71752539694236" lon="9.77016434432846"><ele>327.4</ele><time>2026-04-07T12:46:57Z</time></trkpt><trkpt lat="45.71761226733143" lon="9.770053454492425"><ele>326.0</ele><time>2026-04-07T12:46:59Z</time></trkpt><trkpt lat="45.71769491697928" lon="9.769923543799283"><ele>326.2857142857143</ele><time>2026-04-07T12:47:01Z</time></trkpt><trkpt lat="45.71773948255429" lon="9.769857254762444"><ele>326.57142857142856</ele><time>2026-04-07T12:47:02Z</time></trkpt><trkpt lat="45.717784112185264" lon="9.769784884215909"><ele>326.85714285714283</ele><time>2026-04-07T12:47:03Z</time></trkpt><trkpt lat="45.71782604397129" lon="9.769711958036227"><ele>327.1428571428571</ele><time>2026-04-07T12:47:04Z</time></trkpt><trkpt lat="45.717869896591196" lon="9.76964180844434"><ele>327.42857142857144</ele><time>2026-04-07T12:47:05Z</time></trkpt><trkpt lat="45.7179166755501" lon="9.76957078794984"><ele>327.71428571428567</ele><time>2026-04-07T12:47:06Z</time></trkpt><trkpt lat="45.71796027248809" lon="9.769501019608612"><ele>328.0</ele><time>2026-04-07T12:47:07Z</time></trkpt><trkpt lat="45.71800304642045" lon="9.769432306075252"><ele>328.0</ele><time>2026-04-07T12:47:08Z</time></trkpt><trkpt lat="45.718044352559886" lon="9.769362434725725"><ele>328.0</ele><time>2026-04-07T12:47:09Z</time></trkpt><trkpt lat="45.71812624443143" lon="9.769232752284744"><ele>328.0</ele><time>2026-04-07T12:47:11Z</time></trkpt><trkpt lat="45.71820699471844" lon="9.769110019134835"><ele>328.0</ele><time>2026-04-07T12:47:13Z</time></trkpt><trkpt lat="45.71830438629589" lon="9.768995394432503"><ele>328.0</ele><time>2026-04-07T12:47:15Z</time></trkpt><trkpt lat="45.71835778512873" lon="9.768930998944295"><ele>327.85714285714283</ele><time>2026-04-07T12:47:16Z</time></trkpt><trkpt lat="45.71841150125191" lon="9.76887259018012"><ele>327.7142857142857</ele><time>2026-04-07T12:47:17Z</time></trkpt><trkpt lat="45.71847039321275" lon="9.768819222877065"><ele>327.57142857142856</ele><time>2026-04-07T12:47:18Z</time></trkpt><trkpt lat="45.71852831394477" lon="9.768763491136346"><ele>327.42857142857144</ele><time>2026-04-07T12:47:19Z</time></trkpt><trkpt lat="45.71858661112305" lon="9.768707711757973"><ele>327.2857142857143</ele><time>2026-04-07T12:47:20Z</time></trkpt><trkpt lat="45.718645650036684" lon="9.76865026702851"><ele>327.1428571428571</ele><time>2026-04-07T12:47:21Z</time></trkpt><trkpt lat="45.7187035450939" lon="9.768593559300148"><ele>327.0</ele><time>2026-04-07T12:47:22Z</time></trkpt><trkpt lat="45.71876317869888" lon="9.768534878659308"><ele>326.42857142857144</ele><time>2026-04-07T12:47:23Z</time></trkpt><trkpt lat="45.718822934533186" lon="9.76848170142613"><ele>325.8571428571429</ele><time>2026-04-07T12:47:24Z</time></trkpt><trkpt lat="45.71888339836193" lon="9.76842221410358"><ele>325.28571428571433</ele><time>2026-04-07T12:47:25Z</time></trkpt><trkpt lat="45.71894377987434" lon="9.768365034637636"><ele>324.7142857142857</ele><time>2026-04-07T12:47:26Z</time></trkpt><trkpt lat="45.719005445140546" lon="9.768309320169273"><ele>324.14285714285717</ele><time>2026-04-07T12:47:27Z</time></trkpt><trkpt lat="45.71906407248184" lon="9.768247818685245"><ele>323.5714285714286</ele><time>2026-04-07T12:47:28Z</time></trkpt><trkpt lat="45.71912116084381" lon="9.768185791087726"><ele>323.0</ele><time>2026-04-07T12:47:29Z</time></trkpt><trkpt lat="45.71918039044768" lon="9.768126656665492"><ele>323.00000000000006</ele><time>2026-04-07T12:47:30Z</time></trkpt><trkpt lat="45.71924079094382" lon="9.768071533145521"><ele>323.0</ele><time>2026-04-07T12:47:31Z</time></trkpt><trkpt lat="45.719299747973466" lon="9.768015290744652"><ele>323.0</ele><time>2026-04-07T12:47:32Z</time></trkpt><trkpt lat="45.719358204546516" lon="9.767957696855516"><ele>323.0</ele><time>2026-04-07T12:47:33Z</time></trkpt><trkpt lat="45.71941662545899" lon="9.767896594494692"><ele>323.0</ele><time>2026-04-07T12:47:34Z</time></trkpt><trkpt lat="45.71947497227318" lon="9.767835679214878"><ele>323.00000000000006</ele><time>2026-04-07T12:47:35Z</time></trkpt><trkpt lat="45.71953497408061" lon="9.767777750012423"><ele>323.0</ele><time>2026-04-07T12:47:36Z</time></trkpt><trkpt lat="45.71959386319936" lon="9.767713470260336"><ele>323.42857142857144</ele><time>2026-04-07T12:47:37Z</time></trkpt><trkpt lat="45.71965297834919" lon="9.767656642588014"><ele>323.8571428571429</ele><time>2026-04-07T12:47:38Z</time></trkpt><trkpt lat="45.719714419946236" lon="9.767595641321686"><ele>324.28571428571433</ele><time>2026-04-07T12:47:39Z</time></trkpt><trkpt lat="45.71977533863434" lon="9.767538189294442"><ele>324.7142857142857</ele><time>2026-04-07T12:47:40Z</time></trkpt><trkpt lat="45.7198335905457" lon="9.76747930972891"><ele>325.1428571428571</ele><time>2026-04-07T12:47:41Z</time></trkpt><trkpt lat="45.71989214982979" lon="9.76742316126146"><ele>325.5714285714286</ele><time>2026-04-07T12:47:42Z</time></trkpt><trkpt lat="45.719947961861926" lon="9.767362553230127"><ele>326.0</ele><time>2026-04-07T12:47:43Z</time></trkpt><trkpt lat="45.72000571480618" lon="9.767306560313909"><ele>326.0</ele><time>2026-04-07T12:47:44Z</time></trkpt><trkpt lat="45.720060325869454" lon="9.767249347832356"><ele>326.0</ele><time>2026-04-07T12:47:45Z</time></trkpt><trkpt lat="45.720114332637344" lon="9.767193305447034"><ele>326.0</ele><time>2026-04-07T12:47:46Z</time></trkpt><trkpt lat="45.72016669347226" lon="9.767140112637412"><ele>326.0</ele><time>2026-04-07T12:47:47Z</time></trkpt><trkpt lat="45.72021944465356" lon="9.76708377601084"><ele>326.0</ele><time>2026-04-07T12:47:48Z</time></trkpt><trkpt lat="45.720270485564704" lon="9.76703012641585"><ele>326.0</ele><time>2026-04-07T12:47:49Z</time></trkpt><trkpt lat="45.72032670645681" lon="9.766980197969765"><ele>326.0</ele><time>2026-04-07T12:47:50Z</time></trkpt><trkpt lat="45.72038080476937" lon="9.766926788719644"><ele>325.33333333333337</ele><time>2026-04-07T12:47:51Z</time></trkpt><trkpt lat="45.72043759828284" lon="9.76687212694681"><ele>324.6666666666667</ele><time>2026-04-07T12:47:52Z</time></trkpt><trkpt lat="45.72049385706184" lon="9.76682372284956"><ele>324.0</ele><time>2026-04-07T12:47:53Z</time></trkpt><trkpt lat="45.720551493793415" lon="9.76676792730255"><ele>323.3333333333333</ele><time>2026-04-07T12:47:54Z</time></trkpt><trkpt lat="45.72060480724407" lon="9.766714290395699"><ele>322.66666666666663</ele><time>2026-04-07T12:47:55Z</time></trkpt><trkpt lat="45.72065832446234" lon="9.766656441665374"><ele>322.0</ele><time>2026-04-07T12:47:56Z</time></trkpt><trkpt lat="45.72075065552934" lon="9.766529919305384"><ele>322.0</ele><time>2026-04-07T12:47:58Z</time></trkpt><trkpt lat="45.72079625214674" lon="9.766462950961547"><ele>322.0</ele><time>2026-04-07T12:47:59Z</time></trkpt><trkpt lat="45.72084540336594" lon="9.76640272517967"><ele>322.0</ele><time>2026-04-07T12:48:00Z</time></trkpt><trkpt lat="45.72089402863309" lon="9.76633531018704"><ele>322.0</ele><time>2026-04-07T12:48:01Z</time></trkpt><trkpt lat="45.720942610738696" lon="9.76627327893107"><ele>322.0</ele><time>2026-04-07T12:48:02Z</time></trkpt><trkpt lat="45.72098857216325" lon="9.766206728945148"><ele>322.0</ele><time>2026-04-07T12:48:03Z</time></trkpt><trkpt lat="45.721035253798576" lon="9.766140170597494"><ele>322.0</ele><time>2026-04-07T12:48:04Z</time></trkpt><trkpt lat="45.721083555435115" lon="9.766080006834322"><ele>321.57142857142856</ele><time>2026-04-07T12:48:05Z</time></trkpt><trkpt lat="45.721132325828755" lon="9.766022299402161"><ele>321.1428571428571</ele><time>2026-04-07T12:48:06Z</time></trkpt><trkpt lat="45.72118535648885" lon="9.765966581502237"><ele>320.7142857142857</ele><time>2026-04-07T12:48:07Z</time></trkpt><trkpt lat="45.721237787894864" lon="9.765906319925145"><ele>320.2857142857143</ele><time>2026-04-07T12:48:08Z</time></trkpt><trkpt lat="45.7212883866993" lon="9.765845470340114"><ele>319.85714285714283</ele><time>2026-04-07T12:48:09Z</time></trkpt><trkpt lat="45.721342373527875" lon="9.765787646027574"><ele>319.42857142857144</ele><time>2026-04-07T12:48:10Z</time></trkpt><trkpt lat="45.72139605355768" lon="9.765729009415415"><ele>319.0</ele><time>2026-04-07T12:48:11Z</time></trkpt><trkpt lat="45.721449141556434" lon="9.765670996665488"><ele>319.0</ele><time>2026-04-07T12:48:12Z</time></trkpt><trkpt lat="45.72150232050269" lon="9.765610949903433"><ele>319.0</ele><time>2026-04-07T12:48:13Z</time></trkpt><trkpt lat="45.721557221317205" lon="9.765553661617723"><ele>319.0</ele><time>2026-04-07T12:48:14Z</time></trkpt><trkpt lat="45.721608350935504" lon="9.765497886938288"><ele>319.0</ele><time>2026-04-07T12:48:15Z</time></trkpt><trkpt lat="45.72166265984046" lon="9.765444451062313"><ele>319.0</ele><time>2026-04-07T12:48:16Z</time></trkpt><trkpt lat="45.72171901104583" lon="9.765395377503866"><ele>319.0</ele><time>2026-04-07T12:48:17Z</time></trkpt><trkpt lat="45.72177484507959" lon="9.765339806653277"><ele>319.0</ele><time>2026-04-07T12:48:18Z</time></trkpt><trkpt lat="45.72183318558687" lon="9.765279870067735"><ele>319.0</ele><time>2026-04-07T12:48:19Z</time></trkpt><trkpt lat="45.72188928642604" lon="9.765225834948565"><ele>319.0</ele><time>2026-04-07T12:48:20Z</time></trkpt><trkpt lat="45.72194493539774" lon="9.765173149821605"><ele>319.0</ele><time>2026-04-07T12:48:21Z</time></trkpt><trkpt lat="45.72200347577935" lon="9.765116622573489"><ele>319.0</ele><time>2026-04-07T12:48:22Z</time></trkpt><trkpt lat="45.72206412586566" lon="9.765062394025955"><ele>319.0</ele><time>2026-04-07T12:48:23Z</time></trkpt><trkpt lat="45.722126712698184" lon="9.765005376816383"><ele>319.0</ele><time>2026-04-07T12:48:24Z</time></trkpt><trkpt lat="45.72218665652846" lon="9.764948916961098"><ele>319.0</ele><time>2026-04-07T12:48:25Z</time></trkpt><trkpt lat="45.72224502235143" lon="9.764890138343345"><ele>319.0</ele><time>2026-04-07T12:48:26Z</time></trkpt><trkpt lat="45.72230600326777" lon="9.764827753611343"><ele>319.0</ele><time>2026-04-07T12:48:27Z</time></trkpt><trkpt lat="45.72236378937806" lon="9.76477107250911"><ele>319.0</ele><time>2026-04-07T12:48:28Z</time></trkpt><trkpt lat="45.722427321985336" lon="9.764713552103187"><ele>319.0</ele><time>2026-04-07T12:48:29Z</time></trkpt><trkpt lat="45.72249014809652" lon="9.764652300678268"><ele>319.0</ele><time>2026-04-07T12:48:30Z</time></trkpt><trkpt lat="45.722553641185925" lon="9.764590658355035"><ele>319.0</ele><time>2026-04-07T12:48:31Z</time></trkpt><trkpt lat="45.72261551348884" lon="9.764528765753747"><ele>319.0</ele><time>2026-04-07T12:48:32Z</time></trkpt><trkpt lat="45.72267943958914" lon="9.764467091272829"><ele>319.16666666666663</ele><time>2026-04-07T12:48:33Z</time></trkpt><trkpt lat="45.72274057528356" lon="9.764409413382113"><ele>319.3333333333333</ele><time>2026-04-07T12:48:34Z</time></trkpt><trkpt lat="45.72280722244003" lon="9.764348290544968"><ele>319.5</ele><time>2026-04-07T12:48:35Z</time></trkpt><trkpt lat="45.72286453737437" lon="9.76428369766176"><ele>319.6666666666667</ele><time>2026-04-07T12:48:36Z</time></trkpt><trkpt lat="45.72292811205014" lon="9.764221861668897"><ele>319.83333333333337</ele><time>2026-04-07T12:48:37Z</time></trkpt><trkpt lat="45.72298707819825" lon="9.764153078801442"><ele>320.0</ele><time>2026-04-07T12:48:38Z</time></trkpt><trkpt lat="45.72305040409219" lon="9.764084405200368"><ele>319.0</ele><time>2026-04-07T12:48:39Z</time></trkpt><trkpt lat="45.723109531246095" lon="9.764007432662403"><ele>318.0</ele><time>2026-04-07T12:48:40Z</time></trkpt><trkpt lat="45.723169485124075" lon="9.763930561858311"><ele>317.0</ele><time>2026-04-07T12:48:41Z</time></trkpt><trkpt lat="45.72322685004685" lon="9.763855755447683"><ele>316.0</ele><time>2026-04-07T12:48:42Z</time></trkpt><trkpt lat="45.72328196873749" lon="9.763779290226342"><ele>315.0</ele><time>2026-04-07T12:48:43Z</time></trkpt><trkpt lat="45.7233362086178" lon="9.763706456668409"><ele>314.0</ele><time>2026-04-07T12:48:44Z</time></trkpt><trkpt lat="45.72339194032181" lon="9.76363351469177"><ele>313.99999999999994</ele><time>2026-04-07T12:48:45Z</time></trkpt><trkpt lat="45.72344895276586" lon="9.763553049446514"><ele>314.0</ele><time>2026-04-07T12:48:46Z</time></trkpt><trkpt lat="45.723506066884006" lon="9.76348218432253"><ele>314.0</ele><time>2026-04-07T12:48:47Z</time></trkpt><trkpt lat="45.72355328576047" lon="9.76339911991898"><ele>314.0</ele><time>2026-04-07T12:48:48Z</time></trkpt><trkpt lat="45.723607102270016" lon="9.763328823404569"><ele>314.0</ele><time>2026-04-07T12:48:49Z</time></trkpt><trkpt lat="45.72365978992443" lon="9.763261210838436"><ele>313.99999999999994</ele><time>2026-04-07T12:48:50Z</time></trkpt><trkpt lat="45.72371594107055" lon="9.763201615177858"><ele>314.0</ele><time>2026-04-07T12:48:51Z</time></trkpt><trkpt lat="45.72377304239476" lon="9.76313818740303"><ele>313.99999999999994</ele><time>2026-04-07T12:48:52Z</time></trkpt><trkpt lat="45.72382827615481" lon="9.763078977055082"><ele>314.0</ele><time>2026-04-07T12:48:53Z</time></trkpt><trkpt lat="45.72388482545647" lon="9.763019137896773"><ele>314.0</ele><time>2026-04-07T12:48:54Z</time></trkpt><trkpt lat="45.723938218827456" lon="9.762961016041965"><ele>314.0</ele><time>2026-04-07T12:48:55Z</time></trkpt><trkpt lat="45.723993525825385" lon="9.762905384735078"><ele>314.0</ele><time>2026-04-07T12:48:56Z</time></trkpt><trkpt lat="45.72404553277677" lon="9.762847262300344"><ele>313.99999999999994</ele><time>2026-04-07T12:48:57Z</time></trkpt><trkpt lat="45.724095899344015" lon="9.762788300725514"><ele>314.0</ele><time>2026-04-07T12:48:58Z</time></trkpt><trkpt lat="45.724190708009225" lon="9.7626671658717"><ele>314.0</ele><time>2026-04-07T12:49:00Z</time></trkpt><trkpt lat="45.72424226964" lon="9.762600655978263"><ele>314.0</ele><time>2026-04-07T12:49:01Z</time></trkpt><trkpt lat="45.724318847627075" lon="9.762459299587217"><ele>314.0</ele><time>2026-04-07T12:49:03Z</time></trkpt><trkpt lat="45.72435672686863" lon="9.762380807670278"><ele>314.0</ele><time>2026-04-07T12:49:04Z</time></trkpt><trkpt lat="45.72439215262964" lon="9.762300301870429"><ele>314.0</ele><time>2026-04-07T12:49:05Z</time></trkpt><trkpt lat="45.72442815806236" lon="9.762218315232618"><ele>314.0</ele><time>2026-04-07T12:49:06Z</time></trkpt><trkpt lat="45.72446488838585" lon="9.7621340858415"><ele>314.1428571428571</ele><time>2026-04-07T12:49:07Z</time></trkpt><trkpt lat="45.72449834157997" lon="9.76204593041929"><ele>314.2857142857143</ele><time>2026-04-07T12:49:08Z</time></trkpt><trkpt lat="45.72453389862007" lon="9.76195779447341"><ele>314.42857142857144</ele><time>2026-04-07T12:49:09Z</time></trkpt><trkpt lat="45.72457070874031" lon="9.761869107693075"><ele>314.57142857142856</ele><time>2026-04-07T12:49:10Z</time></trkpt><trkpt lat="45.72460934728184" lon="9.761779824659891"><ele>314.7142857142857</ele><time>2026-04-07T12:49:11Z</time></trkpt><trkpt lat="45.7246482260296" lon="9.761694070187186"><ele>314.85714285714283</ele><time>2026-04-07T12:49:12Z</time></trkpt><trkpt lat="45.724689421911236" lon="9.761613010757213"><ele>315.0</ele><time>2026-04-07T12:49:13Z</time></trkpt><trkpt lat="45.7247352120956" lon="9.761539173455265"><ele>315.0</ele><time>2026-04-07T12:49:14Z</time></trkpt><trkpt lat="45.72478721586023" lon="9.761469522894204"><ele>315.0</ele><time>2026-04-07T12:49:15Z</time></trkpt><trkpt lat="45.72483901537503" lon="9.7614046730024"><ele>315.0</ele><time>2026-04-07T12:49:16Z</time></trkpt><trkpt lat="45.72489475162187" lon="9.761346537181657"><ele>315.0</ele><time>2026-04-07T12:49:17Z</time></trkpt><trkpt lat="45.724953762044116" lon="9.761295366538022"><ele>315.0</ele><time>2026-04-07T12:49:18Z</time></trkpt><trkpt lat="45.725011407174655" lon="9.761247513130163"><ele>315.0</ele><time>2026-04-07T12:49:19Z</time></trkpt><trkpt lat="45.725072789107436" lon="9.761207356379895"><ele>315.0</ele><time>2026-04-07T12:49:20Z</time></trkpt><trkpt lat="45.72513510803196" lon="9.761169374555264"><ele>315.0</ele><time>2026-04-07T12:49:21Z</time></trkpt><trkpt lat="45.72519636141477" lon="9.761129121177992"><ele>315.0</ele><time>2026-04-07T12:49:22Z</time></trkpt><trkpt lat="45.7252570007118" lon="9.761089210361813"><ele>315.0</ele><time>2026-04-07T12:49:23Z</time></trkpt><trkpt lat="45.72531856402195" lon="9.76105187238761"><ele>315.0</ele><time>2026-04-07T12:49:24Z</time></trkpt><trkpt lat="45.72538081136895" lon="9.761017700490003"><ele>315.0</ele><time>2026-04-07T12:49:25Z</time></trkpt><trkpt lat="45.72544492265737" lon="9.760990161179516"><ele>315.0</ele><time>2026-04-07T12:49:26Z</time></trkpt><trkpt lat="45.725508379582365" lon="9.760962232935807"><ele>315.0</ele><time>2026-04-07T12:49:27Z</time></trkpt><trkpt lat="45.725570727378134" lon="9.760932753637274"><ele>314.2857142857143</ele><time>2026-04-07T12:49:28Z</time></trkpt><trkpt lat="45.725635825001135" lon="9.760909586913355"><ele>313.57142857142856</ele><time>2026-04-07T12:49:29Z</time></trkpt><trkpt lat="45.72569841630172" lon="9.760888368498962"><ele>312.8571428571429</ele><time>2026-04-07T12:49:30Z</time></trkpt><trkpt lat="45.7257608009913" lon="9.760864485973618"><ele>312.1428571428571</ele><time>2026-04-07T12:49:31Z</time></trkpt><trkpt lat="45.72582252225714" lon="9.760839445330832"><ele>311.42857142857144</ele><time>2026-04-07T12:49:32Z</time></trkpt><trkpt lat="45.725884392049146" lon="9.760814214108997"><ele>310.7142857142857</ele><time>2026-04-07T12:49:33Z</time></trkpt><trkpt lat="45.7259465443485" lon="9.760789939506093"><ele>310.0</ele><time>2026-04-07T12:49:34Z</time></trkpt><trkpt lat="45.726007890545105" lon="9.760764737229943"><ele>310.5</ele><time>2026-04-07T12:49:35Z</time></trkpt><trkpt lat="45.72606940884884" lon="9.760739747838263"><ele>311.0</ele><time>2026-04-07T12:49:36Z</time></trkpt><trkpt lat="45.72613021842034" lon="9.76071479055806"><ele>311.5</ele><time>2026-04-07T12:49:37Z</time></trkpt><trkpt lat="45.726191265023736" lon="9.760687463649834"><ele>312.0</ele><time>2026-04-07T12:49:38Z</time></trkpt><trkpt lat="45.72625256989658" lon="9.760662135552575"><ele>312.5</ele><time>2026-04-07T12:49:39Z</time></trkpt><trkpt lat="45.72637232020783" lon="9.760611124338709"><ele>313.0</ele><time>2026-04-07T12:49:41Z</time></trkpt><trkpt lat="45.726486553101026" lon="9.760567808974999"><ele>313.0</ele><time>2026-04-07T12:49:43Z</time></trkpt><trkpt lat="45.72659781916417" lon="9.76052155112954"><ele>313.0</ele><time>2026-04-07T12:49:45Z</time></trkpt><trkpt lat="45.72670464094694" lon="9.76047643500346"><ele>313.0</ele><time>2026-04-07T12:49:47Z</time></trkpt><trkpt lat="45.7268095466492" lon="9.760436382622302"><ele>313.0</ele><time>2026-04-07T12:49:49Z</time></trkpt><trkpt lat="45.726912004585316" lon="9.760397981915398"><ele>313.0</ele><time>2026-04-07T12:49:51Z</time></trkpt><trkpt lat="45.72702800356205" lon="9.76037141993797"><ele>314.0</ele><time>2026-04-07T12:49:53Z</time></trkpt><trkpt lat="45.72714482834046" lon="9.760344946940414"><ele>315.0</ele><time>2026-04-07T12:49:55Z</time></trkpt><trkpt lat="45.72726415167343" lon="9.760313603445447"><ele>316.0</ele><time>2026-04-07T12:49:57Z</time></trkpt><trkpt lat="45.72738397390314" lon="9.760271196579616"><ele>317.0</ele><time>2026-04-07T12:49:59Z</time></trkpt><trkpt lat="45.727505329493994" lon="9.760216232897186"><ele>315.6</ele><time>2026-04-07T12:50:01Z</time></trkpt><trkpt lat="45.72762074549238" lon="9.760159818883064"><ele>314.2</ele><time>2026-04-07T12:50:03Z</time></trkpt><trkpt lat="45.72774034375577" lon="9.76009301734097"><ele>312.8</ele><time>2026-04-07T12:50:05Z</time></trkpt><trkpt lat="45.72786071038779" lon="9.760023333234788"><ele>311.4</ele><time>2026-04-07T12:50:07Z</time></trkpt><trkpt lat="45.727924270899344" lon="9.75999127804077"><ele>310.0</ele><time>2026-04-07T12:50:08Z</time></trkpt><trkpt lat="45.727985598544855" lon="9.759961943654986"><ele>310.0</ele><time>2026-04-07T12:50:09Z</time></trkpt><trkpt lat="45.72804817585825" lon="9.759929076790257"><ele>310.0</ele><time>2026-04-07T12:50:10Z</time></trkpt><trkpt lat="45.72810826181715" lon="9.759895285349012"><ele>310.0</ele><time>2026-04-07T12:50:11Z</time></trkpt><trkpt lat="45.72817092291105" lon="9.759863331626093"><ele>310.0</ele><time>2026-04-07T12:50:12Z</time></trkpt><trkpt lat="45.728235199484736" lon="9.759833049711897"><ele>310.0</ele><time>2026-04-07T12:50:13Z</time></trkpt><trkpt lat="45.72829793645427" lon="9.759801344742105"><ele>310.0</ele><time>2026-04-07T12:50:14Z</time></trkpt><trkpt lat="45.728359675471324" lon="9.759766331273228"><ele>310.0</ele><time>2026-04-07T12:50:15Z</time></trkpt><trkpt lat="45.72842308043114" lon="9.759734837030447"><ele>310.0</ele><time>2026-04-07T12:50:16Z</time></trkpt><trkpt lat="45.72848630233098" lon="9.759701755435787"><ele>310.0</ele><time>2026-04-07T12:50:17Z</time></trkpt><trkpt lat="45.728548387968054" lon="9.759666451316216"><ele>310.0</ele><time>2026-04-07T12:50:18Z</time></trkpt><trkpt lat="45.728609468958396" lon="9.759634906512686"><ele>310.0</ele><time>2026-04-07T12:50:19Z</time></trkpt><trkpt lat="45.72867187243928" lon="9.759600453758752"><ele>310.0</ele><time>2026-04-07T12:50:20Z</time></trkpt><trkpt lat="45.728733442150634" lon="9.759569970849835"><ele>310.0</ele><time>2026-04-07T12:50:21Z</time></trkpt><trkpt lat="45.72879428333481" lon="9.759538974570738"><ele>310.0</ele><time>2026-04-07T12:50:22Z</time></trkpt><trkpt lat="45.72885597880425" lon="9.759506280076613"><ele>310.66666666666663</ele><time>2026-04-07T12:50:23Z</time></trkpt><trkpt lat="45.72891733837921" lon="9.75947827542927"><ele>311.3333333333333</ele><time>2026-04-07T12:50:24Z</time></trkpt><trkpt lat="45.728978188906055" lon="9.759447956249867"><ele>312.0</ele><time>2026-04-07T12:50:25Z</time></trkpt><trkpt lat="45.72904010948147" lon="9.759429861088076"><ele>312.6666666666667</ele><time>2026-04-07T12:50:26Z</time></trkpt><trkpt lat="45.7291030903765" lon="9.759415118412653"><ele>313.33333333333337</ele><time>2026-04-07T12:50:27Z</time></trkpt><trkpt lat="45.729222841667124" lon="9.75939100414045"><ele>314.0</ele><time>2026-04-07T12:50:29Z</time></trkpt><trkpt lat="45.72933338635517" lon="9.759373404430958"><ele>314.2</ele><time>2026-04-07T12:50:31Z</time></trkpt><trkpt lat="45.72943997350758" lon="9.75936964315487"><ele>314.4</ele><time>2026-04-07T12:50:33Z</time></trkpt><trkpt lat="45.72954214374661" lon="9.759368064850724"><ele>314.6</ele><time>2026-04-07T12:50:35Z</time></trkpt><trkpt lat="45.72964769601609" lon="9.759362529510685"><ele>314.8</ele><time>2026-04-07T12:50:37Z</time></trkpt><trkpt lat="45.72974975609764" lon="9.759356823795258"><ele>315.0</ele><time>2026-04-07T12:50:39Z</time></trkpt><trkpt lat="45.729854419661386" lon="9.759350884391198"><ele>313.2</ele><time>2026-04-07T12:50:41Z</time></trkpt><trkpt lat="45.729957737544154" lon="9.759336888637947"><ele>311.4</ele><time>2026-04-07T12:50:43Z</time></trkpt><trkpt lat="45.730059896068816" lon="9.759325345249728"><ele>309.6</ele><time>2026-04-07T12:50:45Z</time></trkpt><trkpt lat="45.73016401794777" lon="9.759314788653962"><ele>307.8</ele><time>2026-04-07T12:50:47Z</time></trkpt><trkpt lat="45.730272389439406" lon="9.759295966886368"><ele>306.0</ele><time>2026-04-07T12:50:49Z</time></trkpt><trkpt lat="45.73038720840932" lon="9.759282328171041"><ele>306.0</ele><time>2026-04-07T12:50:51Z</time></trkpt><trkpt lat="45.730503345983976" lon="9.759261519534009"><ele>306.0</ele><time>2026-04-07T12:50:53Z</time></trkpt><trkpt lat="45.730618461148474" lon="9.759215704499228"><ele>306.0</ele><time>2026-04-07T12:50:55Z</time></trkpt><trkpt lat="45.73073489664409" lon="9.759155842013914"><ele>306.0</ele><time>2026-04-07T12:50:57Z</time></trkpt><trkpt lat="45.730851390037394" lon="9.759087519025067"><ele>306.0</ele><time>2026-04-07T12:50:59Z</time></trkpt><trkpt lat="45.730910277169556" lon="9.75904519477077"><ele>306.0</ele><time>2026-04-07T12:51:00Z</time></trkpt><trkpt lat="45.73096898318003" lon="9.758999827459718"><ele>306.0</ele><time>2026-04-07T12:51:01Z</time></trkpt><trkpt lat="45.73102958812188" lon="9.75895148201305"><ele>306.0</ele><time>2026-04-07T12:51:02Z</time></trkpt><trkpt lat="45.73109605824647" lon="9.758910666986807"><ele>306.0</ele><time>2026-04-07T12:51:03Z</time></trkpt><trkpt lat="45.73116703826451" lon="9.75887711785304"><ele>306.0</ele><time>2026-04-07T12:51:04Z</time></trkpt><trkpt lat="45.73124087291438" lon="9.758850401660606"><ele>306.0</ele><time>2026-04-07T12:51:05Z</time></trkpt><trkpt lat="45.731312430427614" lon="9.75882591722136"><ele>306.0</ele><time>2026-04-07T12:51:06Z</time></trkpt><trkpt lat="45.7313935074528" lon="9.758757194905535"><ele>306.0</ele><time>2026-04-07T12:51:08Z</time></trkpt><trkpt lat="45.73142404150464" lon="9.758636682074798"><ele>306.0</ele><time>2026-04-07T12:51:10Z</time></trkpt><trkpt lat="45.73141155214357" lon="9.758490162924787"><ele>306.0</ele><time>2026-04-07T12:51:12Z</time></trkpt><trkpt lat="45.731420990193016" lon="9.758385328333366"><ele>306.0</ele><time>2026-04-07T12:51:14Z</time></trkpt><trkpt lat="45.73150056681117" lon="9.75831794530978"><ele>306.0</ele><time>2026-04-07T12:51:16Z</time></trkpt><trkpt lat="45.731560694796286" lon="9.758266928114791"><ele>306.0</ele><time>2026-04-07T12:51:18Z</time></trkpt><trkpt lat="45.73162329827233" lon="9.758204458020929"><ele>306.0</ele><time>2026-04-07T12:51:20Z</time></trkpt><trkpt lat="45.73168875385535" lon="9.758131601520985"><ele>306.0</ele><time>2026-04-07T12:51:23Z</time></trkpt><trkpt lat="45.73177492056588" lon="9.758112240580692"><ele>306.0</ele><time>2026-04-07T12:51:25Z</time></trkpt><trkpt lat="45.7318716456366" lon="9.758041221359427"><ele>306.0</ele><time>2026-04-07T12:51:27Z</time></trkpt><trkpt lat="45.731971820611534" lon="9.757959049678368"><ele>306.0</ele><time>2026-04-07T12:51:29Z</time></trkpt><trkpt lat="45.73207029256483" lon="9.757848927612011"><ele>306.0</ele><time>2026-04-07T12:51:31Z</time></trkpt><trkpt lat="45.73217480378336" lon="9.757757843295915"><ele>306.0</ele><time>2026-04-07T12:51:33Z</time></trkpt><trkpt lat="45.732287010139636" lon="9.757701800580088"><ele>306.0</ele><time>2026-04-07T12:51:35Z</time></trkpt><trkpt lat="45.73240339834647" lon="9.7576449336484"><ele>306.0</ele><time>2026-04-07T12:51:37Z</time></trkpt><trkpt lat="45.73246667249705" lon="9.757613502539344"><ele>306.0</ele><time>2026-04-07T12:51:38Z</time></trkpt><trkpt lat="45.73253412084466" lon="9.757586547438052"><ele>306.0</ele><time>2026-04-07T12:51:39Z</time></trkpt><trkpt lat="45.73260033437215" lon="9.757561524748347"><ele>306.0</ele><time>2026-04-07T12:51:40Z</time></trkpt><trkpt lat="45.732672625825906" lon="9.75753397223415"><ele>306.0</ele><time>2026-04-07T12:51:41Z</time></trkpt><trkpt lat="45.73274494907578" lon="9.75750456234055"><ele>306.0</ele><time>2026-04-07T12:51:42Z</time></trkpt><trkpt lat="45.73282013650846" lon="9.757476423480744"><ele>306.0</ele><time>2026-04-07T12:51:43Z</time></trkpt><trkpt lat="45.73289741631866" lon="9.757452043664582"><ele>305.3333333333333</ele><time>2026-04-07T12:51:44Z</time></trkpt><trkpt lat="45.732977529180936" lon="9.757431426369363"><ele>304.6666666666667</ele><time>2026-04-07T12:51:45Z</time></trkpt><trkpt lat="45.73306167581937" lon="9.757403749047787"><ele>304.0</ele><time>2026-04-07T12:51:46Z</time></trkpt><trkpt lat="45.73314204995096" lon="9.757364142111827"><ele>303.33333333333337</ele><time>2026-04-07T12:51:47Z</time></trkpt><trkpt lat="45.73321824614557" lon="9.757307179797136"><ele>302.6666666666667</ele><time>2026-04-07T12:51:48Z</time></trkpt><trkpt lat="45.73328690299773" lon="9.757233207604987"><ele>302.0</ele><time>2026-04-07T12:51:49Z</time></trkpt><trkpt lat="45.733341811552094" lon="9.757144624290206"><ele>302.0</ele><time>2026-04-07T12:51:50Z</time></trkpt><trkpt lat="45.733398883768984" lon="9.757065817244293"><ele>302.0</ele><time>2026-04-07T12:51:51Z</time></trkpt><trkpt lat="45.7334645162903" lon="9.757016369376787"><ele>302.0</ele><time>2026-04-07T12:51:52Z</time></trkpt><trkpt lat="45.733532304248016" lon="9.756978724133031"><ele>302.0</ele><time>2026-04-07T12:51:53Z</time></trkpt><trkpt lat="45.73359138300843" lon="9.756936560280273"><ele>302.0</ele><time>2026-04-07T12:51:54Z</time></trkpt><trkpt lat="45.733702417040284" lon="9.756859622182827"><ele>302.0</ele><time>2026-04-07T12:51:56Z</time></trkpt><trkpt lat="45.733813097524965" lon="9.756797547151704"><ele>302.0</ele><time>2026-04-07T12:51:58Z</time></trkpt><trkpt lat="45.73392374921498" lon="9.75673975395307"><ele>302.0</ele><time>2026-04-07T12:52:00Z</time></trkpt><trkpt lat="45.73402807402107" lon="9.756682811215423"><ele>302.0</ele><time>2026-04-07T12:52:02Z</time></trkpt><trkpt lat="45.73412981129535" lon="9.756625068219645"><ele>302.0</ele><time>2026-04-07T12:52:04Z</time></trkpt><trkpt lat="45.73422488264041" lon="9.75656969451858"><ele>302.0</ele><time>2026-04-07T12:52:06Z</time></trkpt><trkpt lat="45.7342967369613" lon="9.756486498831192"><ele>302.0</ele><time>2026-04-07T12:52:08Z</time></trkpt><trkpt lat="45.734322694015304" lon="9.756348235585746"><ele>302.0</ele><time>2026-04-07T12:52:10Z</time></trkpt><trkpt lat="45.73433057418259" lon="9.756210920936647"><ele>302.0</ele><time>2026-04-07T12:52:12Z</time></trkpt><trkpt lat="45.73436048782548" lon="9.756077914104976"><ele>302.0</ele><time>2026-04-07T12:52:14Z</time></trkpt><trkpt lat="45.7344607589642" lon="9.756021482154399"><ele>302.0</ele><time>2026-04-07T12:52:16Z</time></trkpt><trkpt lat="45.734556989946796" lon="9.755986973992167"><ele>300.6</ele><time>2026-04-07T12:52:18Z</time></trkpt><trkpt lat="45.73464812952687" lon="9.755950646499013"><ele>299.2</ele><time>2026-04-07T12:52:20Z</time></trkpt><trkpt lat="45.734735742297836" lon="9.755912942700638"><ele>297.8</ele><time>2026-04-07T12:52:22Z</time></trkpt><trkpt lat="45.73481988114842" lon="9.755878509674632"><ele>296.4</ele><time>2026-04-07T12:52:24Z</time></trkpt><trkpt lat="45.73490571568911" lon="9.755845519206463"><ele>295.0</ele><time>2026-04-07T12:52:26Z</time></trkpt><trkpt lat="45.734993346298225" lon="9.755826865048059"><ele>295.0</ele><time>2026-04-07T12:52:28Z</time></trkpt><trkpt lat="45.73507668776854" lon="9.755800502741595"><ele>295.0</ele><time>2026-04-07T12:52:30Z</time></trkpt><trkpt lat="45.735153273720606" lon="9.755723826666951"><ele>295.0</ele><time>2026-04-07T12:52:32Z</time></trkpt><trkpt lat="45.73521239078137" lon="9.75562856860646"><ele>295.0</ele><time>2026-04-07T12:52:34Z</time></trkpt><trkpt lat="45.73528750375091" lon="9.755556048967925"><ele>295.0</ele><time>2026-04-07T12:52:36Z</time></trkpt><trkpt lat="45.735373656954046" lon="9.755533479692708"><ele>295.0</ele><time>2026-04-07T12:52:38Z</time></trkpt><trkpt lat="45.73546469676948" lon="9.755564368967242"><ele>294.2</ele><time>2026-04-07T12:52:40Z</time></trkpt><trkpt lat="45.73556973820251" lon="9.755519386251883"><ele>293.4</ele><time>2026-04-07T12:52:42Z</time></trkpt><trkpt lat="45.735612838226764" lon="9.755451918526788"><ele>292.6</ele><time>2026-04-07T12:52:43Z</time></trkpt><trkpt lat="45.735671622801156" lon="9.755288445994776"><ele>291.8</ele><time>2026-04-07T12:52:45Z</time></trkpt><trkpt lat="45.73567049195468" lon="9.755166125881537"><ele>291.0</ele><time>2026-04-07T12:52:46Z</time></trkpt><trkpt lat="45.735635925899764" lon="9.755061665878474"><ele>290.7142857142857</ele><time>2026-04-07T12:52:47Z</time></trkpt><trkpt lat="45.7355930212325" lon="9.754979976219492"><ele>290.4285714285714</ele><time>2026-04-07T12:52:48Z</time></trkpt><trkpt lat="45.73556063523232" lon="9.754881867172315"><ele>290.1428571428571</ele><time>2026-04-07T12:52:49Z</time></trkpt><trkpt lat="45.73553000795063" lon="9.754787875641773"><ele>289.85714285714283</ele><time>2026-04-07T12:52:50Z</time></trkpt><trkpt lat="45.73550369181653" lon="9.75468926984389"><ele>289.57142857142856</ele><time>2026-04-07T12:52:51Z</time></trkpt><trkpt lat="45.73547784949359" lon="9.754592990547685"><ele>289.2857142857143</ele><time>2026-04-07T12:52:52Z</time></trkpt><trkpt lat="45.73545050884446" lon="9.754497077618419"><ele>289.0</ele><time>2026-04-07T12:52:53Z</time></trkpt><trkpt lat="45.73542357807698" lon="9.754400308923731"><ele>288.7142857142857</ele><time>2026-04-07T12:52:54Z</time></trkpt><trkpt lat="45.73539593515818" lon="9.754306412023121"><ele>288.42857142857144</ele><time>2026-04-07T12:52:55Z</time></trkpt><trkpt lat="45.73536919727462" lon="9.754214176083018"><ele>288.1428571428571</ele><time>2026-04-07T12:52:56Z</time></trkpt><trkpt lat="45.73534322998237" lon="9.754120995274327"><ele>287.8571428571429</ele><time>2026-04-07T12:52:57Z</time></trkpt><trkpt lat="45.73531428181205" lon="9.75403587474898"><ele>287.57142857142856</ele><time>2026-04-07T12:52:58Z</time></trkpt><trkpt lat="45.73528598000772" lon="9.753946747043662"><ele>287.2857142857143</ele><time>2026-04-07T12:52:59Z</time></trkpt><trkpt lat="45.73525974735778" lon="9.75386320521635"><ele>287.0</ele><time>2026-04-07T12:53:00Z</time></trkpt><trkpt lat="45.735231779301486" lon="9.753776799812837"><ele>287.57142857142856</ele><time>2026-04-07T12:53:01Z</time></trkpt><trkpt lat="45.735210317983686" lon="9.753691425711159"><ele>288.1428571428571</ele><time>2026-04-07T12:53:02Z</time></trkpt><trkpt lat="45.73518226094931" lon="9.753605439578449"><ele>288.7142857142857</ele><time>2026-04-07T12:53:03Z</time></trkpt><trkpt lat="45.73514818149195" lon="9.75352598718699"><ele>289.2857142857143</ele><time>2026-04-07T12:53:04Z</time></trkpt><trkpt lat="45.735113797039695" lon="9.753449549914476"><ele>289.85714285714283</ele><time>2026-04-07T12:53:05Z</time></trkpt><trkpt lat="45.73508380496788" lon="9.753368219210104"><ele>290.42857142857144</ele><time>2026-04-07T12:53:06Z</time></trkpt><trkpt lat="45.73501969867227" lon="9.753220259775668"><ele>291.0</ele><time>2026-04-07T12:53:08Z</time></trkpt><trkpt lat="45.734977185450745" lon="9.75308268621167"><ele>291.2</ele><time>2026-04-07T12:53:10Z</time></trkpt><trkpt lat="45.73502023321039" lon="9.752966700973072"><ele>291.40000000000003</ele><time>2026-04-07T12:53:11.999Z</time></trkpt><trkpt lat="45.73510980863178" lon="9.752918148993475"><ele>291.6</ele><time>2026-04-07T12:53:13.999Z</time></trkpt><trkpt lat="45.735191544569844" lon="9.752867756319318"><ele>291.8</ele><time>2026-04-07T12:53:15.999Z</time></trkpt><trkpt lat="45.73528304772973" lon="9.752810972942966"><ele>292.0</ele><time>2026-04-07T12:53:17.999Z</time></trkpt><trkpt lat="45.73537429032784" lon="9.752755183878012"><ele>291.6</ele><time>2026-04-07T12:53:19.999Z</time></trkpt><trkpt lat="45.735472676013835" lon="9.752693036295751"><ele>291.2</ele><time>2026-04-07T12:53:21.999Z</time></trkpt><trkpt lat="45.73557369597252" lon="9.752617407877732"><ele>290.8</ele><time>2026-04-07T12:53:24Z</time></trkpt><trkpt lat="45.735672784235355" lon="9.752546006444089"><ele>290.4</ele><time>2026-04-07T12:53:26Z</time></trkpt><trkpt lat="45.73577777370556" lon="9.752576650468749"><ele>290.0</ele><time>2026-04-07T12:53:28Z</time></trkpt><trkpt lat="45.73586932923256" lon="9.752669549069424"><ele>290.0</ele><time>2026-04-07T12:53:30Z</time></trkpt><trkpt lat="45.73598867473979" lon="9.752715380795026"><ele>290.0</ele><time>2026-04-07T12:53:32Z</time></trkpt><trkpt lat="45.736056646380106" lon="9.752712032598243"><ele>290.0</ele><time>2026-04-07T12:53:33Z</time></trkpt><trkpt lat="45.73612344780822" lon="9.752702627287208"><ele>290.0</ele><time>2026-04-07T12:53:34Z</time></trkpt><trkpt lat="45.73624335077266" lon="9.75269971905945"><ele>290.0</ele><time>2026-04-07T12:53:36Z</time></trkpt><trkpt lat="45.73623351279459" lon="9.752602440292389"><ele>290.0</ele><time>2026-04-07T12:53:38Z</time></trkpt><trkpt lat="45.73619531504059" lon="9.752468876138531"><ele>290.2</ele><time>2026-04-07T12:53:40Z</time></trkpt><trkpt lat="45.736196938772956" lon="9.752329221878643"><ele>290.4</ele><time>2026-04-07T12:53:42Z</time></trkpt><trkpt lat="45.73619650613125" lon="9.752192286088903"><ele>290.6</ele><time>2026-04-07T12:53:44Z</time></trkpt><trkpt lat="45.73619411150836" lon="9.752056926175412"><ele>290.8</ele><time>2026-04-07T12:53:46Z</time></trkpt><trkpt lat="45.73618804038272" lon="9.75191637568531"><ele>291.0</ele><time>2026-04-07T12:53:48Z</time></trkpt><trkpt lat="45.73617624519083" lon="9.751778442613704"><ele>290.6</ele><time>2026-04-07T12:53:50Z</time></trkpt><trkpt lat="45.7361728026227" lon="9.75163335177727"><ele>290.20000000000005</ele><time>2026-04-07T12:53:52Z</time></trkpt><trkpt lat="45.73615638086513" lon="9.751496536446329"><ele>289.79999999999995</ele><time>2026-04-07T12:53:54Z</time></trkpt><trkpt lat="45.73614595869906" lon="9.751356698704704"><ele>289.4</ele><time>2026-04-07T12:53:56Z</time></trkpt><trkpt lat="45.73613304687308" lon="9.751218260797637"><ele>289.0</ele><time>2026-04-07T12:53:58Z</time></trkpt><trkpt lat="45.73611482624071" lon="9.751078771714463"><ele>289.0</ele><time>2026-04-07T12:54:00Z</time></trkpt><trkpt lat="45.73609416749528" lon="9.750941382611154"><ele>289.0</ele><time>2026-04-07T12:54:02Z</time></trkpt><trkpt lat="45.73606025082861" lon="9.750816765687194"><ele>289.0</ele><time>2026-04-07T12:54:04Z</time></trkpt><trkpt lat="45.73602725841815" lon="9.750694745866458"><ele>289.0</ele><time>2026-04-07T12:54:06Z</time></trkpt><trkpt lat="45.73599836718228" lon="9.750580868264777"><ele>289.0</ele><time>2026-04-07T12:54:08Z</time></trkpt><trkpt lat="45.73596814047446" lon="9.75047689523153"><ele>289.0</ele><time>2026-04-07T12:54:10Z</time></trkpt><trkpt lat="45.73596284237223" lon="9.750369263755683"><ele>289.0</ele><time>2026-04-07T12:54:12Z</time></trkpt><trkpt lat="45.736001295278626" lon="9.750276598394663"><ele>289.0</ele><time>2026-04-07T12:54:14Z</time></trkpt><trkpt lat="45.73605703328056" lon="9.750227746920732"><ele>289.0</ele><time>2026-04-07T12:54:16Z</time></trkpt><trkpt lat="45.73614784846896" lon="9.75018133567638"><ele>289.0</ele><time>2026-04-07T12:54:19Z</time></trkpt><trkpt lat="45.73622091267082" lon="9.750148076945008"><ele>289.0</ele><time>2026-04-07T12:54:21Z</time></trkpt><trkpt lat="45.73627695031183" lon="9.75009701518266"><ele>289.0</ele><time>2026-04-07T12:54:23Z</time></trkpt><trkpt lat="45.73634511714347" lon="9.750043989328372"><ele>289.42857142857144</ele><time>2026-04-07T12:54:25Z</time></trkpt><trkpt lat="45.736429450446224" lon="9.749975320681955"><ele>289.85714285714283</ele><time>2026-04-07T12:54:27Z</time></trkpt><trkpt lat="45.73648375746408" lon="9.749899411847927"><ele>290.2857142857143</ele><time>2026-04-07T12:54:29Z</time></trkpt><trkpt lat="45.736508512674135" lon="9.749811921726259"><ele>290.7142857142857</ele><time>2026-04-07T12:54:33Z</time></trkpt><trkpt lat="45.73657030553533" lon="9.749786407190845"><ele>291.14285714285717</ele><time>2026-04-07T12:54:36Z</time></trkpt><trkpt lat="45.73663337287261" lon="9.749768499099192"><ele>291.57142857142856</ele><time>2026-04-07T12:54:38Z</time></trkpt><trkpt lat="45.73671367552212" lon="9.749782857606633"><ele>292.0</ele><time>2026-04-07T12:54:40Z</time></trkpt><trkpt lat="45.736795563123735" lon="9.749825794218028"><ele>292.0</ele><time>2026-04-07T12:54:42Z</time></trkpt><trkpt lat="45.73685599976862" lon="9.749924334877619"><ele>292.0</ele><time>2026-04-07T12:54:44Z</time></trkpt><trkpt lat="45.7369290327374" lon="9.750036198169521"><ele>292.0</ele><time>2026-04-07T12:54:46Z</time></trkpt><trkpt lat="45.73700995871621" lon="9.7501579769984"><ele>292.0</ele><time>2026-04-07T12:54:48Z</time></trkpt><trkpt lat="45.737089435724265" lon="9.75028198545837"><ele>292.0</ele><time>2026-04-07T12:54:50Z</time></trkpt><trkpt lat="45.73717147222579" lon="9.750412955650035"><ele>292.0</ele><time>2026-04-07T12:54:52Z</time></trkpt><trkpt lat="45.73726180606097" lon="9.750537844791005"><ele>292.0</ele><time>2026-04-07T12:54:54Z</time></trkpt><trkpt lat="45.73735021915188" lon="9.750672106196687"><ele>292.0</ele><time>2026-04-07T12:54:56Z</time></trkpt><trkpt lat="45.73738900055726" lon="9.750747716014859"><ele>292.0</ele><time>2026-04-07T12:54:57Z</time></trkpt><trkpt lat="45.73746974450924" lon="9.750891679066257"><ele>292.0</ele><time>2026-04-07T12:54:59Z</time></trkpt><trkpt lat="45.73755700306747" lon="9.751020224770931"><ele>292.0</ele><time>2026-04-07T12:55:01Z</time></trkpt><trkpt lat="45.73763753746817" lon="9.751151721477234"><ele>292.0</ele><time>2026-04-07T12:55:03Z</time></trkpt><trkpt lat="45.73771024170817" lon="9.751275843118528"><ele>292.0</ele><time>2026-04-07T12:55:05Z</time></trkpt><trkpt lat="45.737777783262075" lon="9.751397204430221"><ele>292.0</ele><time>2026-04-07T12:55:07Z</time></trkpt><trkpt lat="45.737828463967254" lon="9.751526685346992"><ele>292.0</ele><time>2026-04-07T12:55:09Z</time></trkpt><trkpt lat="45.73787515939284" lon="9.75164923826341"><ele>292.5</ele><time>2026-04-07T12:55:11Z</time></trkpt><trkpt lat="45.73791834715931" lon="9.75177817227569"><ele>293.0</ele><time>2026-04-07T12:55:13Z</time></trkpt><trkpt lat="45.73797408611785" lon="9.751933633883871"><ele>293.5</ele><time>2026-04-07T12:55:15Z</time></trkpt><trkpt lat="45.738033919335585" lon="9.752087467633595"><ele>294.0</ele><time>2026-04-07T12:55:17Z</time></trkpt><trkpt lat="45.73808825511866" lon="9.752244029163187"><ele>294.2</ele><time>2026-04-07T12:55:19Z</time></trkpt><trkpt lat="45.7381438424587" lon="9.752402171573213"><ele>294.4</ele><time>2026-04-07T12:55:21Z</time></trkpt><trkpt lat="45.73816823770655" lon="9.752490911529252"><ele>294.6</ele><time>2026-04-07T12:55:22Z</time></trkpt><trkpt lat="45.73821549659769" lon="9.752656100679792"><ele>294.8</ele><time>2026-04-07T12:55:24Z</time></trkpt><trkpt lat="45.738235332853826" lon="9.75274467669774"><ele>295.0</ele><time>2026-04-07T12:55:25Z</time></trkpt><trkpt lat="45.73826608691788" lon="9.752919435542378"><ele>295.0</ele><time>2026-04-07T12:55:27Z</time></trkpt><trkpt lat="45.738294055641745" lon="9.753087363830513"><ele>295.0</ele><time>2026-04-07T12:55:28.999Z</time></trkpt><trkpt lat="45.738316933311836" lon="9.753246354087388"><ele>295.0</ele><time>2026-04-07T12:55:31Z</time></trkpt><trkpt lat="45.73833699402299" lon="9.753400715848137"><ele>295.0</ele><time>2026-04-07T12:55:33Z</time></trkpt><trkpt lat="45.7383513135044" lon="9.753548160782996"><ele>295.0</ele><time>2026-04-07T12:55:35Z</time></trkpt><trkpt lat="45.73837122897817" lon="9.753690416676386"><ele>295.3333333333333</ele><time>2026-04-07T12:55:37Z</time></trkpt><trkpt lat="45.73841918766844" lon="9.753814123102906"><ele>295.66666666666663</ele><time>2026-04-07T12:55:39Z</time></trkpt><trkpt lat="45.73849708542182" lon="9.75389262726104"><ele>296.0</ele><time>2026-04-07T12:55:41Z</time></trkpt><trkpt lat="45.738580458881074" lon="9.753921131126436"><ele>296.3333333333333</ele><time>2026-04-07T12:55:43Z</time></trkpt><trkpt lat="45.73865909417925" lon="9.753926134338"><ele>296.6666666666667</ele><time>2026-04-07T12:55:45Z</time></trkpt><trkpt lat="45.73873026272863" lon="9.753922040395334"><ele>297.0</ele><time>2026-04-07T12:55:47Z</time></trkpt><trkpt lat="45.73879665576665" lon="9.75393094917192"><ele>297.5</ele><time>2026-04-07T12:55:49Z</time></trkpt><trkpt lat="45.738886918080205" lon="9.75392835989946"><ele>298.0</ele><time>2026-04-07T12:55:52Z</time></trkpt><trkpt lat="45.73897016620232" lon="9.753917472469663"><ele>298.5</ele><time>2026-04-07T12:55:55Z</time></trkpt><trkpt lat="45.73904852799694" lon="9.753901522133832"><ele>299.0</ele><time>2026-04-07T12:55:58Z</time></trkpt><trkpt lat="45.73911159667651" lon="9.7538151831937"><ele>299.5</ele><time>2026-04-07T12:56:01Z</time></trkpt><trkpt lat="45.73919501188164" lon="9.753786925571202"><ele>300.0</ele><time>2026-04-07T12:56:05Z</time></trkpt><trkpt lat="45.739276415014224" lon="9.75376477380898"><ele>299.99999999999994</ele><time>2026-04-07T12:56:08Z</time></trkpt><trkpt lat="45.73936233262123" lon="9.753786019275456"><ele>300.0</ele><time>2026-04-07T12:56:11Z</time></trkpt><trkpt lat="45.73943186293358" lon="9.75378792452703"><ele>300.0</ele><time>2026-04-07T12:56:14Z</time></trkpt><trkpt lat="45.73949649462288" lon="9.75374991052375"><ele>300.0</ele><time>2026-04-07T12:56:17Z</time></trkpt><trkpt lat="45.739559851590066" lon="9.753752619720956"><ele>300.0</ele><time>2026-04-07T12:56:20Z</time></trkpt><trkpt lat="45.73964113155272" lon="9.753726180726183"><ele>299.99999999999994</ele><time>2026-04-07T12:56:24Z</time></trkpt><trkpt lat="45.73971203757774" lon="9.753723897095075"><ele>300.0</ele><time>2026-04-07T12:56:27Z</time></trkpt><trkpt lat="45.739777942679964" lon="9.753712494429212"><ele>300.5</ele><time>2026-04-07T12:56:30Z</time></trkpt><trkpt lat="45.73986137661705" lon="9.753690220208055"><ele>301.0</ele><time>2026-04-07T12:56:34Z</time></trkpt><trkpt lat="45.73992772439305" lon="9.75365101854947"><ele>301.5</ele><time>2026-04-07T12:56:37Z</time></trkpt><trkpt lat="45.739942118709955" lon="9.753537277202796"><ele>302.0</ele><time>2026-04-07T12:56:40Z</time></trkpt><trkpt lat="45.73993284125807" lon="9.753445024216825"><ele>302.5</ele><time>2026-04-07T12:56:42Z</time></trkpt><trkpt lat="45.73991519224504" lon="9.753340765592414"><ele>303.0</ele><time>2026-04-07T12:56:44Z</time></trkpt><trkpt lat="45.739896023672955" lon="9.753232630368952"><ele>303.0</ele><time>2026-04-07T12:56:46Z</time></trkpt><trkpt lat="45.739873924239795" lon="9.753125911117175"><ele>303.0</ele><time>2026-04-07T12:56:48Z</time></trkpt><trkpt lat="45.73986030777704" lon="9.753018370759575"><ele>303.0</ele><time>2026-04-07T12:56:50Z</time></trkpt><trkpt lat="45.739840962611574" lon="9.75290903149318"><ele>303.0</ele><time>2026-04-07T12:56:52Z</time></trkpt><trkpt lat="45.7398197414816" lon="9.752799557460314"><ele>303.0</ele><time>2026-04-07T12:56:54Z</time></trkpt><trkpt lat="45.73979767022865" lon="9.752689469913289"><ele>303.0</ele><time>2026-04-07T12:56:56Z</time></trkpt><trkpt lat="45.73977804209863" lon="9.752575196754938"><ele>303.14285714285717</ele><time>2026-04-07T12:56:58Z</time></trkpt><trkpt lat="45.739768693581546" lon="9.752462209509938"><ele>303.2857142857143</ele><time>2026-04-07T12:57:00Z</time></trkpt><trkpt lat="45.73977139557465" lon="9.752349413941191"><ele>303.42857142857144</ele><time>2026-04-07T12:57:02Z</time></trkpt><trkpt lat="45.73977539188894" lon="9.752239276347039"><ele>303.57142857142856</ele><time>2026-04-07T12:57:04Z</time></trkpt><trkpt lat="45.739779159400236" lon="9.752132367192074"><ele>303.7142857142857</ele><time>2026-04-07T12:57:06Z</time></trkpt><trkpt lat="45.73979009511979" lon="9.752037844919938"><ele>303.85714285714283</ele><time>2026-04-07T12:57:08Z</time></trkpt><trkpt lat="45.7397743860238" lon="9.751944460522001"><ele>304.0</ele><time>2026-04-07T12:57:11Z</time></trkpt><trkpt lat="45.739769019768666" lon="9.75204772879677"><ele>304.0</ele><time>2026-04-07T13:02:25Z</time></trkpt><trkpt lat="45.739760175611835" lon="9.752183456376445"><ele>304.0</ele><time>2026-04-07T13:02:28Z</time></trkpt><trkpt lat="45.739758795210015" lon="9.752278294966361"><ele>304.0</ele><time>2026-04-07T13:02:30Z</time></trkpt><trkpt lat="45.73975206217367" lon="9.752372263444409"><ele>304.0</ele><time>2026-04-07T13:02:32Z</time></trkpt><trkpt lat="45.73974058504703" lon="9.75246785376464"><ele>304.0</ele><time>2026-04-07T13:02:34Z</time></trkpt><trkpt lat="45.739753026988765" lon="9.752560860943454"><ele>304.0</ele><time>2026-04-07T13:02:36Z</time></trkpt><trkpt lat="45.73978148472658" lon="9.752683251508524"><ele>303.8333333333333</ele><time>2026-04-07T13:02:39Z</time></trkpt><trkpt lat="45.73979739936879" lon="9.752815222291076"><ele>303.66666666666663</ele><time>2026-04-07T13:02:42Z</time></trkpt><trkpt lat="45.73981289643544" lon="9.752916833876743"><ele>303.5</ele><time>2026-04-07T13:02:44Z</time></trkpt><trkpt lat="45.739833791290714" lon="9.753033754158833"><ele>303.3333333333333</ele><time>2026-04-07T13:02:46Z</time></trkpt><trkpt lat="45.73986550617207" lon="9.753159706932689"><ele>303.1666666666667</ele><time>2026-04-07T13:02:48Z</time></trkpt><trkpt lat="45.739896468356456" lon="9.753277051672592"><ele>303.0</ele><time>2026-04-07T13:02:50Z</time></trkpt><trkpt lat="45.73993034599013" lon="9.753378478674858"><ele>303.0</ele><time>2026-04-07T13:02:52Z</time></trkpt><trkpt lat="45.739954273315576" lon="9.753492922303487"><ele>303.0</ele><time>2026-04-07T13:02:54Z</time></trkpt><trkpt lat="45.739965641451185" lon="9.75358955913068"><ele>303.0</ele><time>2026-04-07T13:02:56Z</time></trkpt><trkpt lat="45.73993600046245" lon="9.753702049382634"><ele>303.0</ele><time>2026-04-07T13:02:59Z</time></trkpt><trkpt lat="45.739840725537704" lon="9.753730667649211"><ele>303.0</ele><time>2026-04-07T13:03:01Z</time></trkpt><trkpt lat="45.739729518485795" lon="9.75374948166746"><ele>303.0</ele><time>2026-04-07T13:03:03Z</time></trkpt><trkpt lat="45.73961782220166" lon="9.753764435301626"><ele>303.1666666666667</ele><time>2026-04-07T13:03:05Z</time></trkpt><trkpt lat="45.73950752569069" lon="9.75377388113844"><ele>303.3333333333333</ele><time>2026-04-07T13:03:07Z</time></trkpt><trkpt lat="45.739441939736444" lon="9.753780628719664"><ele>303.5</ele><time>2026-04-07T13:03:08Z</time></trkpt><trkpt lat="45.739377841250956" lon="9.753791155312236"><ele>303.66666666666663</ele><time>2026-04-07T13:03:09Z</time></trkpt><trkpt lat="45.73931042438192" lon="9.753803248071074"><ele>303.8333333333333</ele><time>2026-04-07T13:03:10Z</time></trkpt><trkpt lat="45.73923725702181" lon="9.753815203134183"><ele>304.0</ele><time>2026-04-07T13:03:11Z</time></trkpt><trkpt lat="45.73916712199402" lon="9.753823322134544"><ele>303.3333333333333</ele><time>2026-04-07T13:03:12Z</time></trkpt><trkpt lat="45.739097439419744" lon="9.753838326396501"><ele>302.66666666666663</ele><time>2026-04-07T13:03:13Z</time></trkpt><trkpt lat="45.7390198349387" lon="9.75384386585897"><ele>302.0</ele><time>2026-04-07T13:03:14Z</time></trkpt><trkpt lat="45.73894257805558" lon="9.753839291488392"><ele>301.3333333333333</ele><time>2026-04-07T13:03:15Z</time></trkpt><trkpt lat="45.738863622192085" lon="9.753841380626108"><ele>300.6666666666667</ele><time>2026-04-07T13:03:16Z</time></trkpt><trkpt lat="45.738785017579964" lon="9.753846301439939"><ele>300.0</ele><time>2026-04-07T13:03:17Z</time></trkpt><trkpt lat="45.73870337069825" lon="9.753850515805816"><ele>300.0</ele><time>2026-04-07T13:03:18Z</time></trkpt><trkpt lat="45.73862049310648" lon="9.753853881777902"><ele>300.0</ele><time>2026-04-07T13:03:19Z</time></trkpt><trkpt lat="45.73854027501669" lon="9.753851488930641"><ele>300.0</ele><time>2026-04-07T13:03:20Z</time></trkpt><trkpt lat="45.73846736223761" lon="9.75381267058632"><ele>300.0</ele><time>2026-04-07T13:03:21Z</time></trkpt><trkpt lat="45.73841218803388" lon="9.753726578286274"><ele>300.0</ele><time>2026-04-07T13:03:22Z</time></trkpt><trkpt lat="45.7383892771177" lon="9.753613725116157"><ele>300.0</ele><time>2026-04-07T13:03:23Z</time></trkpt><trkpt lat="45.73838981744549" lon="9.753500069225217"><ele>299.1666666666667</ele><time>2026-04-07T13:03:24Z</time></trkpt><trkpt lat="45.738383253586704" lon="9.753398949328915"><ele>298.3333333333333</ele><time>2026-04-07T13:03:25Z</time></trkpt><trkpt lat="45.73837298965024" lon="9.753303673264554"><ele>297.5</ele><time>2026-04-07T13:03:26Z</time></trkpt><trkpt lat="45.738357512769234" lon="9.753214217006128"><ele>296.66666666666663</ele><time>2026-04-07T13:03:27Z</time></trkpt><trkpt lat="45.73834347281945" lon="9.753121455124731"><ele>295.8333333333333</ele><time>2026-04-07T13:03:28Z</time></trkpt><trkpt lat="45.73831896534265" lon="9.752941860351953"><ele>295.0</ele><time>2026-04-07T13:03:30Z</time></trkpt><trkpt lat="45.73830803614702" lon="9.752851682758306"><ele>295.0</ele><time>2026-04-07T13:03:31Z</time></trkpt><trkpt lat="45.73827634532623" lon="9.752676033712365"><ele>295.0</ele><time>2026-04-07T13:03:33Z</time></trkpt><trkpt lat="45.73825814430407" lon="9.752588175709194"><ele>295.0</ele><time>2026-04-07T13:03:34Z</time></trkpt><trkpt lat="45.73823128003837" lon="9.75250550074206"><ele>295.0</ele><time>2026-04-07T13:03:35Z</time></trkpt><trkpt lat="45.7381767994681" lon="9.752342086817466"><ele>295.0</ele><time>2026-04-07T13:03:37Z</time></trkpt><trkpt lat="45.73815053506717" lon="9.752257254799318"><ele>295.0</ele><time>2026-04-07T13:03:37.999Z</time></trkpt><trkpt lat="45.73812109622515" lon="9.752174420915699"><ele>295.0</ele><time>2026-04-07T13:03:38.999Z</time></trkpt><trkpt lat="45.73809020672355" lon="9.752093903277668"><ele>295.0</ele><time>2026-04-07T13:03:39.999Z</time></trkpt><trkpt lat="45.73806312405216" lon="9.752012379663691"><ele>295.0</ele><time>2026-04-07T13:03:40.999Z</time></trkpt><trkpt lat="45.738035340954774" lon="9.751928747154613"><ele>295.0</ele><time>2026-04-07T13:03:41.999Z</time></trkpt><trkpt lat="45.73800392121847" lon="9.751850416898602"><ele>295.0</ele><time>2026-04-07T13:03:42.999Z</time></trkpt><trkpt lat="45.737946954107706" lon="9.751688577513056"><ele>295.0</ele><time>2026-04-07T13:03:44.999Z</time></trkpt><trkpt lat="45.73788362132239" lon="9.751534526901256"><ele>294.75</ele><time>2026-04-07T13:03:46.999Z</time></trkpt><trkpt lat="45.737821654059346" lon="9.7513813770026"><ele>294.5</ele><time>2026-04-07T13:03:48.999Z</time></trkpt><trkpt lat="45.73775741253439" lon="9.751242028931825"><ele>294.25</ele><time>2026-04-07T13:03:50.999Z</time></trkpt><trkpt lat="45.73768215929429" lon="9.751111091484843"><ele>294.0</ele><time>2026-04-07T13:03:52.999Z</time></trkpt><trkpt lat="45.73760972898979" lon="9.750994240384191"><ele>293.6666666666667</ele><time>2026-04-07T13:03:55Z</time></trkpt><trkpt lat="45.7375459786599" lon="9.750875842482635"><ele>293.3333333333333</ele><time>2026-04-07T13:03:57Z</time></trkpt><trkpt lat="45.73748120687591" lon="9.750764368533327"><ele>293.0</ele><time>2026-04-07T13:03:59Z</time></trkpt><trkpt lat="45.73744614218504" lon="9.750681594662625"><ele>292.66666666666663</ele><time>2026-04-07T13:04:01Z</time></trkpt><trkpt lat="45.737373274139024" lon="9.750616390974733"><ele>292.3333333333333</ele><time>2026-04-07T13:07:05Z</time></trkpt><trkpt lat="45.73730892808218" lon="9.750540039897096"><ele>292.0</ele><time>2026-04-07T13:07:07Z</time></trkpt><trkpt lat="45.7372505452979" lon="9.75044622943706"><ele>292.0</ele><time>2026-04-07T13:07:09Z</time></trkpt><trkpt lat="45.737184868632596" lon="9.75033972717688"><ele>292.0</ele><time>2026-04-07T13:07:11Z</time></trkpt><trkpt lat="45.73712033917504" lon="9.750246115327633"><ele>292.0</ele><time>2026-04-07T13:07:13Z</time></trkpt><trkpt lat="45.73706662400678" lon="9.750156318850808"><ele>292.0</ele><time>2026-04-07T13:07:15Z</time></trkpt><trkpt lat="45.73700852363494" lon="9.750074583511008"><ele>292.0</ele><time>2026-04-07T13:07:17Z</time></trkpt><trkpt lat="45.73695813956887" lon="9.749996357761145"><ele>292.0</ele><time>2026-04-07T13:07:19Z</time></trkpt><trkpt lat="45.7368999206336" lon="9.749901373700284"><ele>292.0</ele><time>2026-04-07T13:07:22Z</time></trkpt><trkpt lat="45.736834085523654" lon="9.749809261926353"><ele>292.0</ele><time>2026-04-07T13:07:25Z</time></trkpt><trkpt lat="45.73679722941673" lon="9.749714017352378"><ele>292.0</ele><time>2026-04-07T13:07:27Z</time></trkpt><trkpt lat="45.73678619008212" lon="9.749589145341893"><ele>292.0</ele><time>2026-04-07T13:07:29Z</time></trkpt><trkpt lat="45.736744446599864" lon="9.749450485205106"><ele>292.0</ele><time>2026-04-07T13:07:31Z</time></trkpt><trkpt lat="45.73663046287901" lon="9.749413286027412"><ele>292.0</ele><time>2026-04-07T13:07:33Z</time></trkpt><trkpt lat="45.736550045830136" lon="9.749511484065478"><ele>292.0</ele><time>2026-04-07T13:07:35Z</time></trkpt><trkpt lat="45.736515772004786" lon="9.749658288528439"><ele>292.0</ele><time>2026-04-07T13:07:37Z</time></trkpt><trkpt lat="45.73646839703621" lon="9.749758797832436"><ele>292.0</ele><time>2026-04-07T13:07:39Z</time></trkpt><trkpt lat="45.73637899499796" lon="9.749807655562607"><ele>292.0</ele><time>2026-04-07T13:07:41Z</time></trkpt><trkpt lat="45.73628285512987" lon="9.74985591431117"><ele>292.0</ele><time>2026-04-07T13:07:43Z</time></trkpt><trkpt lat="45.736220361476974" lon="9.749901705939596"><ele>292.0</ele><time>2026-04-07T13:07:44Z</time></trkpt><trkpt lat="45.73615989007468" lon="9.749939502623693"><ele>292.0</ele><time>2026-04-07T13:07:45Z</time></trkpt><trkpt lat="45.73609610468076" lon="9.749974240892541"><ele>292.0</ele><time>2026-04-07T13:07:46Z</time></trkpt><trkpt lat="45.73603522998327" lon="9.750019971702296"><ele>292.0</ele><time>2026-04-07T13:07:47Z</time></trkpt><trkpt lat="45.735971855532284" lon="9.750075456454"><ele>292.0</ele><time>2026-04-07T13:07:48Z</time></trkpt><trkpt lat="45.73591754179786" lon="9.750136892352915"><ele>292.0</ele><time>2026-04-07T13:07:49Z</time></trkpt><trkpt lat="45.73586410356345" lon="9.750203686116853"><ele>291.57142857142856</ele><time>2026-04-07T13:07:50Z</time></trkpt><trkpt lat="45.73581477191615" lon="9.750275664351822"><ele>291.14285714285717</ele><time>2026-04-07T13:07:51Z</time></trkpt><trkpt lat="45.735769717133024" lon="9.75035297008726"><ele>290.7142857142857</ele><time>2026-04-07T13:07:52Z</time></trkpt><trkpt lat="45.735726719224196" lon="9.750426467940908"><ele>290.2857142857143</ele><time>2026-04-07T13:07:53Z</time></trkpt><trkpt lat="45.73568181492833" lon="9.75050106652917"><ele>289.85714285714283</ele><time>2026-04-07T13:07:54Z</time></trkpt><trkpt lat="45.73563239843168" lon="9.750572306324045"><ele>289.42857142857144</ele><time>2026-04-07T13:07:55Z</time></trkpt><trkpt lat="45.7355831203593" lon="9.750646937868522"><ele>289.0</ele><time>2026-04-07T13:07:56Z</time></trkpt><trkpt lat="45.73553944420405" lon="9.75072012496688"><ele>289.0</ele><time>2026-04-07T13:07:57Z</time></trkpt><trkpt lat="45.735492240879225" lon="9.750784956507761"><ele>289.0</ele><time>2026-04-07T13:07:58Z</time></trkpt><trkpt lat="45.73539462546317" lon="9.750895279810043"><ele>289.0</ele><time>2026-04-07T13:07:59.999Z</time></trkpt><trkpt lat="45.73529637734308" lon="9.750981967447911"><ele>289.0</ele><time>2026-04-07T13:08:01.999Z</time></trkpt><trkpt lat="45.73520566142107" lon="9.751053629220609"><ele>289.0</ele><time>2026-04-07T13:08:03.999Z</time></trkpt><trkpt lat="45.73511751676339" lon="9.751120081921057"><ele>289.0</ele><time>2026-04-07T13:08:06Z</time></trkpt><trkpt lat="45.735023625370516" lon="9.751184418840186"><ele>289.0</ele><time>2026-04-07T13:08:08Z</time></trkpt><trkpt lat="45.734934371974575" lon="9.751241540971035"><ele>289.0</ele><time>2026-04-07T13:08:10Z</time></trkpt><trkpt lat="45.734836990719074" lon="9.751300665537721"><ele>289.0</ele><time>2026-04-07T13:08:12Z</time></trkpt><trkpt lat="45.73473911178788" lon="9.751345255964125"><ele>289.0</ele><time>2026-04-07T13:08:14Z</time></trkpt><trkpt lat="45.734645480079685" lon="9.751392963615753"><ele>289.0</ele><time>2026-04-07T13:08:16Z</time></trkpt><trkpt lat="45.73454673420078" lon="9.75143620480852"><ele>289.0</ele><time>2026-04-07T13:08:18Z</time></trkpt><trkpt lat="45.73445383098698" lon="9.751502397647826"><ele>289.0</ele><time>2026-04-07T13:08:20Z</time></trkpt><trkpt lat="45.734413654840786" lon="9.751645840048498"><ele>289.0</ele><time>2026-04-07T13:08:22Z</time></trkpt><trkpt lat="45.7344477063932" lon="9.751797922752607"><ele>289.0</ele><time>2026-04-07T13:08:24Z</time></trkpt><trkpt lat="45.73447246897951" lon="9.75194229039377"><ele>289.2</ele><time>2026-04-07T13:08:26Z</time></trkpt><trkpt lat="45.73450355991874" lon="9.75209519927841"><ele>289.4</ele><time>2026-04-07T13:08:28Z</time></trkpt><trkpt lat="45.734526838698876" lon="9.752233333441307"><ele>289.6</ele><time>2026-04-07T13:08:30Z</time></trkpt><trkpt lat="45.7345459134895" lon="9.752365151019884"><ele>289.8</ele><time>2026-04-07T13:08:32Z</time></trkpt><trkpt lat="45.73455658405098" lon="9.752494394521673"><ele>290.0</ele><time>2026-04-07T13:08:34Z</time></trkpt><trkpt lat="45.734563813987144" lon="9.75263070142999"><ele>290.4</ele><time>2026-04-07T13:08:36Z</time></trkpt><trkpt lat="45.734572993906276" lon="9.752765001297286"><ele>290.8</ele><time>2026-04-07T13:08:38Z</time></trkpt><trkpt lat="45.734581985568006" lon="9.752893920846983"><ele>291.2</ele><time>2026-04-07T13:08:40Z</time></trkpt><trkpt lat="45.73458538930082" lon="9.753034592510701"><ele>291.6</ele><time>2026-04-07T13:08:42Z</time></trkpt><trkpt lat="45.73458853313115" lon="9.753166425710248"><ele>292.0</ele><time>2026-04-07T13:08:44Z</time></trkpt><trkpt lat="45.734586157289264" lon="9.753296812187944"><ele>292.0</ele><time>2026-04-07T13:08:46Z</time></trkpt><trkpt lat="45.73458984874025" lon="9.753431729747717"><ele>292.0</ele><time>2026-04-07T13:08:48Z</time></trkpt><trkpt lat="45.73458877587588" lon="9.753567755928005"><ele>292.0</ele><time>2026-04-07T13:08:50Z</time></trkpt><trkpt lat="45.73459107860814" lon="9.75370143043047"><ele>292.0</ele><time>2026-04-07T13:08:52Z</time></trkpt><trkpt lat="45.734593697320975" lon="9.753830137381753"><ele>292.0</ele><time>2026-04-07T13:08:54Z</time></trkpt><trkpt lat="45.734595432858995" lon="9.753952823130716"><ele>291.8333333333333</ele><time>2026-04-07T13:08:56Z</time></trkpt><trkpt lat="45.73459560427904" lon="9.754068876209148"><ele>291.66666666666663</ele><time>2026-04-07T13:08:58Z</time></trkpt><trkpt lat="45.7346016794478" lon="9.754179958542554"><ele>291.5</ele><time>2026-04-07T13:09:00Z</time></trkpt><trkpt lat="45.73461803371221" lon="9.754308865850929"><ele>291.3333333333333</ele><time>2026-04-07T13:09:03Z</time></trkpt><trkpt lat="45.73465762307646" lon="9.754414726664523"><ele>291.1666666666667</ele><time>2026-04-07T13:09:06Z</time></trkpt><trkpt lat="45.73472662740364" lon="9.754346768403465"><ele>291.0</ele><time>2026-04-07T13:09:08Z</time></trkpt><trkpt lat="45.7347694626836" lon="9.754280326007786"><ele>291.0</ele><time>2026-04-07T13:09:10Z</time></trkpt><trkpt lat="45.734826278650644" lon="9.754357007966009"><ele>291.0</ele><time>2026-04-07T13:09:13Z</time></trkpt><trkpt lat="45.734833673925415" lon="9.754450459946689"><ele>291.0</ele><time>2026-04-07T13:09:15Z</time></trkpt><trkpt lat="45.734828002593474" lon="9.754569920815028"><ele>291.0</ele><time>2026-04-07T13:09:18Z</time></trkpt><trkpt lat="45.73478120669755" lon="9.75468444682911"><ele>291.0</ele><time>2026-04-07T13:09:21Z</time></trkpt><trkpt lat="45.73475900880284" lon="9.754575750418164"><ele>291.0</ele><time>2026-04-07T13:09:24Z</time></trkpt><trkpt lat="45.73485789625116" lon="9.754520690743561"><ele>291.0</ele><time>2026-04-07T13:09:26Z</time></trkpt><trkpt lat="45.734933958045715" lon="9.754538152042297"><ele>291.0</ele><time>2026-04-07T13:09:30Z</time></trkpt><trkpt lat="45.734842795898935" lon="9.75458344522279"><ele>291.0</ele><time>2026-04-07T13:10:45Z</time></trkpt><trkpt lat="45.73480129205049" lon="9.754464190817544"><ele>291.0</ele><time>2026-04-07T13:10:47Z</time></trkpt><trkpt lat="45.73481426662208" lon="9.754358536102965"><ele>291.0</ele><time>2026-04-07T13:10:50Z</time></trkpt><trkpt lat="45.734803922036065" lon="9.754257365940848"><ele>291.0</ele><time>2026-04-07T13:10:52Z</time></trkpt><trkpt lat="45.73473965207964" lon="9.754217857307859"><ele>291.0</ele><time>2026-04-07T13:10:54Z</time></trkpt><trkpt lat="45.73468453469637" lon="9.754290437188478"><ele>291.0</ele><time>2026-04-07T13:10:56Z</time></trkpt><trkpt lat="45.73466712333084" lon="9.754405717873864"><ele>291.0</ele><time>2026-04-07T13:10:58Z</time></trkpt><trkpt lat="45.734645645120686" lon="9.754506417838806"><ele>291.0</ele><time>2026-04-07T13:11:00Z</time></trkpt><trkpt lat="45.734623794233066" lon="9.754603207419628"><ele>291.0</ele><time>2026-04-07T13:11:02Z</time></trkpt><trkpt lat="45.73462856243419" lon="9.754713348650153"><ele>291.0</ele><time>2026-04-07T13:11:04Z</time></trkpt><trkpt lat="45.734639711491006" lon="9.754831099758546"><ele>291.40000000000003</ele><time>2026-04-07T13:11:06Z</time></trkpt><trkpt lat="45.734639504682484" lon="9.754961940692032"><ele>291.8</ele><time>2026-04-07T13:11:08Z</time></trkpt><trkpt lat="45.73463441907822" lon="9.755121521946492"><ele>292.20000000000005</ele><time>2026-04-07T13:11:10Z</time></trkpt><trkpt lat="45.734580706985696" lon="9.755268541335925"><ele>292.6</ele><time>2026-04-07T13:11:12Z</time></trkpt><trkpt lat="45.73452324522987" lon="9.75537173307974"><ele>293.0</ele><time>2026-04-07T13:11:14Z</time></trkpt><trkpt lat="45.73450234701066" lon="9.755516741416548"><ele>293.4</ele><time>2026-04-07T13:11:16Z</time></trkpt><trkpt lat="45.73453535027949" lon="9.755662466032678"><ele>293.8</ele><time>2026-04-07T13:11:18Z</time></trkpt><trkpt lat="45.734608982261136" lon="9.755774332419024"><ele>294.2</ele><time>2026-04-07T13:11:20Z</time></trkpt><trkpt lat="45.73471353600583" lon="9.755808477616899"><ele>294.6</ele><time>2026-04-07T13:11:22Z</time></trkpt><trkpt lat="45.734814174354774" lon="9.755791873944116"><ele>295.0</ele><time>2026-04-07T13:11:24Z</time></trkpt><trkpt lat="45.734910796068235" lon="9.755757614002261"><ele>295.0</ele><time>2026-04-07T13:11:26Z</time></trkpt><trkpt lat="45.735012612419084" lon="9.755748914179833"><ele>295.0</ele><time>2026-04-07T13:11:28Z</time></trkpt><trkpt lat="45.73511370596258" lon="9.75577402973258"><ele>295.0</ele><time>2026-04-07T13:11:30Z</time></trkpt><trkpt lat="45.735207988531265" lon="9.755834872793717"><ele>295.0</ele><time>2026-04-07T13:11:32Z</time></trkpt><trkpt lat="45.735289567981084" lon="9.755916736851601"><ele>295.0</ele><time>2026-04-07T13:11:34Z</time></trkpt><trkpt lat="45.73537244406186" lon="9.75599521716474"><ele>295.16666666666663</ele><time>2026-04-07T13:11:36Z</time></trkpt><trkpt lat="45.735456018509005" lon="9.756069643171138"><ele>295.3333333333333</ele><time>2026-04-07T13:11:38Z</time></trkpt><trkpt lat="45.73554486957554" lon="9.756143388335591"><ele>295.5</ele><time>2026-04-07T13:11:40Z</time></trkpt><trkpt lat="45.73562839941907" lon="9.75621083195256"><ele>295.6666666666667</ele><time>2026-04-07T13:11:42Z</time></trkpt><trkpt lat="45.73568871068046" lon="9.756254349091206"><ele>295.83333333333337</ele><time>2026-04-07T13:11:43Z</time></trkpt><trkpt lat="45.7357479908384" lon="9.756323360124762"><ele>296.0</ele><time>2026-04-07T13:11:45Z</time></trkpt><trkpt lat="45.73581522754118" lon="9.756409535329004"><ele>296.0</ele><time>2026-04-07T13:11:47Z</time></trkpt><trkpt lat="45.73588115768828" lon="9.756488741129095"><ele>296.0</ele><time>2026-04-07T13:11:49Z</time></trkpt><trkpt lat="45.735941962265976" lon="9.756572609626156"><ele>296.0</ele><time>2026-04-07T13:11:51Z</time></trkpt><trkpt lat="45.73600103150751" lon="9.75665083336086"><ele>296.0</ele><time>2026-04-07T13:11:53Z</time></trkpt><trkpt lat="45.73605149163146" lon="9.75673843583203"><ele>296.0</ele><time>2026-04-07T13:11:55Z</time></trkpt><trkpt lat="45.73609611289315" lon="9.75682502419544"><ele>296.0</ele><time>2026-04-07T13:11:57Z</time></trkpt><trkpt lat="45.736142752799836" lon="9.756903370604915"><ele>296.0</ele><time>2026-04-07T13:11:59Z</time></trkpt><trkpt lat="45.73617575918896" lon="9.756985431359071"><ele>296.0</ele><time>2026-04-07T13:12:01Z</time></trkpt><trkpt lat="45.73621306782298" lon="9.757116619044158"><ele>296.0</ele><time>2026-04-07T13:12:04Z</time></trkpt><trkpt lat="45.73617571362362" lon="9.757214491818292"><ele>296.0</ele><time>2026-04-07T13:12:06Z</time></trkpt><trkpt lat="45.736088202613345" lon="9.757260047899603"><ele>296.0</ele><time>2026-04-07T13:12:09Z</time></trkpt><trkpt lat="45.736013714775396" lon="9.757240079911135"><ele>296.0</ele><time>2026-04-07T13:12:11Z</time></trkpt><trkpt lat="45.73593222823877" lon="9.757207000258092"><ele>296.8571428571429</ele><time>2026-04-07T13:12:13Z</time></trkpt><trkpt lat="45.735862361610906" lon="9.757201770391966"><ele>297.7142857142857</ele><time>2026-04-07T13:12:15Z</time></trkpt><trkpt lat="45.73579685280847" lon="9.757191944722138"><ele>298.57142857142856</ele><time>2026-04-07T13:12:17Z</time></trkpt><trkpt lat="45.73573294292376" lon="9.7571881207095"><ele>299.42857142857144</ele><time>2026-04-07T13:12:19Z</time></trkpt><trkpt lat="45.735660451681696" lon="9.757197877777141"><ele>300.2857142857143</ele><time>2026-04-07T13:12:21Z</time></trkpt><trkpt lat="45.73559721415059" lon="9.757193389585666"><ele>301.14285714285717</ele><time>2026-04-07T13:12:23Z</time></trkpt><trkpt lat="45.73551063617634" lon="9.75720618627978"><ele>302.0</ele><time>2026-04-07T13:12:26Z</time></trkpt><trkpt lat="45.735441817938145" lon="9.757211007067303"><ele>302.0</ele><time>2026-04-07T13:12:28Z</time></trkpt><trkpt lat="45.73535782259772" lon="9.757222588579365"><ele>302.0</ele><time>2026-04-07T13:12:31Z</time></trkpt><trkpt lat="45.73526541631049" lon="9.757227358083426"><ele>302.0</ele><time>2026-04-07T13:12:34Z</time></trkpt><trkpt lat="45.735181630915505" lon="9.757242220950172"><ele>302.0</ele><time>2026-04-07T13:12:37Z</time></trkpt><trkpt lat="45.7350956148866" lon="9.757251734162171"><ele>302.0</ele><time>2026-04-07T13:12:40Z</time></trkpt><trkpt lat="45.735006762857864" lon="9.757258269937587"><ele>302.0</ele><time>2026-04-07T13:12:43Z</time></trkpt><trkpt lat="45.73492576713571" lon="9.757268231029187"><ele>302.7142857142857</ele><time>2026-04-07T13:12:46Z</time></trkpt><trkpt lat="45.734851364831535" lon="9.757273675282413"><ele>303.42857142857144</ele><time>2026-04-07T13:12:49Z</time></trkpt><trkpt lat="45.73478546797778" lon="9.75725893503439"><ele>304.1428571428571</ele><time>2026-04-07T13:12:52Z</time></trkpt><trkpt lat="45.73471586437816" lon="9.757270690535341"><ele>304.8571428571429</ele><time>2026-04-07T13:12:55Z</time></trkpt><trkpt lat="45.734645306076416" lon="9.757283406344218"><ele>305.57142857142856</ele><time>2026-04-07T13:12:58Z</time></trkpt><trkpt lat="45.734570790046554" lon="9.757289093780459"><ele>306.2857142857143</ele><time>2026-04-07T13:13:01Z</time></trkpt><trkpt lat="45.73449413258923" lon="9.757281538260766"><ele>307.0</ele><time>2026-04-07T13:13:05Z</time></trkpt><trkpt lat="45.7344117861707" lon="9.757288351395566"><ele>306.99999999999994</ele><time>2026-04-07T13:13:09Z</time></trkpt><trkpt lat="45.734331567551486" lon="9.757285100750556"><ele>307.0</ele><time>2026-04-07T13:13:13Z</time></trkpt><trkpt lat="45.7342568877119" lon="9.75728790568388"><ele>307.0</ele><time>2026-04-07T13:13:51.999Z</time></trkpt><trkpt lat="45.73419774369345" lon="9.757335900728162"><ele>307.0</ele><time>2026-04-07T13:13:55.999Z</time></trkpt><trkpt lat="45.73414294224943" lon="9.757390415226748"><ele>307.0</ele><time>2026-04-07T13:14:11.999Z</time></trkpt><trkpt lat="45.734081479867115" lon="9.757460759951899"><ele>306.99999999999994</ele><time>2026-04-07T13:14:14.999Z</time></trkpt><trkpt lat="45.73401958364033" lon="9.757500969842813"><ele>307.0</ele><time>2026-04-07T13:14:16.999Z</time></trkpt><trkpt lat="45.733959030597134" lon="9.757547598157458"><ele>307.0</ele><time>2026-04-07T13:14:18.999Z</time></trkpt><trkpt lat="45.73388926777882" lon="9.757600151963551"><ele>307.0</ele><time>2026-04-07T13:14:20.999Z</time></trkpt><trkpt lat="45.73381062965396" lon="9.757648022194198"><ele>307.0</ele><time>2026-04-07T13:14:22.999Z</time></trkpt><trkpt lat="45.733722894528746" lon="9.757685224627728"><ele>307.0</ele><time>2026-04-07T13:14:25Z</time></trkpt><trkpt lat="45.73362506150599" lon="9.757727151233201"><ele>307.0</ele><time>2026-04-07T13:14:27Z</time></trkpt><trkpt lat="45.7335143025623" lon="9.757772719721682"><ele>306.75</ele><time>2026-04-07T13:14:29Z</time></trkpt><trkpt lat="45.73340735359252" lon="9.757823757909248"><ele>306.5</ele><time>2026-04-07T13:14:31Z</time></trkpt><trkpt lat="45.73330555083518" lon="9.757880163267139"><ele>306.25</ele><time>2026-04-07T13:14:33Z</time></trkpt><trkpt lat="45.73320215066812" lon="9.757952046199186"><ele>306.0</ele><time>2026-04-07T13:14:35Z</time></trkpt><trkpt lat="45.7330942692927" lon="9.758032933684241"><ele>306.0</ele><time>2026-04-07T13:14:37Z</time></trkpt><trkpt lat="45.732992226045695" lon="9.758121344347357"><ele>306.0</ele><time>2026-04-07T13:14:39Z</time></trkpt><trkpt lat="45.732878355660624" lon="9.758197855106937"><ele>306.0</ele><time>2026-04-07T13:14:41Z</time></trkpt><trkpt lat="45.732772827581826" lon="9.758281917713274"><ele>306.0</ele><time>2026-04-07T13:14:43Z</time></trkpt><trkpt lat="45.73267965748163" lon="9.7583665803252"><ele>305.6666666666667</ele><time>2026-04-07T13:14:45Z</time></trkpt><trkpt lat="45.7325591500064" lon="9.758422538495072"><ele>305.3333333333333</ele><time>2026-04-07T13:14:47Z</time></trkpt><trkpt lat="45.732450442742646" lon="9.758486419360967"><ele>305.0</ele><time>2026-04-07T13:14:49Z</time></trkpt><trkpt lat="45.73238412379502" lon="9.758513305474747"><ele>304.66666666666663</ele><time>2026-04-07T13:14:50Z</time></trkpt><trkpt lat="45.73231950337739" lon="9.75854082880084"><ele>304.3333333333333</ele><time>2026-04-07T13:14:51Z</time></trkpt><trkpt lat="45.73226036170447" lon="9.758574098793634"><ele>304.0</ele><time>2026-04-07T13:14:52Z</time></trkpt><trkpt lat="45.73219889039795" lon="9.758602173735143"><ele>304.4285714285714</ele><time>2026-04-07T13:14:53Z</time></trkpt><trkpt lat="45.732136920549905" lon="9.758628415052721"><ele>304.8571428571429</ele><time>2026-04-07T13:14:54Z</time></trkpt><trkpt lat="45.732075984830985" lon="9.758658652791947"><ele>305.2857142857143</ele><time>2026-04-07T13:14:55Z</time></trkpt><trkpt lat="45.73201324395161" lon="9.7586833680466"><ele>305.71428571428567</ele><time>2026-04-07T13:14:56Z</time></trkpt><trkpt lat="45.73195005325119" lon="9.75870907862718"><ele>306.1428571428571</ele><time>2026-04-07T13:14:57Z</time></trkpt><trkpt lat="45.73188761679681" lon="9.75872637027048"><ele>306.57142857142856</ele><time>2026-04-07T13:14:58Z</time></trkpt><trkpt lat="45.73182591236745" lon="9.758747915575327"><ele>307.0</ele><time>2026-04-07T13:14:59Z</time></trkpt><trkpt lat="45.73175521911934" lon="9.758764386104334"><ele>307.0</ele><time>2026-04-07T13:15:00Z</time></trkpt><trkpt lat="45.7316300367171" lon="9.758779352810786"><ele>307.0</ele><time>2026-04-07T13:15:02Z</time></trkpt><trkpt lat="45.7315624206752" lon="9.758784933935159"><ele>307.0</ele><time>2026-04-07T13:15:03Z</time></trkpt><trkpt lat="45.73143038973832" lon="9.758812783335758"><ele>307.0</ele><time>2026-04-07T13:15:05Z</time></trkpt><trkpt lat="45.731311398009446" lon="9.758827234094515"><ele>307.0</ele><time>2026-04-07T13:15:07Z</time></trkpt><trkpt lat="45.73118807955759" lon="9.758861396347461"><ele>307.0</ele><time>2026-04-07T13:15:09Z</time></trkpt><trkpt lat="45.731071113108385" lon="9.758903785675717"><ele>307.0</ele><time>2026-04-07T13:15:11Z</time></trkpt><trkpt lat="45.73095918787503" lon="9.75898067789509"><ele>307.0</ele><time>2026-04-07T13:15:13Z</time></trkpt><trkpt lat="45.73085632277716" lon="9.75904812222979"><ele>307.0</ele><time>2026-04-07T13:15:15Z</time></trkpt><trkpt lat="45.730762733731986" lon="9.75912218008687"><ele>306.8333333333333</ele><time>2026-04-07T13:15:17Z</time></trkpt><trkpt lat="45.73064345726696" lon="9.759179422633782"><ele>306.66666666666663</ele><time>2026-04-07T13:15:19Z</time></trkpt><trkpt lat="45.73058034922226" lon="9.759210592135418"><ele>306.5</ele><time>2026-04-07T13:15:20Z</time></trkpt><trkpt lat="45.73051281567477" lon="9.759222630337602"><ele>306.3333333333333</ele><time>2026-04-07T13:15:21Z</time></trkpt><trkpt lat="45.73044946440362" lon="9.759245727697987"><ele>306.1666666666667</ele><time>2026-04-07T13:15:22Z</time></trkpt><trkpt lat="45.730331815533376" lon="9.759263734593414"><ele>306.0</ele><time>2026-04-07T13:15:24Z</time></trkpt><trkpt lat="45.73022602041153" lon="9.759285775603313"><ele>306.0</ele><time>2026-04-07T13:15:25.999Z</time></trkpt><trkpt lat="45.73012325019767" lon="9.75929447335286"><ele>306.0</ele><time>2026-04-07T13:15:27.999Z</time></trkpt><trkpt lat="45.730026807217556" lon="9.759300391741325"><ele>306.0</ele><time>2026-04-07T13:15:29.999Z</time></trkpt><trkpt lat="45.72992113438828" lon="9.759316401654882"><ele>306.0</ele><time>2026-04-07T13:15:31.999Z</time></trkpt><trkpt lat="45.729820819060734" lon="9.759329249441873"><ele>306.0</ele><time>2026-04-07T13:15:33.999Z</time></trkpt><trkpt lat="45.72971995679028" lon="9.759331773522957"><ele>306.0</ele><time>2026-04-07T13:15:35.999Z</time></trkpt><trkpt lat="45.729613042510486" lon="9.759334345479548"><ele>306.0</ele><time>2026-04-07T13:15:37.999Z</time></trkpt><trkpt lat="45.72951624360596" lon="9.759319635840606"><ele>306.0</ele><time>2026-04-07T13:15:39.999Z</time></trkpt><trkpt lat="45.7294130159105" lon="9.759337268925847"><ele>306.0</ele><time>2026-04-07T13:15:41.999Z</time></trkpt><trkpt lat="45.72931061322184" lon="9.759331436914161"><ele>306.0</ele><time>2026-04-07T13:15:43.999Z</time></trkpt><trkpt lat="45.72921384855548" lon="9.75935414023965"><ele>305.8</ele><time>2026-04-07T13:15:45.999Z</time></trkpt><trkpt lat="45.72910710315007" lon="9.759366052426968"><ele>305.6</ele><time>2026-04-07T13:15:47.999Z</time></trkpt><trkpt lat="45.729014278478196" lon="9.759388697443784"><ele>305.4</ele><time>2026-04-07T13:15:49.999Z</time></trkpt><trkpt lat="45.72890515164875" lon="9.759418032720498"><ele>305.2</ele><time>2026-04-07T13:15:51.999Z</time></trkpt><trkpt lat="45.72882527754133" lon="9.759464873117398"><ele>305.0</ele><time>2026-04-07T13:15:53.999Z</time></trkpt><trkpt lat="45.72873307102942" lon="9.759512477760955"><ele>306.0</ele><time>2026-04-07T13:15:55.999Z</time></trkpt><trkpt lat="45.72864721872867" lon="9.75955743254776"><ele>307.0</ele><time>2026-04-07T13:15:57.999Z</time></trkpt><trkpt lat="45.72855685328504" lon="9.759607590058408"><ele>308.0</ele><time>2026-04-07T13:15:59.999Z</time></trkpt><trkpt lat="45.72847095121209" lon="9.759652730108682"><ele>309.0</ele><time>2026-04-07T13:16:01.999Z</time></trkpt><trkpt lat="45.72838375488532" lon="9.759696863526127"><ele>310.0</ele><time>2026-04-07T13:16:03.999Z</time></trkpt><trkpt lat="45.72829933761949" lon="9.759740385954883"><ele>310.0</ele><time>2026-04-07T13:16:05.999Z</time></trkpt><trkpt lat="45.728222449253316" lon="9.759763395137051"><ele>310.0</ele><time>2026-04-07T13:16:07.999Z</time></trkpt><trkpt lat="45.728133056660795" lon="9.75983062504658"><ele>310.0</ele><time>2026-04-07T13:16:09.999Z</time></trkpt><trkpt lat="45.72805066086247" lon="9.759866088454402"><ele>310.0</ele><time>2026-04-07T13:16:11.999Z</time></trkpt><trkpt lat="45.727967547685765" lon="9.759901261984131"><ele>310.0</ele><time>2026-04-07T13:16:13.999Z</time></trkpt><trkpt lat="45.72788680908309" lon="9.75993718497654"><ele>310.0</ele><time>2026-04-07T13:16:15.999Z</time></trkpt><trkpt lat="45.72780944598328" lon="9.759975080717897"><ele>310.0</ele><time>2026-04-07T13:16:17.999Z</time></trkpt><trkpt lat="45.72772656049097" lon="9.7600105788237"><ele>310.0</ele><time>2026-04-07T13:16:19.999Z</time></trkpt><trkpt lat="45.72764755908474" lon="9.76006375724916"><ele>310.0</ele><time>2026-04-07T13:16:21.999Z</time></trkpt><trkpt lat="45.72756660239623" lon="9.760097497939798"><ele>310.0</ele><time>2026-04-07T13:16:23.999Z</time></trkpt><trkpt lat="45.72748878361734" lon="9.760130816876849"><ele>310.0</ele><time>2026-04-07T13:16:25.999Z</time></trkpt><trkpt lat="45.727416243450826" lon="9.760169017341846"><ele>310.0</ele><time>2026-04-07T13:16:27.999Z</time></trkpt><trkpt lat="45.72734555957825" lon="9.760198105941184"><ele>310.42857142857144</ele><time>2026-04-07T13:16:30Z</time></trkpt><trkpt lat="45.72727170225204" lon="9.76021730101847"><ele>310.85714285714283</ele><time>2026-04-07T13:16:32Z</time></trkpt><trkpt lat="45.72719917320564" lon="9.760239287230549"><ele>311.2857142857143</ele><time>2026-04-07T13:16:34Z</time></trkpt><trkpt lat="45.727127061179736" lon="9.760263664447454"><ele>311.7142857142857</ele><time>2026-04-07T13:16:36Z</time></trkpt><trkpt lat="45.72705488118026" lon="9.760282702070176"><ele>312.14285714285717</ele><time>2026-04-07T13:16:38Z</time></trkpt><trkpt lat="45.72698568455843" lon="9.760301560889907"><ele>312.57142857142856</ele><time>2026-04-07T13:16:40Z</time></trkpt><trkpt lat="45.726923004275825" lon="9.760317365671423"><ele>313.0</ele><time>2026-04-07T13:16:42Z</time></trkpt><trkpt lat="45.726847924423474" lon="9.76033789056523"><ele>313.0</ele><time>2026-04-07T13:16:44Z</time></trkpt><trkpt lat="45.7267641033917" lon="9.760365433017096"><ele>313.0</ele><time>2026-04-07T13:16:46Z</time></trkpt><trkpt lat="45.72668907611262" lon="9.760393983340878"><ele>313.0</ele><time>2026-04-07T13:16:48Z</time></trkpt><trkpt lat="45.72661694699672" lon="9.760424524388037"><ele>313.0</ele><time>2026-04-07T13:16:50Z</time></trkpt><trkpt lat="45.72654937606218" lon="9.760456965352143"><ele>313.0</ele><time>2026-04-07T13:16:52Z</time></trkpt><trkpt lat="45.72648429172524" lon="9.760485395552612"><ele>313.0</ele><time>2026-04-07T13:16:54Z</time></trkpt><trkpt lat="45.72642188478938" lon="9.760503545534501"><ele>313.0</ele><time>2026-04-07T13:16:56Z</time></trkpt><trkpt lat="45.72635583738872" lon="9.760531328661544"><ele>313.0</ele><time>2026-04-07T13:16:58Z</time></trkpt><trkpt lat="45.72629106483629" lon="9.760556471784039"><ele>313.0</ele><time>2026-04-07T13:17:00Z</time></trkpt><trkpt lat="45.72622650590404" lon="9.760571931786687"><ele>313.0</ele><time>2026-04-07T13:17:02Z</time></trkpt><trkpt lat="45.72613551689814" lon="9.760620539324512"><ele>313.0</ele><time>2026-04-07T13:17:05Z</time></trkpt><trkpt lat="45.726057306464625" lon="9.760649860755235"><ele>313.0</ele><time>2026-04-07T13:17:07Z</time></trkpt><trkpt lat="45.72598589081601" lon="9.76068233882907"><ele>313.0</ele><time>2026-04-07T13:17:09Z</time></trkpt><trkpt lat="45.72591832451854" lon="9.760701790762653"><ele>312.57142857142856</ele><time>2026-04-07T13:17:11Z</time></trkpt><trkpt lat="45.72585585033703" lon="9.760732071168025"><ele>312.14285714285717</ele><time>2026-04-07T13:17:13Z</time></trkpt><trkpt lat="45.72579352461637" lon="9.76076233254881"><ele>311.7142857142857</ele><time>2026-04-07T13:17:15Z</time></trkpt><trkpt lat="45.72573021889479" lon="9.760787515790732"><ele>311.2857142857143</ele><time>2026-04-07T13:17:17Z</time></trkpt><trkpt lat="45.72563790004647" lon="9.760812462328683"><ele>310.85714285714283</ele><time>2026-04-07T13:17:20Z</time></trkpt><trkpt lat="45.72557356322039" lon="9.76083715297963"><ele>310.42857142857144</ele><time>2026-04-07T13:17:22Z</time></trkpt><trkpt lat="45.72551217208961" lon="9.760864824451199"><ele>310.0</ele><time>2026-04-07T13:17:24Z</time></trkpt><trkpt lat="45.725450178016324" lon="9.760894362183846"><ele>310.0</ele><time>2026-04-07T13:17:26Z</time></trkpt><trkpt lat="45.72539059262015" lon="9.760924865000138"><ele>310.0</ele><time>2026-04-07T13:17:28Z</time></trkpt><trkpt lat="45.72530890910042" lon="9.760976459134264"><ele>310.0</ele><time>2026-04-07T13:17:30.999Z</time></trkpt><trkpt lat="45.72522280754898" lon="9.761024638160515"><ele>310.0</ele><time>2026-04-07T13:17:33.999Z</time></trkpt><trkpt lat="45.72514455074472" lon="9.76107712743364"><ele>310.0</ele><time>2026-04-07T13:17:36.999Z</time></trkpt><trkpt lat="45.72507523543319" lon="9.761123898879745"><ele>310.0</ele><time>2026-04-07T13:17:38.999Z</time></trkpt><trkpt lat="45.72501198274295" lon="9.761167003565319"><ele>310.7142857142857</ele><time>2026-04-07T13:17:40.999Z</time></trkpt><trkpt lat="45.72495360902549" lon="9.761217579583283"><ele>311.42857142857144</ele><time>2026-04-07T13:17:42.999Z</time></trkpt><trkpt lat="45.72489907775663" lon="9.761272619363728"><ele>312.1428571428571</ele><time>2026-04-07T13:17:44.999Z</time></trkpt><trkpt lat="45.72484551858363" lon="9.761321043144717"><ele>312.8571428571429</ele><time>2026-04-07T13:17:46.999Z</time></trkpt><trkpt lat="45.7247932007556" lon="9.76137440248806"><ele>313.57142857142856</ele><time>2026-04-07T13:17:48.999Z</time></trkpt><trkpt lat="45.724742242305524" lon="9.761432190234359"><ele>314.2857142857143</ele><time>2026-04-07T13:17:50.999Z</time></trkpt><trkpt lat="45.72469260559304" lon="9.761497599562837"><ele>315.0</ele><time>2026-04-07T13:17:52.999Z</time></trkpt><trkpt lat="45.72464561595305" lon="9.76157341290465"><ele>315.0</ele><time>2026-04-07T13:17:54.999Z</time></trkpt><trkpt lat="45.724605580060526" lon="9.761655010877133"><ele>315.0</ele><time>2026-04-07T13:17:56.999Z</time></trkpt><trkpt lat="45.72456983091901" lon="9.761740207717663"><ele>315.0</ele><time>2026-04-07T13:17:58.999Z</time></trkpt><trkpt lat="45.724533744431824" lon="9.761830252538308"><ele>315.0</ele><time>2026-04-07T13:18:00.999Z</time></trkpt><trkpt lat="45.72449740369055" lon="9.76191531921817"><ele>315.0</ele><time>2026-04-07T13:18:02.999Z</time></trkpt><trkpt lat="45.724462207152754" lon="9.761999266207715"><ele>315.0</ele><time>2026-04-07T13:18:04.999Z</time></trkpt><trkpt lat="45.72442753463991" lon="9.762084741901313"><ele>315.0</ele><time>2026-04-07T13:18:06.999Z</time></trkpt><trkpt lat="45.72439463565923" lon="9.76216479116773"><ele>314.8333333333333</ele><time>2026-04-07T13:18:08.999Z</time></trkpt><trkpt lat="45.7243621332954" lon="9.762243259173049"><ele>314.6666666666667</ele><time>2026-04-07T13:18:10.999Z</time></trkpt><trkpt lat="45.72430734290524" lon="9.762355179681583"><ele>314.5</ele><time>2026-04-07T13:18:13.999Z</time></trkpt><trkpt lat="45.72426363493148" lon="9.762432523076296"><ele>314.33333333333337</ele><time>2026-04-07T13:18:15.999Z</time></trkpt><trkpt lat="45.724204747179705" lon="9.762541195432595"><ele>314.1666666666667</ele><time>2026-04-07T13:18:18.999Z</time></trkpt><trkpt lat="45.724162965277685" lon="9.762613688612344"><ele>314.0</ele><time>2026-04-07T13:18:20.999Z</time></trkpt><trkpt lat="45.7241109726038" lon="9.762676285999976"><ele>314.4285714285714</ele><time>2026-04-07T13:18:22.999Z</time></trkpt><trkpt lat="45.724057479581404" lon="9.762742652144558"><ele>314.85714285714283</ele><time>2026-04-07T13:18:24.999Z</time></trkpt><trkpt lat="45.724003624861155" lon="9.762803456045066"><ele>315.2857142857143</ele><time>2026-04-07T13:18:26.999Z</time></trkpt><trkpt lat="45.723948627247076" lon="9.762861848097877"><ele>315.71428571428567</ele><time>2026-04-07T13:18:28.999Z</time></trkpt><trkpt lat="45.7238918168612" lon="9.7629297405094"><ele>316.1428571428571</ele><time>2026-04-07T13:18:30.999Z</time></trkpt><trkpt lat="45.72383331382538" lon="9.7629958186807"><ele>316.57142857142856</ele><time>2026-04-07T13:18:32.999Z</time></trkpt><trkpt lat="45.72377098764869" lon="9.763073756409861"><ele>317.0</ele><time>2026-04-07T13:18:34.999Z</time></trkpt><trkpt lat="45.723711175307955" lon="9.763125304605866"><ele>317.0</ele><time>2026-04-07T13:18:37Z</time></trkpt><trkpt lat="45.723651682595566" lon="9.763191554497793"><ele>317.0</ele><time>2026-04-07T13:18:39Z</time></trkpt><trkpt lat="45.72359623530353" lon="9.763259153794229"><ele>317.0</ele><time>2026-04-07T13:18:41Z</time></trkpt><trkpt lat="45.723542503883486" lon="9.763332695305959"><ele>317.0</ele><time>2026-04-07T13:18:43Z</time></trkpt><trkpt lat="45.72348166533372" lon="9.76341530432654"><ele>317.0</ele><time>2026-04-07T13:18:45Z</time></trkpt><trkpt lat="45.723429751064856" lon="9.763499895236688"><ele>317.0</ele><time>2026-04-07T13:18:47Z</time></trkpt><trkpt lat="45.72337394848352" lon="9.76357776587264"><ele>316.5</ele><time>2026-04-07T13:18:49Z</time></trkpt><trkpt lat="45.72331528637144" lon="9.763653470282106"><ele>316.0</ele><time>2026-04-07T13:18:51Z</time></trkpt><trkpt lat="45.723260181019846" lon="9.763731316440849"><ele>315.5</ele><time>2026-04-07T13:18:53Z</time></trkpt><trkpt lat="45.72320339774276" lon="9.763807726422911"><ele>315.0</ele><time>2026-04-07T13:18:55Z</time></trkpt><trkpt lat="45.72314586323665" lon="9.763880631553684"><ele>314.5</ele><time>2026-04-07T13:18:57Z</time></trkpt><trkpt lat="45.72308891774267" lon="9.763952504636219"><ele>314.0</ele><time>2026-04-07T13:18:59Z</time></trkpt><trkpt lat="45.723025684783714" lon="9.764028113389571"><ele>314.0</ele><time>2026-04-07T13:19:01Z</time></trkpt><trkpt lat="45.722967331994234" lon="9.764095396808061"><ele>314.0</ele><time>2026-04-07T13:19:03Z</time></trkpt><trkpt lat="45.72290992559716" lon="9.764159879986265"><ele>314.0</ele><time>2026-04-07T13:19:05Z</time></trkpt><trkpt lat="45.72285117640238" lon="9.764216772353956"><ele>314.0</ele><time>2026-04-07T13:19:07Z</time></trkpt><trkpt lat="45.722789803356946" lon="9.76427933246087"><ele>314.0</ele><time>2026-04-07T13:19:09Z</time></trkpt><trkpt lat="45.72272066131273" lon="9.764344215656598"><ele>314.0</ele><time>2026-04-07T13:19:11Z</time></trkpt><trkpt lat="45.72265470095261" lon="9.764404064989272"><ele>314.71428571428567</ele><time>2026-04-07T13:19:13Z</time></trkpt><trkpt lat="45.72259418389139" lon="9.76445654647549"><ele>315.42857142857144</ele><time>2026-04-07T13:19:15Z</time></trkpt><trkpt lat="45.722534450155244" lon="9.764511285963714"><ele>316.1428571428571</ele><time>2026-04-07T13:19:17Z</time></trkpt><trkpt lat="45.722487471165415" lon="9.764591607673715"><ele>316.85714285714283</ele><time>2026-04-07T13:19:19Z</time></trkpt><trkpt lat="45.72242181889396" lon="9.764653440491418"><ele>317.57142857142856</ele><time>2026-04-07T13:19:21Z</time></trkpt><trkpt lat="45.72235714779897" lon="9.764720281637612"><ele>318.2857142857143</ele><time>2026-04-07T13:19:23Z</time></trkpt><trkpt lat="45.72229394128667" lon="9.764774823755383"><ele>319.0</ele><time>2026-04-07T13:19:25Z</time></trkpt><trkpt lat="45.72223414588058" lon="9.76483082894678"><ele>319.0</ele><time>2026-04-07T13:19:27Z</time></trkpt><trkpt lat="45.72217485105978" lon="9.764886778870268"><ele>319.0</ele><time>2026-04-07T13:19:29Z</time></trkpt><trkpt lat="45.72211928815318" lon="9.764947079885706"><ele>319.0</ele><time>2026-04-07T13:19:31Z</time></trkpt><trkpt lat="45.722062371438355" lon="9.764997048559104"><ele>319.0</ele><time>2026-04-07T13:19:33Z</time></trkpt><trkpt lat="45.721985134460766" lon="9.765066575111318"><ele>319.0</ele><time>2026-04-07T13:19:36Z</time></trkpt><trkpt lat="45.721927574672875" lon="9.765130854201484"><ele>319.0</ele><time>2026-04-07T13:19:38Z</time></trkpt><trkpt lat="45.72186778317927" lon="9.765182362642697"><ele>319.0</ele><time>2026-04-07T13:19:40Z</time></trkpt><trkpt lat="45.72181366638503" lon="9.765237238536029"><ele>319.0</ele><time>2026-04-07T13:19:42Z</time></trkpt><trkpt lat="45.72174987890571" lon="9.765286301373216"><ele>319.0</ele><time>2026-04-07T13:19:44Z</time></trkpt><trkpt lat="45.721697275400665" lon="9.765336624443025"><ele>319.0</ele><time>2026-04-07T13:19:46Z</time></trkpt><trkpt lat="45.721633855886104" lon="9.7653999065655"><ele>319.0</ele><time>2026-04-07T13:19:47.999Z</time></trkpt><trkpt lat="45.721576564115246" lon="9.765457661570323"><ele>319.0</ele><time>2026-04-07T13:19:49.999Z</time></trkpt><trkpt lat="45.721518423566856" lon="9.765521639306554"><ele>319.0</ele><time>2026-04-07T13:19:51.999Z</time></trkpt><trkpt lat="45.7214589765767" lon="9.765593157114703"><ele>319.0</ele><time>2026-04-07T13:19:53.999Z</time></trkpt><trkpt lat="45.72139663498368" lon="9.765657576804882"><ele>319.0</ele><time>2026-04-07T13:19:55.999Z</time></trkpt><trkpt lat="45.721334354999456" lon="9.765721210639187"><ele>319.0</ele><time>2026-04-07T13:19:57.999Z</time></trkpt><trkpt lat="45.72127434755363" lon="9.765792223885535"><ele>319.0</ele><time>2026-04-07T13:19:59.999Z</time></trkpt><trkpt lat="45.721215413493915" lon="9.76585858501815"><ele>319.0</ele><time>2026-04-07T13:20:01.999Z</time></trkpt><trkpt lat="45.721156312176454" lon="9.765921775319386"><ele>319.0</ele><time>2026-04-07T13:20:03.999Z</time></trkpt><trkpt lat="45.721098859231205" lon="9.765997887360564"><ele>319.0</ele><time>2026-04-07T13:20:05.999Z</time></trkpt><trkpt lat="45.72104055790857" lon="9.766066460713565"><ele>319.5</ele><time>2026-04-07T13:20:07.999Z</time></trkpt><trkpt lat="45.72098052285591" lon="9.766136504275758"><ele>320.0</ele><time>2026-04-07T13:20:09.999Z</time></trkpt><trkpt lat="45.720919145802114" lon="9.76621316397774"><ele>320.5</ele><time>2026-04-07T13:20:11.999Z</time></trkpt><trkpt lat="45.720859123182706" lon="9.766292920842375"><ele>321.0</ele><time>2026-04-07T13:20:13.999Z</time></trkpt><trkpt lat="45.72079776570368" lon="9.766369879600834"><ele>321.5</ele><time>2026-04-07T13:20:15.999Z</time></trkpt><trkpt lat="45.72074113511821" lon="9.766446656185478"><ele>322.0</ele><time>2026-04-07T13:20:17.999Z</time></trkpt><trkpt lat="45.720686042246086" lon="9.766516414293212"><ele>322.0</ele><time>2026-04-07T13:20:19.999Z</time></trkpt><trkpt lat="45.720630934972746" lon="9.766580349969244"><ele>322.0</ele><time>2026-04-07T13:20:21.999Z</time></trkpt><trkpt lat="45.7205768054074" lon="9.766646790693898"><ele>322.0</ele><time>2026-04-07T13:20:23.999Z</time></trkpt><trkpt lat="45.7205071932148" lon="9.76672260618145"><ele>322.0</ele><time>2026-04-07T13:20:25.999Z</time></trkpt><trkpt lat="45.720440585199945" lon="9.76679263567105"><ele>322.0</ele><time>2026-04-07T13:20:27.999Z</time></trkpt><trkpt lat="45.72037445674009" lon="9.766856396457614"><ele>322.0</ele><time>2026-04-07T13:20:29.999Z</time></trkpt><trkpt lat="45.72031263623743" lon="9.766918409993327"><ele>322.57142857142856</ele><time>2026-04-07T13:20:31.999Z</time></trkpt><trkpt lat="45.72025446877382" lon="9.766971789820511"><ele>323.1428571428571</ele><time>2026-04-07T13:20:33.999Z</time></trkpt><trkpt lat="45.72020387642343" lon="9.767031107495015"><ele>323.7142857142857</ele><time>2026-04-07T13:20:35.999Z</time></trkpt><trkpt lat="45.72013779029363" lon="9.767088322410268"><ele>324.2857142857143</ele><time>2026-04-07T13:20:37.999Z</time></trkpt><trkpt lat="45.720075461337636" lon="9.767143663215133"><ele>324.85714285714283</ele><time>2026-04-07T13:20:39.999Z</time></trkpt><trkpt lat="45.72001277333263" lon="9.767211446791395"><ele>325.42857142857144</ele><time>2026-04-07T13:20:42Z</time></trkpt><trkpt lat="45.7199505124844" lon="9.767277165165767"><ele>326.0</ele><time>2026-04-07T13:20:44Z</time></trkpt><trkpt lat="45.71988899607586" lon="9.767343095343588"><ele>326.0</ele><time>2026-04-07T13:20:46Z</time></trkpt><trkpt lat="45.719825682625" lon="9.7674049966697"><ele>326.0</ele><time>2026-04-07T13:20:48Z</time></trkpt><trkpt lat="45.71976082676097" lon="9.767464829185574"><ele>326.0</ele><time>2026-04-07T13:20:50Z</time></trkpt><trkpt lat="45.71969992396975" lon="9.767532612139172"><ele>326.0</ele><time>2026-04-07T13:20:52Z</time></trkpt><trkpt lat="45.719635748142025" lon="9.767591254223467"><ele>326.0</ele><time>2026-04-07T13:20:54Z</time></trkpt><trkpt lat="45.719577129823534" lon="9.76765388661342"><ele>326.0</ele><time>2026-04-07T13:20:56Z</time></trkpt><trkpt lat="45.7195170786125" lon="9.767713518629368"><ele>325.5714285714286</ele><time>2026-04-07T13:20:58Z</time></trkpt><trkpt lat="45.71945962927793" lon="9.76777159287285"><ele>325.1428571428571</ele><time>2026-04-07T13:21:00Z</time></trkpt><trkpt lat="45.71940539448296" lon="9.767821717197023"><ele>324.7142857142857</ele><time>2026-04-07T13:21:02Z</time></trkpt><trkpt lat="45.71934472323249" lon="9.767885530460171"><ele>324.28571428571433</ele><time>2026-04-07T13:21:04Z</time></trkpt><trkpt lat="45.71927963836984" lon="9.767953722734813"><ele>323.8571428571429</ele><time>2026-04-07T13:21:06Z</time></trkpt><trkpt lat="45.71921663230831" lon="9.768021324581381"><ele>323.42857142857144</ele><time>2026-04-07T13:21:08Z</time></trkpt><trkpt lat="45.71915430124331" lon="9.76807934705151"><ele>323.0</ele><time>2026-04-07T13:21:10Z</time></trkpt><trkpt lat="45.719094040205476" lon="9.768139444191926"><ele>323.00000000000006</ele><time>2026-04-07T13:21:12Z</time></trkpt><trkpt lat="45.71903436914662" lon="9.768200494106413"><ele>323.0</ele><time>2026-04-07T13:21:14Z</time></trkpt><trkpt lat="45.718975247778836" lon="9.768260898897541"><ele>323.0</ele><time>2026-04-07T13:21:16Z</time></trkpt><trkpt lat="45.71891418983383" lon="9.768320245362624"><ele>323.0</ele><time>2026-04-07T13:21:18Z</time></trkpt><trkpt lat="45.71885108943414" lon="9.768379867341714"><ele>323.0</ele><time>2026-04-07T13:21:20Z</time></trkpt><trkpt lat="45.718788759625085" lon="9.768438668381322"><ele>323.00000000000006</ele><time>2026-04-07T13:21:22Z</time></trkpt><trkpt lat="45.718726924566774" lon="9.768495311879075"><ele>323.0</ele><time>2026-04-07T13:21:24Z</time></trkpt><trkpt lat="45.71866924268185" lon="9.768555989536537"><ele>322.8571428571429</ele><time>2026-04-07T13:21:26Z</time></trkpt><trkpt lat="45.71860837808248" lon="9.768607459104418"><ele>322.7142857142857</ele><time>2026-04-07T13:21:28Z</time></trkpt><trkpt lat="45.71854917716913" lon="9.768664320941673"><ele>322.57142857142856</ele><time>2026-04-07T13:21:30Z</time></trkpt><trkpt lat="45.71848849140612" lon="9.768719616428637"><ele>322.42857142857144</ele><time>2026-04-07T13:21:32Z</time></trkpt><trkpt lat="45.71842333618922" lon="9.768787429688317"><ele>322.2857142857143</ele><time>2026-04-07T13:21:34Z</time></trkpt><trkpt lat="45.71836512945117" lon="9.76884871564097"><ele>322.14285714285717</ele><time>2026-04-07T13:21:36Z</time></trkpt><trkpt lat="45.7183095976318" lon="9.768906030575188"><ele>322.0</ele><time>2026-04-07T13:21:38Z</time></trkpt><trkpt lat="45.718258659014566" lon="9.768965456325962"><ele>322.0</ele><time>2026-04-07T13:21:40Z</time></trkpt><trkpt lat="45.71820791557019" lon="9.769028982749061"><ele>322.0</ele><time>2026-04-07T13:21:42Z</time></trkpt><trkpt lat="45.7181572528105" lon="9.769092438444648"><ele>322.0</ele><time>2026-04-07T13:21:44Z</time></trkpt><trkpt lat="45.718108420884946" lon="9.76916536779761"><ele>322.0</ele><time>2026-04-07T13:21:46Z</time></trkpt><trkpt lat="45.71805987237674" lon="9.769242689608713"><ele>322.0</ele><time>2026-04-07T13:21:48Z</time></trkpt><trkpt lat="45.71800825963246" lon="9.769319727247481"><ele>322.0</ele><time>2026-04-07T13:21:50Z</time></trkpt><trkpt lat="45.71796288252286" lon="9.76940011172306"><ele>322.0</ele><time>2026-04-07T13:21:52Z</time></trkpt><trkpt lat="45.71791375178872" lon="9.769475750591418"><ele>322.14285714285717</ele><time>2026-04-07T13:21:54Z</time></trkpt><trkpt lat="45.71786587313261" lon="9.769552281906842"><ele>322.2857142857143</ele><time>2026-04-07T13:21:56Z</time></trkpt><trkpt lat="45.71781489362455" lon="9.76962634765518"><ele>322.42857142857144</ele><time>2026-04-07T13:21:58Z</time></trkpt><trkpt lat="45.717767295309045" lon="9.769703987805627"><ele>322.57142857142856</ele><time>2026-04-07T13:22:00Z</time></trkpt><trkpt lat="45.71772017048066" lon="9.769780413072315"><ele>322.7142857142857</ele><time>2026-04-07T13:22:02Z</time></trkpt><trkpt lat="45.71767316855255" lon="9.769854936234244"><ele>322.8571428571429</ele><time>2026-04-07T13:22:04Z</time></trkpt><trkpt lat="45.71762514134345" lon="9.769930193051724"><ele>323.0</ele><time>2026-04-07T13:22:06Z</time></trkpt><trkpt lat="45.71757949242021" lon="9.769998281157553"><ele>323.0</ele><time>2026-04-07T13:22:08Z</time></trkpt><trkpt lat="45.71752026767956" lon="9.770102442178786"><ele>323.0</ele><time>2026-04-07T13:22:11Z</time></trkpt><trkpt lat="45.71748048535189" lon="9.770177097593868"><ele>323.0</ele><time>2026-04-07T13:22:13Z</time></trkpt><trkpt lat="45.7174101738335" lon="9.770273107129142"><ele>323.0</ele><time>2026-04-07T13:22:15.999Z</time></trkpt><trkpt lat="45.7173584987284" lon="9.770353279239064"><ele>323.0</ele><time>2026-04-07T13:22:17.999Z</time></trkpt><trkpt lat="45.71731388352488" lon="9.770433724942587"><ele>323.0</ele><time>2026-04-07T13:22:19.999Z</time></trkpt><trkpt lat="45.71727411320306" lon="9.770514170809268"><ele>323.42857142857144</ele><time>2026-04-07T13:22:21.999Z</time></trkpt><trkpt lat="45.71724756951412" lon="9.7706032220982"><ele>323.8571428571429</ele><time>2026-04-07T13:22:23.999Z</time></trkpt><trkpt lat="45.71721428383874" lon="9.770683573513226"><ele>324.28571428571433</ele><time>2026-04-07T13:22:25.999Z</time></trkpt><trkpt lat="45.71718135794347" lon="9.770765234598699"><ele>324.7142857142857</ele><time>2026-04-07T13:22:27.999Z</time></trkpt><trkpt lat="45.717129089237346" lon="9.770862551307745"><ele>325.1428571428571</ele><time>2026-04-07T13:22:30.999Z</time></trkpt><trkpt lat="45.71708336220469" lon="9.77093433079677"><ele>325.5714285714286</ele><time>2026-04-07T13:22:32.999Z</time></trkpt><trkpt lat="45.717021327261946" lon="9.77104108849955"><ele>326.0</ele><time>2026-04-07T13:22:35.999Z</time></trkpt><trkpt lat="45.716996192582066" lon="9.771125737286741"><ele>326.42857142857144</ele><time>2026-04-07T13:22:37.999Z</time></trkpt><trkpt lat="45.71696871313657" lon="9.7712200421297"><ele>326.85714285714283</ele><time>2026-04-07T13:22:39.999Z</time></trkpt><trkpt lat="45.71697282064418" lon="9.771314211197815"><ele>327.2857142857143</ele><time>2026-04-07T13:22:41.999Z</time></trkpt><trkpt lat="45.71704006061201" lon="9.771391741377165"><ele>327.7142857142857</ele><time>2026-04-07T13:22:44.999Z</time></trkpt><trkpt lat="45.71710967587598" lon="9.771412235616221"><ele>328.1428571428571</ele><time>2026-04-07T13:22:48Z</time></trkpt><trkpt lat="45.71717446792411" lon="9.77142356834955"><ele>328.57142857142856</ele><time>2026-04-07T13:22:51Z</time></trkpt><trkpt lat="45.7172468620116" lon="9.771448238334212"><ele>329.0</ele><time>2026-04-07T13:22:55Z</time></trkpt><trkpt lat="45.71731959769462" lon="9.7714740319923"><ele>329.0</ele><time>2026-04-07T13:22:59Z</time></trkpt><trkpt lat="45.71739697918564" lon="9.771490911032704"><ele>329.0</ele><time>2026-04-07T13:23:03Z</time></trkpt><trkpt lat="45.71746296177945" lon="9.771495514674053"><ele>329.0</ele><time>2026-04-07T13:23:07Z</time></trkpt><trkpt lat="45.71750279315542" lon="9.77141901202529"><ele>329.0</ele><time>2026-04-07T13:23:11Z</time></trkpt><trkpt lat="45.71753069354669" lon="9.771315989235477"><ele>329.0</ele><time>2026-04-07T13:23:15Z</time></trkpt><trkpt lat="45.71756667695129" lon="9.7712278412664"><ele>329.0</ele><time>2026-04-07T13:23:18Z</time></trkpt><trkpt lat="45.71759933427458" lon="9.77114721851401"><ele>329.0</ele><time>2026-04-07T13:23:21Z</time></trkpt><trkpt lat="45.71762836106748" lon="9.77106430859039"><ele>328.57142857142856</ele><time>2026-04-07T13:23:24Z</time></trkpt><trkpt lat="45.717656682348625" lon="9.770976039664863"><ele>328.1428571428571</ele><time>2026-04-07T13:23:27Z</time></trkpt><trkpt lat="45.71770974044418" lon="9.770898457571851"><ele>327.7142857142857</ele><time>2026-04-07T13:23:30Z</time></trkpt><trkpt lat="45.717760488747295" lon="9.770815352280769"><ele>327.2857142857143</ele><time>2026-04-07T13:23:34Z</time></trkpt><trkpt lat="45.7178056338881" lon="9.770751294067368"><ele>326.85714285714283</ele><time>2026-04-07T13:23:37Z</time></trkpt><trkpt lat="45.717846315589306" lon="9.770664371386058"><ele>326.42857142857144</ele><time>2026-04-07T13:23:41Z</time></trkpt><trkpt lat="45.717903668515454" lon="9.770611877444827"><ele>326.0</ele><time>2026-04-07T13:23:44Z</time></trkpt><trkpt lat="45.71797432042301" lon="9.770634436803798"><ele>327.0</ele><time>2026-04-07T13:23:49Z</time></trkpt><trkpt lat="45.71803504763398" lon="9.770664941977213"><ele>328.0</ele><time>2026-04-07T13:23:54Z</time></trkpt><trkpt lat="45.71810930455014" lon="9.770700475009411"><ele>329.0</ele><time>2026-04-07T13:23:59Z</time></trkpt><trkpt lat="45.71815876240305" lon="9.770758869254557"><ele>330.0</ele><time>2026-04-07T13:24:04Z</time></trkpt><trkpt lat="45.71822646997286" lon="9.770783438297808"><ele>331.0</ele><time>2026-04-07T13:24:13Z</time></trkpt><trkpt lat="45.71829227746893" lon="9.770798178628482"><ele>332.0</ele><time>2026-04-07T13:24:19Z</time></trkpt><trkpt lat="45.718349544398" lon="9.770837692819777"><ele>333.0</ele><time>2026-04-07T13:24:25Z</time></trkpt><trkpt lat="45.71840231984122" lon="9.770894863505298"><ele>333.0</ele><time>2026-04-07T13:24:32Z</time></trkpt><trkpt lat="45.71845230128708" lon="9.770951843956272"><ele>333.0</ele><time>2026-04-07T13:24:38.999Z</time></trkpt><trkpt lat="45.718514248647644" lon="9.770997868700551"><ele>333.0</ele><time>2026-04-07T13:24:46.999Z</time></trkpt><trkpt lat="45.71857000139117" lon="9.771041636755468"><ele>333.0</ele><time>2026-04-07T13:24:54Z</time></trkpt><trkpt lat="45.71862280336878" lon="9.771093569604243"><ele>333.0</ele><time>2026-04-07T13:25:01Z</time></trkpt><trkpt lat="45.71869035451574" lon="9.77114367259868"><ele>333.0</ele><time>2026-04-07T13:25:32Z</time></trkpt><trkpt lat="45.718758047645075" lon="9.771184990475561"><ele>333.0</ele><time>2026-04-07T13:25:34Z</time></trkpt><trkpt lat="45.718864239819396" lon="9.771191973284328"><ele>335.0</ele><time>2026-04-07T13:25:37Z</time></trkpt><trkpt lat="45.718931758211305" lon="9.771181707194291"><ele>337.0</ele><time>2026-04-07T13:25:38Z</time></trkpt><trkpt lat="45.71900485262335" lon="9.771165068347416"><ele>339.0</ele><time>2026-04-07T13:25:39Z</time></trkpt><trkpt lat="45.719093005807004" lon="9.771146528054333"><ele>341.0</ele><time>2026-04-07T13:25:40Z</time></trkpt><trkpt lat="45.71919293192751" lon="9.77112498629886"><ele>343.0</ele><time>2026-04-07T13:25:41Z</time></trkpt><trkpt lat="45.719278624571" lon="9.771109080792522"><ele>345.0</ele><time>2026-04-07T13:25:42Z</time></trkpt><trkpt lat="45.71937184238448" lon="9.771094814842453"><ele>345.0</ele><time>2026-04-07T13:25:43Z</time></trkpt><trkpt lat="45.719472758204894" lon="9.771074933279548"><ele>345.0</ele><time>2026-04-07T13:25:44.027Z</time></trkpt><trkpt lat="45.7195707579619" lon="9.77103259372483"><ele>345.0</ele><time>2026-04-07T13:25:45.025Z</time></trkpt><trkpt lat="45.7196815392091" lon="9.770993690980196"><ele>345.0</ele><time>2026-04-07T13:25:46.025Z</time></trkpt><trkpt lat="45.71932836523667" lon="9.77107254633785"><ele>345.0</ele><time>2026-04-07T13:25:47.026Z</time></trkpt><trkpt lat="45.71860477571044" lon="9.771193518842056"><ele>345.0</ele><time>2026-04-07T13:39:51.078Z</time></trkpt><trkpt lat="45.71859975683711" lon="9.771088977776236"><ele>345.0</ele><time>2026-04-07T13:40:24.069Z</time></trkpt><trkpt lat="45.718580195360964" lon="9.770948735223723"><ele>345.0</ele><time>2026-04-07T13:40:26.999Z</time></trkpt><trkpt lat="45.718596347433106" lon="9.77085240777985"><ele>345.0</ele><time>2026-04-07T13:40:29Z</time></trkpt><trkpt lat="45.7185888176286" lon="9.770942974631694"><ele>345.0</ele><time>2026-04-07T13:40:36Z</time></trkpt><trkpt lat="45.7184977608488" lon="9.77099508906089"><ele>345.0</ele><time>2026-04-07T13:40:40Z</time></trkpt><trkpt lat="45.71844044074943" lon="9.771044585968651"><ele>342.6</ele><time>2026-04-07T13:40:42Z</time></trkpt><trkpt lat="45.71837286626331" lon="9.77091114392554"><ele>340.2</ele><time>2026-04-07T13:40:43Z</time></trkpt><trkpt lat="45.7182685298885" lon="9.770812093433056"><ele>337.79999999999995</ele><time>2026-04-07T13:40:45Z</time></trkpt><trkpt lat="45.718205347613846" lon="9.770760440808576"><ele>335.4</ele><time>2026-04-07T13:40:46Z</time></trkpt><trkpt lat="45.71813975533991" lon="9.770712487834802"><ele>333.0</ele><time>2026-04-07T13:40:47Z</time></trkpt><trkpt lat="45.71807225584471" lon="9.770663252617698"><ele>333.0</ele><time>2026-04-07T13:40:48Z</time></trkpt><trkpt lat="45.71801106103549" lon="9.770618424459332"><ele>333.0</ele><time>2026-04-07T13:40:49Z</time></trkpt><trkpt lat="45.71791710280763" lon="9.770574299553294"><ele>333.0</ele><time>2026-04-07T13:40:51Z</time></trkpt><trkpt lat="45.71785152153091" lon="9.770607716020987"><ele>333.0</ele><time>2026-04-07T13:40:53Z</time></trkpt><trkpt lat="45.71778566901828" lon="9.77057621525435"><ele>333.0</ele><time>2026-04-07T13:40:55Z</time></trkpt><trkpt lat="45.717733035497986" lon="9.77051085253654"><ele>333.0</ele><time>2026-04-07T13:40:57Z</time></trkpt><trkpt lat="45.717637182445316" lon="9.770401508709863"><ele>332.0</ele><time>2026-04-07T13:40:59Z</time></trkpt><trkpt lat="45.71757690969207" lon="9.770338630603263"><ele>331.0</ele><time>2026-04-07T13:41:00Z</time></trkpt><trkpt lat="45.717498799516584" lon="9.770257202886151"><ele>330.0</ele><time>2026-04-07T13:41:02Z</time></trkpt><trkpt lat="45.71758225346835" lon="9.770142215865807"><ele>329.0</ele><time>2026-04-07T13:41:06Z</time></trkpt><trkpt lat="45.717662198612274" lon="9.770023290691054"><ele>328.0</ele><time>2026-04-07T13:41:08Z</time></trkpt><trkpt lat="45.71774242653607" lon="9.769896593893193"><ele>328.0</ele><time>2026-04-07T13:41:10Z</time></trkpt><trkpt lat="45.71781755132525" lon="9.769767792476284"><ele>328.0</ele><time>2026-04-07T13:41:12Z</time></trkpt><trkpt lat="45.71788826746843" lon="9.769646937312377"><ele>328.0</ele><time>2026-04-07T13:41:14Z</time></trkpt><trkpt lat="45.71796337363051" lon="9.769531107971046"><ele>328.0</ele><time>2026-04-07T13:41:16Z</time></trkpt><trkpt lat="45.71803161986864" lon="9.769412029046304"><ele>328.0</ele><time>2026-04-07T13:41:18Z</time></trkpt><trkpt lat="45.718100866854286" lon="9.769295914058953"><ele>326.79999999999995</ele><time>2026-04-07T13:41:20Z</time></trkpt><trkpt lat="45.71816980748799" lon="9.769187490518032"><ele>325.6</ele><time>2026-04-07T13:41:22Z</time></trkpt><trkpt lat="45.71824277321393" lon="9.769087383715192"><ele>324.4</ele><time>2026-04-07T13:41:24Z</time></trkpt><trkpt lat="45.71831831862067" lon="9.768991535190631"><ele>323.20000000000005</ele><time>2026-04-07T13:41:26Z</time></trkpt><trkpt lat="45.71839351991746" lon="9.768897272161901"><ele>322.0</ele><time>2026-04-07T13:41:28Z</time></trkpt><trkpt lat="45.71847594976904" lon="9.768815744840854"><ele>322.0</ele><time>2026-04-07T13:41:30Z</time></trkpt><trkpt lat="45.71856140052966" lon="9.768733373801643"><ele>322.0</ele><time>2026-04-07T13:41:32Z</time></trkpt><trkpt lat="45.71864068291562" lon="9.768655349920842"><ele>322.0</ele><time>2026-04-07T13:41:34Z</time></trkpt><trkpt lat="45.718720844347885" lon="9.768574930167519"><ele>322.0</ele><time>2026-04-07T13:41:36Z</time></trkpt><trkpt lat="45.71880595250142" lon="9.768490849856247"><ele>322.0</ele><time>2026-04-07T13:41:38Z</time></trkpt><trkpt lat="45.718912629502285" lon="9.768391449229807"><ele>322.20000000000005</ele><time>2026-04-07T13:41:40Z</time></trkpt><trkpt lat="45.71896917923306" lon="9.76834216376875"><ele>322.4</ele><time>2026-04-07T13:41:41Z</time></trkpt><trkpt lat="45.71902355153574" lon="9.768291970565693"><ele>322.6</ele><time>2026-04-07T13:41:42Z</time></trkpt><trkpt lat="45.71912363766186" lon="9.768182385332018"><ele>322.79999999999995</ele><time>2026-04-07T13:41:44Z</time></trkpt><trkpt lat="45.71922263579754" lon="9.768077187553871"><ele>323.0</ele><time>2026-04-07T13:41:46Z</time></trkpt><trkpt lat="45.71932526616035" lon="9.767980818674818"><ele>323.75</ele><time>2026-04-07T13:41:48Z</time></trkpt><trkpt lat="45.719426193786816" lon="9.76788089121488"><ele>324.5</ele><time>2026-04-07T13:41:50Z</time></trkpt><trkpt lat="45.7195248542586" lon="9.767778138108213"><ele>325.25</ele><time>2026-04-07T13:41:52Z</time></trkpt><trkpt lat="45.71962643939129" lon="9.767678800634654"><ele>326.0</ele><time>2026-04-07T13:41:54Z</time></trkpt><trkpt lat="45.71972826935386" lon="9.76757911605707"><ele>326.0</ele><time>2026-04-07T13:41:56Z</time></trkpt><trkpt lat="45.71983047228463" lon="9.767480039273714"><ele>326.0</ele><time>2026-04-07T13:41:58Z</time></trkpt><trkpt lat="45.719927543680164" lon="9.767383827579225"><ele>326.0</ele><time>2026-04-07T13:42:00Z</time></trkpt><trkpt lat="45.720020403443456" lon="9.767285411911551"><ele>326.0</ele><time>2026-04-07T13:42:02Z</time></trkpt><trkpt lat="45.72011587224498" lon="9.767195233182244"><ele>326.0</ele><time>2026-04-07T13:42:04Z</time></trkpt><trkpt lat="45.72020420543418" lon="9.767102464301324"><ele>326.0</ele><time>2026-04-07T13:42:06Z</time></trkpt><trkpt lat="45.720291065331345" lon="9.767007694859949"><ele>326.0</ele><time>2026-04-07T13:42:08Z</time></trkpt><trkpt lat="45.72038533835706" lon="9.766925095766998"><ele>326.0</ele><time>2026-04-07T13:42:10Z</time></trkpt><trkpt lat="45.7204789456133" lon="9.766840738290858"><ele>326.0</ele><time>2026-04-07T13:42:12Z</time></trkpt><trkpt lat="45.720576024442565" lon="9.766756603652661"><ele>325.20000000000005</ele><time>2026-04-07T13:42:14Z</time></trkpt><trkpt lat="45.72066537444384" lon="9.766647050298781"><ele>324.40000000000003</ele><time>2026-04-07T13:42:16Z</time></trkpt><trkpt lat="45.72074957467854" lon="9.766539253688867"><ele>323.6</ele><time>2026-04-07T13:42:18Z</time></trkpt><trkpt lat="45.720829025023974" lon="9.766424838074947"><ele>322.8</ele><time>2026-04-07T13:42:20Z</time></trkpt><trkpt lat="45.72087614062224" lon="9.766364209595968"><ele>322.0</ele><time>2026-04-07T13:42:21Z</time></trkpt><trkpt lat="45.72095981895904" lon="9.76625368679323"><ele>322.0</ele><time>2026-04-07T13:42:23Z</time></trkpt><trkpt lat="45.72103872817557" lon="9.766138523506168"><ele>322.0</ele><time>2026-04-07T13:42:25Z</time></trkpt><trkpt lat="45.72112277542157" lon="9.766041042744936"><ele>322.0</ele><time>2026-04-07T13:42:27Z</time></trkpt><trkpt lat="45.72120751591459" lon="9.76594321361736"><ele>322.0</ele><time>2026-04-07T13:42:29Z</time></trkpt><trkpt lat="45.721290583022665" lon="9.76585327494225"><ele>322.0</ele><time>2026-04-07T13:42:31Z</time></trkpt><trkpt lat="45.721369244109304" lon="9.765753961743417"><ele>321.40000000000003</ele><time>2026-04-07T13:42:33Z</time></trkpt><trkpt lat="45.72145186033619" lon="9.765673589967621"><ele>320.8</ele><time>2026-04-07T13:42:35Z</time></trkpt><trkpt lat="45.72153271408876" lon="9.765591481486423"><ele>320.2</ele><time>2026-04-07T13:42:37Z</time></trkpt><trkpt lat="45.721609573159355" lon="9.76550806061268"><ele>319.6</ele><time>2026-04-07T13:42:39Z</time></trkpt><trkpt lat="45.72168312322261" lon="9.76543431031911"><ele>319.0</ele><time>2026-04-07T13:42:41Z</time></trkpt><trkpt lat="45.72175751829077" lon="9.765363557977086"><ele>319.0</ele><time>2026-04-07T13:42:43Z</time></trkpt><trkpt lat="45.72184889773172" lon="9.765272107261394"><ele>319.0</ele><time>2026-04-07T13:42:45Z</time></trkpt><trkpt lat="45.72195435580152" lon="9.76517582180708"><ele>319.0</ele><time>2026-04-07T13:42:47Z</time></trkpt><trkpt lat="45.722010379187395" lon="9.765123993108357"><ele>319.0</ele><time>2026-04-07T13:42:48Z</time></trkpt><trkpt lat="45.722068415894896" lon="9.765071191416894"><ele>319.0</ele><time>2026-04-07T13:42:49Z</time></trkpt><trkpt lat="45.722122797421136" lon="9.765013252364389"><ele>319.0</ele><time>2026-04-07T13:42:50Z</time></trkpt><trkpt lat="45.72218300116507" lon="9.764959857156413"><ele>319.0</ele><time>2026-04-07T13:42:51Z</time></trkpt><trkpt lat="45.72223831893186" lon="9.764904359336011"><ele>319.0</ele><time>2026-04-07T13:42:52Z</time></trkpt><trkpt lat="45.722298070231005" lon="9.764846061580505"><ele>319.0</ele><time>2026-04-07T13:42:53Z</time></trkpt><trkpt lat="45.72235541137696" lon="9.76479149878541"><ele>319.0</ele><time>2026-04-07T13:42:54Z</time></trkpt><trkpt lat="45.722411030344546" lon="9.764731013079984"><ele>319.0</ele><time>2026-04-07T13:42:55Z</time></trkpt><trkpt lat="45.722469482676985" lon="9.76467205701223"><ele>319.0</ele><time>2026-04-07T13:42:56Z</time></trkpt><trkpt lat="45.722529778798474" lon="9.764617009354948"><ele>319.0</ele><time>2026-04-07T13:42:57Z</time></trkpt><trkpt lat="45.722585067821136" lon="9.764560968339437"><ele>319.0</ele><time>2026-04-07T13:42:58Z</time></trkpt><trkpt lat="45.722646015150666" lon="9.764504670334993"><ele>319.0</ele><time>2026-04-07T13:42:59Z</time></trkpt><trkpt lat="45.72270439035798" lon="9.764449068003165"><ele>319.0</ele><time>2026-04-07T13:43:00Z</time></trkpt><trkpt lat="45.722760973383735" lon="9.764393739321859"><ele>319.0</ele><time>2026-04-07T13:43:01Z</time></trkpt><trkpt lat="45.722818330822626" lon="9.764338273979154"><ele>319.0</ele><time>2026-04-07T13:43:02Z</time></trkpt><trkpt lat="45.722874896197524" lon="9.764280255458726"><ele>319.0</ele><time>2026-04-07T13:43:03Z</time></trkpt><trkpt lat="45.722932053953365" lon="9.764222891165124"><ele>319.0</ele><time>2026-04-07T13:43:04Z</time></trkpt><trkpt lat="45.722986604899376" lon="9.764162828156644"><ele>318.16666666666663</ele><time>2026-04-07T13:43:05Z</time></trkpt><trkpt lat="45.72303985873749" lon="9.764102676676949"><ele>317.3333333333333</ele><time>2026-04-07T13:43:06Z</time></trkpt><trkpt lat="45.72309226144405" lon="9.764039766911955"><ele>316.5</ele><time>2026-04-07T13:43:07Z</time></trkpt><trkpt lat="45.72314045583631" lon="9.763975304280914"><ele>315.6666666666667</ele><time>2026-04-07T13:43:08Z</time></trkpt><trkpt lat="45.72318664138192" lon="9.763908644790169"><ele>314.83333333333337</ele><time>2026-04-07T13:43:09Z</time></trkpt><trkpt lat="45.723237465776734" lon="9.763844900647054"><ele>314.0</ele><time>2026-04-07T13:43:10Z</time></trkpt><trkpt lat="45.723326081454836" lon="9.76371978544974"><ele>314.0</ele><time>2026-04-07T13:43:12Z</time></trkpt><trkpt lat="45.723422093455476" lon="9.763606675308749"><ele>314.0</ele><time>2026-04-07T13:43:14Z</time></trkpt><trkpt lat="45.72350562118665" lon="9.763483045471892"><ele>314.0</ele><time>2026-04-07T13:43:16Z</time></trkpt><trkpt lat="45.72358933428542" lon="9.763354051342326"><ele>314.0</ele><time>2026-04-07T13:43:18Z</time></trkpt><trkpt lat="45.72363433843963" lon="9.763289143642957"><ele>314.0</ele><time>2026-04-07T13:43:19Z</time></trkpt><trkpt lat="45.72373819642545" lon="9.763184051764464"><ele>314.5</ele><time>2026-04-07T13:43:21Z</time></trkpt><trkpt lat="45.72383773869858" lon="9.763076147999902"><ele>315.0</ele><time>2026-04-07T13:43:23Z</time></trkpt><trkpt lat="45.7238883135668" lon="9.763020823072784"><ele>315.5</ele><time>2026-04-07T13:43:24Z</time></trkpt><trkpt lat="45.72394062853596" lon="9.762965430903272"><ele>316.0</ele><time>2026-04-07T13:43:25Z</time></trkpt><trkpt lat="45.724039715934694" lon="9.7628602211826"><ele>316.5</ele><time>2026-04-07T13:43:27Z</time></trkpt><trkpt lat="45.72408897055154" lon="9.762803031946296"><ele>317.0</ele><time>2026-04-07T13:43:28Z</time></trkpt><trkpt lat="45.724138037179124" lon="9.762742060092695"><ele>316.5</ele><time>2026-04-07T13:43:29Z</time></trkpt><trkpt lat="45.724236803954426" lon="9.762623033498622"><ele>316.0</ele><time>2026-04-07T13:43:31Z</time></trkpt><trkpt lat="45.72428062152488" lon="9.762547260713472"><ele>315.5</ele><time>2026-04-07T13:43:32Z</time></trkpt><trkpt lat="45.72432340428458" lon="9.762468161535741"><ele>315.0</ele><time>2026-04-07T13:43:33Z</time></trkpt><trkpt lat="45.724361215612" lon="9.762382634743455"><ele>314.5</ele><time>2026-04-07T13:43:34Z</time></trkpt><trkpt lat="45.72439995412948" lon="9.762300603952784"><ele>314.0</ele><time>2026-04-07T13:43:35Z</time></trkpt><trkpt lat="45.724436238894825" lon="9.762215596822385"><ele>314.1428571428571</ele><time>2026-04-07T13:43:36Z</time></trkpt><trkpt lat="45.724468848564726" lon="9.762131489043494"><ele>314.2857142857143</ele><time>2026-04-07T13:43:37Z</time></trkpt><trkpt lat="45.724503341316" lon="9.762044480620775"><ele>314.42857142857144</ele><time>2026-04-07T13:43:38Z</time></trkpt><trkpt lat="45.7245383362525" lon="9.761961739536057"><ele>314.57142857142856</ele><time>2026-04-07T13:43:39Z</time></trkpt><trkpt lat="45.72457675478038" lon="9.761875702843016"><ele>314.7142857142857</ele><time>2026-04-07T13:43:40Z</time></trkpt><trkpt lat="45.72461162501712" lon="9.761788302672741"><ele>314.85714285714283</ele><time>2026-04-07T13:43:41Z</time></trkpt><trkpt lat="45.72465132949422" lon="9.761703614965365"><ele>315.0</ele><time>2026-04-07T13:43:42Z</time></trkpt><trkpt lat="45.72468714529939" lon="9.76162058098451"><ele>315.0</ele><time>2026-04-07T13:43:43Z</time></trkpt><trkpt lat="45.72473458796695" lon="9.761540200494613"><ele>315.0</ele><time>2026-04-07T13:43:44Z</time></trkpt><trkpt lat="45.72478870833948" lon="9.761472478853372"><ele>315.0</ele><time>2026-04-07T13:43:45Z</time></trkpt><trkpt lat="45.72484242944603" lon="9.761407806053787"><ele>315.0</ele><time>2026-04-07T13:43:46Z</time></trkpt><trkpt lat="45.72489916457839" lon="9.761349673529095"><ele>315.0</ele><time>2026-04-07T13:43:47Z</time></trkpt><trkpt lat="45.724956693183046" lon="9.761293034352127"><ele>315.0</ele><time>2026-04-07T13:43:48Z</time></trkpt><trkpt lat="45.72501551149623" lon="9.761241943259428"><ele>315.0</ele><time>2026-04-07T13:43:49Z</time></trkpt><trkpt lat="45.725078634089826" lon="9.761200898181478"><ele>315.0</ele><time>2026-04-07T13:43:50Z</time></trkpt><trkpt lat="45.725152159927035" lon="9.761164052408727"><ele>315.0</ele><time>2026-04-07T13:43:51Z</time></trkpt><trkpt lat="45.72521687712958" lon="9.761122158002257"><ele>315.0</ele><time>2026-04-07T13:43:52Z</time></trkpt><trkpt lat="45.72528272067722" lon="9.761085972249894"><ele>315.0</ele><time>2026-04-07T13:43:53Z</time></trkpt><trkpt lat="45.72534837834141" lon="9.761049774723261"><ele>315.0</ele><time>2026-04-07T13:43:54Z</time></trkpt><trkpt lat="45.72541458675694" lon="9.76101817572295"><ele>315.0</ele><time>2026-04-07T13:43:55Z</time></trkpt><trkpt lat="45.725482467234734" lon="9.760989984036396"><ele>315.0</ele><time>2026-04-07T13:43:56Z</time></trkpt><trkpt lat="45.72554598799988" lon="9.760960990969256"><ele>314.2857142857143</ele><time>2026-04-07T13:43:57Z</time></trkpt><trkpt lat="45.72561518936968" lon="9.76093110303903"><ele>313.57142857142856</ele><time>2026-04-07T13:43:58Z</time></trkpt><trkpt lat="45.72568034887493" lon="9.760902997142818"><ele>312.8571428571429</ele><time>2026-04-07T13:43:59Z</time></trkpt><trkpt lat="45.72574822523245" lon="9.760878328599984"><ele>312.1428571428571</ele><time>2026-04-07T13:44:00Z</time></trkpt><trkpt lat="45.72581720375164" lon="9.760846795497676"><ele>311.42857142857144</ele><time>2026-04-07T13:44:01Z</time></trkpt><trkpt lat="45.72588091833626" lon="9.760820822621447"><ele>310.7142857142857</ele><time>2026-04-07T13:44:02Z</time></trkpt><trkpt lat="45.72594913792283" lon="9.760796827452026"><ele>310.0</ele><time>2026-04-07T13:44:03Z</time></trkpt><trkpt lat="45.72601541976771" lon="9.76076912641808"><ele>310.42857142857144</ele><time>2026-04-07T13:44:04Z</time></trkpt><trkpt lat="45.72608054865071" lon="9.760743801131031"><ele>310.85714285714283</ele><time>2026-04-07T13:44:05Z</time></trkpt><trkpt lat="45.72614790594345" lon="9.76071465972108"><ele>311.2857142857143</ele><time>2026-04-07T13:44:06Z</time></trkpt><trkpt lat="45.726211894008685" lon="9.760689519298037"><ele>311.7142857142857</ele><time>2026-04-07T13:44:07Z</time></trkpt><trkpt lat="45.72627601956356" lon="9.760660617460378"><ele>312.14285714285717</ele><time>2026-04-07T13:44:08Z</time></trkpt><trkpt lat="45.726339859776985" lon="9.760638016154642"><ele>312.57142857142856</ele><time>2026-04-07T13:44:09Z</time></trkpt><trkpt lat="45.7264017626504" lon="9.760611245540716"><ele>313.0</ele><time>2026-04-07T13:44:10Z</time></trkpt><trkpt lat="45.72646521053433" lon="9.7605848478627"><ele>313.0</ele><time>2026-04-07T13:44:11Z</time></trkpt><trkpt lat="45.72652861773485" lon="9.760560753125288"><ele>313.0</ele><time>2026-04-07T13:44:12Z</time></trkpt><trkpt lat="45.72658946457841" lon="9.760535427487532"><ele>313.0</ele><time>2026-04-07T13:44:13Z</time></trkpt><trkpt lat="45.72665104518824" lon="9.760509437368995"><ele>313.0</ele><time>2026-04-07T13:44:14Z</time></trkpt><trkpt lat="45.72671130130248" lon="9.760482752402245"><ele>313.0</ele><time>2026-04-07T13:44:15Z</time></trkpt><trkpt lat="45.726833492310774" lon="9.76043684219951"><ele>313.0</ele><time>2026-04-07T13:44:17Z</time></trkpt><trkpt lat="45.72696032875912" lon="9.760401573538543"><ele>313.57142857142856</ele><time>2026-04-07T13:44:19Z</time></trkpt><trkpt lat="45.727023873939025" lon="9.76038554924818"><ele>314.14285714285717</ele><time>2026-04-07T13:44:20Z</time></trkpt><trkpt lat="45.72708876557845" lon="9.760364362887234"><ele>314.7142857142857</ele><time>2026-04-07T13:44:21Z</time></trkpt><trkpt lat="45.72715447123604" lon="9.760348934656289"><ele>315.2857142857143</ele><time>2026-04-07T13:44:22Z</time></trkpt><trkpt lat="45.727217568067005" lon="9.76033398484739"><ele>315.85714285714283</ele><time>2026-04-07T13:44:23Z</time></trkpt><trkpt lat="45.72728687458019" lon="9.760313950276329"><ele>316.42857142857144</ele><time>2026-04-07T13:44:24Z</time></trkpt><trkpt lat="45.72735341365369" lon="9.760288331529"><ele>317.0</ele><time>2026-04-07T13:44:25Z</time></trkpt><trkpt lat="45.72741744241593" lon="9.760259134239917"><ele>317.0</ele><time>2026-04-07T13:44:26Z</time></trkpt><trkpt lat="45.727484113105895" lon="9.760230617513091"><ele>317.0</ele><time>2026-04-07T13:44:27Z</time></trkpt><trkpt lat="45.727547122165646" lon="9.76019961866311"><ele>317.0</ele><time>2026-04-07T13:44:28Z</time></trkpt><trkpt lat="45.72761007559439" lon="9.760168969745285"><ele>317.0</ele><time>2026-04-07T13:44:29Z</time></trkpt><trkpt lat="45.727673554029586" lon="9.760139134766105"><ele>317.0</ele><time>2026-04-07T13:44:30Z</time></trkpt><trkpt lat="45.72773515344465" lon="9.760102075957231"><ele>317.0</ele><time>2026-04-07T13:44:31Z</time></trkpt><trkpt lat="45.72779471111421" lon="9.760072422439178"><ele>317.0</ele><time>2026-04-07T13:44:32Z</time></trkpt><trkpt lat="45.72785895444127" lon="9.760040561424344"><ele>316.0</ele><time>2026-04-07T13:44:33Z</time></trkpt><trkpt lat="45.72792156530766" lon="9.760007433804933"><ele>315.0</ele><time>2026-04-07T13:44:34Z</time></trkpt><trkpt lat="45.72798478161575" lon="9.759975840912315"><ele>314.0</ele><time>2026-04-07T13:44:35Z</time></trkpt><trkpt lat="45.7280475633041" lon="9.759945767986437"><ele>313.0</ele><time>2026-04-07T13:44:36Z</time></trkpt><trkpt lat="45.72811002123597" lon="9.75990728177662"><ele>312.0</ele><time>2026-04-07T13:44:37Z</time></trkpt><trkpt lat="45.728171917965895" lon="9.759870729612407"><ele>311.0</ele><time>2026-04-07T13:44:38Z</time></trkpt><trkpt lat="45.72823379520436" lon="9.759840634476857"><ele>310.0</ele><time>2026-04-07T13:44:39Z</time></trkpt><trkpt lat="45.72829575036059" lon="9.759811790807559"><ele>310.0</ele><time>2026-04-07T13:44:40Z</time></trkpt><trkpt lat="45.72835593262179" lon="9.759779056194201"><ele>310.0</ele><time>2026-04-07T13:44:41Z</time></trkpt><trkpt lat="45.728417490113294" lon="9.759747655332392"><ele>310.0</ele><time>2026-04-07T13:44:42Z</time></trkpt><trkpt lat="45.72853830380151" lon="9.759684470545029"><ele>310.0</ele><time>2026-04-07T13:44:44Z</time></trkpt><trkpt lat="45.72865651855694" lon="9.759616661876366"><ele>310.0</ele><time>2026-04-07T13:44:46Z</time></trkpt><trkpt lat="45.728716699880096" lon="9.759584499662415"><ele>310.57142857142856</ele><time>2026-04-07T13:44:47Z</time></trkpt><trkpt lat="45.72883132480437" lon="9.759525727668285"><ele>311.1428571428571</ele><time>2026-04-07T13:44:49Z</time></trkpt><trkpt lat="45.728895549225136" lon="9.759492266064457"><ele>311.71428571428567</ele><time>2026-04-07T13:44:50Z</time></trkpt><trkpt lat="45.728956213340766" lon="9.759466208431132"><ele>312.2857142857143</ele><time>2026-04-07T13:44:51Z</time></trkpt><trkpt lat="45.72901741285831" lon="9.759444358959556"><ele>312.85714285714283</ele><time>2026-04-07T13:44:52Z</time></trkpt><trkpt lat="45.72908161307729" lon="9.759430146926242"><ele>313.4285714285714</ele><time>2026-04-07T13:44:53Z</time></trkpt><trkpt lat="45.729145472844216" lon="9.759409713621503"><ele>314.0</ele><time>2026-04-07T13:44:54Z</time></trkpt><trkpt lat="45.729272963470116" lon="9.759390189318948"><ele>314.1666666666667</ele><time>2026-04-07T13:44:56Z</time></trkpt><trkpt lat="45.729397081696284" lon="9.759378771937671"><ele>314.33333333333337</ele><time>2026-04-07T13:44:58Z</time></trkpt><trkpt lat="45.72946083220622" lon="9.759379513752345"><ele>314.5</ele><time>2026-04-07T13:44:59Z</time></trkpt><trkpt lat="45.729525611886814" lon="9.759374939844486"><ele>314.6666666666667</ele><time>2026-04-07T13:45:00Z</time></trkpt><trkpt lat="45.729589068412" lon="9.759376757206212"><ele>314.8333333333333</ele><time>2026-04-07T13:45:01Z</time></trkpt><trkpt lat="45.729656871655855" lon="9.759369679067756"><ele>315.0</ele><time>2026-04-07T13:45:02Z</time></trkpt><trkpt lat="45.729785151504515" lon="9.759361650262015"><ele>313.2</ele><time>2026-04-07T13:45:04Z</time></trkpt><trkpt lat="45.72990752387074" lon="9.759352417081736"><ele>311.4</ele><time>2026-04-07T13:45:06Z</time></trkpt><trkpt lat="45.729974874331965" lon="9.759338425790823"><ele>309.6</ele><time>2026-04-07T13:45:07Z</time></trkpt><trkpt lat="45.730039730960044" lon="9.759322969953185"><ele>307.8</ele><time>2026-04-07T13:45:08Z</time></trkpt><trkpt lat="45.7301659507217" lon="9.759324542516882"><ele>306.0</ele><time>2026-04-07T13:45:10Z</time></trkpt><trkpt lat="45.730231283656394" lon="9.759296062161235"><ele>306.0</ele><time>2026-04-07T13:45:11Z</time></trkpt><trkpt lat="45.730297542990314" lon="9.759290527420724"><ele>306.0</ele><time>2026-04-07T13:45:12Z</time></trkpt><trkpt lat="45.730370269479636" lon="9.759278611786058"><ele>306.0</ele><time>2026-04-07T13:45:13Z</time></trkpt><trkpt lat="45.730439145337975" lon="9.759264324051689"><ele>306.0</ele><time>2026-04-07T13:45:14Z</time></trkpt><trkpt lat="45.730508269380955" lon="9.759246498434827"><ele>306.0</ele><time>2026-04-07T13:45:15Z</time></trkpt><trkpt lat="45.73057802634776" lon="9.759220798310025"><ele>306.0</ele><time>2026-04-07T13:45:16Z</time></trkpt><trkpt lat="45.730645745571294" lon="9.759195209163716"><ele>306.0</ele><time>2026-04-07T13:45:17Z</time></trkpt><trkpt lat="45.730714030410645" lon="9.759162265418158"><ele>306.0</ele><time>2026-04-07T13:45:18Z</time></trkpt><trkpt lat="45.7307788946534" lon="9.7591274768355"><ele>306.0</ele><time>2026-04-07T13:45:19Z</time></trkpt><trkpt lat="45.730840310697246" lon="9.759080559639827"><ele>306.0</ele><time>2026-04-07T13:45:20Z</time></trkpt><trkpt lat="45.730905841265546" lon="9.759031586409199"><ele>306.0</ele><time>2026-04-07T13:45:21Z</time></trkpt><trkpt lat="45.730968743884404" lon="9.758983229813538"><ele>306.0</ele><time>2026-04-07T13:45:22Z</time></trkpt><trkpt lat="45.73103528195166" lon="9.758935973697364"><ele>306.0</ele><time>2026-04-07T13:45:23Z</time></trkpt><trkpt lat="45.731102912278935" lon="9.758887848818384"><ele>306.0</ele><time>2026-04-07T13:45:24Z</time></trkpt><trkpt lat="45.731178215174744" lon="9.758844640828679"><ele>306.0</ele><time>2026-04-07T13:45:25Z</time></trkpt><trkpt lat="45.73125368050602" lon="9.758823906429672"><ele>306.0</ele><time>2026-04-07T13:45:26Z</time></trkpt><trkpt lat="45.7313251147749" lon="9.758812523565137"><ele>306.0</ele><time>2026-04-07T13:45:27Z</time></trkpt><trkpt lat="45.73142360220544" lon="9.75874548527137"><ele>306.0</ele><time>2026-04-07T13:45:29Z</time></trkpt><trkpt lat="45.73144018393066" lon="9.758571710234877"><ele>306.0</ele><time>2026-04-07T13:45:31Z</time></trkpt><trkpt lat="45.731411530498264" lon="9.758484518069043"><ele>306.0</ele><time>2026-04-07T13:45:32Z</time></trkpt><trkpt lat="45.73142908614158" lon="9.758345922206457"><ele>306.0</ele><time>2026-04-07T13:45:34Z</time></trkpt><trkpt lat="45.73149381173049" lon="9.758312969435247"><ele>306.0</ele><time>2026-04-07T13:45:35Z</time></trkpt><trkpt lat="45.731554426023564" lon="9.758279501385614"><ele>306.0</ele><time>2026-04-07T13:45:36Z</time></trkpt><trkpt lat="45.73164586115365" lon="9.758186258057783"><ele>306.0</ele><time>2026-04-07T13:45:38Z</time></trkpt><trkpt lat="45.73170875423932" lon="9.758121819137898"><ele>306.0</ele><time>2026-04-07T13:45:41Z</time></trkpt><trkpt lat="45.73179471402065" lon="9.758104299782255"><ele>306.0</ele><time>2026-04-07T13:45:43Z</time></trkpt><trkpt lat="45.73186173818059" lon="9.758042019573496"><ele>305.7142857142857</ele><time>2026-04-07T13:45:44Z</time></trkpt><trkpt lat="45.73192626066023" lon="9.757988788194785"><ele>305.42857142857144</ele><time>2026-04-07T13:45:45Z</time></trkpt><trkpt lat="45.731985341828626" lon="9.75793785168978"><ele>305.1428571428571</ele><time>2026-04-07T13:45:46Z</time></trkpt><trkpt lat="45.73204361976829" lon="9.757878799784832"><ele>304.8571428571429</ele><time>2026-04-07T13:45:47Z</time></trkpt><trkpt lat="45.7321001389154" lon="9.757819523865953"><ele>304.5714285714286</ele><time>2026-04-07T13:45:48Z</time></trkpt><trkpt lat="45.73215800414025" lon="9.75777135081614"><ele>304.2857142857143</ele><time>2026-04-07T13:45:49Z</time></trkpt><trkpt lat="45.732222317447565" lon="9.75773650501014"><ele>304.0</ele><time>2026-04-07T13:45:50Z</time></trkpt><trkpt lat="45.7322854872135" lon="9.75770752861569"><ele>304.2857142857143</ele><time>2026-04-07T13:45:51Z</time></trkpt><trkpt lat="45.732349801573676" lon="9.757678697756361"><ele>304.5714285714286</ele><time>2026-04-07T13:45:52Z</time></trkpt><trkpt lat="45.73241464568699" lon="9.757647143796252"><ele>304.8571428571429</ele><time>2026-04-07T13:45:53Z</time></trkpt><trkpt lat="45.732483355735994" lon="9.757614748717181"><ele>305.1428571428571</ele><time>2026-04-07T13:45:54Z</time></trkpt><trkpt lat="45.73255396571185" lon="9.757585909379227"><ele>305.42857142857144</ele><time>2026-04-07T13:45:55Z</time></trkpt><trkpt lat="45.73262711849084" lon="9.757556313677082"><ele>305.7142857142857</ele><time>2026-04-07T13:45:56Z</time></trkpt><trkpt lat="45.73270125887776" lon="9.757520948359701"><ele>306.0</ele><time>2026-04-07T13:45:57Z</time></trkpt><trkpt lat="45.732777769823045" lon="9.757490424033639"><ele>305.3333333333333</ele><time>2026-04-07T13:45:58Z</time></trkpt><trkpt lat="45.73285708687209" lon="9.757467611048437"><ele>304.6666666666667</ele><time>2026-04-07T13:45:59Z</time></trkpt><trkpt lat="45.73293936559457" lon="9.757444940752753"><ele>304.0</ele><time>2026-04-07T13:46:00Z</time></trkpt><trkpt lat="45.733023559918074" lon="9.757419850530411"><ele>303.33333333333337</ele><time>2026-04-07T13:46:01Z</time></trkpt><trkpt lat="45.73310742497482" lon="9.75738732658321"><ele>302.6666666666667</ele><time>2026-04-07T13:46:02Z</time></trkpt><trkpt lat="45.733188477838254" lon="9.757337563078304"><ele>302.0</ele><time>2026-04-07T13:46:03Z</time></trkpt><trkpt lat="45.73326130245452" lon="9.757270229376427"><ele>302.00000000000006</ele><time>2026-04-07T13:46:04Z</time></trkpt><trkpt lat="45.73332077259329" lon="9.75718358613558"><ele>302.0</ele><time>2026-04-07T13:46:05Z</time></trkpt><trkpt lat="45.73337167233876" lon="9.757095102471537"><ele>302.0</ele><time>2026-04-07T13:46:06Z</time></trkpt><trkpt lat="45.73342604165192" lon="9.757018780196711"><ele>302.0</ele><time>2026-04-07T13:46:07Z</time></trkpt><trkpt lat="45.73347860713717" lon="9.7569687978374"><ele>302.0</ele><time>2026-04-07T13:46:08Z</time></trkpt><trkpt lat="45.73355127036372" lon="9.756957961137791"><ele>302.00000000000006</ele><time>2026-04-07T13:46:09Z</time></trkpt><trkpt lat="45.733612180977836" lon="9.75692197608488"><ele>302.0</ele><time>2026-04-07T13:46:10Z</time></trkpt><trkpt lat="45.7337210814221" lon="9.756843420859612"><ele>302.0</ele><time>2026-04-07T13:46:12Z</time></trkpt><trkpt lat="45.73383720857499" lon="9.756779755966813"><ele>302.0</ele><time>2026-04-07T13:46:14Z</time></trkpt><trkpt lat="45.73395425553842" lon="9.756724098283732"><ele>302.0</ele><time>2026-04-07T13:46:16Z</time></trkpt><trkpt lat="45.734070333291946" lon="9.75666916095162"><ele>302.0</ele><time>2026-04-07T13:46:18Z</time></trkpt><trkpt lat="45.7341837801102" lon="9.756610345786356"><ele>302.0</ele><time>2026-04-07T13:46:20Z</time></trkpt><trkpt lat="45.734277566372015" lon="9.756511461997807"><ele>302.0</ele><time>2026-04-07T13:46:22Z</time></trkpt><trkpt lat="45.73431062725002" lon="9.756339357710065"><ele>302.0</ele><time>2026-04-07T13:46:24Z</time></trkpt><trkpt lat="45.73433077384609" lon="9.756170276597391"><ele>302.0</ele><time>2026-04-07T13:46:26Z</time></trkpt><trkpt lat="45.73441645156884" lon="9.75603847512683"><ele>300.6</ele><time>2026-04-07T13:46:28Z</time></trkpt><trkpt lat="45.73447928594091" lon="9.756010665189184"><ele>299.2</ele><time>2026-04-07T13:46:29Z</time></trkpt><trkpt lat="45.73454403058986" lon="9.755994467494228"><ele>297.8</ele><time>2026-04-07T13:46:30Z</time></trkpt><trkpt lat="45.73466333760195" lon="9.755946469628581"><ele>296.4</ele><time>2026-04-07T13:46:32Z</time></trkpt><trkpt lat="45.73478154790949" lon="9.755893591628613"><ele>295.0</ele><time>2026-04-07T13:46:34Z</time></trkpt><trkpt lat="45.73490489264828" lon="9.75586277939292"><ele>295.0</ele><time>2026-04-07T13:46:36Z</time></trkpt><trkpt lat="45.735023762473055" lon="9.755821402758729"><ele>295.0</ele><time>2026-04-07T13:46:38Z</time></trkpt><trkpt lat="45.73513400337647" lon="9.755738302297594"><ele>295.0</ele><time>2026-04-07T13:46:40Z</time></trkpt><trkpt lat="45.73517600925526" lon="9.755669464800988"><ele>295.0</ele><time>2026-04-07T13:46:41Z</time></trkpt><trkpt lat="45.73527541323487" lon="9.755560558788506"><ele>295.0</ele><time>2026-04-07T13:46:43Z</time></trkpt><trkpt lat="45.73533867303865" lon="9.755539912823851"><ele>294.42857142857144</ele><time>2026-04-07T13:46:44Z</time></trkpt><trkpt lat="45.735403265240144" lon="9.755552605542492"><ele>293.8571428571429</ele><time>2026-04-07T13:46:45Z</time></trkpt><trkpt lat="45.73546674693632" lon="9.755580975187854"><ele>293.2857142857143</ele><time>2026-04-07T13:46:46Z</time></trkpt><trkpt lat="45.73553049526153" lon="9.755573144477964"><ele>292.7142857142857</ele><time>2026-04-07T13:46:47Z</time></trkpt><trkpt lat="45.73559082457041" lon="9.755507713159375"><ele>292.1428571428571</ele><time>2026-04-07T13:46:48Z</time></trkpt><trkpt lat="45.73563620121106" lon="9.755406128629872"><ele>291.57142857142856</ele><time>2026-04-07T13:46:49Z</time></trkpt><trkpt lat="45.73566895363489" lon="9.755307361990665"><ele>291.0</ele><time>2026-04-07T13:46:50Z</time></trkpt><trkpt lat="45.73568773380163" lon="9.755200515640151"><ele>290.6666666666667</ele><time>2026-04-07T13:46:51Z</time></trkpt><trkpt lat="45.73564988269463" lon="9.755078087783067"><ele>290.3333333333333</ele><time>2026-04-07T13:46:52Z</time></trkpt><trkpt lat="45.735595760783916" lon="9.7549821940714"><ele>290.0</ele><time>2026-04-07T13:46:53Z</time></trkpt><trkpt lat="45.735560436471786" lon="9.754883458674248"><ele>289.66666666666663</ele><time>2026-04-07T13:46:54Z</time></trkpt><trkpt lat="45.73553175996549" lon="9.754780308243966"><ele>289.3333333333333</ele><time>2026-04-07T13:46:55Z</time></trkpt><trkpt lat="45.73550085148472" lon="9.754677432287288"><ele>289.0</ele><time>2026-04-07T13:46:56Z</time></trkpt><trkpt lat="45.73547097736279" lon="9.754576867118676"><ele>289.0</ele><time>2026-04-07T13:46:57Z</time></trkpt><trkpt lat="45.73544093411045" lon="9.754476570539216"><ele>289.0</ele><time>2026-04-07T13:46:58Z</time></trkpt><trkpt lat="45.735415008939306" lon="9.7543739951924"><ele>289.0</ele><time>2026-04-07T13:46:59Z</time></trkpt><trkpt lat="45.735382735608766" lon="9.754276512745058"><ele>289.0</ele><time>2026-04-07T13:47:00Z</time></trkpt><trkpt lat="45.73535163709419" lon="9.754182549185442"><ele>289.0</ele><time>2026-04-07T13:47:01Z</time></trkpt><trkpt lat="45.73532177333217" lon="9.75408630710429"><ele>289.0</ele><time>2026-04-07T13:47:02Z</time></trkpt><trkpt lat="45.735294520043034" lon="9.753991966798267"><ele>289.0</ele><time>2026-04-07T13:47:03Z</time></trkpt><trkpt lat="45.73526585230478" lon="9.753898768303758"><ele>288.7142857142857</ele><time>2026-04-07T13:47:04Z</time></trkpt><trkpt lat="45.73523726443357" lon="9.753806226247903"><ele>288.42857142857144</ele><time>2026-04-07T13:47:05Z</time></trkpt><trkpt lat="45.735208323689264" lon="9.753713299136813"><ele>288.1428571428571</ele><time>2026-04-07T13:47:06Z</time></trkpt><trkpt lat="45.73517773299938" lon="9.753623012540938"><ele>287.8571428571429</ele><time>2026-04-07T13:47:07Z</time></trkpt><trkpt lat="45.735147869981255" lon="9.753536411907191"><ele>287.57142857142856</ele><time>2026-04-07T13:47:08Z</time></trkpt><trkpt lat="45.735118565578624" lon="9.753450413095127"><ele>287.2857142857143</ele><time>2026-04-07T13:47:09Z</time></trkpt><trkpt lat="45.73508510835515" lon="9.753371992657497"><ele>287.0</ele><time>2026-04-07T13:47:10Z</time></trkpt><trkpt lat="45.73505131280248" lon="9.753295863767217"><ele>287.5</ele><time>2026-04-07T13:47:11Z</time></trkpt><trkpt lat="45.73498966187434" lon="9.753138506601488"><ele>288.0</ele><time>2026-04-07T13:47:13Z</time></trkpt><trkpt lat="45.73496884741947" lon="9.753051759287862"><ele>288.5</ele><time>2026-04-07T13:47:14Z</time></trkpt><trkpt lat="45.73495122135153" lon="9.752960543699775"><ele>289.0</ele><time>2026-04-07T13:47:15Z</time></trkpt><trkpt lat="45.73494169758774" lon="9.752867175747383"><ele>289.5</ele><time>2026-04-07T13:47:16Z</time></trkpt><trkpt lat="45.73492953813375" lon="9.752775695853522"><ele>290.0</ele><time>2026-04-07T13:47:17Z</time></trkpt><trkpt lat="45.73491591226007" lon="9.752683764071262"><ele>290.0</ele><time>2026-04-07T13:47:18Z</time></trkpt><trkpt lat="45.73489696000137" lon="9.752592163061609"><ele>290.0</ele><time>2026-04-07T13:47:19Z</time></trkpt><trkpt lat="45.73488000643177" lon="9.752502118057526"><ele>290.0</ele><time>2026-04-07T13:47:20Z</time></trkpt><trkpt lat="45.73486580141898" lon="9.752403523853756"><ele>290.0</ele><time>2026-04-07T13:47:21Z</time></trkpt><trkpt lat="45.73484507036014" lon="9.752306559501108"><ele>290.0</ele><time>2026-04-07T13:47:22Z</time></trkpt><trkpt lat="45.7348227858084" lon="9.752205995653062"><ele>290.0</ele><time>2026-04-07T13:47:23Z</time></trkpt><trkpt lat="45.73480147243821" lon="9.75210308628425"><ele>290.0</ele><time>2026-04-07T13:47:24Z</time></trkpt><trkpt lat="45.734778607269405" lon="9.751998195267761"><ele>290.0</ele><time>2026-04-07T13:47:25Z</time></trkpt><trkpt lat="45.734742314003434" lon="9.751902771468245"><ele>290.0</ele><time>2026-04-07T13:47:26Z</time></trkpt><trkpt lat="45.73471039452274" lon="9.751797967132365"><ele>290.0</ele><time>2026-04-07T13:47:27Z</time></trkpt><trkpt lat="45.73467697393551" lon="9.751694519476105"><ele>290.0</ele><time>2026-04-07T13:47:28Z</time></trkpt><trkpt lat="45.73463831016245" lon="9.751586793472537"><ele>290.0</ele><time>2026-04-07T13:47:29Z</time></trkpt><trkpt lat="45.73459255463269" lon="9.75149129873975"><ele>290.0</ele><time>2026-04-07T13:47:30Z</time></trkpt><trkpt lat="45.734553073820486" lon="9.7513987684493"><ele>289.8</ele><time>2026-04-07T13:47:31Z</time></trkpt><trkpt lat="45.73450813315086" lon="9.751295851176959"><ele>289.6</ele><time>2026-04-07T13:47:32Z</time></trkpt><trkpt lat="45.734468262320696" lon="9.751203946909984"><ele>289.4</ele><time>2026-04-07T13:47:33Z</time></trkpt><trkpt lat="45.73443644265918" lon="9.751118964494465"><ele>289.2</ele><time>2026-04-07T13:47:34Z</time></trkpt><trkpt lat="45.734372565568954" lon="9.750969510607103"><ele>289.0</ele><time>2026-04-07T13:47:36Z</time></trkpt><trkpt lat="45.734320766696364" lon="9.750811161710354"><ele>289.5</ele><time>2026-04-07T13:47:38Z</time></trkpt><trkpt lat="45.73427221052591" lon="9.750689042702184"><ele>290.0</ele><time>2026-04-07T13:47:40Z</time></trkpt><trkpt lat="45.73419596732205" lon="9.750528045831192"><ele>290.5</ele><time>2026-04-07T13:47:42Z</time></trkpt><trkpt lat="45.734163573358394" lon="9.750436842132688"><ele>291.0</ele><time>2026-04-07T13:47:43Z</time></trkpt><trkpt lat="45.734132784695426" lon="9.750349734922036"><ele>291.5</ele><time>2026-04-07T13:47:44Z</time></trkpt><trkpt lat="45.734100435802496" lon="9.75025706764772"><ele>292.0</ele><time>2026-04-07T13:47:45Z</time></trkpt><trkpt lat="45.73406440243656" lon="9.750177602540212"><ele>292.0</ele><time>2026-04-07T13:47:46Z</time></trkpt><trkpt lat="45.73403807105417" lon="9.750084011316606"><ele>292.0</ele><time>2026-04-07T13:47:47Z</time></trkpt><trkpt lat="45.73400437203723" lon="9.750007709493767"><ele>292.0</ele><time>2026-04-07T13:47:48Z</time></trkpt><trkpt lat="45.73398157569094" lon="9.749910291415182"><ele>292.0</ele><time>2026-04-07T13:47:49Z</time></trkpt><trkpt lat="45.7339610932633" lon="9.74982272359495"><ele>292.0</ele><time>2026-04-07T13:47:50Z</time></trkpt><trkpt lat="45.73392765510308" lon="9.749738107918299"><ele>292.0</ele><time>2026-04-07T13:47:51Z</time></trkpt><trkpt lat="45.7338902371454" lon="9.749660749608427"><ele>292.0</ele><time>2026-04-07T13:47:52Z</time></trkpt><trkpt lat="45.73385860037296" lon="9.74957385036522"><ele>292.0</ele><time>2026-04-07T13:47:53Z</time></trkpt><trkpt lat="45.733837770271485" lon="9.749486183193621"><ele>292.0</ele><time>2026-04-07T13:47:54Z</time></trkpt><trkpt lat="45.733808373664964" lon="9.749401144496277"><ele>292.0</ele><time>2026-04-07T13:47:55Z</time></trkpt><trkpt lat="45.73374339041797" lon="9.749236779406376"><ele>292.0</ele><time>2026-04-07T13:47:57Z</time></trkpt><trkpt lat="45.73371670000586" lon="9.749150255096314"><ele>292.0</ele><time>2026-04-07T13:47:58Z</time></trkpt><trkpt lat="45.73369317126781" lon="9.749059420431363"><ele>292.0</ele><time>2026-04-07T13:47:59Z</time></trkpt><trkpt lat="45.73366119317948" lon="9.748979941784034"><ele>292.0</ele><time>2026-04-07T13:48:00Z</time></trkpt><trkpt lat="45.733625949361034" lon="9.748902108014372"><ele>292.0</ele><time>2026-04-07T13:48:01Z</time></trkpt><trkpt lat="45.73353177673549" lon="9.748770017458817"><ele>292.0</ele><time>2026-04-07T13:48:03Z</time></trkpt><trkpt lat="45.73348313212757" lon="9.74871097720669"><ele>292.0</ele><time>2026-04-07T13:48:04Z</time></trkpt><trkpt lat="45.73343156612345" lon="9.748646378408628"><ele>292.0</ele><time>2026-04-07T13:48:05Z</time></trkpt><trkpt lat="45.73338391551097" lon="9.748574034174974"><ele>292.0</ele><time>2026-04-07T13:48:06Z</time></trkpt><trkpt lat="45.73334339595268" lon="9.748496745223017"><ele>292.0</ele><time>2026-04-07T13:48:07Z</time></trkpt><trkpt lat="45.73331563617801" lon="9.748412762975697"><ele>292.0</ele><time>2026-04-07T13:48:08Z</time></trkpt><trkpt lat="45.7332980168743" lon="9.748322036416889"><ele>292.0</ele><time>2026-04-07T13:48:09Z</time></trkpt><trkpt lat="45.73329322628262" lon="9.748226881518304"><ele>292.0</ele><time>2026-04-07T13:48:10Z</time></trkpt><trkpt lat="45.73328297367337" lon="9.748130857298486"><ele>292.0</ele><time>2026-04-07T13:48:11Z</time></trkpt><trkpt lat="45.73326630665741" lon="9.74803401989751"><ele>292.0</ele><time>2026-04-07T13:48:12Z</time></trkpt><trkpt lat="45.73323167974165" lon="9.747951888536898"><ele>292.0</ele><time>2026-04-07T13:48:13Z</time></trkpt><trkpt lat="45.733197444563686" lon="9.747870232015197"><ele>292.0</ele><time>2026-04-07T13:48:14Z</time></trkpt><trkpt lat="45.73315640308508" lon="9.747799494262031"><ele>292.0</ele><time>2026-04-07T13:48:15Z</time></trkpt><trkpt lat="45.7331134102916" lon="9.747727184484749"><ele>292.0</ele><time>2026-04-07T13:48:16Z</time></trkpt><trkpt lat="45.73306709257138" lon="9.747660472274964"><ele>292.0</ele><time>2026-04-07T13:48:17Z</time></trkpt><trkpt lat="45.733020576053285" lon="9.747591127643245"><ele>292.0</ele><time>2026-04-07T13:48:18Z</time></trkpt><trkpt lat="45.73296569648534" lon="9.74753571563987"><ele>292.0</ele><time>2026-04-07T13:48:19Z</time></trkpt><trkpt lat="45.732910925070364" lon="9.747486993093576"><ele>292.0</ele><time>2026-04-07T13:48:20Z</time></trkpt><trkpt lat="45.73284603595478" lon="9.74735879374213"><ele>291.4</ele><time>2026-04-07T13:48:22Z</time></trkpt><trkpt lat="45.73283200327849" lon="9.747250537428975"><ele>290.79999999999995</ele><time>2026-04-07T13:48:23Z</time></trkpt><trkpt lat="45.73283404755428" lon="9.74715330223428"><ele>290.2</ele><time>2026-04-07T13:48:24Z</time></trkpt><trkpt lat="45.73282266970483" lon="9.74698322989254"><ele>289.59999999999997</ele><time>2026-04-07T13:48:26Z</time></trkpt><trkpt lat="45.73280683635412" lon="9.74681978209587"><ele>289.0</ele><time>2026-04-07T13:48:28Z</time></trkpt><trkpt lat="45.732801565064555" lon="9.746658307172723"><ele>288.4</ele><time>2026-04-07T13:48:30Z</time></trkpt><trkpt lat="45.73280211992438" lon="9.746503265198712"><ele>287.79999999999995</ele><time>2026-04-07T13:48:32Z</time></trkpt><trkpt lat="45.73279989451131" lon="9.746350036781875"><ele>287.20000000000005</ele><time>2026-04-07T13:48:34Z</time></trkpt><trkpt lat="45.732766575597985" lon="9.74617735804018"><ele>286.6</ele><time>2026-04-07T13:48:36Z</time></trkpt><trkpt lat="45.732743979959054" lon="9.746084573841118"><ele>286.0</ele><time>2026-04-07T13:48:37Z</time></trkpt><trkpt lat="45.73272045901907" lon="9.74599759012485"><ele>288.0</ele><time>2026-04-07T13:48:38Z</time></trkpt><trkpt lat="45.73269528632505" lon="9.745884540834263"><ele>290.0</ele><time>2026-04-07T13:48:40Z</time></trkpt><trkpt lat="45.73266275969282" lon="9.745749093883308"><ele>292.0</ele><time>2026-04-07T13:48:42Z</time></trkpt><trkpt lat="45.73264193276024" lon="9.745655253571348"><ele>294.0</ele><time>2026-04-07T13:48:43Z</time></trkpt><trkpt lat="45.732620364956794" lon="9.745560641296937"><ele>296.0</ele><time>2026-04-07T13:48:44Z</time></trkpt><trkpt lat="45.732598753578245" lon="9.745470803567025"><ele>298.0</ele><time>2026-04-07T13:48:45Z</time></trkpt><trkpt lat="45.7325796996415" lon="9.745382207369873"><ele>298.0</ele><time>2026-04-07T13:48:46Z</time></trkpt><trkpt lat="45.73256125699446" lon="9.745293385939677"><ele>298.0</ele><time>2026-04-07T13:48:47Z</time></trkpt><trkpt lat="45.73253883563708" lon="9.74520636213725"><ele>298.0</ele><time>2026-04-07T13:48:48Z</time></trkpt><trkpt lat="45.73251632654027" lon="9.745121003333857"><ele>298.0</ele><time>2026-04-07T13:48:49Z</time></trkpt><trkpt lat="45.73249640996116" lon="9.745032987934351"><ele>298.0</ele><time>2026-04-07T13:48:50Z</time></trkpt><trkpt lat="45.732443774399194" lon="9.74486500773226"><ele>298.0</ele><time>2026-04-07T13:48:52Z</time></trkpt><trkpt lat="45.732413744330536" lon="9.744784741910218"><ele>297.1428571428571</ele><time>2026-04-07T13:48:53Z</time></trkpt><trkpt lat="45.732396551383125" lon="9.744694909121726"><ele>296.2857142857143</ele><time>2026-04-07T13:48:54Z</time></trkpt><trkpt lat="45.73238084518163" lon="9.74460286808603"><ele>295.42857142857144</ele><time>2026-04-07T13:48:55Z</time></trkpt><trkpt lat="45.732360907765695" lon="9.744509041859605"><ele>294.57142857142856</ele><time>2026-04-07T13:48:56Z</time></trkpt><trkpt lat="45.73234368071986" lon="9.744421963478187"><ele>293.7142857142857</ele><time>2026-04-07T13:48:57Z</time></trkpt><trkpt lat="45.73232378918851" lon="9.744335003234516"><ele>292.85714285714283</ele><time>2026-04-07T13:48:58Z</time></trkpt><trkpt lat="45.7323067631845" lon="9.744244733360171"><ele>292.0</ele><time>2026-04-07T13:48:59Z</time></trkpt><trkpt lat="45.73229265588346" lon="9.744151977094907"><ele>291.2857142857143</ele><time>2026-04-07T13:49:00Z</time></trkpt><trkpt lat="45.73227339175365" lon="9.744062802481423"><ele>290.57142857142856</ele><time>2026-04-07T13:49:01Z</time></trkpt><trkpt lat="45.73225414779559" lon="9.743971581152714"><ele>289.8571428571429</ele><time>2026-04-07T13:49:02Z</time></trkpt><trkpt lat="45.732235448360946" lon="9.743879490268107"><ele>289.1428571428571</ele><time>2026-04-07T13:49:03Z</time></trkpt><trkpt lat="45.73221410022786" lon="9.743791142955635"><ele>288.42857142857144</ele><time>2026-04-07T13:49:04Z</time></trkpt><trkpt lat="45.732197333469145" lon="9.743698192842496"><ele>287.7142857142857</ele><time>2026-04-07T13:49:05Z</time></trkpt><trkpt lat="45.73217600423346" lon="9.743609086194107"><ele>287.0</ele><time>2026-04-07T13:49:06Z</time></trkpt><trkpt lat="45.73216062855468" lon="9.743517684375787"><ele>286.7142857142857</ele><time>2026-04-07T13:49:07Z</time></trkpt><trkpt lat="45.73214428849581" lon="9.743429217340097"><ele>286.42857142857144</ele><time>2026-04-07T13:49:08Z</time></trkpt><trkpt lat="45.73212499475721" lon="9.743339981763572"><ele>286.1428571428571</ele><time>2026-04-07T13:49:09Z</time></trkpt><trkpt lat="45.732102895380905" lon="9.743255160875213"><ele>285.8571428571429</ele><time>2026-04-07T13:49:10Z</time></trkpt><trkpt lat="45.73207996696508" lon="9.743165845500124"><ele>285.57142857142856</ele><time>2026-04-07T13:49:11Z</time></trkpt><trkpt lat="45.732054520454724" lon="9.743082183035437"><ele>285.2857142857143</ele><time>2026-04-07T13:49:12Z</time></trkpt><trkpt lat="45.73203101877585" lon="9.742997733985085"><ele>285.0</ele><time>2026-04-07T13:49:13Z</time></trkpt><trkpt lat="45.73200782004951" lon="9.742911481028564"><ele>285.0</ele><time>2026-04-07T13:49:14Z</time></trkpt><trkpt lat="45.73198532043955" lon="9.742825266706602"><ele>285.0</ele><time>2026-04-07T13:49:15Z</time></trkpt><trkpt lat="45.7319535156621" lon="9.74274400245759"><ele>285.0</ele><time>2026-04-07T13:49:16Z</time></trkpt><trkpt lat="45.73189444478741" lon="9.742580257333735"><ele>285.0</ele><time>2026-04-07T13:49:18Z</time></trkpt><trkpt lat="45.73185888314898" lon="9.742504263127502"><ele>285.0</ele><time>2026-04-07T13:49:19Z</time></trkpt><trkpt lat="45.73182314015047" lon="9.742428783202412"><ele>285.0</ele><time>2026-04-07T13:49:20Z</time></trkpt><trkpt lat="45.73177880157188" lon="9.74236019261794"><ele>285.6</ele><time>2026-04-07T13:49:21Z</time></trkpt><trkpt lat="45.73172813489826" lon="9.742295187975632"><ele>286.2</ele><time>2026-04-07T13:49:22Z</time></trkpt><trkpt lat="45.73164218501859" lon="9.742166875995807"><ele>286.8</ele><time>2026-04-07T13:49:24Z</time></trkpt><trkpt lat="45.7315560978238" lon="9.742035607195703"><ele>287.4</ele><time>2026-04-07T13:49:26Z</time></trkpt><trkpt lat="45.73151166564697" lon="9.741968120155548"><ele>288.0</ele><time>2026-04-07T13:49:27Z</time></trkpt><trkpt lat="45.731426962272586" lon="9.741837109365036"><ele>288.0</ele><time>2026-04-07T13:49:29Z</time></trkpt><trkpt lat="45.73134118377735" lon="9.741707723507238"><ele>288.0</ele><time>2026-04-07T13:49:31Z</time></trkpt><trkpt lat="45.73124675082664" lon="9.741586779561434"><ele>288.0</ele><time>2026-04-07T13:49:33Z</time></trkpt><trkpt lat="45.73119416207614" lon="9.741531514107963"><ele>288.0</ele><time>2026-04-07T13:49:34Z</time></trkpt><trkpt lat="45.731142011771965" lon="9.741480337317864"><ele>288.0</ele><time>2026-04-07T13:49:35Z</time></trkpt><trkpt lat="45.73108554243356" lon="9.74143497812778"><ele>288.0</ele><time>2026-04-07T13:49:36Z</time></trkpt><trkpt lat="45.730965669654196" lon="9.74136285087192"><ele>290.2</ele><time>2026-04-07T13:49:38Z</time></trkpt><trkpt lat="45.730844125449984" lon="9.741310705989392"><ele>292.4</ele><time>2026-04-07T13:49:40Z</time></trkpt><trkpt lat="45.73077722308245" lon="9.741284934415297"><ele>294.59999999999997</ele><time>2026-04-07T13:49:41Z</time></trkpt><trkpt lat="45.73066120645532" lon="9.741232337682078"><ele>296.8</ele><time>2026-04-07T13:49:43Z</time></trkpt><trkpt lat="45.7305951483087" lon="9.741199832586442"><ele>299.0</ele><time>2026-04-07T13:49:44Z</time></trkpt><trkpt lat="45.73048245572012" lon="9.741114851328385"><ele>297.1666666666667</ele><time>2026-04-07T13:49:46Z</time></trkpt><trkpt lat="45.73037930039619" lon="9.741006291557671"><ele>295.33333333333337</ele><time>2026-04-07T13:49:48Z</time></trkpt><trkpt lat="45.73033497880896" lon="9.740941778726572"><ele>293.5</ele><time>2026-04-07T13:49:49Z</time></trkpt><trkpt lat="45.73029094700742" lon="9.740876308653885"><ele>291.6666666666667</ele><time>2026-04-07T13:49:50Z</time></trkpt><trkpt lat="45.7302456169386" lon="9.740809072318852"><ele>289.8333333333333</ele><time>2026-04-07T13:49:51Z</time></trkpt><trkpt lat="45.730198511119724" lon="9.740741564382914"><ele>288.0</ele><time>2026-04-07T13:49:52Z</time></trkpt><trkpt lat="45.73015017839274" lon="9.740675656185246"><ele>288.00000000000006</ele><time>2026-04-07T13:49:53Z</time></trkpt><trkpt lat="45.73010497237999" lon="9.740605719444707"><ele>288.0</ele><time>2026-04-07T13:49:54Z</time></trkpt><trkpt lat="45.730057954852306" lon="9.740531141456653"><ele>288.0</ele><time>2026-04-07T13:49:55Z</time></trkpt><trkpt lat="45.73001129685661" lon="9.740461620744117"><ele>288.0</ele><time>2026-04-07T13:49:56Z</time></trkpt><trkpt lat="45.72995956641629" lon="9.740391170673094"><ele>288.0</ele><time>2026-04-07T13:49:57Z</time></trkpt><trkpt lat="45.72990375111909" lon="9.740332257686536"><ele>288.00000000000006</ele><time>2026-04-07T13:49:58Z</time></trkpt><trkpt lat="45.72984537401165" lon="9.74027309347769"><ele>288.0</ele><time>2026-04-07T13:49:59Z</time></trkpt><trkpt lat="45.7297843233615" lon="9.740225158714168"><ele>287.28571428571433</ele><time>2026-04-07T13:50:00Z</time></trkpt><trkpt lat="45.72972383246015" lon="9.740178595560405"><ele>286.57142857142856</ele><time>2026-04-07T13:50:01Z</time></trkpt><trkpt lat="45.729658241428034" lon="9.740137653721593"><ele>285.8571428571429</ele><time>2026-04-07T13:50:02Z</time></trkpt><trkpt lat="45.72959403399607" lon="9.740104237732842"><ele>285.14285714285717</ele><time>2026-04-07T13:50:03Z</time></trkpt><trkpt lat="45.729530049610325" lon="9.740080616351039"><ele>284.42857142857144</ele><time>2026-04-07T13:50:04Z</time></trkpt><trkpt lat="45.72946545474559" lon="9.740056168169051"><ele>283.7142857142857</ele><time>2026-04-07T13:50:05Z</time></trkpt><trkpt lat="45.729398449851985" lon="9.74004272207268"><ele>283.0</ele><time>2026-04-07T13:50:06Z</time></trkpt><trkpt lat="45.729331888042765" lon="9.740033114840386"><ele>283.0</ele><time>2026-04-07T13:50:07Z</time></trkpt><trkpt lat="45.729266394094594" lon="9.740028260938601"><ele>283.0</ele><time>2026-04-07T13:50:08Z</time></trkpt><trkpt lat="45.72919663560652" lon="9.74003026554358"><ele>283.0</ele><time>2026-04-07T13:50:09Z</time></trkpt><trkpt lat="45.72913012432341" lon="9.74003324307412"><ele>283.0</ele><time>2026-04-07T13:50:10Z</time></trkpt><trkpt lat="45.72906270385333" lon="9.740043648084502"><ele>283.0</ele><time>2026-04-07T13:50:11Z</time></trkpt><trkpt lat="45.72899441052577" lon="9.740062868218542"><ele>283.0</ele><time>2026-04-07T13:50:12Z</time></trkpt><trkpt lat="45.728928927046674" lon="9.740077845507248"><ele>283.0</ele><time>2026-04-07T13:50:13Z</time></trkpt><trkpt lat="45.72886083044608" lon="9.740092023513169"><ele>283.0</ele><time>2026-04-07T13:50:14Z</time></trkpt><trkpt lat="45.728793350470646" lon="9.740107357061769"><ele>283.0</ele><time>2026-04-07T13:50:15Z</time></trkpt><trkpt lat="45.728729197524416" lon="9.74011925649793"><ele>283.0</ele><time>2026-04-07T13:50:16Z</time></trkpt><trkpt lat="45.72865938864681" lon="9.740138964082222"><ele>283.0</ele><time>2026-04-07T13:50:17Z</time></trkpt><trkpt lat="45.72853293984961" lon="9.740163761576197"><ele>283.0</ele><time>2026-04-07T13:50:19Z</time></trkpt><trkpt lat="45.728465295906" lon="9.740172465948044"><ele>283.0</ele><time>2026-04-07T13:50:20Z</time></trkpt><trkpt lat="45.72834258933705" lon="9.740187055796545"><ele>282.8</ele><time>2026-04-07T13:50:22Z</time></trkpt><trkpt lat="45.72827281179186" lon="9.740186866186647"><ele>282.6</ele><time>2026-04-07T13:50:23Z</time></trkpt><trkpt lat="45.72814864175365" lon="9.740173681696882"><ele>282.4</ele><time>2026-04-07T13:50:25Z</time></trkpt><trkpt lat="45.72808256413977" lon="9.740170940745454"><ele>282.2</ele><time>2026-04-07T13:50:26Z</time></trkpt><trkpt lat="45.72801852186007" lon="9.74016833671098"><ele>282.0</ele><time>2026-04-07T13:50:27Z</time></trkpt><trkpt lat="45.727887397920426" lon="9.74015856352157"><ele>282.0</ele><time>2026-04-07T13:50:29Z</time></trkpt><trkpt lat="45.727760263094105" lon="9.740159892468148"><ele>282.0</ele><time>2026-04-07T13:50:31Z</time></trkpt><trkpt lat="45.7276973148718" lon="9.740161833210449"><ele>282.0</ele><time>2026-04-07T13:50:32Z</time></trkpt><trkpt lat="45.72762951250468" lon="9.740146312611916"><ele>282.0</ele><time>2026-04-07T13:50:33Z</time></trkpt><trkpt lat="45.72750228685288" lon="9.740148778840073"><ele>282.0</ele><time>2026-04-07T13:50:35Z</time></trkpt><trkpt lat="45.72743486831235" lon="9.740148797452052"><ele>282.0</ele><time>2026-04-07T13:50:36Z</time></trkpt><trkpt lat="45.72737078666883" lon="9.740131068337874"><ele>282.0</ele><time>2026-04-07T13:50:37Z</time></trkpt><trkpt lat="45.72725505277173" lon="9.740053729934"><ele>282.0</ele><time>2026-04-07T13:50:39Z</time></trkpt><trkpt lat="45.72719639564887" lon="9.740016806465727"><ele>282.0</ele><time>2026-04-07T13:50:40Z</time></trkpt><trkpt lat="45.7271359773437" lon="9.739982395558476"><ele>282.0</ele><time>2026-04-07T13:50:41Z</time></trkpt><trkpt lat="45.727075553447705" lon="9.73995068469203"><ele>282.0</ele><time>2026-04-07T13:50:42Z</time></trkpt><trkpt lat="45.72701427774352" lon="9.739921427687909"><ele>282.0</ele><time>2026-04-07T13:50:43Z</time></trkpt><trkpt lat="45.72695481403051" lon="9.739888781863957"><ele>282.0</ele><time>2026-04-07T13:50:44Z</time></trkpt><trkpt lat="45.72689513368233" lon="9.739858288730664"><ele>282.0</ele><time>2026-04-07T13:50:45Z</time></trkpt><trkpt lat="45.72683178635219" lon="9.739828566827482"><ele>282.0</ele><time>2026-04-07T13:50:46Z</time></trkpt><trkpt lat="45.72671428045317" lon="9.739763094373272"><ele>282.0</ele><time>2026-04-07T13:50:48Z</time></trkpt><trkpt lat="45.72665499089921" lon="9.739731872117547"><ele>282.0</ele><time>2026-04-07T13:50:49Z</time></trkpt><trkpt lat="45.72653356050532" lon="9.7396717671865"><ele>282.0</ele><time>2026-04-07T13:50:51Z</time></trkpt><trkpt lat="45.726471701118925" lon="9.739645033556425"><ele>282.0</ele><time>2026-04-07T13:50:52Z</time></trkpt><trkpt lat="45.72641085666743" lon="9.739609958213688"><ele>282.0</ele><time>2026-04-07T13:50:53Z</time></trkpt><trkpt lat="45.726350901627356" lon="9.739571384601208"><ele>282.0</ele><time>2026-04-07T13:50:54Z</time></trkpt><trkpt lat="45.72629431919795" lon="9.739527845030667"><ele>282.0</ele><time>2026-04-07T13:50:55Z</time></trkpt><trkpt lat="45.72623626883781" lon="9.73948320553526"><ele>282.0</ele><time>2026-04-07T13:50:56Z</time></trkpt><trkpt lat="45.72617930823803" lon="9.739438344225032"><ele>282.0</ele><time>2026-04-07T13:50:57Z</time></trkpt><trkpt lat="45.72612453539421" lon="9.739387795489908"><ele>281.8</ele><time>2026-04-07T13:50:58Z</time></trkpt><trkpt lat="45.726068781408244" lon="9.739339943537294"><ele>281.6</ele><time>2026-04-07T13:50:59Z</time></trkpt><trkpt lat="45.72596741741906" lon="9.73922567822195"><ele>281.40000000000003</ele><time>2026-04-07T13:51:01Z</time></trkpt><trkpt lat="45.72586250600631" lon="9.739121889808086"><ele>281.2</ele><time>2026-04-07T13:51:03Z</time></trkpt><trkpt lat="45.72576255779535" lon="9.739009236900031"><ele>281.0</ele><time>2026-04-07T13:51:05Z</time></trkpt><trkpt lat="45.72568121144986" lon="9.738878598039749"><ele>281.0</ele><time>2026-04-07T13:51:07Z</time></trkpt><trkpt lat="45.72559017189479" lon="9.73875629069073"><ele>281.0</ele><time>2026-04-07T13:51:09Z</time></trkpt><trkpt lat="45.725489573192796" lon="9.738653094573863"><ele>281.0</ele><time>2026-04-07T13:51:11Z</time></trkpt><trkpt lat="45.725432714155346" lon="9.738610718933511"><ele>281.0</ele><time>2026-04-07T13:51:12Z</time></trkpt><trkpt lat="45.72537104465799" lon="9.738577758915111"><ele>281.0</ele><time>2026-04-07T13:51:13Z</time></trkpt><trkpt lat="45.72531090037735" lon="9.738550523899237"><ele>281.0</ele><time>2026-04-07T13:51:14Z</time></trkpt><trkpt lat="45.72524871685787" lon="9.73852382709843"><ele>281.00000000000006</ele><time>2026-04-07T13:51:15Z</time></trkpt><trkpt lat="45.72518730798076" lon="9.738494348617525"><ele>281.0</ele><time>2026-04-07T13:51:16Z</time></trkpt><trkpt lat="45.72512521753585" lon="9.738467264643507"><ele>281.0</ele><time>2026-04-07T13:51:17Z</time></trkpt><trkpt lat="45.72506459757365" lon="9.738440305849712"><ele>281.0</ele><time>2026-04-07T13:51:18Z</time></trkpt><trkpt lat="45.72500269834736" lon="9.738411072147397"><ele>281.0</ele><time>2026-04-07T13:51:19Z</time></trkpt><trkpt lat="45.72494145490444" lon="9.738381348672698"><ele>281.00000000000006</ele><time>2026-04-07T13:51:20Z</time></trkpt><trkpt lat="45.72488168471302" lon="9.738349361903715"><ele>281.0</ele><time>2026-04-07T13:51:21Z</time></trkpt><trkpt lat="45.724819096182436" lon="9.738312690943506"><ele>281.0</ele><time>2026-04-07T13:51:22Z</time></trkpt><trkpt lat="45.72476023412154" lon="9.738278744558345"><ele>281.0</ele><time>2026-04-07T13:51:23Z</time></trkpt><trkpt lat="45.72465015041047" lon="9.738187893175304"><ele>281.0</ele><time>2026-04-07T13:51:25Z</time></trkpt><trkpt lat="45.72459828347036" lon="9.73812979400917"><ele>281.0</ele><time>2026-04-07T13:51:26Z</time></trkpt><trkpt lat="45.72454971868865" lon="9.738068392294123"><ele>281.0</ele><time>2026-04-07T13:51:27Z</time></trkpt><trkpt lat="45.72450094764995" lon="9.738010822279776"><ele>281.0</ele><time>2026-04-07T13:51:28Z</time></trkpt><trkpt lat="45.72440518494364" lon="9.737905658930156"><ele>281.0</ele><time>2026-04-07T13:51:30Z</time></trkpt><trkpt lat="45.72431352951167" lon="9.737802250044359"><ele>281.0</ele><time>2026-04-07T13:51:32Z</time></trkpt><trkpt lat="45.724230957825455" lon="9.737688452501214"><ele>281.0</ele><time>2026-04-07T13:51:34Z</time></trkpt><trkpt lat="45.724162887472005" lon="9.737555159037013"><ele>281.0</ele><time>2026-04-07T13:51:36Z</time></trkpt><trkpt lat="45.7241279785362" lon="9.73748000178409"><ele>281.0</ele><time>2026-04-07T13:51:37Z</time></trkpt><trkpt lat="45.724090455411854" lon="9.737399289236738"><ele>281.00000000000006</ele><time>2026-04-07T13:51:38Z</time></trkpt><trkpt lat="45.72406015519964" lon="9.737315942778753"><ele>281.0</ele><time>2026-04-07T13:51:39Z</time></trkpt><trkpt lat="45.72402650413417" lon="9.737236924260014"><ele>281.0</ele><time>2026-04-07T13:51:40Z</time></trkpt><trkpt lat="45.72399665204174" lon="9.737154116992695"><ele>281.0</ele><time>2026-04-07T13:51:41Z</time></trkpt><trkpt lat="45.72396423201526" lon="9.737071612820214"><ele>281.0</ele><time>2026-04-07T13:51:42Z</time></trkpt><trkpt lat="45.723929445131155" lon="9.736993333831315"><ele>281.00000000000006</ele><time>2026-04-07T13:51:43Z</time></trkpt><trkpt lat="45.72390893812264" lon="9.73690581525298"><ele>281.0</ele><time>2026-04-07T13:51:44Z</time></trkpt><trkpt lat="45.723870430007494" lon="9.736833833373105"><ele>280.40000000000003</ele><time>2026-04-07T13:51:45Z</time></trkpt><trkpt lat="45.723846853939925" lon="9.736744898616"><ele>279.8</ele><time>2026-04-07T13:51:46Z</time></trkpt><trkpt lat="45.72378133720764" lon="9.736593278939552"><ele>279.20000000000005</ele><time>2026-04-07T13:51:48Z</time></trkpt><trkpt lat="45.72375590745637" lon="9.736507723053956"><ele>278.6</ele><time>2026-04-07T13:51:49Z</time></trkpt><trkpt lat="45.723721293517286" lon="9.736419788120559"><ele>278.0</ele><time>2026-04-07T13:51:50Z</time></trkpt><trkpt lat="45.72365843819615" lon="9.73625445542058"><ele>278.0</ele><time>2026-04-07T13:51:52Z</time></trkpt><trkpt lat="45.72362142052986" lon="9.736175970184398"><ele>278.0</ele><time>2026-04-07T13:51:53Z</time></trkpt><trkpt lat="45.723583747686504" lon="9.736098492084917"><ele>278.0</ele><time>2026-04-07T13:51:54Z</time></trkpt><trkpt lat="45.72353886274355" lon="9.736026159991548"><ele>278.0</ele><time>2026-04-07T13:51:55Z</time></trkpt><trkpt lat="45.72349581319676" lon="9.735959480241211"><ele>278.0</ele><time>2026-04-07T13:51:56Z</time></trkpt><trkpt lat="45.72344723007947" lon="9.735888896095332"><ele>278.0</ele><time>2026-04-07T13:51:57Z</time></trkpt><trkpt lat="45.72339929865619" lon="9.73582328697808"><ele>278.0</ele><time>2026-04-07T13:51:58Z</time></trkpt><trkpt lat="45.7233505761026" lon="9.735756623734527"><ele>278.0</ele><time>2026-04-07T13:51:59Z</time></trkpt><trkpt lat="45.72330508947265" lon="9.735686909098021"><ele>278.0</ele><time>2026-04-07T13:52:00Z</time></trkpt><trkpt lat="45.723258371313136" lon="9.735613078850047"><ele>278.0</ele><time>2026-04-07T13:52:01Z</time></trkpt><trkpt lat="45.723167382591384" lon="9.735477316649991"><ele>278.0</ele><time>2026-04-07T13:52:03Z</time></trkpt><trkpt lat="45.72312138858958" lon="9.735409648706485"><ele>278.0</ele><time>2026-04-07T13:52:04Z</time></trkpt><trkpt lat="45.7230816389717" lon="9.735336326798864"><ele>278.0</ele><time>2026-04-07T13:52:05Z</time></trkpt><trkpt lat="45.7230424402453" lon="9.735257017667191"><ele>277.85714285714283</ele><time>2026-04-07T13:52:06Z</time></trkpt><trkpt lat="45.72300641483647" lon="9.735171011860428"><ele>277.7142857142857</ele><time>2026-04-07T13:52:07Z</time></trkpt><trkpt lat="45.72296134632926" lon="9.735094363026992"><ele>277.57142857142856</ele><time>2026-04-07T13:52:08Z</time></trkpt><trkpt lat="45.72290904777592" lon="9.735036654610555"><ele>277.42857142857144</ele><time>2026-04-07T13:52:09Z</time></trkpt><trkpt lat="45.722855396487255" lon="9.734985211199884"><ele>277.2857142857143</ele><time>2026-04-07T13:52:10Z</time></trkpt><trkpt lat="45.72280600483141" lon="9.73492196676117"><ele>277.1428571428571</ele><time>2026-04-07T13:52:11Z</time></trkpt><trkpt lat="45.722756758517306" lon="9.734863197306769"><ele>277.0</ele><time>2026-04-07T13:52:12Z</time></trkpt><trkpt lat="45.72271982880079" lon="9.734787268379787"><ele>277.2857142857143</ele><time>2026-04-07T13:52:13Z</time></trkpt><trkpt lat="45.72268546482599" lon="9.734711415857237"><ele>277.57142857142856</ele><time>2026-04-07T13:52:14Z</time></trkpt><trkpt lat="45.722647434628506" lon="9.734634848137532"><ele>277.85714285714283</ele><time>2026-04-07T13:52:15Z</time></trkpt><trkpt lat="45.72260967193463" lon="9.734562681389976"><ele>278.1428571428571</ele><time>2026-04-07T13:52:16Z</time></trkpt><trkpt lat="45.722574167357564" lon="9.734485183274929"><ele>278.42857142857144</ele><time>2026-04-07T13:52:17Z</time></trkpt><trkpt lat="45.72253968212262" lon="9.7344096901387"><ele>278.71428571428567</ele><time>2026-04-07T13:52:18Z</time></trkpt><trkpt lat="45.72250871050473" lon="9.734325169560076"><ele>279.0</ele><time>2026-04-07T13:52:19Z</time></trkpt><trkpt lat="45.72247548454702" lon="9.734244365446287"><ele>278.99999999999994</ele><time>2026-04-07T13:52:20Z</time></trkpt><trkpt lat="45.72241047801639" lon="9.73408816112905"><ele>279.0</ele><time>2026-04-07T13:52:22Z</time></trkpt><trkpt lat="45.722377603425784" lon="9.734009664196517"><ele>279.0</ele><time>2026-04-07T13:52:23Z</time></trkpt><trkpt lat="45.72234566832152" lon="9.733927595005783"><ele>279.0</ele><time>2026-04-07T13:52:24Z</time></trkpt><trkpt lat="45.72231042521718" lon="9.73385126805921"><ele>279.0</ele><time>2026-04-07T13:52:25Z</time></trkpt><trkpt lat="45.72227546621987" lon="9.733773365857395"><ele>278.99999999999994</ele><time>2026-04-07T13:52:26Z</time></trkpt><trkpt lat="45.72224496616739" lon="9.733692301393262"><ele>279.0</ele><time>2026-04-07T13:52:27Z</time></trkpt><trkpt lat="45.72221137755099" lon="9.733614580114613"><ele>278.57142857142856</ele><time>2026-04-07T13:52:28Z</time></trkpt><trkpt lat="45.722176631652474" lon="9.733532908663037"><ele>278.1428571428571</ele><time>2026-04-07T13:52:29Z</time></trkpt><trkpt lat="45.72214571093819" lon="9.733451352447846"><ele>277.7142857142857</ele><time>2026-04-07T13:52:30Z</time></trkpt><trkpt lat="45.72212343462197" lon="9.733360802691214"><ele>277.2857142857143</ele><time>2026-04-07T13:52:31Z</time></trkpt><trkpt lat="45.72211049172126" lon="9.73327217496126"><ele>276.8571428571429</ele><time>2026-04-07T13:52:32Z</time></trkpt><trkpt lat="45.72209821196454" lon="9.733179922523359"><ele>276.42857142857144</ele><time>2026-04-07T13:52:33Z</time></trkpt><trkpt lat="45.722072970212075" lon="9.733091534223181"><ele>276.0</ele><time>2026-04-07T13:52:34Z</time></trkpt><trkpt lat="45.72205097471473" lon="9.732999059684333"><ele>276.0</ele><time>2026-04-07T13:52:35Z</time></trkpt><trkpt lat="45.72201589518706" lon="9.732906172242858"><ele>276.0</ele><time>2026-04-07T13:52:36Z</time></trkpt><trkpt lat="45.72195921775504" lon="9.732785708888384"><ele>276.0</ele><time>2026-04-07T13:52:38Z</time></trkpt><trkpt lat="45.72190272720537" lon="9.732721970765915"><ele>276.0</ele><time>2026-04-07T13:52:39Z</time></trkpt><trkpt lat="45.72183226796449" lon="9.732680868363342"><ele>276.0</ele><time>2026-04-07T13:52:40Z</time></trkpt><trkpt lat="45.72176580177543" lon="9.7326308813634"><ele>276.0</ele><time>2026-04-07T13:52:41Z</time></trkpt><trkpt lat="45.72171666632186" lon="9.732566890330714"><ele>276.1666666666667</ele><time>2026-04-07T13:52:42Z</time></trkpt><trkpt lat="45.721668181584484" lon="9.732497280640017"><ele>276.3333333333333</ele><time>2026-04-07T13:52:43Z</time></trkpt><trkpt lat="45.72161482875495" lon="9.732430838276388"><ele>276.5</ele><time>2026-04-07T13:52:44Z</time></trkpt><trkpt lat="45.72156046163015" lon="9.732373223690207"><ele>276.66666666666663</ele><time>2026-04-07T13:52:45Z</time></trkpt><trkpt lat="45.72151122163412" lon="9.73229332759922"><ele>276.8333333333333</ele><time>2026-04-07T13:52:46Z</time></trkpt><trkpt lat="45.72145829794717" lon="9.73213175367642"><ele>277.0</ele><time>2026-04-07T13:52:48Z</time></trkpt><trkpt lat="45.721435381681964" lon="9.731962354987694"><ele>276.57142857142856</ele><time>2026-04-07T13:52:50Z</time></trkpt><trkpt lat="45.72144586396796" lon="9.731865657342306"><ele>276.1428571428571</ele><time>2026-04-07T13:52:51Z</time></trkpt><trkpt lat="45.72145149170574" lon="9.731774833137129"><ele>275.7142857142857</ele><time>2026-04-07T13:52:52Z</time></trkpt><trkpt lat="45.72145468733671" lon="9.731679891926131"><ele>275.2857142857143</ele><time>2026-04-07T13:52:53Z</time></trkpt><trkpt lat="45.721456244201015" lon="9.731589249604772"><ele>274.8571428571429</ele><time>2026-04-07T13:52:54Z</time></trkpt><trkpt lat="45.72146015189149" lon="9.731496436248028"><ele>274.42857142857144</ele><time>2026-04-07T13:52:55Z</time></trkpt><trkpt lat="45.72146396649219" lon="9.731399918445241"><ele>274.0</ele><time>2026-04-07T13:52:56Z</time></trkpt><trkpt lat="45.72147011790073" lon="9.731302130539639"><ele>274.00000000000006</ele><time>2026-04-07T13:52:57Z</time></trkpt><trkpt lat="45.72147742488513" lon="9.731203159981622"><ele>274.0</ele><time>2026-04-07T13:52:58Z</time></trkpt><trkpt lat="45.72148388658544" lon="9.731101174692142"><ele>274.0</ele><time>2026-04-07T13:52:59Z</time></trkpt><trkpt lat="45.721487165998184" lon="9.731000188105856"><ele>274.0</ele><time>2026-04-07T13:53:00Z</time></trkpt><trkpt lat="45.721487293992126" lon="9.730897130641214"><ele>274.0</ele><time>2026-04-07T13:53:01Z</time></trkpt><trkpt lat="45.72149249937915" lon="9.730794045786025"><ele>274.00000000000006</ele><time>2026-04-07T13:53:02Z</time></trkpt><trkpt lat="45.72149542054988" lon="9.730688886229231"><ele>274.0</ele><time>2026-04-07T13:53:03Z</time></trkpt><trkpt lat="45.72150396990872" lon="9.730582539605706"><ele>273.3333333333333</ele><time>2026-04-07T13:53:04Z</time></trkpt><trkpt lat="45.7215159261366" lon="9.730475799999708"><ele>272.66666666666663</ele><time>2026-04-07T13:53:05Z</time></trkpt><trkpt lat="45.721532350950945" lon="9.73037186740057"><ele>272.0</ele><time>2026-04-07T13:53:06Z</time></trkpt><trkpt lat="45.721560068221095" lon="9.730269966342336"><ele>271.3333333333333</ele><time>2026-04-07T13:53:07Z</time></trkpt><trkpt lat="45.72159922051195" lon="9.730173582838868"><ele>270.6666666666667</ele><time>2026-04-07T13:53:08Z</time></trkpt><trkpt lat="45.72164560818424" lon="9.730083529502487"><ele>270.0</ele><time>2026-04-07T13:53:09Z</time></trkpt><trkpt lat="45.72170458908919" lon="9.73001132875198"><ele>270.0</ele><time>2026-04-07T13:53:10Z</time></trkpt><trkpt lat="45.721770024439074" lon="9.729953453966651"><ele>270.0</ele><time>2026-04-07T13:53:11Z</time></trkpt><trkpt lat="45.72183197215042" lon="9.729893353876795"><ele>270.0</ele><time>2026-04-07T13:53:12Z</time></trkpt><trkpt lat="45.72189182868227" lon="9.7298297028869"><ele>270.0</ele><time>2026-04-07T13:53:13Z</time></trkpt><trkpt lat="45.721948357797" lon="9.729762346402577"><ele>270.0</ele><time>2026-04-07T13:53:14Z</time></trkpt><trkpt lat="45.72200300982837" lon="9.7297027494032"><ele>270.0</ele><time>2026-04-07T13:53:15Z</time></trkpt><trkpt lat="45.72206207601683" lon="9.72965975352833"><ele>270.0</ele><time>2026-04-07T13:53:16Z</time></trkpt><trkpt lat="45.72211914962815" lon="9.72961422442632"><ele>270.0</ele><time>2026-04-07T13:53:17Z</time></trkpt><trkpt lat="45.72217814701105" lon="9.729575250735179"><ele>270.0</ele><time>2026-04-07T13:53:18Z</time></trkpt><trkpt lat="45.72228608013504" lon="9.729477815052212"><ele>270.0</ele><time>2026-04-07T13:53:20Z</time></trkpt><trkpt lat="45.722366206650854" lon="9.729342015651529"><ele>270.0</ele><time>2026-04-07T13:53:22Z</time></trkpt><trkpt lat="45.722363343545545" lon="9.72924492991372"><ele>270.0</ele><time>2026-04-07T13:53:23Z</time></trkpt><trkpt lat="45.72231810329037" lon="9.729160812622368"><ele>270.0</ele><time>2026-04-07T13:53:24Z</time></trkpt><trkpt lat="45.722241154332494" lon="9.729120082741703"><ele>270.0</ele><time>2026-04-07T13:53:25Z</time></trkpt><trkpt lat="45.72216952964143" lon="9.72912806433438"><ele>270.0</ele><time>2026-04-07T13:53:26Z</time></trkpt><trkpt lat="45.72210281160262" lon="9.729115275067663"><ele>270.0</ele><time>2026-04-07T13:53:27Z</time></trkpt><trkpt lat="45.722046059884896" lon="9.729075174621501"><ele>270.0</ele><time>2026-04-07T13:53:28Z</time></trkpt><trkpt lat="45.72198646178973" lon="9.729027694276672"><ele>270.0</ele><time>2026-04-07T13:53:29Z</time></trkpt><trkpt lat="45.721930725096016" lon="9.72897311260697"><ele>270.0</ele><time>2026-04-07T13:53:30Z</time></trkpt><trkpt lat="45.72187581177134" lon="9.728925608058285"><ele>269.85714285714283</ele><time>2026-04-07T13:53:31Z</time></trkpt><trkpt lat="45.72181589997326" lon="9.728878478336785"><ele>269.71428571428567</ele><time>2026-04-07T13:53:32Z</time></trkpt><trkpt lat="45.72175558576904" lon="9.728834442215081"><ele>269.57142857142856</ele><time>2026-04-07T13:53:33Z</time></trkpt><trkpt lat="45.721699887920416" lon="9.728783376999353"><ele>269.42857142857144</ele><time>2026-04-07T13:53:34Z</time></trkpt><trkpt lat="45.72164366258674" lon="9.728732237463232"><ele>269.28571428571433</ele><time>2026-04-07T13:53:35Z</time></trkpt><trkpt lat="45.721589105874685" lon="9.728677961855455"><ele>269.14285714285717</ele><time>2026-04-07T13:53:36Z</time></trkpt><trkpt lat="45.721534714846115" lon="9.728631025275186"><ele>269.0</ele><time>2026-04-07T13:53:37Z</time></trkpt><trkpt lat="45.7214770145477" lon="9.728584019942188"><ele>269.0</ele><time>2026-04-07T13:53:38Z</time></trkpt><trkpt lat="45.72142152507058" lon="9.728534969615653"><ele>269.0</ele><time>2026-04-07T13:53:39Z</time></trkpt><trkpt lat="45.721366635662456" lon="9.728482633839064"><ele>269.0</ele><time>2026-04-07T13:53:40Z</time></trkpt><trkpt lat="45.72130784152593" lon="9.72844595531067"><ele>269.0</ele><time>2026-04-07T13:53:41Z</time></trkpt><trkpt lat="45.72125018071974" lon="9.728406605297579"><ele>269.0</ele><time>2026-04-07T13:53:42Z</time></trkpt><trkpt lat="45.72118974771331" lon="9.728376638170024"><ele>269.0</ele><time>2026-04-07T13:53:43Z</time></trkpt><trkpt lat="45.72112790698398" lon="9.72834529586205"><ele>269.0</ele><time>2026-04-07T13:53:44Z</time></trkpt><trkpt lat="45.721067248962264" lon="9.728312026820225"><ele>269.0</ele><time>2026-04-07T13:53:45Z</time></trkpt><trkpt lat="45.721003612896176" lon="9.728280792272527"><ele>269.0</ele><time>2026-04-07T13:53:46Z</time></trkpt><trkpt lat="45.72094061785891" lon="9.72826263639941"><ele>269.0</ele><time>2026-04-07T13:53:47Z</time></trkpt><trkpt lat="45.720876310745815" lon="9.728244265392233"><ele>269.0</ele><time>2026-04-07T13:53:48Z</time></trkpt><trkpt lat="45.720811520985954" lon="9.72823400703634"><ele>269.0</ele><time>2026-04-07T13:53:49Z</time></trkpt><trkpt lat="45.72068597866123" lon="9.72820944912461"><ele>269.0</ele><time>2026-04-07T13:53:51Z</time></trkpt><trkpt lat="45.72062286035711" lon="9.728196762687103"><ele>269.0</ele><time>2026-04-07T13:53:52Z</time></trkpt><trkpt lat="45.72055725656451" lon="9.728186558398379"><ele>269.0</ele><time>2026-04-07T13:53:53Z</time></trkpt><trkpt lat="45.72049300876913" lon="9.728178025794831"><ele>269.0</ele><time>2026-04-07T13:53:54Z</time></trkpt><trkpt lat="45.72042828005939" lon="9.728165236306891"><ele>269.0</ele><time>2026-04-07T13:53:55Z</time></trkpt><trkpt lat="45.72036341606222" lon="9.728156192409104"><ele>269.0</ele><time>2026-04-07T13:53:56Z</time></trkpt><trkpt lat="45.720299506826635" lon="9.72814563898056"><ele>269.0</ele><time>2026-04-07T13:53:57Z</time></trkpt><trkpt lat="45.72023518595287" lon="9.728132175011527"><ele>269.0</ele><time>2026-04-07T13:53:58Z</time></trkpt><trkpt lat="45.72010500192579" lon="9.728109810337376"><ele>268.8</ele><time>2026-04-07T13:54:00Z</time></trkpt><trkpt lat="45.719976865488405" lon="9.7280921899587"><ele>268.59999999999997</ele><time>2026-04-07T13:54:02Z</time></trkpt><trkpt lat="45.71991309728419" lon="9.728084890299561"><ele>268.4</ele><time>2026-04-07T13:54:03Z</time></trkpt><trkpt lat="45.71984617282129" lon="9.72807061924264"><ele>268.2</ele><time>2026-04-07T13:54:04Z</time></trkpt><trkpt lat="45.71971885674629" lon="9.728062488281099"><ele>268.0</ele><time>2026-04-07T13:54:06Z</time></trkpt><trkpt lat="45.71965464647435" lon="9.72806127975371"><ele>268.0</ele><time>2026-04-07T13:54:07Z</time></trkpt><trkpt lat="45.719525810222876" lon="9.728076970859764"><ele>268.0</ele><time>2026-04-07T13:54:09Z</time></trkpt><trkpt lat="45.719462031033785" lon="9.728084559732238"><ele>268.0</ele><time>2026-04-07T13:54:10Z</time></trkpt><trkpt lat="45.71939872951427" lon="9.728093809062129"><ele>268.0</ele><time>2026-04-07T13:54:11Z</time></trkpt><trkpt lat="45.71933116353785" lon="9.728107140496746"><ele>268.0</ele><time>2026-04-07T13:54:12Z</time></trkpt><trkpt lat="45.71920360355327" lon="9.728132250049965"><ele>268.2</ele><time>2026-04-07T13:54:14Z</time></trkpt><trkpt lat="45.719138897403184" lon="9.728146588649489"><ele>268.4</ele><time>2026-04-07T13:54:15Z</time></trkpt><trkpt lat="45.71901516484902" lon="9.728166468708427"><ele>268.59999999999997</ele><time>2026-04-07T13:54:17Z</time></trkpt><trkpt lat="45.71894530705569" lon="9.728182823586437"><ele>268.8</ele><time>2026-04-07T13:54:18Z</time></trkpt><trkpt lat="45.718821764352654" lon="9.728216118263015"><ele>269.0</ele><time>2026-04-07T13:54:20Z</time></trkpt><trkpt lat="45.71875603427818" lon="9.728235797769504"><ele>269.0</ele><time>2026-04-07T13:54:21Z</time></trkpt><trkpt lat="45.71863065162709" lon="9.728265545323834"><ele>269.0</ele><time>2026-04-07T13:54:23Z</time></trkpt><trkpt lat="45.718563981964905" lon="9.728282431719515"><ele>269.0</ele><time>2026-04-07T13:54:24Z</time></trkpt><trkpt lat="45.718440699421706" lon="9.728305588813697"><ele>269.0</ele><time>2026-04-07T13:54:26Z</time></trkpt><trkpt lat="45.71837275152275" lon="9.728321647741481"><ele>269.0</ele><time>2026-04-07T13:54:27Z</time></trkpt><trkpt lat="45.71830981485145" lon="9.72833388750705"><ele>269.0</ele><time>2026-04-07T13:54:28Z</time></trkpt><trkpt lat="45.718183467917655" lon="9.728356797468708"><ele>269.0</ele><time>2026-04-07T13:54:30Z</time></trkpt><trkpt lat="45.71812015193939" lon="9.728367237755"><ele>269.0</ele><time>2026-04-07T13:54:31Z</time></trkpt><trkpt lat="45.71799389738389" lon="9.72837072207186"><ele>269.0</ele><time>2026-04-07T13:54:33Z</time></trkpt><trkpt lat="45.71792969198728" lon="9.728372798623628"><ele>269.0</ele><time>2026-04-07T13:54:34Z</time></trkpt><trkpt lat="45.71780289168562" lon="9.728361879670532"><ele>269.0</ele><time>2026-04-07T13:54:36Z</time></trkpt><trkpt lat="45.71773956344363" lon="9.728352298048131"><ele>269.0</ele><time>2026-04-07T13:54:37Z</time></trkpt><trkpt lat="45.717673647547194" lon="9.728338556183175"><ele>269.0</ele><time>2026-04-07T13:54:38Z</time></trkpt><trkpt lat="45.71761083463336" lon="9.728322836772426"><ele>269.0</ele><time>2026-04-07T13:54:39Z</time></trkpt><trkpt lat="45.71754619063707" lon="9.728313335177592"><ele>269.0</ele><time>2026-04-07T13:54:40Z</time></trkpt><trkpt lat="45.71748278996658" lon="9.728303105120801"><ele>269.0</ele><time>2026-04-07T13:54:41Z</time></trkpt><trkpt lat="45.717418267653876" lon="9.728294083298222"><ele>269.0</ele><time>2026-04-07T13:54:42Z</time></trkpt><trkpt lat="45.71735501632695" lon="9.728285584565741"><ele>269.0</ele><time>2026-04-07T13:54:43Z</time></trkpt><trkpt lat="45.71729229499961" lon="9.72827539314757"><ele>269.0</ele><time>2026-04-07T13:54:44Z</time></trkpt><trkpt lat="45.71722888770949" lon="9.728261982629371"><ele>269.0</ele><time>2026-04-07T13:54:45Z</time></trkpt><trkpt lat="45.717166157432516" lon="9.72825177388868"><ele>269.0</ele><time>2026-04-07T13:54:46Z</time></trkpt><trkpt lat="45.71710210775996" lon="9.728241546401403"><ele>269.0</ele><time>2026-04-07T13:54:47Z</time></trkpt><trkpt lat="45.71703838963477" lon="9.728231936504866"><ele>269.0</ele><time>2026-04-07T13:54:48Z</time></trkpt><trkpt lat="45.7169737065636" lon="9.72822175547866"><ele>269.0</ele><time>2026-04-07T13:54:49Z</time></trkpt><trkpt lat="45.71684595338289" lon="9.728204640731855"><ele>269.2857142857143</ele><time>2026-04-07T13:54:51Z</time></trkpt><trkpt lat="45.716781902012784" lon="9.728198383507968"><ele>269.5714285714286</ele><time>2026-04-07T13:54:52Z</time></trkpt><trkpt lat="45.71671717636996" lon="9.728190963979555"><ele>269.8571428571429</ele><time>2026-04-07T13:54:53Z</time></trkpt><trkpt lat="45.71665239605309" lon="9.728184095651706"><ele>270.14285714285717</ele><time>2026-04-07T13:54:54Z</time></trkpt><trkpt lat="45.71658646804963" lon="9.728179290933099"><ele>270.42857142857144</ele><time>2026-04-07T13:54:55Z</time></trkpt><trkpt lat="45.7165207367664" lon="9.728175551544977"><ele>270.7142857142857</ele><time>2026-04-07T13:54:56Z</time></trkpt><trkpt lat="45.71645378124869" lon="9.72816677492144"><ele>271.0</ele><time>2026-04-07T13:54:57Z</time></trkpt><trkpt lat="45.716389527355936" lon="9.728166467688752"><ele>271.0</ele><time>2026-04-07T13:54:58Z</time></trkpt><trkpt lat="45.71632344378261" lon="9.728164319396331"><ele>271.0</ele><time>2026-04-07T13:54:59Z</time></trkpt><trkpt lat="45.716259700816174" lon="9.728157946663652"><ele>271.0</ele><time>2026-04-07T13:55:00Z</time></trkpt><trkpt lat="45.7161944140354" lon="9.728157887705192"><ele>271.0</ele><time>2026-04-07T13:55:01Z</time></trkpt><trkpt lat="45.71612971781001" lon="9.7281541442519"><ele>271.0</ele><time>2026-04-07T13:55:02Z</time></trkpt><trkpt lat="45.716065240872645" lon="9.728143679688586"><ele>271.0</ele><time>2026-04-07T13:55:03Z</time></trkpt><trkpt lat="45.715998056073275" lon="9.728140562084848"><ele>271.0</ele><time>2026-04-07T13:55:04Z</time></trkpt><trkpt lat="45.71587091676015" lon="9.728134433194743"><ele>270.66666666666663</ele><time>2026-04-07T13:55:06Z</time></trkpt><trkpt lat="45.71580426765456" lon="9.728124612237073"><ele>270.3333333333333</ele><time>2026-04-07T13:55:07Z</time></trkpt><trkpt lat="45.71573920229929" lon="9.728115746085532"><ele>270.0</ele><time>2026-04-07T13:55:08Z</time></trkpt><trkpt lat="45.715674799445296" lon="9.728101959287136"><ele>269.6666666666667</ele><time>2026-04-07T13:55:09Z</time></trkpt><trkpt lat="45.7156076025088" lon="9.728087825935509"><ele>269.33333333333337</ele><time>2026-04-07T13:55:09.999Z</time></trkpt><trkpt lat="45.71548072210115" lon="9.728057420154721"><ele>269.0</ele><time>2026-04-07T13:55:12Z</time></trkpt><trkpt lat="45.715414479317545" lon="9.72804035024215"><ele>269.0</ele><time>2026-04-07T13:55:13Z</time></trkpt><trkpt lat="45.71528790253616" lon="9.728005840441416"><ele>269.0</ele><time>2026-04-07T13:55:15Z</time></trkpt><trkpt lat="45.715224708327646" lon="9.727986323787478"><ele>269.0</ele><time>2026-04-07T13:55:16Z</time></trkpt><trkpt lat="45.715158389954695" lon="9.72797075524471"><ele>269.0</ele><time>2026-04-07T13:55:17Z</time></trkpt><trkpt lat="45.715094523168084" lon="9.727952145700618"><ele>269.0</ele><time>2026-04-07T13:55:18Z</time></trkpt><trkpt lat="45.715029692504665" lon="9.727929086087464"><ele>269.0</ele><time>2026-04-07T13:55:19Z</time></trkpt><trkpt lat="45.714965254558784" lon="9.727914891764643"><ele>268.7142857142857</ele><time>2026-04-07T13:55:20Z</time></trkpt><trkpt lat="45.71490101346071" lon="9.727898068048276"><ele>268.42857142857144</ele><time>2026-04-07T13:55:21Z</time></trkpt><trkpt lat="45.714835532525946" lon="9.727881446835477"><ele>268.14285714285717</ele><time>2026-04-07T13:55:22Z</time></trkpt><trkpt lat="45.71477435357425" lon="9.727859055571138"><ele>267.8571428571429</ele><time>2026-04-07T13:55:23Z</time></trkpt><trkpt lat="45.71470998049091" lon="9.727834624068088"><ele>267.57142857142856</ele><time>2026-04-07T13:55:24Z</time></trkpt><trkpt lat="45.71464781764853" lon="9.72781036417304"><ele>267.28571428571433</ele><time>2026-04-07T13:55:25Z</time></trkpt><trkpt lat="45.714584409026386" lon="9.727789325120312"><ele>267.0</ele><time>2026-04-07T13:55:26Z</time></trkpt><trkpt lat="45.714520729045326" lon="9.727762935537942"><ele>267.00000000000006</ele><time>2026-04-07T13:55:27Z</time></trkpt><trkpt lat="45.71446031829917" lon="9.727735237148089"><ele>267.0</ele><time>2026-04-07T13:55:28Z</time></trkpt><trkpt lat="45.714399723890594" lon="9.727708190164455"><ele>267.0</ele><time>2026-04-07T13:55:29Z</time></trkpt><trkpt lat="45.7143384867898" lon="9.727680533475088"><ele>267.0</ele><time>2026-04-07T13:55:30Z</time></trkpt><trkpt lat="45.71427699321165" lon="9.727650359982956"><ele>267.0</ele><time>2026-04-07T13:55:31Z</time></trkpt><trkpt lat="45.71415287515359" lon="9.727610823186156"><ele>267.00000000000006</ele><time>2026-04-07T13:55:33Z</time></trkpt><trkpt lat="45.71409015608365" lon="9.727602841189972"><ele>267.0</ele><time>2026-04-07T13:55:34Z</time></trkpt><trkpt lat="45.71402187891355" lon="9.727601950204614"><ele>267.28571428571433</ele><time>2026-04-07T13:55:35Z</time></trkpt><trkpt lat="45.71395814980192" lon="9.727597707066709"><ele>267.57142857142856</ele><time>2026-04-07T13:55:36Z</time></trkpt><trkpt lat="45.71389301688998" lon="9.727593570295875"><ele>267.8571428571429</ele><time>2026-04-07T13:55:37Z</time></trkpt><trkpt lat="45.71382838990308" lon="9.727587766240507"><ele>268.14285714285717</ele><time>2026-04-07T13:55:38Z</time></trkpt><trkpt lat="45.71376305528893" lon="9.727582664336564"><ele>268.42857142857144</ele><time>2026-04-07T13:55:39Z</time></trkpt><trkpt lat="45.71369800301678" lon="9.727578968177294"><ele>268.7142857142857</ele><time>2026-04-07T13:55:40Z</time></trkpt><trkpt lat="45.71363330717386" lon="9.727573397798373"><ele>269.0</ele><time>2026-04-07T13:55:41Z</time></trkpt><trkpt lat="45.71357009388316" lon="9.727571159848932"><ele>269.0</ele><time>2026-04-07T13:55:42Z</time></trkpt><trkpt lat="45.71350338151919" lon="9.727570840895629"><ele>269.0</ele><time>2026-04-07T13:55:43Z</time></trkpt><trkpt lat="45.71344008590148" lon="9.727568446646483"><ele>269.0</ele><time>2026-04-07T13:55:44Z</time></trkpt><trkpt lat="45.71337453792536" lon="9.727569925177521"><ele>269.0</ele><time>2026-04-07T13:55:45Z</time></trkpt><trkpt lat="45.71330986015661" lon="9.72757615089561"><ele>269.0</ele><time>2026-04-07T13:55:46Z</time></trkpt><trkpt lat="45.71324516601718" lon="9.727584566562822"><ele>269.0</ele><time>2026-04-07T13:55:47Z</time></trkpt><trkpt lat="45.71318230308854" lon="9.727597276191664"><ele>269.0</ele><time>2026-04-07T13:55:48Z</time></trkpt><trkpt lat="45.713117737183396" lon="9.727607785476538"><ele>269.0</ele><time>2026-04-07T13:55:49Z</time></trkpt><trkpt lat="45.71305361603426" lon="9.727610204005028"><ele>269.0</ele><time>2026-04-07T13:55:50Z</time></trkpt><trkpt lat="45.71299193960899" lon="9.727591398741605"><ele>269.0</ele><time>2026-04-07T13:55:51Z</time></trkpt><trkpt lat="45.71292248481688" lon="9.727563234568722"><ele>269.0</ele><time>2026-04-07T13:55:52Z</time></trkpt><trkpt lat="45.71279582874497" lon="9.72758132552699"><ele>269.0</ele><time>2026-04-07T13:55:54Z</time></trkpt><trkpt lat="45.712735219922315" lon="9.72762678511822"><ele>269.0</ele><time>2026-04-07T13:55:55Z</time></trkpt><trkpt lat="45.7126766138479" lon="9.72766068431141"><ele>268.8571428571429</ele><time>2026-04-07T13:55:56Z</time></trkpt><trkpt lat="45.712609099864245" lon="9.727665933633803"><ele>268.7142857142857</ele><time>2026-04-07T13:55:57Z</time></trkpt><trkpt lat="45.7125427398572" lon="9.727650242618527"><ele>268.57142857142856</ele><time>2026-04-07T13:55:58Z</time></trkpt><trkpt lat="45.71247726239678" lon="9.727631185113776"><ele>268.42857142857144</ele><time>2026-04-07T13:55:59Z</time></trkpt><trkpt lat="45.71241395248225" lon="9.727623466213013"><ele>268.2857142857143</ele><time>2026-04-07T13:56:00Z</time></trkpt><trkpt lat="45.712347203713755" lon="9.727616061827677"><ele>268.14285714285717</ele><time>2026-04-07T13:56:01Z</time></trkpt><trkpt lat="45.7122813931881" lon="9.727605779688941"><ele>268.0</ele><time>2026-04-07T13:56:02Z</time></trkpt><trkpt lat="45.71221469298742" lon="9.727596430132987"><ele>268.0</ele><time>2026-04-07T13:56:03Z</time></trkpt><trkpt lat="45.71214818434058" lon="9.727590058525765"><ele>268.0</ele><time>2026-04-07T13:56:04Z</time></trkpt><trkpt lat="45.712083172911626" lon="9.727581242953953"><ele>268.0</ele><time>2026-04-07T13:56:05Z</time></trkpt><trkpt lat="45.712017031851445" lon="9.72757082360278"><ele>268.0</ele><time>2026-04-07T13:56:06Z</time></trkpt><trkpt lat="45.711950853827226" lon="9.727560508957906"><ele>268.0</ele><time>2026-04-07T13:56:07Z</time></trkpt><trkpt lat="45.71188328018885" lon="9.727551289736851"><ele>268.0</ele><time>2026-04-07T13:56:08Z</time></trkpt><trkpt lat="45.711816824224144" lon="9.727542248266978"><ele>268.0</ele><time>2026-04-07T13:56:09Z</time></trkpt><trkpt lat="45.71175091082085" lon="9.727532252707144"><ele>267.7142857142857</ele><time>2026-04-07T13:56:10Z</time></trkpt><trkpt lat="45.711683424486026" lon="9.727522525749452"><ele>267.42857142857144</ele><time>2026-04-07T13:56:11Z</time></trkpt><trkpt lat="45.7116175443569" lon="9.727512882043396"><ele>267.1428571428571</ele><time>2026-04-07T13:56:12Z</time></trkpt><trkpt lat="45.7115490612457" lon="9.72750351630066"><ele>266.8571428571429</ele><time>2026-04-07T13:56:13Z</time></trkpt><trkpt lat="45.71148257096214" lon="9.727492940891038"><ele>266.57142857142856</ele><time>2026-04-07T13:56:14Z</time></trkpt><trkpt lat="45.7114173102554" lon="9.727480953568376"><ele>266.2857142857143</ele><time>2026-04-07T13:56:15Z</time></trkpt><trkpt lat="45.711351866861264" lon="9.727472645447984"><ele>266.0</ele><time>2026-04-07T13:56:16Z</time></trkpt><trkpt lat="45.71128676909416" lon="9.727462101372922"><ele>266.0</ele><time>2026-04-07T13:56:17Z</time></trkpt><trkpt lat="45.711220804371266" lon="9.727452525852502"><ele>266.0</ele><time>2026-04-07T13:56:18Z</time></trkpt><trkpt lat="45.71115550961894" lon="9.72744340699349"><ele>266.0</ele><time>2026-04-07T13:56:19Z</time></trkpt><trkpt lat="45.711090488421675" lon="9.727435518519304"><ele>266.0</ele><time>2026-04-07T13:56:20Z</time></trkpt><trkpt lat="45.71102640860276" lon="9.727423860980245"><ele>266.0</ele><time>2026-04-07T13:56:21Z</time></trkpt><trkpt lat="45.71096046050413" lon="9.72741663771303"><ele>266.0</ele><time>2026-04-07T13:56:22Z</time></trkpt><trkpt lat="45.71089700190412" lon="9.727409405443805"><ele>266.0</ele><time>2026-04-07T13:56:23Z</time></trkpt><trkpt lat="45.71083149414408" lon="9.727399000202281"><ele>265.57142857142856</ele><time>2026-04-07T13:56:24Z</time></trkpt><trkpt lat="45.71076661521503" lon="9.727388202034907"><ele>265.1428571428571</ele><time>2026-04-07T13:56:25Z</time></trkpt><trkpt lat="45.71070194164076" lon="9.727376973221391"><ele>264.7142857142857</ele><time>2026-04-07T13:56:26Z</time></trkpt><trkpt lat="45.71063684993297" lon="9.727364703675853"><ele>264.2857142857143</ele><time>2026-04-07T13:56:27Z</time></trkpt><trkpt lat="45.71056960612282" lon="9.727357897552322"><ele>263.85714285714283</ele><time>2026-04-07T13:56:28Z</time></trkpt><trkpt lat="45.71050686951795" lon="9.727346116794523"><ele>263.42857142857144</ele><time>2026-04-07T13:56:29Z</time></trkpt><trkpt lat="45.71044091982273" lon="9.727339715431548"><ele>263.0</ele><time>2026-04-07T13:56:30Z</time></trkpt><trkpt lat="45.710375370608105" lon="9.727325639789155"><ele>263.0</ele><time>2026-04-07T13:56:31Z</time></trkpt><trkpt lat="45.71030987290103" lon="9.727319742314174"><ele>263.0</ele><time>2026-04-07T13:56:32Z</time></trkpt><trkpt lat="45.71024555432685" lon="9.727308812384571"><ele>263.0</ele><time>2026-04-07T13:56:33Z</time></trkpt><trkpt lat="45.7101777446767" lon="9.72729585448297"><ele>263.0</ele><time>2026-04-07T13:56:34Z</time></trkpt><trkpt lat="45.71004865235631" lon="9.727286299715523"><ele>263.0</ele><time>2026-04-07T13:56:36Z</time></trkpt><trkpt lat="45.709986139530805" lon="9.727275238245076"><ele>263.0</ele><time>2026-04-07T13:56:37Z</time></trkpt><trkpt lat="45.70991785111589" lon="9.727262838380232"><ele>263.57142857142856</ele><time>2026-04-07T13:56:38Z</time></trkpt><trkpt lat="45.70985261222231" lon="9.727252728747544"><ele>264.1428571428571</ele><time>2026-04-07T13:56:39Z</time></trkpt><trkpt lat="45.70979025896967" lon="9.727238645055804"><ele>264.7142857142857</ele><time>2026-04-07T13:56:40Z</time></trkpt><trkpt lat="45.70972478681897" lon="9.72722887209541"><ele>265.2857142857143</ele><time>2026-04-07T13:56:41Z</time></trkpt><trkpt lat="45.709658976113595" lon="9.727223221334611"><ele>265.8571428571429</ele><time>2026-04-07T13:56:42Z</time></trkpt><trkpt lat="45.70959469252311" lon="9.727212216535342"><ele>266.42857142857144</ele><time>2026-04-07T13:56:43Z</time></trkpt><trkpt lat="45.709528401520956" lon="9.727200723593597"><ele>267.0</ele><time>2026-04-07T13:56:44Z</time></trkpt><trkpt lat="45.70946388060022" lon="9.727196524522236"><ele>267.1666666666667</ele><time>2026-04-07T13:56:45Z</time></trkpt><trkpt lat="45.70939844306361" lon="9.727186586232657"><ele>267.3333333333333</ele><time>2026-04-07T13:56:46Z</time></trkpt><trkpt lat="45.70927134252703" lon="9.727168174021925"><ele>267.5</ele><time>2026-04-07T13:56:48Z</time></trkpt><trkpt lat="45.70920704553359" lon="9.727157208168094"><ele>267.66666666666663</ele><time>2026-04-07T13:56:49Z</time></trkpt><trkpt lat="45.70914352416012" lon="9.727147444464276"><ele>267.8333333333333</ele><time>2026-04-07T13:56:50Z</time></trkpt><trkpt lat="45.70907712121797" lon="9.7271395552153"><ele>268.0</ele><time>2026-04-07T13:56:51Z</time></trkpt><trkpt lat="45.709009357405826" lon="9.727138908939304"><ele>268.0</ele><time>2026-04-07T13:56:52Z</time></trkpt><trkpt lat="45.70894253496399" lon="9.72712942241175"><ele>268.0</ele><time>2026-04-07T13:56:53Z</time></trkpt><trkpt lat="45.70887901572756" lon="9.727126801459042"><ele>268.0</ele><time>2026-04-07T13:56:54Z</time></trkpt><trkpt lat="45.7088101076459" lon="9.727118498412226"><ele>268.0</ele><time>2026-04-07T13:56:55Z</time></trkpt><trkpt lat="45.70874637041053" lon="9.727109669429543"><ele>268.0</ele><time>2026-04-07T13:56:56Z</time></trkpt><trkpt lat="45.70868114767172" lon="9.727106013811863"><ele>268.0</ele><time>2026-04-07T13:56:57Z</time></trkpt><trkpt lat="45.70861410956203" lon="9.727096323870274"><ele>268.0</ele><time>2026-04-07T13:56:58Z</time></trkpt><trkpt lat="45.708487080353656" lon="9.72707967852861"><ele>267.66666666666663</ele><time>2026-04-07T13:57:00Z</time></trkpt><trkpt lat="45.708422372376205" lon="9.727078166522634"><ele>267.3333333333333</ele><time>2026-04-07T13:57:01Z</time></trkpt><trkpt lat="45.708357740109946" lon="9.727069703016133"><ele>267.0</ele><time>2026-04-07T13:57:02Z</time></trkpt><trkpt lat="45.70829369285562" lon="9.727060924458623"><ele>266.6666666666667</ele><time>2026-04-07T13:57:03Z</time></trkpt><trkpt lat="45.708227424725365" lon="9.727056191966463"><ele>266.33333333333337</ele><time>2026-04-07T13:57:04Z</time></trkpt><trkpt lat="45.70809877508655" lon="9.72704206840491"><ele>266.0</ele><time>2026-04-07T13:57:06Z</time></trkpt><trkpt lat="45.708035100915744" lon="9.727036189507093"><ele>266.0</ele><time>2026-04-07T13:57:07Z</time></trkpt><trkpt lat="45.70797151751901" lon="9.727035829011614"><ele>266.0</ele><time>2026-04-07T13:57:08Z</time></trkpt><trkpt lat="45.70790416784013" lon="9.72703131771032"><ele>266.0</ele><time>2026-04-07T13:57:09Z</time></trkpt><trkpt lat="45.70777733326215" lon="9.727008722524689"><ele>266.0</ele><time>2026-04-07T13:57:11Z</time></trkpt><trkpt lat="45.70765260173688" lon="9.72700721095262"><ele>266.0</ele><time>2026-04-07T13:57:13Z</time></trkpt><trkpt lat="45.7075895532176" lon="9.727004832510373"><ele>266.0</ele><time>2026-04-07T13:57:14Z</time></trkpt><trkpt lat="45.707530560311596" lon="9.726956625532278"><ele>266.0</ele><time>2026-04-07T13:57:15Z</time></trkpt><trkpt lat="45.707496663250666" lon="9.726872489803375"><ele>266.0</ele><time>2026-04-07T13:57:16Z</time></trkpt><trkpt lat="45.70749726052357" lon="9.726773112865914"><ele>266.0</ele><time>2026-04-07T13:57:17Z</time></trkpt><trkpt lat="45.70750649935528" lon="9.72667996036541"><ele>266.0</ele><time>2026-04-07T13:57:18Z</time></trkpt><trkpt lat="45.70752112107044" lon="9.726505566094701"><ele>266.0</ele><time>2026-04-07T13:57:20Z</time></trkpt><trkpt lat="45.70753536676446" lon="9.726412578673338"><ele>266.0</ele><time>2026-04-07T13:57:21Z</time></trkpt><trkpt lat="45.70755197522905" lon="9.72622994969095"><ele>266.0</ele><time>2026-04-07T13:57:23Z</time></trkpt><trkpt lat="45.7075529871311" lon="9.726135832170385"><ele>266.0</ele><time>2026-04-07T13:57:24Z</time></trkpt><trkpt lat="45.70755069432529" lon="9.726043284973004"><ele>266.0</ele><time>2026-04-07T13:57:25Z</time></trkpt><trkpt lat="45.707529713881534" lon="9.725865946393053"><ele>266.0</ele><time>2026-04-07T13:57:27Z</time></trkpt><trkpt lat="45.707470476386995" lon="9.725707140589753"><ele>266.0</ele><time>2026-04-07T13:57:29Z</time></trkpt><trkpt lat="45.70742432220201" lon="9.725643688603974"><ele>266.0</ele><time>2026-04-07T13:57:30Z</time></trkpt><trkpt lat="45.707366785591574" lon="9.725593103679035"><ele>266.0</ele><time>2026-04-07T13:57:31Z</time></trkpt><trkpt lat="45.70730278622961" lon="9.725559779841443"><ele>266.0</ele><time>2026-04-07T13:57:32Z</time></trkpt><trkpt lat="45.707237164639515" lon="9.725544530833288"><ele>266.0</ele><time>2026-04-07T13:57:33Z</time></trkpt><trkpt lat="45.70717349464221" lon="9.725524499329161"><ele>266.0</ele><time>2026-04-07T13:57:34Z</time></trkpt><trkpt lat="45.707111696740654" lon="9.725500798693332"><ele>266.0</ele><time>2026-04-07T13:57:35Z</time></trkpt><trkpt lat="45.70704997341438" lon="9.725469865228533"><ele>266.0</ele><time>2026-04-07T13:57:36Z</time></trkpt><trkpt lat="45.70698740190089" lon="9.725435982959365"><ele>266.0</ele><time>2026-04-07T13:57:37Z</time></trkpt><trkpt lat="45.706927176196885" lon="9.725409430655597"><ele>266.0</ele><time>2026-04-07T13:57:38Z</time></trkpt><trkpt lat="45.70680630248833" lon="9.725351589505397"><ele>266.0</ele><time>2026-04-07T13:57:40Z</time></trkpt><trkpt lat="45.70674548673238" lon="9.725321196530919"><ele>266.0</ele><time>2026-04-07T13:57:41Z</time></trkpt><trkpt lat="45.706685395479695" lon="9.725291703660849"><ele>266.0</ele><time>2026-04-07T13:57:42Z</time></trkpt><trkpt lat="45.70656680308834" lon="9.725227651365158"><ele>266.0</ele><time>2026-04-07T13:57:44Z</time></trkpt><trkpt lat="45.70644443702471" lon="9.725177094839305"><ele>266.0</ele><time>2026-04-07T13:57:46Z</time></trkpt><trkpt lat="45.70632376990457" lon="9.725127526963329"><ele>266.0</ele><time>2026-04-07T13:57:48Z</time></trkpt><trkpt lat="45.70626160446155" lon="9.725111146256749"><ele>266.0</ele><time>2026-04-07T13:57:49Z</time></trkpt><trkpt lat="45.70613672645056" lon="9.725106727611383"><ele>266.0</ele><time>2026-04-07T13:57:51Z</time></trkpt><trkpt lat="45.70607245263182" lon="9.725121759070033"><ele>266.0</ele><time>2026-04-07T13:57:52Z</time></trkpt><trkpt lat="45.70594211656705" lon="9.725114057318905"><ele>266.0</ele><time>2026-04-07T13:57:54Z</time></trkpt><trkpt lat="45.70583706894672" lon="9.725083605595962"><ele>266.0</ele><time>2026-04-07T13:57:56Z</time></trkpt><trkpt lat="45.70575828891703" lon="9.724989390936392"><ele>266.0</ele><time>2026-04-07T13:57:59Z</time></trkpt><trkpt lat="45.705747349298285" lon="9.724895159047584"><ele>266.0</ele><time>2026-04-07T13:58:00Z</time></trkpt><trkpt lat="45.7057475764961" lon="9.724789215547922"><ele>266.0</ele><time>2026-04-07T13:58:01Z</time></trkpt><trkpt lat="45.705743415285006" lon="9.72468742916832"><ele>266.0</ele><time>2026-04-07T13:58:02Z</time></trkpt><trkpt lat="45.70573845609562" lon="9.724503427395003"><ele>266.0</ele><time>2026-04-07T13:58:04Z</time></trkpt><trkpt lat="45.7057348319337" lon="9.724408354693768"><ele>266.0</ele><time>2026-04-07T13:58:05Z</time></trkpt><trkpt lat="45.70572919839404" lon="9.724314400661072"><ele>266.0</ele><time>2026-04-07T13:58:06Z</time></trkpt><trkpt lat="45.7057249307248" lon="9.724216749523361"><ele>266.0</ele><time>2026-04-07T13:58:07Z</time></trkpt><trkpt lat="45.705720887382334" lon="9.724120748222662"><ele>266.0</ele><time>2026-04-07T13:58:08Z</time></trkpt><trkpt lat="45.7057170289333" lon="9.724026422302044"><ele>266.0</ele><time>2026-04-07T13:58:09Z</time></trkpt><trkpt lat="45.70571945668846" lon="9.723929607129278"><ele>266.0</ele><time>2026-04-07T13:58:10Z</time></trkpt><trkpt lat="45.7057242532234" lon="9.723835023462302"><ele>265.85714285714283</ele><time>2026-04-07T13:58:11Z</time></trkpt><trkpt lat="45.70572434354977" lon="9.72374278331729"><ele>265.7142857142857</ele><time>2026-04-07T13:58:12Z</time></trkpt><trkpt lat="45.705717239091456" lon="9.72364565622653"><ele>265.57142857142856</ele><time>2026-04-07T13:58:13Z</time></trkpt><trkpt lat="45.7057128061768" lon="9.723552231785735"><ele>265.42857142857144</ele><time>2026-04-07T13:58:14Z</time></trkpt><trkpt lat="45.705712574328494" lon="9.723455039311443"><ele>265.2857142857143</ele><time>2026-04-07T13:58:15Z</time></trkpt><trkpt lat="45.705707925413485" lon="9.723360900900852"><ele>265.1428571428571</ele><time>2026-04-07T13:58:16Z</time></trkpt><trkpt lat="45.70570464333536" lon="9.723263522856113"><ele>265.0</ele><time>2026-04-07T13:58:17Z</time></trkpt><trkpt lat="45.705704503476845" lon="9.723168863239936"><ele>265.0</ele><time>2026-04-07T13:58:18Z</time></trkpt><trkpt lat="45.705699597604614" lon="9.723070385971388"><ele>265.0</ele><time>2026-04-07T13:58:19Z</time></trkpt><trkpt lat="45.7056964250691" lon="9.722975456330706"><ele>265.0</ele><time>2026-04-07T13:58:20Z</time></trkpt><trkpt lat="45.70569240541343" lon="9.722878714499458"><ele>265.0</ele><time>2026-04-07T13:58:21Z</time></trkpt><trkpt lat="45.705687923400355" lon="9.722780680399014"><ele>265.0</ele><time>2026-04-07T13:58:22Z</time></trkpt><trkpt lat="45.70568371500689" lon="9.722686470086932"><ele>265.0</ele><time>2026-04-07T13:58:23Z</time></trkpt><trkpt lat="45.70568104091254" lon="9.72250898526328"><ele>264.8</ele><time>2026-04-07T13:58:25Z</time></trkpt><trkpt lat="45.70567831529363" lon="9.722327151769736"><ele>264.6</ele><time>2026-04-07T13:58:27Z</time></trkpt><trkpt lat="45.70570036560249" lon="9.722148249103778"><ele>264.4</ele><time>2026-04-07T13:58:29Z</time></trkpt><trkpt lat="45.70570961505098" lon="9.722057113841602"><ele>264.2</ele><time>2026-04-07T13:58:30Z</time></trkpt><trkpt lat="45.70570800540615" lon="9.7218795951661"><ele>264.0</ele><time>2026-04-07T13:58:32Z</time></trkpt><trkpt lat="45.70571380213858" lon="9.721704227877764"><ele>264.0</ele><time>2026-04-07T13:58:34Z</time></trkpt><trkpt lat="45.705725044387805" lon="9.721557772940782"><ele>264.0</ele><time>2026-04-07T13:58:36Z</time></trkpt><trkpt lat="45.70570134560083" lon="9.721459607866896"><ele>264.0</ele><time>2026-04-07T13:58:40Z</time></trkpt><trkpt lat="45.70561836946789" lon="9.721444639604098"><ele>264.0</ele><time>2026-04-07T13:58:42Z</time></trkpt><trkpt lat="45.70549950351322" lon="9.721476104693505"><ele>264.0</ele><time>2026-04-07T13:58:44Z</time></trkpt><trkpt lat="45.705431898219096" lon="9.721458067752723"><ele>264.0</ele><time>2026-04-07T13:58:45Z</time></trkpt><trkpt lat="45.70536841650541" lon="9.721426043405287"><ele>264.0</ele><time>2026-04-07T13:58:46Z</time></trkpt><trkpt lat="45.70525014383639" lon="9.721354025098794"><ele>264.0</ele><time>2026-04-07T13:58:48Z</time></trkpt><trkpt lat="45.705136587435675" lon="9.721286275377812"><ele>264.0</ele><time>2026-04-07T13:58:49.999Z</time></trkpt><trkpt lat="45.70502096859118" lon="9.72122066994075"><ele>264.0</ele><time>2026-04-07T13:58:51.999Z</time></trkpt><trkpt lat="45.704962090898654" lon="9.72118765529684"><ele>264.0</ele><time>2026-04-07T13:58:52.999Z</time></trkpt><trkpt lat="45.70490123008634" lon="9.721153942168499"><ele>264.2</ele><time>2026-04-07T13:58:53.999Z</time></trkpt><trkpt lat="45.70478925863521" lon="9.721079341597441"><ele>264.4</ele><time>2026-04-07T13:58:55.999Z</time></trkpt><trkpt lat="45.7047344096625" lon="9.72103461556675"><ele>264.6</ele><time>2026-04-07T13:58:56.999Z</time></trkpt><trkpt lat="45.70462261347676" lon="9.720955157473902"><ele>264.8</ele><time>2026-04-07T13:58:58.999Z</time></trkpt><trkpt lat="45.704531190360456" lon="9.720831696652267"><ele>265.0</ele><time>2026-04-07T13:59:00.999Z</time></trkpt><trkpt lat="45.70450352726603" lon="9.720747623229029"><ele>265.6</ele><time>2026-04-07T13:59:01.999Z</time></trkpt><trkpt lat="45.704491252934815" lon="9.720657383363214"><ele>266.2</ele><time>2026-04-07T13:59:02.999Z</time></trkpt><trkpt lat="45.704462385352606" lon="9.72048718376271"><ele>266.8</ele><time>2026-04-07T13:59:04.999Z</time></trkpt><trkpt lat="45.70443022494912" lon="9.720315060209963"><ele>267.4</ele><time>2026-04-07T13:59:06.999Z</time></trkpt><trkpt lat="45.70439650416731" lon="9.720146761151966"><ele>268.0</ele><time>2026-04-07T13:59:08.999Z</time></trkpt><trkpt lat="45.70435787635344" lon="9.719976882044707"><ele>268.6</ele><time>2026-04-07T13:59:10.999Z</time></trkpt><trkpt lat="45.70432305610947" lon="9.719805545720547"><ele>269.20000000000005</ele><time>2026-04-07T13:59:12.999Z</time></trkpt><trkpt lat="45.70429294488513" lon="9.719633420570599"><ele>269.8</ele><time>2026-04-07T13:59:14.999Z</time></trkpt><trkpt lat="45.70426823785161" lon="9.719543059257315"><ele>270.40000000000003</ele><time>2026-04-07T13:59:15.999Z</time></trkpt><trkpt lat="45.704233462199454" lon="9.719364231062139"><ele>271.0</ele><time>2026-04-07T13:59:17.999Z</time></trkpt><trkpt lat="45.70421800948915" lon="9.719274760873017"><ele>271.3333333333333</ele><time>2026-04-07T13:59:18.999Z</time></trkpt><trkpt lat="45.70420144963909" lon="9.71918122475024"><ele>271.66666666666663</ele><time>2026-04-07T13:59:19.999Z</time></trkpt><trkpt lat="45.704164404428006" lon="9.719009251144076"><ele>272.0</ele><time>2026-04-07T13:59:21.999Z</time></trkpt><trkpt lat="45.704134382195846" lon="9.718843338664742"><ele>272.3333333333333</ele><time>2026-04-07T13:59:24Z</time></trkpt><trkpt lat="45.70412008199006" lon="9.718751825165747"><ele>272.6666666666667</ele><time>2026-04-07T13:59:25Z</time></trkpt><trkpt lat="45.70410132677181" lon="9.718663344110732"><ele>273.0</ele><time>2026-04-07T13:59:26Z</time></trkpt><trkpt lat="45.7040822088475" lon="9.718571844490329"><ele>272.75</ele><time>2026-04-07T13:59:27Z</time></trkpt><trkpt lat="45.70407101086798" lon="9.718389438694887"><ele>272.5</ele><time>2026-04-07T13:59:29Z</time></trkpt><trkpt lat="45.7040756183631" lon="9.718215138755602"><ele>272.25</ele><time>2026-04-07T13:59:31Z</time></trkpt><trkpt lat="45.70407244750013" lon="9.718038523519615"><ele>272.0</ele><time>2026-04-07T13:59:33Z</time></trkpt><trkpt lat="45.704073239732104" lon="9.717858849130073"><ele>272.0</ele><time>2026-04-07T13:59:35Z</time></trkpt><trkpt lat="45.704069581966166" lon="9.71776786094247"><ele>272.0</ele><time>2026-04-07T13:59:36Z</time></trkpt><trkpt lat="45.70407025324184" lon="9.717675891218192"><ele>272.0</ele><time>2026-04-07T13:59:37Z</time></trkpt><trkpt lat="45.70407430616655" lon="9.71758448647482"><ele>272.0</ele><time>2026-04-07T13:59:38Z</time></trkpt><trkpt lat="45.70408027794959" lon="9.717405145041411"><ele>272.0</ele><time>2026-04-07T13:59:40Z</time></trkpt><trkpt lat="45.70408971219831" lon="9.71722557223417"><ele>272.0</ele><time>2026-04-07T13:59:42Z</time></trkpt><trkpt lat="45.70411978940968" lon="9.717048767761899"><ele>272.0</ele><time>2026-04-07T13:59:44Z</time></trkpt><trkpt lat="45.70417088350179" lon="9.716883462502958"><ele>272.0</ele><time>2026-04-07T13:59:46Z</time></trkpt><trkpt lat="45.70421978318381" lon="9.716736048381648"><ele>272.0</ele><time>2026-04-07T13:59:48Z</time></trkpt><trkpt lat="45.70427017441337" lon="9.716599458676669"><ele>272.0</ele><time>2026-04-07T13:59:50Z</time></trkpt><trkpt lat="45.70432013952576" lon="9.716468333204853"><ele>271.99999999999994</ele><time>2026-04-07T13:59:52Z</time></trkpt><trkpt lat="45.704376737717716" lon="9.716327393237165"><ele>272.0</ele><time>2026-04-07T13:59:54Z</time></trkpt><trkpt lat="45.70440091583741" lon="9.716240106537247"><ele>272.0</ele><time>2026-04-07T13:59:55Z</time></trkpt><trkpt lat="45.70443376382126" lon="9.716158900255465"><ele>272.0</ele><time>2026-04-07T13:59:56Z</time></trkpt><trkpt lat="45.70446408726858" lon="9.716078429549325"><ele>272.0</ele><time>2026-04-07T13:59:57Z</time></trkpt><trkpt lat="45.704497099559156" lon="9.716000073472255"><ele>271.99999999999994</ele><time>2026-04-07T13:59:58Z</time></trkpt><trkpt lat="45.704529510416215" lon="9.715917492911894"><ele>272.0</ele><time>2026-04-07T13:59:59Z</time></trkpt><trkpt lat="45.70455812952583" lon="9.71583433097742"><ele>271.99999999999994</ele><time>2026-04-07T14:00:00Z</time></trkpt><trkpt lat="45.7045867234781" lon="9.715751793528849"><ele>272.0</ele><time>2026-04-07T14:00:01Z</time></trkpt><trkpt lat="45.70461927759649" lon="9.715672359846648"><ele>272.0</ele><time>2026-04-07T14:00:02Z</time></trkpt><trkpt lat="45.70463430996859" lon="9.715584045543862"><ele>272.0</ele><time>2026-04-07T14:00:03Z</time></trkpt><trkpt lat="45.70463797709756" lon="9.715486793200899"><ele>272.0</ele><time>2026-04-07T14:00:04Z</time></trkpt><trkpt lat="45.70470238127964" lon="9.715418455993813"><ele>271.99999999999994</ele><time>2026-04-07T14:00:05Z</time></trkpt><trkpt lat="45.70472953144383" lon="9.715332879903828"><ele>272.0</ele><time>2026-04-07T14:00:06Z</time></trkpt><trkpt lat="45.70477581961168" lon="9.715165277334915"><ele>272.2</ele><time>2026-04-07T14:00:08Z</time></trkpt><trkpt lat="45.70479944896732" lon="9.715071848910615"><ele>272.4</ele><time>2026-04-07T14:00:09Z</time></trkpt><trkpt lat="45.70481488159797" lon="9.714902334947269"><ele>272.6</ele><time>2026-04-07T14:00:11Z</time></trkpt><trkpt lat="45.704836794056384" lon="9.714812794233843"><ele>272.8</ele><time>2026-04-07T14:00:12Z</time></trkpt><trkpt lat="45.7048983636027" lon="9.71467474850391"><ele>273.0</ele><time>2026-04-07T14:00:14Z</time></trkpt><trkpt lat="45.70495876309842" lon="9.714523363437737"><ele>273.0</ele><time>2026-04-07T14:00:16Z</time></trkpt><trkpt lat="45.70497428714632" lon="9.714428254951962"><ele>273.0</ele><time>2026-04-07T14:00:17Z</time></trkpt><trkpt lat="45.70495901523803" lon="9.714252476054117"><ele>273.0</ele><time>2026-04-07T14:00:19Z</time></trkpt><trkpt lat="45.70487414988198" lon="9.714139307672626"><ele>273.0</ele><time>2026-04-07T14:00:21Z</time></trkpt><trkpt lat="45.70476292618997" lon="9.714086272269416"><ele>273.0</ele><time>2026-04-07T14:00:23Z</time></trkpt><trkpt lat="45.704711384942975" lon="9.71403267244924"><ele>272.85714285714283</ele><time>2026-04-07T14:00:24Z</time></trkpt><trkpt lat="45.70466213165977" lon="9.713967021718549"><ele>272.7142857142857</ele><time>2026-04-07T14:00:25Z</time></trkpt><trkpt lat="45.704625515239336" lon="9.713893059780375"><ele>272.57142857142856</ele><time>2026-04-07T14:00:26Z</time></trkpt><trkpt lat="45.70458570827147" lon="9.713811590646115"><ele>272.42857142857144</ele><time>2026-04-07T14:00:27Z</time></trkpt><trkpt lat="45.704562104774084" lon="9.713720567535685"><ele>272.2857142857143</ele><time>2026-04-07T14:00:28Z</time></trkpt><trkpt lat="45.704550815884915" lon="9.713628513775998"><ele>272.1428571428571</ele><time>2026-04-07T14:00:29Z</time></trkpt><trkpt lat="45.70453779978546" lon="9.713536945253185"><ele>272.0</ele><time>2026-04-07T14:00:30Z</time></trkpt><trkpt lat="45.704515744100426" lon="9.713449002466508"><ele>272.0</ele><time>2026-04-07T14:00:31Z</time></trkpt><trkpt lat="45.704491845911335" lon="9.713362770856579"><ele>272.0</ele><time>2026-04-07T14:00:32Z</time></trkpt><trkpt lat="45.704455641679274" lon="9.71318778160168"><ele>272.0</ele><time>2026-04-07T14:00:34Z</time></trkpt><trkpt lat="45.70443659172528" lon="9.713097068391004"><ele>272.0</ele><time>2026-04-07T14:00:35Z</time></trkpt><trkpt lat="45.70441485710191" lon="9.71301130788549"><ele>272.0</ele><time>2026-04-07T14:00:36Z</time></trkpt><trkpt lat="45.704395014674546" lon="9.712919974515632"><ele>272.0</ele><time>2026-04-07T14:00:37Z</time></trkpt><trkpt lat="45.70436168432921" lon="9.712743349697517"><ele>271.85714285714283</ele><time>2026-04-07T14:00:39Z</time></trkpt><trkpt lat="45.70434484526775" lon="9.712653483433712"><ele>271.7142857142857</ele><time>2026-04-07T14:00:40Z</time></trkpt><trkpt lat="45.70432549404349" lon="9.712563757419657"><ele>271.57142857142856</ele><time>2026-04-07T14:00:41Z</time></trkpt><trkpt lat="45.70430696091399" lon="9.712472387277355"><ele>271.42857142857144</ele><time>2026-04-07T14:00:42Z</time></trkpt><trkpt lat="45.70428804258294" lon="9.712384933476818"><ele>271.2857142857143</ele><time>2026-04-07T14:00:43Z</time></trkpt><trkpt lat="45.70427073789625" lon="9.712295974355225"><ele>271.1428571428571</ele><time>2026-04-07T14:00:44Z</time></trkpt><trkpt lat="45.704252989949595" lon="9.712208578415167"><ele>271.0</ele><time>2026-04-07T14:00:45Z</time></trkpt><trkpt lat="45.70423202018232" lon="9.712121409434284"><ele>271.0</ele><time>2026-04-07T14:00:46Z</time></trkpt><trkpt lat="45.70421495779739" lon="9.712034228981132"><ele>271.0</ele><time>2026-04-07T14:00:47Z</time></trkpt><trkpt lat="45.70418897629995" lon="9.711947753720214"><ele>271.0</ele><time>2026-04-07T14:00:48Z</time></trkpt><trkpt lat="45.70416439667159" lon="9.711861627238557"><ele>271.0</ele><time>2026-04-07T14:00:49Z</time></trkpt><trkpt lat="45.70413939193373" lon="9.711776824040147"><ele>271.0</ele><time>2026-04-07T14:00:50Z</time></trkpt><trkpt lat="45.704110849590315" lon="9.711692599374757"><ele>271.0</ele><time>2026-04-07T14:00:51Z</time></trkpt><trkpt lat="45.70405401369801" lon="9.711523541299567"><ele>270.85714285714283</ele><time>2026-04-07T14:00:53Z</time></trkpt><trkpt lat="45.70402721475515" lon="9.71143721566431"><ele>270.7142857142857</ele><time>2026-04-07T14:00:54Z</time></trkpt><trkpt lat="45.70399707632587" lon="9.711350214928506"><ele>270.57142857142856</ele><time>2026-04-07T14:00:55Z</time></trkpt><trkpt lat="45.70397242224025" lon="9.711266182483923"><ele>270.42857142857144</ele><time>2026-04-07T14:00:56Z</time></trkpt><trkpt lat="45.703946126351454" lon="9.71118032661084"><ele>270.2857142857143</ele><time>2026-04-07T14:00:57Z</time></trkpt><trkpt lat="45.70392823124799" lon="9.711093212334154"><ele>270.1428571428571</ele><time>2026-04-07T14:00:58Z</time></trkpt><trkpt lat="45.703925653716574" lon="9.710998728813648"><ele>270.0</ele><time>2026-04-07T14:00:59Z</time></trkpt><trkpt lat="45.7039169556814" lon="9.710814975874971"><ele>269.8333333333333</ele><time>2026-04-07T14:01:01Z</time></trkpt><trkpt lat="45.70389704040801" lon="9.71071978110153"><ele>269.6666666666667</ele><time>2026-04-07T14:01:02Z</time></trkpt><trkpt lat="45.703860195670565" lon="9.710637424308837"><ele>269.5</ele><time>2026-04-07T14:01:03Z</time></trkpt><trkpt lat="45.70381675542983" lon="9.710566537232713"><ele>269.33333333333337</ele><time>2026-04-07T14:01:04Z</time></trkpt><trkpt lat="45.703768480040196" lon="9.710503533864632"><ele>269.1666666666667</ele><time>2026-04-07T14:01:05Z</time></trkpt><trkpt lat="45.70370540333765" lon="9.710346409291635"><ele>269.0</ele><time>2026-04-07T14:01:07Z</time></trkpt><trkpt lat="45.70371572615242" lon="9.710249876844376"><ele>268.8571428571429</ele><time>2026-04-07T14:01:08Z</time></trkpt><trkpt lat="45.70371821160195" lon="9.71015610931167"><ele>268.7142857142857</ele><time>2026-04-07T14:01:09Z</time></trkpt><trkpt lat="45.70370933817124" lon="9.710060303762319"><ele>268.57142857142856</ele><time>2026-04-07T14:01:10Z</time></trkpt><trkpt lat="45.70369907188419" lon="9.709965173089937"><ele>268.42857142857144</ele><time>2026-04-07T14:01:11Z</time></trkpt><trkpt lat="45.703689160531056" lon="9.709869820196547"><ele>268.2857142857143</ele><time>2026-04-07T14:01:12Z</time></trkpt><trkpt lat="45.70367564563046" lon="9.709776901322725"><ele>268.14285714285717</ele><time>2026-04-07T14:01:13Z</time></trkpt><trkpt lat="45.703665805447535" lon="9.709685343822567"><ele>268.0</ele><time>2026-04-07T14:01:14Z</time></trkpt><trkpt lat="45.703668023920905" lon="9.709592294335108"><ele>268.0</ele><time>2026-04-07T14:01:15Z</time></trkpt><trkpt lat="45.70366991429519" lon="9.70949818013158"><ele>268.0</ele><time>2026-04-07T14:01:16Z</time></trkpt><trkpt lat="45.70367632692984" lon="9.709318216823688"><ele>268.0</ele><time>2026-04-07T14:01:18Z</time></trkpt><trkpt lat="45.703677476749746" lon="9.709143928397301"><ele>268.0</ele><time>2026-04-07T14:01:20Z</time></trkpt><trkpt lat="45.70368025063939" lon="9.708977528563516"><ele>268.0</ele><time>2026-04-07T14:01:22Z</time></trkpt><trkpt lat="45.70368740970908" lon="9.708812913306108"><ele>268.0</ele><time>2026-04-07T14:01:24Z</time></trkpt><trkpt lat="45.70369335360289" lon="9.70863136168215"><ele>268.0</ele><time>2026-04-07T14:01:26Z</time></trkpt><trkpt lat="45.70369814190317" lon="9.70853739340495"><ele>268.0</ele><time>2026-04-07T14:01:27Z</time></trkpt><trkpt lat="45.703703517467254" lon="9.708447036536564"><ele>268.0</ele><time>2026-04-07T14:01:28Z</time></trkpt><trkpt lat="45.70370324808337" lon="9.708355011754978"><ele>268.0</ele><time>2026-04-07T14:01:29Z</time></trkpt><trkpt lat="45.70370773813471" lon="9.708264017247302"><ele>268.0</ele><time>2026-04-07T14:01:30Z</time></trkpt><trkpt lat="45.703710623916876" lon="9.70816979784425"><ele>268.14285714285717</ele><time>2026-04-07T14:01:31Z</time></trkpt><trkpt lat="45.703713426074465" lon="9.708077703305708"><ele>268.2857142857143</ele><time>2026-04-07T14:01:32Z</time></trkpt><trkpt lat="45.703715668022525" lon="9.707983615448418"><ele>268.42857142857144</ele><time>2026-04-07T14:01:33Z</time></trkpt><trkpt lat="45.703718649284816" lon="9.707890418638588"><ele>268.57142857142856</ele><time>2026-04-07T14:01:34Z</time></trkpt><trkpt lat="45.703719995113346" lon="9.707798323960942"><ele>268.7142857142857</ele><time>2026-04-07T14:01:35Z</time></trkpt><trkpt lat="45.70371939009904" lon="9.707707327592612"><ele>268.8571428571429</ele><time>2026-04-07T14:01:36Z</time></trkpt><trkpt lat="45.70372422300231" lon="9.70761731135153"><ele>269.0</ele><time>2026-04-07T14:01:37Z</time></trkpt><trkpt lat="45.70372627827781" lon="9.707526406154765"><ele>269.0</ele><time>2026-04-07T14:01:38Z</time></trkpt><trkpt lat="45.70373056627301" lon="9.70743028027183"><ele>269.0</ele><time>2026-04-07T14:01:39Z</time></trkpt><trkpt lat="45.70373571754488" lon="9.707250640007743"><ele>269.0</ele><time>2026-04-07T14:01:41Z</time></trkpt><trkpt lat="45.70373923566018" lon="9.707159608446903"><ele>269.0</ele><time>2026-04-07T14:01:42Z</time></trkpt><trkpt lat="45.703742320901284" lon="9.70706836469511"><ele>269.0</ele><time>2026-04-07T14:01:43Z</time></trkpt><trkpt lat="45.70374685290126" lon="9.706974557925966"><ele>269.0</ele><time>2026-04-07T14:01:44Z</time></trkpt><trkpt lat="45.70375049134726" lon="9.706800949441044"><ele>268.8</ele><time>2026-04-07T14:01:46Z</time></trkpt><trkpt lat="45.70375403878636" lon="9.706635352434924"><ele>268.59999999999997</ele><time>2026-04-07T14:01:48Z</time></trkpt><trkpt lat="45.70375769525451" lon="9.706479409390422"><ele>268.4</ele><time>2026-04-07T14:01:50Z</time></trkpt><trkpt lat="45.70376679644827" lon="9.706333587808919"><ele>268.2</ele><time>2026-04-07T14:01:52Z</time></trkpt><trkpt lat="45.70376775953386" lon="9.70619831599459"><ele>268.0</ele><time>2026-04-07T14:01:54Z</time></trkpt><trkpt lat="45.70377400327149" lon="9.706040133059"><ele>268.0</ele><time>2026-04-07T14:01:56Z</time></trkpt><trkpt lat="45.703771185994256" lon="9.705946447940354"><ele>268.0</ele><time>2026-04-07T14:01:57Z</time></trkpt><trkpt lat="45.703771436627854" lon="9.705770687946616"><ele>268.0</ele><time>2026-04-07T14:01:59Z</time></trkpt><trkpt lat="45.70376599812889" lon="9.705599829786836"><ele>268.0</ele><time>2026-04-07T14:02:01Z</time></trkpt><trkpt lat="45.703767013451575" lon="9.705441307666215"><ele>268.0</ele><time>2026-04-07T14:02:03Z</time></trkpt><trkpt lat="45.70376516886128" lon="9.705290998938656"><ele>268.16666666666663</ele><time>2026-04-07T14:02:05Z</time></trkpt><trkpt lat="45.703759863312655" lon="9.705116410990067"><ele>268.3333333333333</ele><time>2026-04-07T14:02:07Z</time></trkpt><trkpt lat="45.70375132830462" lon="9.70493219002044"><ele>268.5</ele><time>2026-04-07T14:02:09Z</time></trkpt><trkpt lat="45.70374740276104" lon="9.704839794983085"><ele>268.6666666666667</ele><time>2026-04-07T14:02:10Z</time></trkpt><trkpt lat="45.70374258957505" lon="9.704747394580453"><ele>268.83333333333337</ele><time>2026-04-07T14:02:11Z</time></trkpt><trkpt lat="45.70373842551756" lon="9.704653982822139"><ele>269.0</ele><time>2026-04-07T14:02:12Z</time></trkpt><trkpt lat="45.70373625667639" lon="9.70456209124887"><ele>269.0</ele><time>2026-04-07T14:02:13Z</time></trkpt><trkpt lat="45.70373109316998" lon="9.704469560740645"><ele>269.0</ele><time>2026-04-07T14:02:14Z</time></trkpt><trkpt lat="45.703720978643254" lon="9.704287203267317"><ele>269.0</ele><time>2026-04-07T14:02:16Z</time></trkpt><trkpt lat="45.70372014242446" lon="9.704191258607992"><ele>269.0</ele><time>2026-04-07T14:02:17Z</time></trkpt><trkpt lat="45.7037113790334" lon="9.704005838642882"><ele>269.0</ele><time>2026-04-07T14:02:19Z</time></trkpt><trkpt lat="45.70370152449604" lon="9.703825126794056"><ele>268.8571428571429</ele><time>2026-04-07T14:02:21Z</time></trkpt><trkpt lat="45.703701490754696" lon="9.703732253886802"><ele>268.7142857142857</ele><time>2026-04-07T14:02:22Z</time></trkpt><trkpt lat="45.70368980782948" lon="9.703638574044675"><ele>268.57142857142856</ele><time>2026-04-07T14:02:23Z</time></trkpt><trkpt lat="45.70368865851112" lon="9.703544188697645"><ele>268.42857142857144</ele><time>2026-04-07T14:02:24Z</time></trkpt><trkpt lat="45.70368766476229" lon="9.703450915817552"><ele>268.2857142857143</ele><time>2026-04-07T14:02:25Z</time></trkpt><trkpt lat="45.703674395224866" lon="9.703359716971324"><ele>268.14285714285717</ele><time>2026-04-07T14:02:26Z</time></trkpt><trkpt lat="45.70366750329591" lon="9.703267132759402"><ele>268.0</ele><time>2026-04-07T14:02:27Z</time></trkpt><trkpt lat="45.70366104169026" lon="9.70317263573884"><ele>268.0</ele><time>2026-04-07T14:02:28Z</time></trkpt><trkpt lat="45.70365334028558" lon="9.703081608956273"><ele>268.0</ele><time>2026-04-07T14:02:29Z</time></trkpt><trkpt lat="45.703645177986" lon="9.70299002133673"><ele>268.0</ele><time>2026-04-07T14:02:30Z</time></trkpt><trkpt lat="45.703633318822426" lon="9.702898960032158"><ele>268.0</ele><time>2026-04-07T14:02:31Z</time></trkpt><trkpt lat="45.70362546288562" lon="9.702805306790676"><ele>268.0</ele><time>2026-04-07T14:02:32Z</time></trkpt><trkpt lat="45.70361000451415" lon="9.702715934943"><ele>268.0</ele><time>2026-04-07T14:02:33Z</time></trkpt><trkpt lat="45.70359899587873" lon="9.702624729457712"><ele>268.0</ele><time>2026-04-07T14:02:34Z</time></trkpt><trkpt lat="45.7035708263189" lon="9.70244769948441"><ele>267.57142857142856</ele><time>2026-04-07T14:02:36Z</time></trkpt><trkpt lat="45.70354191472151" lon="9.702271719631796"><ele>267.1428571428571</ele><time>2026-04-07T14:02:38Z</time></trkpt><trkpt lat="45.7035311975432" lon="9.702180288343511"><ele>266.71428571428567</ele><time>2026-04-07T14:02:39Z</time></trkpt><trkpt lat="45.70351775744108" lon="9.702090714246445"><ele>266.2857142857143</ele><time>2026-04-07T14:02:40Z</time></trkpt><trkpt lat="45.703502288751935" lon="9.702000890383687"><ele>265.85714285714283</ele><time>2026-04-07T14:02:41Z</time></trkpt><trkpt lat="45.7034892339502" lon="9.70191118565153"><ele>265.4285714285714</ele><time>2026-04-07T14:02:42Z</time></trkpt><trkpt lat="45.70347446564771" lon="9.70182156658983"><ele>265.0</ele><time>2026-04-07T14:02:43Z</time></trkpt><trkpt lat="45.703447870298255" lon="9.701642795649944"><ele>265.0</ele><time>2026-04-07T14:02:45Z</time></trkpt><trkpt lat="45.703433686428376" lon="9.7015531036851"><ele>265.0</ele><time>2026-04-07T14:02:46Z</time></trkpt><trkpt lat="45.70340637728632" lon="9.701376317168684"><ele>265.0</ele><time>2026-04-07T14:02:48Z</time></trkpt><trkpt lat="45.70339141011964" lon="9.701279769686577"><ele>265.0</ele><time>2026-04-07T14:02:49Z</time></trkpt><trkpt lat="45.70336628483826" lon="9.701103761597174"><ele>265.0</ele><time>2026-04-07T14:02:51Z</time></trkpt><trkpt lat="45.70334907295518" lon="9.701015005665052"><ele>265.3333333333333</ele><time>2026-04-07T14:02:52Z</time></trkpt><trkpt lat="45.70333331977969" lon="9.700925169815708"><ele>265.66666666666663</ele><time>2026-04-07T14:02:53Z</time></trkpt><trkpt lat="45.70331807377142" lon="9.7008356958506"><ele>266.0</ele><time>2026-04-07T14:02:54Z</time></trkpt><trkpt lat="45.703309166249724" lon="9.700740769770848"><ele>266.3333333333333</ele><time>2026-04-07T14:02:55Z</time></trkpt><trkpt lat="45.70328426891128" lon="9.700561444980035"><ele>266.6666666666667</ele><time>2026-04-07T14:02:57Z</time></trkpt><trkpt lat="45.70326876978856" lon="9.700469306442315"><ele>267.0</ele><time>2026-04-07T14:02:58Z</time></trkpt><trkpt lat="45.703259106118985" lon="9.700378187662176"><ele>267.0</ele><time>2026-04-07T14:02:59Z</time></trkpt><trkpt lat="45.70324194320473" lon="9.700291148931328"><ele>267.0</ele><time>2026-04-07T14:03:00Z</time></trkpt><trkpt lat="45.70323150064897" lon="9.700201540037218"><ele>267.0</ele><time>2026-04-07T14:03:01Z</time></trkpt><trkpt lat="45.70320603323027" lon="9.700023793481263"><ele>267.0</ele><time>2026-04-07T14:03:03Z</time></trkpt><trkpt lat="45.70317872159961" lon="9.699854171957872"><ele>267.0</ele><time>2026-04-07T14:03:05Z</time></trkpt><trkpt lat="45.703152947727304" lon="9.699686927713014"><ele>267.0</ele><time>2026-04-07T14:03:07Z</time></trkpt><trkpt lat="45.703136896944" lon="9.699526144770358"><ele>267.0</ele><time>2026-04-07T14:03:09Z</time></trkpt><trkpt lat="45.70311379765398" lon="9.699373387599625"><ele>267.0</ele><time>2026-04-07T14:03:11Z</time></trkpt><trkpt lat="45.70310434422492" lon="9.699282689456762"><ele>267.0</ele><time>2026-04-07T14:03:12Z</time></trkpt><trkpt lat="45.70309184538716" lon="9.699189006726504"><ele>267.0</ele><time>2026-04-07T14:03:13Z</time></trkpt><trkpt lat="45.70307782189656" lon="9.699098105829517"><ele>267.0</ele><time>2026-04-07T14:03:14Z</time></trkpt><trkpt lat="45.70306565663079" lon="9.69900749929514"><ele>266.875</ele><time>2026-04-07T14:03:15Z</time></trkpt><trkpt lat="45.7030535034492" lon="9.698917455317563"><ele>266.75</ele><time>2026-04-07T14:03:16Z</time></trkpt><trkpt lat="45.703042998378834" lon="9.698827641997301"><ele>266.625</ele><time>2026-04-07T14:03:17Z</time></trkpt><trkpt lat="45.70303235887994" lon="9.698737258855802"><ele>266.5</ele><time>2026-04-07T14:03:18Z</time></trkpt><trkpt lat="45.70301822102754" lon="9.698649338317622"><ele>266.375</ele><time>2026-04-07T14:03:19Z</time></trkpt><trkpt lat="45.703002642089736" lon="9.698558908574855"><ele>266.25</ele><time>2026-04-07T14:03:20Z</time></trkpt><trkpt lat="45.70299128637955" lon="9.698468283219999"><ele>266.125</ele><time>2026-04-07T14:03:21Z</time></trkpt><trkpt lat="45.70298008516211" lon="9.698379424123091"><ele>266.0</ele><time>2026-04-07T14:03:22Z</time></trkpt><trkpt lat="45.70297253694588" lon="9.698286640483664"><ele>265.85714285714283</ele><time>2026-04-07T14:03:23Z</time></trkpt><trkpt lat="45.702956644777764" lon="9.698198563450863"><ele>265.7142857142857</ele><time>2026-04-07T14:03:24Z</time></trkpt><trkpt lat="45.70294425809859" lon="9.698107716395834"><ele>265.57142857142856</ele><time>2026-04-07T14:03:25Z</time></trkpt><trkpt lat="45.70293310327254" lon="9.698015649428843"><ele>265.42857142857144</ele><time>2026-04-07T14:03:26Z</time></trkpt><trkpt lat="45.70292282347702" lon="9.697925421924678"><ele>265.2857142857143</ele><time>2026-04-07T14:03:26.999Z</time></trkpt><trkpt lat="45.70291033050939" lon="9.697833431695837"><ele>265.1428571428571</ele><time>2026-04-07T14:03:27.999Z</time></trkpt><trkpt lat="45.70290055321438" lon="9.697742578484132"><ele>265.0</ele><time>2026-04-07T14:03:28.999Z</time></trkpt><trkpt lat="45.70289297462628" lon="9.69764965008109"><ele>264.99999999999994</ele><time>2026-04-07T14:03:29.999Z</time></trkpt><trkpt lat="45.7028821908168" lon="9.697556108465616"><ele>265.0</ele><time>2026-04-07T14:03:30.999Z</time></trkpt><trkpt lat="45.70288225615804" lon="9.697463240368469"><ele>265.0</ele><time>2026-04-07T14:03:31.999Z</time></trkpt><trkpt lat="45.7028825806127" lon="9.697369019592173"><ele>265.0</ele><time>2026-04-07T14:03:32.999Z</time></trkpt><trkpt lat="45.70289031488284" lon="9.697274959668631"><ele>265.0</ele><time>2026-04-07T14:03:33.999Z</time></trkpt><trkpt lat="45.70290586201933" lon="9.69718475164744"><ele>264.99999999999994</ele><time>2026-04-07T14:03:35Z</time></trkpt><trkpt lat="45.70292608501034" lon="9.697095035456012"><ele>265.0</ele><time>2026-04-07T14:03:36Z</time></trkpt><trkpt lat="45.702949706756534" lon="9.697007755028755"><ele>265.0</ele><time>2026-04-07T14:03:37Z</time></trkpt><trkpt lat="45.70297810736352" lon="9.696922521990492"><ele>265.0</ele><time>2026-04-07T14:03:38Z</time></trkpt><trkpt lat="45.703008344202324" lon="9.696840573640133"><ele>265.0</ele><time>2026-04-07T14:03:39Z</time></trkpt><trkpt lat="45.70304323815544" lon="9.69676070252391"><ele>265.0</ele><time>2026-04-07T14:03:40Z</time></trkpt><trkpt lat="45.70310377143224" lon="9.69660976026905"><ele>265.0</ele><time>2026-04-07T14:03:42Z</time></trkpt><trkpt lat="45.703169515443676" lon="9.696473173707513"><ele>265.0</ele><time>2026-04-07T14:03:44Z</time></trkpt><trkpt lat="45.703221651271086" lon="9.696327884108795"><ele>264.99999999999994</ele><time>2026-04-07T14:03:46Z</time></trkpt><trkpt lat="45.7032916219109" lon="9.696180763808849"><ele>265.0</ele><time>2026-04-07T14:03:48Z</time></trkpt><trkpt lat="45.70332321720549" lon="9.69610091772826"><ele>265.0</ele><time>2026-04-07T14:03:49Z</time></trkpt><trkpt lat="45.70335809635068" lon="9.696023438154247"><ele>265.0</ele><time>2026-04-07T14:03:50Z</time></trkpt><trkpt lat="45.703398192189105" lon="9.695951131278079"><ele>265.0</ele><time>2026-04-07T14:03:51Z</time></trkpt><trkpt lat="45.7034529594559" lon="9.6959012848522"><ele>264.99999999999994</ele><time>2026-04-07T14:03:52Z</time></trkpt><trkpt lat="45.70351479328714" lon="9.695872653879993"><ele>265.0</ele><time>2026-04-07T14:03:53Z</time></trkpt><trkpt lat="45.70358115082834" lon="9.6958537504433"><ele>265.1428571428571</ele><time>2026-04-07T14:03:54Z</time></trkpt><trkpt lat="45.70364589032176" lon="9.695865312220496"><ele>265.2857142857143</ele><time>2026-04-07T14:03:55Z</time></trkpt><trkpt lat="45.70371072935366" lon="9.695881360505037"><ele>265.42857142857144</ele><time>2026-04-07T14:03:56Z</time></trkpt><trkpt lat="45.7037761861453" lon="9.695886652647195"><ele>265.57142857142856</ele><time>2026-04-07T14:03:57Z</time></trkpt><trkpt lat="45.70384122454812" lon="9.695889329875744"><ele>265.7142857142857</ele><time>2026-04-07T14:03:58Z</time></trkpt><trkpt lat="45.70390523164655" lon="9.695872294034748"><ele>265.85714285714283</ele><time>2026-04-07T14:03:59Z</time></trkpt><trkpt lat="45.70402749607505" lon="9.695866364049834"><ele>266.0</ele><time>2026-04-07T14:04:01Z</time></trkpt><trkpt lat="45.704076777513436" lon="9.69580672441574"><ele>266.0</ele><time>2026-04-07T14:04:02Z</time></trkpt><trkpt lat="45.70412279894127" lon="9.69573954801518"><ele>266.0</ele><time>2026-04-07T14:04:03Z</time></trkpt><trkpt lat="45.704190761237825" lon="9.695601865450955"><ele>266.0</ele><time>2026-04-07T14:04:05Z</time></trkpt><trkpt lat="45.704272274093626" lon="9.695492468559506"><ele>266.0</ele><time>2026-04-07T14:04:07Z</time></trkpt><trkpt lat="45.704386532073904" lon="9.695435708885027"><ele>266.0</ele><time>2026-04-07T14:04:09Z</time></trkpt><trkpt lat="45.70445285656672" lon="9.695426195381694"><ele>266.0</ele><time>2026-04-07T14:04:10Z</time></trkpt><trkpt lat="45.704517964178294" lon="9.69540218745033"><ele>266.0</ele><time>2026-04-07T14:04:11Z</time></trkpt><trkpt lat="45.70458014494" lon="9.695378320697934"><ele>266.0</ele><time>2026-04-07T14:04:12Z</time></trkpt><trkpt lat="45.7046419411641" lon="9.695341616163297"><ele>266.0</ele><time>2026-04-07T14:04:13Z</time></trkpt><trkpt lat="45.70470134631459" lon="9.695307267064795"><ele>266.0</ele><time>2026-04-07T14:04:14Z</time></trkpt><trkpt lat="45.70475628583254" lon="9.695253910060453"><ele>266.0</ele><time>2026-04-07T14:04:15Z</time></trkpt><trkpt lat="45.70480365555333" lon="9.695185623321695"><ele>266.0</ele><time>2026-04-07T14:04:16Z</time></trkpt><trkpt lat="45.70484645676799" lon="9.69511602421788"><ele>266.40000000000003</ele><time>2026-04-07T14:04:17Z</time></trkpt><trkpt lat="45.70488407603101" lon="9.695038607141715"><ele>266.8</ele><time>2026-04-07T14:04:18Z</time></trkpt><trkpt lat="45.70494324969215" lon="9.69487252692537"><ele>267.20000000000005</ele><time>2026-04-07T14:04:20Z</time></trkpt><trkpt lat="45.70501176417056" lon="9.694721206659132"><ele>267.6</ele><time>2026-04-07T14:04:22Z</time></trkpt><trkpt lat="45.705058270065834" lon="9.694657138260197"><ele>268.0</ele><time>2026-04-07T14:04:23Z</time></trkpt><trkpt lat="45.70513054027552" lon="9.694633222283379"><ele>268.0</ele><time>2026-04-07T14:04:24Z</time></trkpt><trkpt lat="45.705197626833" lon="9.694612843556653"><ele>268.0</ele><time>2026-04-07T14:04:25Z</time></trkpt><trkpt lat="45.70525770597332" lon="9.694583248284696"><ele>268.0</ele><time>2026-04-07T14:04:26Z</time></trkpt><trkpt lat="45.7053793351052" lon="9.694536536937079"><ele>268.0</ele><time>2026-04-07T14:04:28Z</time></trkpt><trkpt lat="45.7054394065482" lon="9.694504507269318"><ele>268.0</ele><time>2026-04-07T14:04:29Z</time></trkpt><trkpt lat="45.70549976768734" lon="9.694472062551071"><ele>268.0</ele><time>2026-04-07T14:04:30Z</time></trkpt><trkpt lat="45.7056219008222" lon="9.694418396902483"><ele>267.7142857142857</ele><time>2026-04-07T14:04:32Z</time></trkpt><trkpt lat="45.70568322887988" lon="9.694393407058813"><ele>267.42857142857144</ele><time>2026-04-07T14:04:33Z</time></trkpt><trkpt lat="45.70574506034242" lon="9.69436888422143"><ele>267.1428571428571</ele><time>2026-04-07T14:04:34Z</time></trkpt><trkpt lat="45.70580455177036" lon="9.694336820092417"><ele>266.8571428571429</ele><time>2026-04-07T14:04:35Z</time></trkpt><trkpt lat="45.70586720222005" lon="9.694299185766333"><ele>266.57142857142856</ele><time>2026-04-07T14:04:36Z</time></trkpt><trkpt lat="45.70592824686601" lon="9.694254430028836"><ele>266.2857142857143</ele><time>2026-04-07T14:04:37Z</time></trkpt><trkpt lat="45.70598906916862" lon="9.694206367363185"><ele>266.0</ele><time>2026-04-07T14:04:38Z</time></trkpt><trkpt lat="45.7060515457902" lon="9.694163244597153"><ele>266.2857142857143</ele><time>2026-04-07T14:04:39Z</time></trkpt><trkpt lat="45.70611424022754" lon="9.694130231730517"><ele>266.57142857142856</ele><time>2026-04-07T14:04:40Z</time></trkpt><trkpt lat="45.70617701055379" lon="9.694095611229232"><ele>266.8571428571429</ele><time>2026-04-07T14:04:41Z</time></trkpt><trkpt lat="45.70623854944933" lon="9.694058714590081"><ele>267.1428571428571</ele><time>2026-04-07T14:04:42Z</time></trkpt><trkpt lat="45.70630029167676" lon="9.694026437193262"><ele>267.42857142857144</ele><time>2026-04-07T14:04:43Z</time></trkpt><trkpt lat="45.70636162617078" lon="9.69398948749797"><ele>267.7142857142857</ele><time>2026-04-07T14:04:44Z</time></trkpt><trkpt lat="45.70641846577236" lon="9.693942275871827"><ele>268.0</ele><time>2026-04-07T14:04:45Z</time></trkpt><trkpt lat="45.70647295511849" lon="9.693890260784817"><ele>268.0</ele><time>2026-04-07T14:04:46Z</time></trkpt><trkpt lat="45.70652838777563" lon="9.693835613656702"><ele>268.0</ele><time>2026-04-07T14:04:47Z</time></trkpt><trkpt lat="45.70658007313214" lon="9.69378114515594"><ele>268.0</ele><time>2026-04-07T14:04:48Z</time></trkpt><trkpt lat="45.70668608851482" lon="9.693685003319134"><ele>268.0</ele><time>2026-04-07T14:04:50Z</time></trkpt><trkpt lat="45.70673862486963" lon="9.693632261672288"><ele>268.0</ele><time>2026-04-07T14:04:51Z</time></trkpt><trkpt lat="45.70684182023734" lon="9.693533816183542"><ele>268.0</ele><time>2026-04-07T14:04:53Z</time></trkpt><trkpt lat="45.70689640770585" lon="9.693474865285694"><ele>267.6</ele><time>2026-04-07T14:04:54Z</time></trkpt><trkpt lat="45.70699249621423" lon="9.693363185557963"><ele>267.20000000000005</ele><time>2026-04-07T14:04:56Z</time></trkpt><trkpt lat="45.707040212033434" lon="9.693301043185446"><ele>266.8</ele><time>2026-04-07T14:04:57Z</time></trkpt><trkpt lat="45.7071252062621" lon="9.69317058899984"><ele>266.40000000000003</ele><time>2026-04-07T14:04:59Z</time></trkpt><trkpt lat="45.70721090337232" lon="9.693042556659472"><ele>266.0</ele><time>2026-04-07T14:05:01Z</time></trkpt><trkpt lat="45.70729412524883" lon="9.692914635603028"><ele>266.0</ele><time>2026-04-07T14:05:03Z</time></trkpt><trkpt lat="45.70733863483474" lon="9.692847637232953"><ele>266.0</ele><time>2026-04-07T14:05:04Z</time></trkpt><trkpt lat="45.70742370638414" lon="9.69271724098408"><ele>266.0</ele><time>2026-04-07T14:05:06Z</time></trkpt><trkpt lat="45.70751182689629" lon="9.692584750526217"><ele>266.0</ele><time>2026-04-07T14:05:08Z</time></trkpt><trkpt lat="45.707596937078065" lon="9.692453620451412"><ele>266.0</ele><time>2026-04-07T14:05:10Z</time></trkpt><trkpt lat="45.70768057339454" lon="9.692319299912711"><ele>266.6</ele><time>2026-04-07T14:05:12Z</time></trkpt><trkpt lat="45.707763588039306" lon="9.69218612700809"><ele>267.20000000000005</ele><time>2026-04-07T14:05:14Z</time></trkpt><trkpt lat="45.707846309989" lon="9.692050738009401"><ele>267.79999999999995</ele><time>2026-04-07T14:05:16Z</time></trkpt><trkpt lat="45.707891032563204" lon="9.691986754192847"><ele>268.4</ele><time>2026-04-07T14:05:17Z</time></trkpt><trkpt lat="45.707971126673065" lon="9.691852820984526"><ele>269.0</ele><time>2026-04-07T14:05:19Z</time></trkpt><trkpt lat="45.70804975329691" lon="9.691718559650242"><ele>269.0</ele><time>2026-04-07T14:05:21Z</time></trkpt><trkpt lat="45.708101255524994" lon="9.691649684983117"><ele>269.0</ele><time>2026-04-07T14:05:22Z</time></trkpt><trkpt lat="45.70818450214028" lon="9.691509449426334"><ele>269.0</ele><time>2026-04-07T14:05:24Z</time></trkpt><trkpt lat="45.70822636786446" lon="9.691439265286036"><ele>269.0</ele><time>2026-04-07T14:05:25Z</time></trkpt><trkpt lat="45.70827423933266" lon="9.69137470247656"><ele>269.0</ele><time>2026-04-07T14:05:26Z</time></trkpt><trkpt lat="45.7083160610957" lon="9.691301241449283"><ele>269.0</ele><time>2026-04-07T14:05:27Z</time></trkpt><trkpt lat="45.7083628154654" lon="9.691232022182477"><ele>269.0</ele><time>2026-04-07T14:05:28Z</time></trkpt><trkpt lat="45.7084102666464" lon="9.691161576126202"><ele>269.0</ele><time>2026-04-07T14:05:29Z</time></trkpt><trkpt lat="45.70845528376074" lon="9.691087142048787"><ele>269.0</ele><time>2026-04-07T14:05:30Z</time></trkpt><trkpt lat="45.70850386687841" lon="9.691013776322825"><ele>269.0</ele><time>2026-04-07T14:05:31Z</time></trkpt><trkpt lat="45.7085514726092" lon="9.690935215495749"><ele>269.0</ele><time>2026-04-07T14:05:32Z</time></trkpt><trkpt lat="45.70860156841061" lon="9.690857786989039"><ele>269.0</ele><time>2026-04-07T14:05:33Z</time></trkpt><trkpt lat="45.70865315069504" lon="9.690778456588996"><ele>269.0</ele><time>2026-04-07T14:05:34Z</time></trkpt><trkpt lat="45.70870553938577" lon="9.690696606821893"><ele>269.0</ele><time>2026-04-07T14:05:35Z</time></trkpt><trkpt lat="45.70875835023153" lon="9.690611570784663"><ele>269.0</ele><time>2026-04-07T14:05:36Z</time></trkpt><trkpt lat="45.70881161276506" lon="9.6905282139678"><ele>269.0</ele><time>2026-04-07T14:05:37Z</time></trkpt><trkpt lat="45.708863765352376" lon="9.690449782308535"><ele>269.0</ele><time>2026-04-07T14:05:38Z</time></trkpt><trkpt lat="45.70891714478532" lon="9.690369066108843"><ele>269.0</ele><time>2026-04-07T14:05:39Z</time></trkpt><trkpt lat="45.708969851164206" lon="9.690292447761076"><ele>269.0</ele><time>2026-04-07T14:05:40Z</time></trkpt><trkpt lat="45.7090214034987" lon="9.690221245138307"><ele>269.0</ele><time>2026-04-07T14:05:41Z</time></trkpt><trkpt lat="45.70907382271719" lon="9.690154324440183"><ele>269.0</ele><time>2026-04-07T14:05:42Z</time></trkpt><trkpt lat="45.70912370473491" lon="9.690092041213221"><ele>269.0</ele><time>2026-04-07T14:05:43Z</time></trkpt><trkpt lat="45.70917504853343" lon="9.69002958098671"><ele>269.0</ele><time>2026-04-07T14:05:44Z</time></trkpt><trkpt lat="45.70927442311849" lon="9.689922105059312"><ele>269.0</ele><time>2026-04-07T14:05:46Z</time></trkpt><trkpt lat="45.70932691991953" lon="9.68986722753615"><ele>269.0</ele><time>2026-04-07T14:05:47Z</time></trkpt><trkpt lat="45.70943318814277" lon="9.68977556192242"><ele>269.0</ele><time>2026-04-07T14:05:49Z</time></trkpt><trkpt lat="45.70954323663888" lon="9.689684955610003"><ele>269.0</ele><time>2026-04-07T14:05:51Z</time></trkpt><trkpt lat="45.70964803891634" lon="9.689595426760848"><ele>269.0</ele><time>2026-04-07T14:05:53Z</time></trkpt><trkpt lat="45.709704081320496" lon="9.689540321271876"><ele>269.0</ele><time>2026-04-07T14:05:54Z</time></trkpt><trkpt lat="45.709810927469924" lon="9.689445636028895"><ele>269.0</ele><time>2026-04-07T14:05:56Z</time></trkpt><trkpt lat="45.70986652038244" lon="9.689398500924927"><ele>269.0</ele><time>2026-04-07T14:05:57Z</time></trkpt><trkpt lat="45.70992159653675" lon="9.689352119208628"><ele>269.0</ele><time>2026-04-07T14:05:58Z</time></trkpt><trkpt lat="45.709977255114985" lon="9.68930945287817"><ele>269.0</ele><time>2026-04-07T14:05:59Z</time></trkpt><trkpt lat="45.71008089565741" lon="9.689222812305292"><ele>269.0</ele><time>2026-04-07T14:06:01Z</time></trkpt><trkpt lat="45.71018773373822" lon="9.689129169411574"><ele>269.0</ele><time>2026-04-07T14:06:03Z</time></trkpt><trkpt lat="45.71024315791085" lon="9.689081172325622"><ele>269.0</ele><time>2026-04-07T14:06:04Z</time></trkpt><trkpt lat="45.71035081481088" lon="9.688987718154088"><ele>269.33333333333337</ele><time>2026-04-07T14:06:06Z</time></trkpt><trkpt lat="45.7104023968631" lon="9.688933446608374"><ele>269.6666666666667</ele><time>2026-04-07T14:06:07Z</time></trkpt><trkpt lat="45.710457538210505" lon="9.688888236655425"><ele>270.0</ele><time>2026-04-07T14:06:08Z</time></trkpt><trkpt lat="45.71056661547792" lon="9.688796349765077"><ele>270.3333333333333</ele><time>2026-04-07T14:06:10Z</time></trkpt><trkpt lat="45.71067431762912" lon="9.688701472303531"><ele>270.66666666666663</ele><time>2026-04-07T14:06:12Z</time></trkpt><trkpt lat="45.710729628647954" lon="9.688656401906231"><ele>271.0</ele><time>2026-04-07T14:06:13Z</time></trkpt><trkpt lat="45.71083801201999" lon="9.688561120847048"><ele>271.0</ele><time>2026-04-07T14:06:15Z</time></trkpt><trkpt lat="45.71089309870408" lon="9.688517132246275"><ele>271.0</ele><time>2026-04-07T14:06:16Z</time></trkpt><trkpt lat="45.710997617006264" lon="9.688419848592876"><ele>271.0</ele><time>2026-04-07T14:06:18Z</time></trkpt><trkpt lat="45.71110140498481" lon="9.688313206271943"><ele>271.0</ele><time>2026-04-07T14:06:20Z</time></trkpt><trkpt lat="45.7112017836779" lon="9.688207854035172"><ele>271.0</ele><time>2026-04-07T14:06:22Z</time></trkpt><trkpt lat="45.71129984578456" lon="9.688095184003481"><ele>271.2</ele><time>2026-04-07T14:06:24Z</time></trkpt><trkpt lat="45.711349352107455" lon="9.688038568980106"><ele>271.40000000000003</ele><time>2026-04-07T14:06:25Z</time></trkpt><trkpt lat="45.71144132666578" lon="9.687917581437015"><ele>271.6</ele><time>2026-04-07T14:06:27Z</time></trkpt><trkpt lat="45.71153373820956" lon="9.687797889743301"><ele>271.8</ele><time>2026-04-07T14:06:29Z</time></trkpt><trkpt lat="45.71162415222521" lon="9.68766979949544"><ele>272.0</ele><time>2026-04-07T14:06:31Z</time></trkpt><trkpt lat="45.711667820931005" lon="9.687602315365949"><ele>272.0</ele><time>2026-04-07T14:06:32Z</time></trkpt><trkpt lat="45.71174339827334" lon="9.687462897521506"><ele>272.0</ele><time>2026-04-07T14:06:34Z</time></trkpt><trkpt lat="45.7117983392863" lon="9.687395775422642"><ele>272.0</ele><time>2026-04-07T14:06:35Z</time></trkpt><trkpt lat="45.71186817264047" lon="9.687249684755034"><ele>272.0</ele><time>2026-04-07T14:06:37Z</time></trkpt><trkpt lat="45.71194229760426" lon="9.687107625386934"><ele>272.0</ele><time>2026-04-07T14:06:39Z</time></trkpt><trkpt lat="45.71198096423807" lon="9.68703415302176"><ele>272.1428571428571</ele><time>2026-04-07T14:06:40Z</time></trkpt><trkpt lat="45.712017435314344" lon="9.686959353708442"><ele>272.2857142857143</ele><time>2026-04-07T14:06:41Z</time></trkpt><trkpt lat="45.712054306971396" lon="9.686883976048579"><ele>272.42857142857144</ele><time>2026-04-07T14:06:42Z</time></trkpt><trkpt lat="45.71212365400474" lon="9.686730235936633"><ele>272.57142857142856</ele><time>2026-04-07T14:06:44Z</time></trkpt><trkpt lat="45.71215745130801" lon="9.686652828535127"><ele>272.7142857142857</ele><time>2026-04-07T14:06:45Z</time></trkpt><trkpt lat="45.71218913970585" lon="9.68657430331231"><ele>272.85714285714283</ele><time>2026-04-07T14:06:46Z</time></trkpt><trkpt lat="45.71222260520411" lon="9.686492417245223"><ele>273.0</ele><time>2026-04-07T14:06:47Z</time></trkpt><trkpt lat="45.71225629539088" lon="9.686415058495445"><ele>273.42857142857144</ele><time>2026-04-07T14:06:48Z</time></trkpt><trkpt lat="45.7122924793111" lon="9.686334617137948"><ele>273.8571428571429</ele><time>2026-04-07T14:06:49Z</time></trkpt><trkpt lat="45.71232708223664" lon="9.686252419558867"><ele>274.2857142857143</ele><time>2026-04-07T14:06:50Z</time></trkpt><trkpt lat="45.71236015804224" lon="9.68617146541089"><ele>274.7142857142857</ele><time>2026-04-07T14:06:51Z</time></trkpt><trkpt lat="45.712392610366976" lon="9.68608831772262"><ele>275.14285714285717</ele><time>2026-04-07T14:06:52Z</time></trkpt><trkpt lat="45.712422592446984" lon="9.686003958707644"><ele>275.57142857142856</ele><time>2026-04-07T14:06:53Z</time></trkpt><trkpt lat="45.712456103065676" lon="9.685920679302612"><ele>276.0</ele><time>2026-04-07T14:06:54Z</time></trkpt><trkpt lat="45.71248764938994" lon="9.685839449778383"><ele>276.0</ele><time>2026-04-07T14:06:55Z</time></trkpt><trkpt lat="45.7125248677939" lon="9.685756839697236"><ele>276.0</ele><time>2026-04-07T14:06:56Z</time></trkpt><trkpt lat="45.71255618625974" lon="9.685672577252014"><ele>276.0</ele><time>2026-04-07T14:06:57Z</time></trkpt><trkpt lat="45.71258907460565" lon="9.685588952899328"><ele>276.0</ele><time>2026-04-07T14:06:58Z</time></trkpt><trkpt lat="45.71262727905145" lon="9.68551146364244"><ele>276.0</ele><time>2026-04-07T14:06:59Z</time></trkpt><trkpt lat="45.71265645479623" lon="9.685431515368466"><ele>276.0</ele><time>2026-04-07T14:07:00Z</time></trkpt><trkpt lat="45.712688378754265" lon="9.685347037956298"><ele>276.0</ele><time>2026-04-07T14:07:01Z</time></trkpt><trkpt lat="45.712726652070884" lon="9.68526634614496"><ele>276.8</ele><time>2026-04-07T14:07:02Z</time></trkpt><trkpt lat="45.7127603391788" lon="9.685186853664979"><ele>277.6</ele><time>2026-04-07T14:07:03Z</time></trkpt><trkpt lat="45.71282239546735" lon="9.685024649617345"><ele>278.4</ele><time>2026-04-07T14:07:05Z</time></trkpt><trkpt lat="45.71288452317018" lon="9.684868322125189"><ele>279.2</ele><time>2026-04-07T14:07:07Z</time></trkpt><trkpt lat="45.712917620780146" lon="9.684786818511196"><ele>280.0</ele><time>2026-04-07T14:07:08Z</time></trkpt><trkpt lat="45.712950502106764" lon="9.684707069656977"><ele>280.0</ele><time>2026-04-07T14:07:09Z</time></trkpt><trkpt lat="45.713017479082886" lon="9.684557504966001"><ele>280.0</ele><time>2026-04-07T14:07:11Z</time></trkpt><trkpt lat="45.71305142175379" lon="9.684476830211134"><ele>280.0</ele><time>2026-04-07T14:07:12Z</time></trkpt><trkpt lat="45.71308167603114" lon="9.684394460479872"><ele>280.0</ele><time>2026-04-07T14:07:13Z</time></trkpt><trkpt lat="45.71311400896707" lon="9.684315740396677"><ele>280.0</ele><time>2026-04-07T14:07:14Z</time></trkpt><trkpt lat="45.713146405746144" lon="9.684235356384853"><ele>280.0</ele><time>2026-04-07T14:07:15Z</time></trkpt><trkpt lat="45.713179400824" lon="9.684157260032302"><ele>280.0</ele><time>2026-04-07T14:07:16Z</time></trkpt><trkpt lat="45.71321196333281" lon="9.684078464356757"><ele>279.2857142857143</ele><time>2026-04-07T14:07:17Z</time></trkpt><trkpt lat="45.71324571905354" lon="9.684000705672954"><ele>278.57142857142856</ele><time>2026-04-07T14:07:18Z</time></trkpt><trkpt lat="45.713279837491086" lon="9.683921217978428"><ele>277.8571428571429</ele><time>2026-04-07T14:07:19Z</time></trkpt><trkpt lat="45.71331473749222" lon="9.683843012960581"><ele>277.1428571428571</ele><time>2026-04-07T14:07:20Z</time></trkpt><trkpt lat="45.7133471758466" lon="9.683761313754303"><ele>276.42857142857144</ele><time>2026-04-07T14:07:21Z</time></trkpt><trkpt lat="45.71338459402321" lon="9.68368483355496"><ele>275.7142857142857</ele><time>2026-04-07T14:07:22Z</time></trkpt><trkpt lat="45.71341528695119" lon="9.683604334323894"><ele>275.0</ele><time>2026-04-07T14:07:23Z</time></trkpt><trkpt lat="45.71344735671121" lon="9.683523989633878"><ele>275.4</ele><time>2026-04-07T14:07:24Z</time></trkpt><trkpt lat="45.71348062064182" lon="9.68344634803262"><ele>275.8</ele><time>2026-04-07T14:07:25Z</time></trkpt><trkpt lat="45.71353837632295" lon="9.683285403325433"><ele>276.2</ele><time>2026-04-07T14:07:27Z</time></trkpt><trkpt lat="45.71359368071739" lon="9.683127551050255"><ele>276.6</ele><time>2026-04-07T14:07:29Z</time></trkpt><trkpt lat="45.713648362349474" lon="9.6829671123573"><ele>277.0</ele><time>2026-04-07T14:07:31Z</time></trkpt><trkpt lat="45.71369706256075" lon="9.68280615007291"><ele>276.0</ele><time>2026-04-07T14:07:33Z</time></trkpt><trkpt lat="45.71373995470523" lon="9.68264308628647"><ele>275.0</ele><time>2026-04-07T14:07:35Z</time></trkpt><trkpt lat="45.713784881253616" lon="9.682474182049669"><ele>274.0</ele><time>2026-04-07T14:07:37Z</time></trkpt><trkpt lat="45.71381546855692" lon="9.682298886276731"><ele>273.0</ele><time>2026-04-07T14:07:39Z</time></trkpt><trkpt lat="45.71385465093082" lon="9.682131496762022"><ele>273.0</ele><time>2026-04-07T14:07:41Z</time></trkpt><trkpt lat="45.713884374377706" lon="9.681952242660012"><ele>273.0</ele><time>2026-04-07T14:07:43Z</time></trkpt><trkpt lat="45.713917983706864" lon="9.68177346051392"><ele>273.0</ele><time>2026-04-07T14:07:45Z</time></trkpt><trkpt lat="45.713935949971535" lon="9.681686179176067"><ele>273.0</ele><time>2026-04-07T14:07:46Z</time></trkpt><trkpt lat="45.71395076199684" lon="9.68159680252402"><ele>273.0</ele><time>2026-04-07T14:07:47Z</time></trkpt><trkpt lat="45.71397405522549" lon="9.681507415886093"><ele>272.7142857142857</ele><time>2026-04-07T14:07:48Z</time></trkpt><trkpt lat="45.71398641615263" lon="9.681409760161076"><ele>272.42857142857144</ele><time>2026-04-07T14:07:49Z</time></trkpt><trkpt lat="45.71400670999466" lon="9.681315276920921"><ele>272.1428571428571</ele><time>2026-04-07T14:07:50Z</time></trkpt><trkpt lat="45.71402504853865" lon="9.681218219767974"><ele>271.8571428571429</ele><time>2026-04-07T14:07:51Z</time></trkpt><trkpt lat="45.714042208737666" lon="9.68112523321032"><ele>271.57142857142856</ele><time>2026-04-07T14:07:52Z</time></trkpt><trkpt lat="45.71406009678574" lon="9.68101808635209"><ele>271.2857142857143</ele><time>2026-04-07T14:07:53Z</time></trkpt><trkpt lat="45.714082316741695" lon="9.680921217225933"><ele>271.0</ele><time>2026-04-07T14:07:54Z</time></trkpt><trkpt lat="45.71410000399044" lon="9.680818583626955"><ele>271.0</ele><time>2026-04-07T14:07:55Z</time></trkpt><trkpt lat="45.71411877275976" lon="9.680711476344243"><ele>271.0</ele><time>2026-04-07T14:07:56Z</time></trkpt><trkpt lat="45.71413984983111" lon="9.680607950808804"><ele>271.0</ele><time>2026-04-07T14:07:57Z</time></trkpt><trkpt lat="45.714158562226" lon="9.680505673542031"><ele>271.0</ele><time>2026-04-07T14:07:58Z</time></trkpt><trkpt lat="45.71417372729817" lon="9.680400252404242"><ele>271.0</ele><time>2026-04-07T14:07:59Z</time></trkpt><trkpt lat="45.714197764463215" lon="9.680304982634196"><ele>271.0</ele><time>2026-04-07T14:08:00Z</time></trkpt><trkpt lat="45.71421503933694" lon="9.680205102611913"><ele>271.0</ele><time>2026-04-07T14:08:01Z</time></trkpt><trkpt lat="45.71423098648354" lon="9.680110861749124"><ele>271.2</ele><time>2026-04-07T14:08:02Z</time></trkpt><trkpt lat="45.714248090857524" lon="9.680016814557264"><ele>271.40000000000003</ele><time>2026-04-07T14:08:03Z</time></trkpt><trkpt lat="45.71426335618472" lon="9.67992679516107"><ele>271.6</ele><time>2026-04-07T14:08:04Z</time></trkpt><trkpt lat="45.71430334034114" lon="9.67975154226635"><ele>271.8</ele><time>2026-04-07T14:08:06Z</time></trkpt><trkpt lat="45.71433096228411" lon="9.679579863818741"><ele>272.0</ele><time>2026-04-07T14:08:08Z</time></trkpt><trkpt lat="45.71434714959134" lon="9.679486236982356"><ele>272.2</ele><time>2026-04-07T14:08:09Z</time></trkpt><trkpt lat="45.71438001668965" lon="9.67931340255278"><ele>272.4</ele><time>2026-04-07T14:08:11Z</time></trkpt><trkpt lat="45.71439759964566" lon="9.679226743435832"><ele>272.6</ele><time>2026-04-07T14:08:12Z</time></trkpt><trkpt lat="45.71443137746542" lon="9.679050088054238"><ele>272.8</ele><time>2026-04-07T14:08:14Z</time></trkpt><trkpt lat="45.71446566467125" lon="9.678876793252073"><ele>273.0</ele><time>2026-04-07T14:08:16Z</time></trkpt><trkpt lat="45.71448453616992" lon="9.678786903332021"><ele>273.0</ele><time>2026-04-07T14:08:17Z</time></trkpt><trkpt lat="45.71449496680809" lon="9.678696427064208"><ele>273.0</ele><time>2026-04-07T14:08:18Z</time></trkpt><trkpt lat="45.71453662509889" lon="9.67853138506218"><ele>273.0</ele><time>2026-04-07T14:08:20Z</time></trkpt><trkpt lat="45.714547654855394" lon="9.678437558212519"><ele>273.0</ele><time>2026-04-07T14:08:21Z</time></trkpt><trkpt lat="45.71458270028163" lon="9.678270338292283"><ele>273.0</ele><time>2026-04-07T14:08:23Z</time></trkpt><trkpt lat="45.71460042391818" lon="9.678180956620437"><ele>273.0</ele><time>2026-04-07T14:08:24Z</time></trkpt><trkpt lat="45.71461487893868" lon="9.67808988012057"><ele>273.0</ele><time>2026-04-07T14:08:25Z</time></trkpt><trkpt lat="45.71464809803716" lon="9.677920066475929"><ele>273.0</ele><time>2026-04-07T14:08:27Z</time></trkpt><trkpt lat="45.714663616039594" lon="9.677830755842228"><ele>273.0</ele><time>2026-04-07T14:08:28Z</time></trkpt><trkpt lat="45.714698607729964" lon="9.677662161285312"><ele>273.0</ele><time>2026-04-07T14:08:30Z</time></trkpt><trkpt lat="45.71473067356525" lon="9.677483012016275"><ele>273.0</ele><time>2026-04-07T14:08:32Z</time></trkpt><trkpt lat="45.71476449529849" lon="9.67731825823443"><ele>273.0</ele><time>2026-04-07T14:08:34Z</time></trkpt><trkpt lat="45.714780362291265" lon="9.677224701419"><ele>273.0</ele><time>2026-04-07T14:08:35Z</time></trkpt><trkpt lat="45.71481288529148" lon="9.677056551975499"><ele>273.0</ele><time>2026-04-07T14:08:37Z</time></trkpt><trkpt lat="45.71484575306351" lon="9.67688179719407"><ele>273.0</ele><time>2026-04-07T14:08:39Z</time></trkpt><trkpt lat="45.71487628175877" lon="9.676707334732107"><ele>273.0</ele><time>2026-04-07T14:08:41Z</time></trkpt><trkpt lat="45.71489408206734" lon="9.676619637524974"><ele>273.0</ele><time>2026-04-07T14:08:42Z</time></trkpt><trkpt lat="45.714909529510415" lon="9.676529810874994"><ele>273.0</ele><time>2026-04-07T14:08:43Z</time></trkpt><trkpt lat="45.714946123496524" lon="9.67635690492784"><ele>273.0</ele><time>2026-04-07T14:08:45Z</time></trkpt><trkpt lat="45.71496527290972" lon="9.67627064341071"><ele>273.0</ele><time>2026-04-07T14:08:46Z</time></trkpt><trkpt lat="45.714991633971266" lon="9.676096347739856"><ele>273.0</ele><time>2026-04-07T14:08:48Z</time></trkpt><trkpt lat="45.715026102896545" lon="9.675927315508787"><ele>272.8333333333333</ele><time>2026-04-07T14:08:50Z</time></trkpt><trkpt lat="45.71504610523674" lon="9.675840453919706"><ele>272.6666666666667</ele><time>2026-04-07T14:08:51Z</time></trkpt><trkpt lat="45.71506259623098" lon="9.675752976515577"><ele>272.5</ele><time>2026-04-07T14:08:52Z</time></trkpt><trkpt lat="45.715098580818896" lon="9.67557607011873"><ele>272.33333333333337</ele><time>2026-04-07T14:08:54Z</time></trkpt><trkpt lat="45.71513087517796" lon="9.675409159606698"><ele>272.1666666666667</ele><time>2026-04-07T14:08:56Z</time></trkpt><trkpt lat="45.7151509237172" lon="9.675313309562705"><ele>272.0</ele><time>2026-04-07T14:08:57Z</time></trkpt><trkpt lat="45.71518550715403" lon="9.675138788112866"><ele>272.0</ele><time>2026-04-07T14:08:59Z</time></trkpt><trkpt lat="45.71520215619285" lon="9.675039558564642"><ele>272.0</ele><time>2026-04-07T14:09:00Z</time></trkpt><trkpt lat="45.715248694223206" lon="9.674860537005554"><ele>272.0</ele><time>2026-04-07T14:09:02Z</time></trkpt><trkpt lat="45.715276034494856" lon="9.674771723243213"><ele>272.0</ele><time>2026-04-07T14:09:03Z</time></trkpt><trkpt lat="45.71529935107402" lon="9.674679376951245"><ele>272.0</ele><time>2026-04-07T14:09:04Z</time></trkpt><trkpt lat="45.71532719586968" lon="9.674587667321182"><ele>272.0</ele><time>2026-04-07T14:09:05Z</time></trkpt><trkpt lat="45.71535488541013" lon="9.674493966788397"><ele>272.5</ele><time>2026-04-07T14:09:06Z</time></trkpt><trkpt lat="45.71538526538682" lon="9.674401290693254"><ele>273.0</ele><time>2026-04-07T14:09:07Z</time></trkpt><trkpt lat="45.715412483478154" lon="9.674298608809373"><ele>273.5</ele><time>2026-04-07T14:09:08Z</time></trkpt><trkpt lat="45.715446321354065" lon="9.67420826557114"><ele>274.0</ele><time>2026-04-07T14:09:09Z</time></trkpt><trkpt lat="45.71547879134362" lon="9.674113371607016"><ele>274.5</ele><time>2026-04-07T14:09:10Z</time></trkpt><trkpt lat="45.71551007016837" lon="9.674006905350561"><ele>275.0</ele><time>2026-04-07T14:09:11Z</time></trkpt><trkpt lat="45.71554338608152" lon="9.673908457037696"><ele>275.0</ele><time>2026-04-07T14:09:12Z</time></trkpt><trkpt lat="45.71557487426389" lon="9.673811704473279"><ele>275.0</ele><time>2026-04-07T14:09:13Z</time></trkpt><trkpt lat="45.715606300108924" lon="9.673712790019495"><ele>275.0</ele><time>2026-04-07T14:09:14Z</time></trkpt><trkpt lat="45.71563821764297" lon="9.673607831595685"><ele>275.0</ele><time>2026-04-07T14:09:15Z</time></trkpt><trkpt lat="45.71566918197446" lon="9.673515096554357"><ele>275.0</ele><time>2026-04-07T14:09:16Z</time></trkpt><trkpt lat="45.715699922903084" lon="9.673416018681976"><ele>275.0</ele><time>2026-04-07T14:09:17Z</time></trkpt><trkpt lat="45.715731403900456" lon="9.673323297937142"><ele>274.6666666666667</ele><time>2026-04-07T14:09:18Z</time></trkpt><trkpt lat="45.71576387717737" lon="9.673235186950198"><ele>274.33333333333337</ele><time>2026-04-07T14:09:19Z</time></trkpt><trkpt lat="45.71579246590758" lon="9.673140944324972"><ele>274.0</ele><time>2026-04-07T14:09:20Z</time></trkpt><trkpt lat="45.71581976182089" lon="9.673055393233211"><ele>273.6666666666667</ele><time>2026-04-07T14:09:21Z</time></trkpt><trkpt lat="45.71584904634317" lon="9.672970319468812"><ele>273.3333333333333</ele><time>2026-04-07T14:09:22Z</time></trkpt><trkpt lat="45.71587711456182" lon="9.672886708394977"><ele>273.0</ele><time>2026-04-07T14:09:23Z</time></trkpt><trkpt lat="45.715931124706195" lon="9.672723771225213"><ele>273.0</ele><time>2026-04-07T14:09:25Z</time></trkpt><trkpt lat="45.71598562388463" lon="9.672562027594621"><ele>273.0</ele><time>2026-04-07T14:09:26.999Z</time></trkpt><trkpt lat="45.71603918531759" lon="9.672398264414072"><ele>273.0</ele><time>2026-04-07T14:09:28.999Z</time></trkpt><trkpt lat="45.71606720292702" lon="9.672316734416487"><ele>273.0</ele><time>2026-04-07T14:09:29.999Z</time></trkpt><trkpt lat="45.716093767080274" lon="9.672234482432776"><ele>273.0</ele><time>2026-04-07T14:09:30.999Z</time></trkpt><trkpt lat="45.71614386447227" lon="9.672070079472821"><ele>273.42857142857144</ele><time>2026-04-07T14:09:32.999Z</time></trkpt><trkpt lat="45.71616958553268" lon="9.671987524703622"><ele>273.8571428571429</ele><time>2026-04-07T14:09:33.999Z</time></trkpt><trkpt lat="45.71619300416246" lon="9.671900182199701"><ele>274.2857142857143</ele><time>2026-04-07T14:09:34.999Z</time></trkpt><trkpt lat="45.7162394182241" lon="9.671733746809547"><ele>274.7142857142857</ele><time>2026-04-07T14:09:36.999Z</time></trkpt><trkpt lat="45.71625956445333" lon="9.671647437710876"><ele>275.14285714285717</ele><time>2026-04-07T14:09:37.999Z</time></trkpt><trkpt lat="45.71627920619971" lon="9.671559554219241"><ele>275.57142857142856</ele><time>2026-04-07T14:09:38.999Z</time></trkpt><trkpt lat="45.71629674682826" lon="9.671469102901032"><ele>276.0</ele><time>2026-04-07T14:09:39.999Z</time></trkpt><trkpt lat="45.716319203176354" lon="9.671381439640285"><ele>276.14285714285717</ele><time>2026-04-07T14:09:40.999Z</time></trkpt><trkpt lat="45.716336947843295" lon="9.671291310659056"><ele>276.28571428571433</ele><time>2026-04-07T14:09:41.999Z</time></trkpt><trkpt lat="45.716355231574994" lon="9.671201458338713"><ele>276.42857142857144</ele><time>2026-04-07T14:09:42.999Z</time></trkpt><trkpt lat="45.71636677640799" lon="9.671108158313166"><ele>276.57142857142856</ele><time>2026-04-07T14:09:43.999Z</time></trkpt><trkpt lat="45.716377077541296" lon="9.671018299856808"><ele>276.71428571428567</ele><time>2026-04-07T14:09:44.999Z</time></trkpt><trkpt lat="45.71639544922757" lon="9.67092934202467"><ele>276.85714285714283</ele><time>2026-04-07T14:09:45.999Z</time></trkpt><trkpt lat="45.71641428857313" lon="9.670838648536233"><ele>277.0</ele><time>2026-04-07T14:09:46.999Z</time></trkpt><trkpt lat="45.716431589130806" lon="9.670749457554122"><ele>277.1428571428571</ele><time>2026-04-07T14:09:47.999Z</time></trkpt><trkpt lat="45.71645424177141" lon="9.670662006342123"><ele>277.2857142857143</ele><time>2026-04-07T14:09:48.999Z</time></trkpt><trkpt lat="45.71648579910715" lon="9.67057894158812"><ele>277.42857142857144</ele><time>2026-04-07T14:09:49.999Z</time></trkpt><trkpt lat="45.71650512059089" lon="9.670490348069485"><ele>277.57142857142856</ele><time>2026-04-07T14:09:50.999Z</time></trkpt><trkpt lat="45.71652151557642" lon="9.670400489705875"><ele>277.7142857142857</ele><time>2026-04-07T14:09:51.999Z</time></trkpt><trkpt lat="45.71654142758246" lon="9.670311726406416"><ele>277.85714285714283</ele><time>2026-04-07T14:09:53Z</time></trkpt><trkpt lat="45.71656543135554" lon="9.670221865147997"><ele>278.0</ele><time>2026-04-07T14:09:54Z</time></trkpt><trkpt lat="45.71658170189551" lon="9.670134532055636"><ele>278.0</ele><time>2026-04-07T14:09:55Z</time></trkpt><trkpt lat="45.71661065052264" lon="9.670054046600308"><ele>278.0</ele><time>2026-04-07T14:09:56Z</time></trkpt><trkpt lat="45.7166260519129" lon="9.669965501746946"><ele>278.0</ele><time>2026-04-07T14:09:57Z</time></trkpt><trkpt lat="45.71663997615163" lon="9.669874093231334"><ele>278.0</ele><time>2026-04-07T14:09:58Z</time></trkpt><trkpt lat="45.716681987362236" lon="9.66970212031538"><ele>278.0</ele><time>2026-04-07T14:10:00Z</time></trkpt><trkpt lat="45.71669916337575" lon="9.669612495261017"><ele>278.0</ele><time>2026-04-07T14:10:01Z</time></trkpt><trkpt lat="45.716721034873295" lon="9.669526630015861"><ele>278.0</ele><time>2026-04-07T14:10:02Z</time></trkpt><trkpt lat="45.71673738322139" lon="9.669437260203493"><ele>278.0</ele><time>2026-04-07T14:10:03Z</time></trkpt><trkpt lat="45.716758414197365" lon="9.669350456369072"><ele>278.0</ele><time>2026-04-07T14:10:04Z</time></trkpt><trkpt lat="45.716782638262615" lon="9.66926597854876"><ele>278.0</ele><time>2026-04-07T14:10:05Z</time></trkpt><trkpt lat="45.71680581184526" lon="9.669176768863787"><ele>278.0</ele><time>2026-04-07T14:10:06Z</time></trkpt><trkpt lat="45.7168325407105" lon="9.6690930426739"><ele>278.0</ele><time>2026-04-07T14:10:07Z</time></trkpt><trkpt lat="45.71685650950797" lon="9.669007598727068"><ele>278.0</ele><time>2026-04-07T14:10:08Z</time></trkpt><trkpt lat="45.71687558714686" lon="9.668918011685456"><ele>278.0</ele><time>2026-04-07T14:10:09Z</time></trkpt><trkpt lat="45.71689769757634" lon="9.668831576600375"><ele>278.42857142857144</ele><time>2026-04-07T14:10:10Z</time></trkpt><trkpt lat="45.7169319986084" lon="9.668751878761462"><ele>278.8571428571429</ele><time>2026-04-07T14:10:11Z</time></trkpt><trkpt lat="45.71696900810347" lon="9.66867567027513"><ele>279.28571428571433</ele><time>2026-04-07T14:10:12Z</time></trkpt><trkpt lat="45.71699934376759" lon="9.668593988549997"><ele>279.7142857142857</ele><time>2026-04-07T14:10:13Z</time></trkpt><trkpt lat="45.717025119017244" lon="9.66851079492187"><ele>280.14285714285717</ele><time>2026-04-07T14:10:14Z</time></trkpt><trkpt lat="45.71707981463632" lon="9.668350434548517"><ele>280.5714285714286</ele><time>2026-04-07T14:10:16Z</time></trkpt><trkpt lat="45.71710943477367" lon="9.668268760283635"><ele>281.0</ele><time>2026-04-07T14:10:17Z</time></trkpt><trkpt lat="45.71713739216119" lon="9.668185369943034"><ele>281.00000000000006</ele><time>2026-04-07T14:10:18Z</time></trkpt><trkpt lat="45.71716416420005" lon="9.668103625968845"><ele>281.0</ele><time>2026-04-07T14:10:19Z</time></trkpt><trkpt lat="45.71719220862" lon="9.66802193961928"><ele>281.0</ele><time>2026-04-07T14:10:20Z</time></trkpt><trkpt lat="45.717219960970475" lon="9.667937755477581"><ele>281.0</ele><time>2026-04-07T14:10:21Z</time></trkpt><trkpt lat="45.71725010553633" lon="9.66785444106364"><ele>281.0</ele><time>2026-04-07T14:10:22Z</time></trkpt><trkpt lat="45.71728147705516" lon="9.667769505551256"><ele>281.00000000000006</ele><time>2026-04-07T14:10:23Z</time></trkpt><trkpt lat="45.717309505043545" lon="9.667683310932643"><ele>281.0</ele><time>2026-04-07T14:10:24Z</time></trkpt><trkpt lat="45.717337731377576" lon="9.667596536478866"><ele>281.00000000000006</ele><time>2026-04-07T14:10:25Z</time></trkpt><trkpt lat="45.717367841528485" lon="9.667509086088506"><ele>281.0</ele><time>2026-04-07T14:10:26Z</time></trkpt><trkpt lat="45.717394800486744" lon="9.667421937153348"><ele>281.0</ele><time>2026-04-07T14:10:27Z</time></trkpt><trkpt lat="45.717424922316376" lon="9.667338412167604"><ele>281.0</ele><time>2026-04-07T14:10:28Z</time></trkpt><trkpt lat="45.71745173018631" lon="9.667253398044497"><ele>281.0</ele><time>2026-04-07T14:10:29Z</time></trkpt><trkpt lat="45.717479176615306" lon="9.667170128202407"><ele>281.00000000000006</ele><time>2026-04-07T14:10:30Z</time></trkpt><trkpt lat="45.71750883759197" lon="9.667086226157716"><ele>281.0</ele><time>2026-04-07T14:10:31Z</time></trkpt><trkpt lat="45.717538447318695" lon="9.667004555120096"><ele>280.8571428571429</ele><time>2026-04-07T14:10:32Z</time></trkpt><trkpt lat="45.71756659431408" lon="9.666922118974542"><ele>280.7142857142857</ele><time>2026-04-07T14:10:33Z</time></trkpt><trkpt lat="45.7175949454153" lon="9.666840728932836"><ele>280.57142857142856</ele><time>2026-04-07T14:10:34Z</time></trkpt><trkpt lat="45.717622837904614" lon="9.666756508851195"><ele>280.42857142857144</ele><time>2026-04-07T14:10:35Z</time></trkpt><trkpt lat="45.717648029131155" lon="9.666670351301047"><ele>280.2857142857143</ele><time>2026-04-07T14:10:36Z</time></trkpt><trkpt lat="45.71767214210524" lon="9.666581450539145"><ele>280.14285714285717</ele><time>2026-04-07T14:10:37Z</time></trkpt><trkpt lat="45.717699763661756" lon="9.666496256226331"><ele>280.0</ele><time>2026-04-07T14:10:38Z</time></trkpt><trkpt lat="45.71772649063789" lon="9.66640663992971"><ele>280.14285714285717</ele><time>2026-04-07T14:10:39Z</time></trkpt><trkpt lat="45.717753861084425" lon="9.666324186887508"><ele>280.2857142857143</ele><time>2026-04-07T14:10:40Z</time></trkpt><trkpt lat="45.717787229797636" lon="9.666241575411304"><ele>280.42857142857144</ele><time>2026-04-07T14:10:41Z</time></trkpt><trkpt lat="45.717815334710366" lon="9.666157112075881"><ele>280.57142857142856</ele><time>2026-04-07T14:10:42Z</time></trkpt><trkpt lat="45.71784244905437" lon="9.666072588863933"><ele>280.7142857142857</ele><time>2026-04-07T14:10:43Z</time></trkpt><trkpt lat="45.717877662490324" lon="9.665997014471287"><ele>280.8571428571429</ele><time>2026-04-07T14:10:44Z</time></trkpt><trkpt lat="45.71790665415228" lon="9.66591286141828"><ele>281.0</ele><time>2026-04-07T14:10:45Z</time></trkpt><trkpt lat="45.7179371123562" lon="9.665826773872478"><ele>281.25</ele><time>2026-04-07T14:10:46Z</time></trkpt><trkpt lat="45.71798163864061" lon="9.665660188574082"><ele>281.5</ele><time>2026-04-07T14:10:48Z</time></trkpt><trkpt lat="45.71804457783465" lon="9.665504875063007"><ele>281.75</ele><time>2026-04-07T14:10:50Z</time></trkpt><trkpt lat="45.71809443613559" lon="9.665357405622549"><ele>282.0</ele><time>2026-04-07T14:10:52Z</time></trkpt><trkpt lat="45.71814035598388" lon="9.665228635211951"><ele>282.5</ele><time>2026-04-07T14:10:54Z</time></trkpt><trkpt lat="45.71818538939499" lon="9.665093125258759"><ele>283.0</ele><time>2026-04-07T14:10:56Z</time></trkpt><trkpt lat="45.71823967973269" lon="9.664941352467626"><ele>283.5</ele><time>2026-04-07T14:10:58Z</time></trkpt><trkpt lat="45.71829530266349" lon="9.664774488979774"><ele>284.0</ele><time>2026-04-07T14:11:00Z</time></trkpt><trkpt lat="45.71834870032023" lon="9.664611369611348"><ele>284.0</ele><time>2026-04-07T14:11:02Z</time></trkpt><trkpt lat="45.71838010080231" lon="9.664526660145297"><ele>284.0</ele><time>2026-04-07T14:11:03Z</time></trkpt><trkpt lat="45.71840672473191" lon="9.66444228916403"><ele>284.0</ele><time>2026-04-07T14:11:04Z</time></trkpt><trkpt lat="45.718437391429994" lon="9.664355595260588"><ele>284.0</ele><time>2026-04-07T14:11:05Z</time></trkpt><trkpt lat="45.71846136150891" lon="9.664265945073456"><ele>284.0</ele><time>2026-04-07T14:11:06Z</time></trkpt><trkpt lat="45.718491150635025" lon="9.664179850330967"><ele>284.0</ele><time>2026-04-07T14:11:07Z</time></trkpt><trkpt lat="45.71851946603702" lon="9.664099121115338"><ele>284.0</ele><time>2026-04-07T14:11:08Z</time></trkpt><trkpt lat="45.7185431987851" lon="9.664014927180636"><ele>284.59999999999997</ele><time>2026-04-07T14:11:09Z</time></trkpt><trkpt lat="45.71859931541443" lon="9.663856237078342"><ele>285.2</ele><time>2026-04-07T14:11:11Z</time></trkpt><trkpt lat="45.71866355838647" lon="9.663712648013838"><ele>285.79999999999995</ele><time>2026-04-07T14:11:13Z</time></trkpt><trkpt lat="45.71872394979311" lon="9.66356271535161"><ele>286.4</ele><time>2026-04-07T14:11:15Z</time></trkpt><trkpt lat="45.71875936447459" lon="9.663473369565782"><ele>287.0</ele><time>2026-04-07T14:11:16Z</time></trkpt><trkpt lat="45.71878477177143" lon="9.663383533538152"><ele>287.0</ele><time>2026-04-07T14:11:17Z</time></trkpt><trkpt lat="45.7187663512383" lon="9.663275026802102"><ele>287.0</ele><time>2026-04-07T14:11:18Z</time></trkpt><trkpt lat="45.718753656188824" lon="9.663150611172002"><ele>287.0</ele><time>2026-04-07T14:11:19Z</time></trkpt><trkpt lat="45.718775054390974" lon="9.66306517642011"><ele>287.0</ele><time>2026-04-07T14:11:20Z</time></trkpt><trkpt lat="45.71880460247084" lon="9.66297501232436"><ele>287.0</ele><time>2026-04-07T14:11:21Z</time></trkpt><trkpt lat="45.718828861625155" lon="9.662879676683518"><ele>287.0</ele><time>2026-04-07T14:11:22Z</time></trkpt><trkpt lat="45.71886721569663" lon="9.66270970384338"><ele>287.1666666666667</ele><time>2026-04-07T14:11:24Z</time></trkpt><trkpt lat="45.718885116916105" lon="9.662620876912188"><ele>287.33333333333337</ele><time>2026-04-07T14:11:25Z</time></trkpt><trkpt lat="45.71890646463002" lon="9.662531820878991"><ele>287.5</ele><time>2026-04-07T14:11:26Z</time></trkpt><trkpt lat="45.718925821248305" lon="9.662444265220998"><ele>287.6666666666667</ele><time>2026-04-07T14:11:27Z</time></trkpt><trkpt lat="45.718949478487346" lon="9.662267222608206"><ele>287.8333333333333</ele><time>2026-04-07T14:11:29Z</time></trkpt><trkpt lat="45.71896606823901" lon="9.66210006633742"><ele>288.0</ele><time>2026-04-07T14:11:31Z</time></trkpt><trkpt lat="45.718974022845096" lon="9.6619428839836"><ele>288.25</ele><time>2026-04-07T14:11:32.999Z</time></trkpt><trkpt lat="45.71899808362887" lon="9.661778546118699"><ele>288.5</ele><time>2026-04-07T14:11:34.999Z</time></trkpt><trkpt lat="45.71904364749268" lon="9.661615500528798"><ele>288.75</ele><time>2026-04-07T14:11:36.999Z</time></trkpt><trkpt lat="45.71908495186249" lon="9.661468767236464"><ele>289.0</ele><time>2026-04-07T14:11:38.999Z</time></trkpt><trkpt lat="45.719132152018176" lon="9.661323220929814"><ele>289.0</ele><time>2026-04-07T14:11:40.999Z</time></trkpt><trkpt lat="45.719169944604225" lon="9.661246049213972"><ele>289.0</ele><time>2026-04-07T14:11:41.999Z</time></trkpt><trkpt lat="45.71922050718909" lon="9.661183737025885"><ele>289.0</ele><time>2026-04-07T14:11:42.999Z</time></trkpt><trkpt lat="45.71927288287736" lon="9.661128015897699"><ele>289.0</ele><time>2026-04-07T14:11:43.999Z</time></trkpt><trkpt lat="45.719340846254084" lon="9.660992946817494"><ele>289.0</ele><time>2026-04-07T14:11:45.999Z</time></trkpt><trkpt lat="45.719373004735395" lon="9.660862076831346"><ele>289.0</ele><time>2026-04-07T14:11:47.999Z</time></trkpt><trkpt lat="45.719429639813775" lon="9.66075676892469"><ele>289.5</ele><time>2026-04-07T14:11:49.999Z</time></trkpt><trkpt lat="45.719524975514986" lon="9.660631944695226"><ele>290.0</ele><time>2026-04-07T14:11:51.999Z</time></trkpt><trkpt lat="45.71957560617288" lon="9.660569290520307"><ele>290.5</ele><time>2026-04-07T14:11:52.999Z</time></trkpt><trkpt lat="45.71962843733904" lon="9.660513427021106"><ele>291.0</ele><time>2026-04-07T14:11:53.999Z</time></trkpt><trkpt lat="45.71968024704771" lon="9.6604551274853"><ele>291.5</ele><time>2026-04-07T14:11:54.999Z</time></trkpt><trkpt lat="45.71973568779411" lon="9.660403015618702"><ele>292.0</ele><time>2026-04-07T14:11:55.999Z</time></trkpt><trkpt lat="45.71978918747825" lon="9.660348822629091"><ele>292.0</ele><time>2026-04-07T14:11:56.999Z</time></trkpt><trkpt lat="45.71984141212785" lon="9.660292975554647"><ele>292.0</ele><time>2026-04-07T14:11:57.999Z</time></trkpt><trkpt lat="45.71989154409852" lon="9.660233341896998"><ele>292.0</ele><time>2026-04-07T14:11:59Z</time></trkpt><trkpt lat="45.71993978688859" lon="9.660172123127952"><ele>292.0</ele><time>2026-04-07T14:12:00Z</time></trkpt><trkpt lat="45.719987849892895" lon="9.66011188307447"><ele>292.0</ele><time>2026-04-07T14:12:01Z</time></trkpt><trkpt lat="45.720032171472496" lon="9.660047217081539"><ele>292.0</ele><time>2026-04-07T14:12:02Z</time></trkpt><trkpt lat="45.72007500147303" lon="9.659979519321793"><ele>292.0</ele><time>2026-04-07T14:12:03Z</time></trkpt><trkpt lat="45.72012290745688" lon="9.659913865730863"><ele>291.8333333333333</ele><time>2026-04-07T14:12:04Z</time></trkpt><trkpt lat="45.72017226191471" lon="9.65985518353902"><ele>291.66666666666663</ele><time>2026-04-07T14:12:05Z</time></trkpt><trkpt lat="45.72026754571437" lon="9.659736605382383"><ele>291.5</ele><time>2026-04-07T14:12:07Z</time></trkpt><trkpt lat="45.720315952771905" lon="9.659678297135454"><ele>291.3333333333333</ele><time>2026-04-07T14:12:08Z</time></trkpt><trkpt lat="45.72041004443993" lon="9.659563225938232"><ele>291.1666666666667</ele><time>2026-04-07T14:12:10Z</time></trkpt><trkpt lat="45.72045765909514" lon="9.659501305535425"><ele>291.0</ele><time>2026-04-07T14:12:11Z</time></trkpt><trkpt lat="45.72050464879054" lon="9.659438701426794"><ele>291.42857142857144</ele><time>2026-04-07T14:12:12Z</time></trkpt><trkpt lat="45.720548429665534" lon="9.659371854768485"><ele>291.85714285714283</ele><time>2026-04-07T14:12:13Z</time></trkpt><trkpt lat="45.720592381791306" lon="9.659305519743217"><ele>292.2857142857143</ele><time>2026-04-07T14:12:14Z</time></trkpt><trkpt lat="45.7206382920735" lon="9.659242081286905"><ele>292.7142857142857</ele><time>2026-04-07T14:12:15Z</time></trkpt><trkpt lat="45.72068742421612" lon="9.659181946820008"><ele>293.1428571428571</ele><time>2026-04-07T14:12:16Z</time></trkpt><trkpt lat="45.72073565501626" lon="9.659116423920954"><ele>293.57142857142856</ele><time>2026-04-07T14:12:17Z</time></trkpt><trkpt lat="45.720780618451116" lon="9.6590479722936"><ele>294.0</ele><time>2026-04-07T14:12:18Z</time></trkpt><trkpt lat="45.72082645140522" lon="9.658981869667839"><ele>294.0</ele><time>2026-04-07T14:12:19Z</time></trkpt><trkpt lat="45.72087035701982" lon="9.658915516974718"><ele>294.0</ele><time>2026-04-07T14:12:20Z</time></trkpt><trkpt lat="45.720916791440565" lon="9.658849442726844"><ele>294.0</ele><time>2026-04-07T14:12:21Z</time></trkpt><trkpt lat="45.72099525310393" lon="9.658742198405113"><ele>294.0</ele><time>2026-04-07T14:12:23Z</time></trkpt><trkpt lat="45.72108303363542" lon="9.658668097974285"><ele>294.0</ele><time>2026-04-07T14:12:25Z</time></trkpt><trkpt lat="45.72115185921959" lon="9.658674621425078"><ele>294.0</ele><time>2026-04-07T14:12:26Z</time></trkpt><trkpt lat="45.721217360692584" lon="9.658696719230928"><ele>294.4</ele><time>2026-04-07T14:12:27Z</time></trkpt><trkpt lat="45.72127526495348" lon="9.658735444127057"><ele>294.79999999999995</ele><time>2026-04-07T14:12:28Z</time></trkpt><trkpt lat="45.721364826660924" lon="9.658847469437681"><ele>295.20000000000005</ele><time>2026-04-07T14:12:30Z</time></trkpt><trkpt lat="45.72146003335316" lon="9.65893950462687"><ele>295.6</ele><time>2026-04-07T14:12:32Z</time></trkpt><trkpt lat="45.72155592357151" lon="9.659040570064741"><ele>296.0</ele><time>2026-04-07T14:12:34Z</time></trkpt><trkpt lat="45.721649749996075" lon="9.659139378093986"><ele>296.0</ele><time>2026-04-07T14:12:36Z</time></trkpt><trkpt lat="45.72174638862482" lon="9.659226441111281"><ele>296.0</ele><time>2026-04-07T14:12:38Z</time></trkpt><trkpt lat="45.72186273434471" lon="9.659275538043516"><ele>296.0</ele><time>2026-04-07T14:12:40Z</time></trkpt><trkpt lat="45.72198224667688" lon="9.659291401819223"><ele>296.0</ele><time>2026-04-07T14:12:42Z</time></trkpt><trkpt lat="45.722098740160135" lon="9.659319450490404"><ele>297.5</ele><time>2026-04-07T14:12:44Z</time></trkpt><trkpt lat="45.72221418443808" lon="9.659343603924205"><ele>299.0</ele><time>2026-04-07T14:12:46Z</time></trkpt><trkpt lat="45.722327667485175" lon="9.659369987180728"><ele>300.5</ele><time>2026-04-07T14:12:48Z</time></trkpt><trkpt lat="45.72244242472758" lon="9.65939533855726"><ele>302.0</ele><time>2026-04-07T14:12:50Z</time></trkpt><trkpt lat="45.72255688069871" lon="9.659407674202251"><ele>302.0</ele><time>2026-04-07T14:12:52Z</time></trkpt><trkpt lat="45.72267266880265" lon="9.659408658255277"><ele>302.0</ele><time>2026-04-07T14:12:54Z</time></trkpt><trkpt lat="45.722791051224206" lon="9.65943745810428"><ele>302.0</ele><time>2026-04-07T14:12:56Z</time></trkpt><trkpt lat="45.72290369029849" lon="9.659461768665883"><ele>302.0</ele><time>2026-04-07T14:12:58Z</time></trkpt><trkpt lat="45.723015689605866" lon="9.659486444699214"><ele>304.0</ele><time>2026-04-07T14:13:00Z</time></trkpt><trkpt lat="45.72312620377888" lon="9.659507897522197"><ele>306.0</ele><time>2026-04-07T14:13:02Z</time></trkpt><trkpt lat="45.72323648874483" lon="9.659525029911382"><ele>308.0</ele><time>2026-04-07T14:13:04Z</time></trkpt><trkpt lat="45.7233451193561" lon="9.65954954390752"><ele>310.0</ele><time>2026-04-07T14:13:06Z</time></trkpt><trkpt lat="45.72345396336056" lon="9.659569550418741"><ele>312.0</ele><time>2026-04-07T14:13:08Z</time></trkpt><trkpt lat="45.72356240141195" lon="9.659585352341619"><ele>315.0</ele><time>2026-04-07T14:13:10Z</time></trkpt><trkpt lat="45.72366646847895" lon="9.659610084862825"><ele>318.0</ele><time>2026-04-07T14:13:12Z</time></trkpt><trkpt lat="45.7237737070593" lon="9.659623986581245"><ele>321.0</ele><time>2026-04-07T14:13:14Z</time></trkpt><trkpt lat="45.72387385605541" lon="9.659626864926594"><ele>324.0</ele><time>2026-04-07T14:13:16Z</time></trkpt><trkpt lat="45.72396759831048" lon="9.659612428866511"><ele>327.0</ele><time>2026-04-07T14:13:18Z</time></trkpt><trkpt lat="45.724058307771315" lon="9.659580752163839"><ele>327.0</ele><time>2026-04-07T14:13:20Z</time></trkpt><trkpt lat="45.72415470735761" lon="9.659544396193656"><ele>327.0</ele><time>2026-04-07T14:13:22Z</time></trkpt><trkpt lat="45.72424068454117" lon="9.659484663015073"><ele>327.0</ele><time>2026-04-07T14:13:24Z</time></trkpt><trkpt lat="45.72432311473958" lon="9.659416406781112"><ele>327.0</ele><time>2026-04-07T14:13:26Z</time></trkpt><trkpt lat="45.7244052947539" lon="9.65935336961102"><ele>327.0</ele><time>2026-04-07T14:13:28Z</time></trkpt><trkpt lat="45.72449465118393" lon="9.659268854222649"><ele>327.8</ele><time>2026-04-07T14:13:30Z</time></trkpt><trkpt lat="45.72459806919938" lon="9.659242233511145"><ele>328.6</ele><time>2026-04-07T14:13:32Z</time></trkpt><trkpt lat="45.724700124142" lon="9.65929297700582"><ele>329.40000000000003</ele><time>2026-04-07T14:13:34Z</time></trkpt><trkpt lat="45.724806340681965" lon="9.659334924387192"><ele>330.20000000000005</ele><time>2026-04-07T14:13:36Z</time></trkpt><trkpt lat="45.724905797515426" lon="9.659396735258843"><ele>331.0</ele><time>2026-04-07T14:13:38Z</time></trkpt><trkpt lat="45.725009453257854" lon="9.659457395440917"><ele>333.0</ele><time>2026-04-07T14:13:40Z</time></trkpt><trkpt lat="45.72511550063811" lon="9.659500281136742"><ele>335.0</ele><time>2026-04-07T14:13:42Z</time></trkpt><trkpt lat="45.725228670443904" lon="9.659486517559493"><ele>337.0</ele><time>2026-04-07T14:13:44Z</time></trkpt><trkpt lat="45.72533550851238" lon="9.659440575271868"><ele>339.0</ele><time>2026-04-07T14:13:46Z</time></trkpt><trkpt lat="45.72544544366653" lon="9.659400738884907"><ele>341.0</ele><time>2026-04-07T14:13:48Z</time></trkpt><trkpt lat="45.725551374798926" lon="9.659345940127611"><ele>341.8</ele><time>2026-04-07T14:13:50Z</time></trkpt><trkpt lat="45.725655352609934" lon="9.659294328397836"><ele>342.6</ele><time>2026-04-07T14:13:52Z</time></trkpt><trkpt lat="45.725752607112334" lon="9.65923061486736"><ele>343.4</ele><time>2026-04-07T14:13:54Z</time></trkpt><trkpt lat="45.725847423517386" lon="9.65916784598734"><ele>344.2</ele><time>2026-04-07T14:13:56Z</time></trkpt><trkpt lat="45.72593029623877" lon="9.65909784830898"><ele>345.0</ele><time>2026-04-07T14:13:58Z</time></trkpt><trkpt lat="45.72602507225493" lon="9.659016810641448"><ele>348.6</ele><time>2026-04-07T14:14:00Z</time></trkpt><trkpt lat="45.72610685150019" lon="9.658933673119858"><ele>352.2</ele><time>2026-04-07T14:14:02Z</time></trkpt><trkpt lat="45.7261858499613" lon="9.658858226496724"><ele>355.79999999999995</ele><time>2026-04-07T14:14:04Z</time></trkpt><trkpt lat="45.726262336344334" lon="9.658785405179138"><ele>359.4</ele><time>2026-04-07T14:14:06Z</time></trkpt><trkpt lat="45.72633684823399" lon="9.658733585215519"><ele>363.0</ele><time>2026-04-07T14:14:08Z</time></trkpt><trkpt lat="45.7264327059412" lon="9.658731836026961"><ele>363.0</ele><time>2026-04-07T14:14:10Z</time></trkpt><trkpt lat="45.72652381600811" lon="9.658712032729197"><ele>363.0</ele><time>2026-04-07T14:14:12Z</time></trkpt><trkpt lat="45.726617990612255" lon="9.658689576134162"><ele>363.0</ele><time>2026-04-07T14:14:14Z</time></trkpt><trkpt lat="45.72671659580422" lon="9.658674526261722"><ele>363.0</ele><time>2026-04-07T14:14:16Z</time></trkpt><trkpt lat="45.72680217385002" lon="9.658682097466084"><ele>363.0</ele><time>2026-04-07T14:14:18Z</time></trkpt><trkpt lat="45.72689522908105" lon="9.658694519663973"><ele>362.8333333333333</ele><time>2026-04-07T14:14:20Z</time></trkpt><trkpt lat="45.72697646952455" lon="9.658723149388663"><ele>362.6666666666667</ele><time>2026-04-07T14:14:22Z</time></trkpt><trkpt lat="45.727050437039146" lon="9.658769173972004"><ele>362.5</ele><time>2026-04-07T14:14:24Z</time></trkpt><trkpt lat="45.72712993201009" lon="9.65881685725811"><ele>362.33333333333337</ele><time>2026-04-07T14:14:26Z</time></trkpt><trkpt lat="45.72719538025967" lon="9.6589037727776"><ele>362.1666666666667</ele><time>2026-04-07T14:14:28Z</time></trkpt><trkpt lat="45.72725822492216" lon="9.658998691571078"><ele>362.0</ele><time>2026-04-07T14:14:30Z</time></trkpt><trkpt lat="45.72732729830258" lon="9.65907911591495"><ele>362.0</ele><time>2026-04-07T14:14:32Z</time></trkpt><trkpt lat="45.72740354630636" lon="9.659166279575798"><ele>362.0</ele><time>2026-04-07T14:14:34Z</time></trkpt><trkpt lat="45.72748793368308" lon="9.659253768193715"><ele>362.0</ele><time>2026-04-07T14:14:36Z</time></trkpt><trkpt lat="45.72757408201649" lon="9.659338164219825"><ele>362.0</ele><time>2026-04-07T14:14:38Z</time></trkpt><trkpt lat="45.727670997155094" lon="9.659386504224164"><ele>362.0</ele><time>2026-04-07T14:14:40Z</time></trkpt><trkpt lat="45.72777203141352" lon="9.659424913320896"><ele>361.33333333333337</ele><time>2026-04-07T14:14:42Z</time></trkpt><trkpt lat="45.727870087454775" lon="9.659440314254908"><ele>360.6666666666667</ele><time>2026-04-07T14:14:44Z</time></trkpt><trkpt lat="45.72795280137665" lon="9.659457246067099"><ele>360.0</ele><time>2026-04-07T14:14:46Z</time></trkpt><trkpt lat="45.72802428142196" lon="9.659471522019018"><ele>359.3333333333333</ele><time>2026-04-07T14:14:48Z</time></trkpt><trkpt lat="45.72810720057565" lon="9.659492479670236"><ele>358.66666666666663</ele><time>2026-04-07T14:14:50Z</time></trkpt><trkpt lat="45.72820375442544" lon="9.65951098728317"><ele>358.0</ele><time>2026-04-07T14:14:52Z</time></trkpt><trkpt lat="45.728309552471195" lon="9.659510855768968"><ele>361.59999999999997</ele><time>2026-04-07T14:14:54Z</time></trkpt><trkpt lat="45.72841932845927" lon="9.659496002518694"><ele>365.2</ele><time>2026-04-07T14:14:56Z</time></trkpt><trkpt lat="45.728528910400364" lon="9.659510414494916"><ele>368.8</ele><time>2026-04-07T14:14:58Z</time></trkpt><trkpt lat="45.72863564902004" lon="9.659534416734633"><ele>372.4</ele><time>2026-04-07T14:15:00Z</time></trkpt><trkpt lat="45.72874645768782" lon="9.659560451550103"><ele>376.0</ele><time>2026-04-07T14:15:02Z</time></trkpt><trkpt lat="45.728853389947176" lon="9.659596259590755"><ele>376.4</ele><time>2026-04-07T14:15:04Z</time></trkpt><trkpt lat="45.72895994694707" lon="9.659631457244023"><ele>376.8</ele><time>2026-04-07T14:15:06Z</time></trkpt><trkpt lat="45.72906479674342" lon="9.65967091562715"><ele>377.2</ele><time>2026-04-07T14:15:08Z</time></trkpt><trkpt lat="45.72916576943249" lon="9.659714565627853"><ele>377.59999999999997</ele><time>2026-04-07T14:15:10Z</time></trkpt><trkpt lat="45.72925572500071" lon="9.659758511587377"><ele>378.0</ele><time>2026-04-07T14:15:12Z</time></trkpt><trkpt lat="45.72934109679177" lon="9.659799303502009"><ele>378.0</ele><time>2026-04-07T14:15:14Z</time></trkpt><trkpt lat="45.72940768990605" lon="9.659816754387327"><ele>378.0</ele><time>2026-04-07T14:15:16Z</time></trkpt><trkpt lat="45.72936196774874" lon="9.659728894142154"><ele>378.0</ele><time>2026-04-07T14:15:20Z</time></trkpt><trkpt lat="45.7292976297098" lon="9.65972343747192"><ele>378.0</ele><time>2026-04-07T14:15:21Z</time></trkpt><trkpt lat="45.72921733909383" lon="9.659699372233359"><ele>378.0</ele><time>2026-04-07T14:15:23Z</time></trkpt><trkpt lat="45.72921722948622" lon="9.659596635181478"><ele>378.0</ele><time>2026-04-07T14:15:26Z</time></trkpt><trkpt lat="45.72930926404874" lon="9.659611278545347"><ele>380.0</ele><time>2026-04-07T14:15:28Z</time></trkpt><trkpt lat="45.72939504692001" lon="9.659595445529037"><ele>382.0</ele><time>2026-04-07T14:15:30Z</time></trkpt><trkpt lat="45.72946764345819" lon="9.65958161811876"><ele>384.0</ele><time>2026-04-07T14:15:32Z</time></trkpt><trkpt lat="45.72956121122718" lon="9.659584818954267"><ele>386.0</ele><time>2026-04-07T14:15:34Z</time></trkpt><trkpt lat="45.729659719533785" lon="9.659573557860641"><ele>388.0</ele><time>2026-04-07T14:15:36Z</time></trkpt><trkpt lat="45.72975702408546" lon="9.659549584123969"><ele>388.0</ele><time>2026-04-07T14:15:38Z</time></trkpt><trkpt lat="45.729860720767014" lon="9.65953206625415"><ele>388.0</ele><time>2026-04-07T14:15:40Z</time></trkpt><trkpt lat="45.72996554037709" lon="9.659513684834668"><ele>388.0</ele><time>2026-04-07T14:15:42Z</time></trkpt><trkpt lat="45.73007994878213" lon="9.65950440584839"><ele>388.0</ele><time>2026-04-07T14:15:44Z</time></trkpt><trkpt lat="45.73019073094765" lon="9.659471153484153"><ele>388.0</ele><time>2026-04-07T14:15:46Z</time></trkpt><trkpt lat="45.730298503058506" lon="9.659427675334614"><ele>385.5</ele><time>2026-04-07T14:15:48Z</time></trkpt><trkpt lat="45.73041006066658" lon="9.65937202901138"><ele>383.0</ele><time>2026-04-07T14:15:50Z</time></trkpt><trkpt lat="45.73052508705362" lon="9.659315160766285"><ele>380.5</ele><time>2026-04-07T14:15:52Z</time></trkpt><trkpt lat="45.73063373652554" lon="9.659251018659125"><ele>378.0</ele><time>2026-04-07T14:15:54Z</time></trkpt><trkpt lat="45.730743000302596" lon="9.65918565150851"><ele>378.0</ele><time>2026-04-07T14:15:56Z</time></trkpt><trkpt lat="45.7308416262535" lon="9.659113825728218"><ele>378.0</ele><time>2026-04-07T14:15:58Z</time></trkpt><trkpt lat="45.730943253765396" lon="9.659044450055116"><ele>378.0</ele><time>2026-04-07T14:16:00Z</time></trkpt><trkpt lat="45.73103698075748" lon="9.658958688847912"><ele>378.0</ele><time>2026-04-07T14:16:02Z</time></trkpt><trkpt lat="45.73111560747382" lon="9.658861662725839"><ele>378.0</ele><time>2026-04-07T14:16:04Z</time></trkpt><trkpt lat="45.73120559340465" lon="9.65875483842106"><ele>379.5</ele><time>2026-04-07T14:16:06Z</time></trkpt><trkpt lat="45.7313050590939" lon="9.658678258814541"><ele>381.0</ele><time>2026-04-07T14:16:08Z</time></trkpt><trkpt lat="45.731412575474074" lon="9.658631139921424"><ele>382.5</ele><time>2026-04-07T14:16:10Z</time></trkpt><trkpt lat="45.73152215560674" lon="9.65859076009512"><ele>384.0</ele><time>2026-04-07T14:16:12Z</time></trkpt><trkpt lat="45.73163839487327" lon="9.65858657951563"><ele>384.0</ele><time>2026-04-07T14:16:14Z</time></trkpt><trkpt lat="45.73170252788016" lon="9.658600420418297"><ele>384.0</ele><time>2026-04-07T14:16:15Z</time></trkpt><trkpt lat="45.73176665795092" lon="9.658620121438613"><ele>384.0</ele><time>2026-04-07T14:16:16Z</time></trkpt><trkpt lat="45.7318410647342" lon="9.65865482742546"><ele>384.0</ele><time>2026-04-07T14:16:17Z</time></trkpt><trkpt lat="45.73192074218045" lon="9.658701072417132"><ele>384.0</ele><time>2026-04-07T14:16:18Z</time></trkpt><trkpt lat="45.73199686581479" lon="9.658746918947584"><ele>384.0</ele><time>2026-04-07T14:16:19Z</time></trkpt><trkpt lat="45.732075270375816" lon="9.658804066919872"><ele>382.1666666666667</ele><time>2026-04-07T14:16:20Z</time></trkpt><trkpt lat="45.7321489553907" lon="9.658822874470989"><ele>380.3333333333333</ele><time>2026-04-07T14:16:21Z</time></trkpt><trkpt lat="45.73221289094905" lon="9.65884159788716"><ele>378.5</ele><time>2026-04-07T14:16:22Z</time></trkpt><trkpt lat="45.73227846675324" lon="9.658835741710085"><ele>376.66666666666663</ele><time>2026-04-07T14:16:24Z</time></trkpt><trkpt lat="45.73235271574292" lon="9.658812275058473"><ele>374.8333333333333</ele><time>2026-04-07T14:16:28Z</time></trkpt><trkpt lat="45.73243184087348" lon="9.658748294016444"><ele>373.0</ele><time>2026-04-07T14:16:30Z</time></trkpt><trkpt lat="45.73254405151642" lon="9.658717528587372"><ele>373.0</ele><time>2026-04-07T14:16:32Z</time></trkpt><trkpt lat="45.732646951037545" lon="9.65866201799311"><ele>373.0</ele><time>2026-04-07T14:16:34Z</time></trkpt><trkpt lat="45.732693247575945" lon="9.65859801379964"><ele>373.0</ele><time>2026-04-07T14:16:35Z</time></trkpt><trkpt lat="45.732736554221425" lon="9.658508914618665"><ele>373.0</ele><time>2026-04-07T14:16:36Z</time></trkpt><trkpt lat="45.73277651480728" lon="9.65840878450575"><ele>373.0</ele><time>2026-04-07T14:16:37Z</time></trkpt><trkpt lat="45.73281828090316" lon="9.658311882952141"><ele>373.0</ele><time>2026-04-07T14:16:38Z</time></trkpt><trkpt lat="45.732855554007344" lon="9.658219788328582"><ele>369.66666666666663</ele><time>2026-04-07T14:16:39Z</time></trkpt><trkpt lat="45.73291758154355" lon="9.658064342663993"><ele>366.3333333333333</ele><time>2026-04-07T14:16:41Z</time></trkpt><trkpt lat="45.732970374354394" lon="9.657911370002344"><ele>363.0</ele><time>2026-04-07T14:16:43Z</time></trkpt><trkpt lat="45.7329918307369" lon="9.657824933934583"><ele>359.6666666666667</ele><time>2026-04-07T14:16:44Z</time></trkpt><trkpt lat="45.73301302780309" lon="9.657730419507516"><ele>356.33333333333337</ele><time>2026-04-07T14:16:45Z</time></trkpt><trkpt lat="45.73303150216649" lon="9.65764289329859"><ele>353.0</ele><time>2026-04-07T14:16:46Z</time></trkpt><trkpt lat="45.73306266464163" lon="9.657463763661175"><ele>352.4</ele><time>2026-04-07T14:16:48Z</time></trkpt><trkpt lat="45.73308235216245" lon="9.657359302197731"><ele>351.79999999999995</ele><time>2026-04-07T14:16:49Z</time></trkpt><trkpt lat="45.7330982248943" lon="9.657266499626893"><ele>351.2</ele><time>2026-04-07T14:16:50Z</time></trkpt><trkpt lat="45.73314049173082" lon="9.657107518801237"><ele>350.6</ele><time>2026-04-07T14:16:52Z</time></trkpt><trkpt lat="45.73318838467264" lon="9.656953516592198"><ele>350.0</ele><time>2026-04-07T14:16:54Z</time></trkpt><trkpt lat="45.733235543048515" lon="9.656806073313676"><ele>346.75</ele><time>2026-04-07T14:16:56Z</time></trkpt><trkpt lat="45.733285009215805" lon="9.656663356550098"><ele>343.5</ele><time>2026-04-07T14:16:58Z</time></trkpt><trkpt lat="45.733336816490166" lon="9.656513663104295"><ele>340.25</ele><time>2026-04-07T14:17:00Z</time></trkpt><trkpt lat="45.73337637644183" lon="9.6563591994312"><ele>337.0</ele><time>2026-04-07T14:17:02Z</time></trkpt><trkpt lat="45.73339531231866" lon="9.656200388164628"><ele>335.8</ele><time>2026-04-07T14:17:04Z</time></trkpt><trkpt lat="45.73341977673814" lon="9.65604456549002"><ele>334.6</ele><time>2026-04-07T14:17:06Z</time></trkpt><trkpt lat="45.73344608377649" lon="9.65591443653611"><ele>333.40000000000003</ele><time>2026-04-07T14:17:08Z</time></trkpt><trkpt lat="45.73346716456467" lon="9.655825467029342"><ele>332.20000000000005</ele><time>2026-04-07T14:17:10Z</time></trkpt><trkpt lat="45.73355241429652" lon="9.65582851086735"><ele>331.0</ele><time>2026-04-07T14:17:13Z</time></trkpt><trkpt lat="45.73361002115794" lon="9.655942232687792"><ele>331.0</ele><time>2026-04-07T14:17:15Z</time></trkpt><trkpt lat="45.73368791514822" lon="9.6560547880216"><ele>331.0</ele><time>2026-04-07T14:17:17Z</time></trkpt><trkpt lat="45.73380158514409" lon="9.656128831191747"><ele>331.0</ele><time>2026-04-07T14:17:19Z</time></trkpt><trkpt lat="45.73392215130192" lon="9.656142078257421"><ele>331.0</ele><time>2026-04-07T14:17:21Z</time></trkpt><trkpt lat="45.734038451573966" lon="9.656170537658992"><ele>331.25</ele><time>2026-04-07T14:17:23Z</time></trkpt><trkpt lat="45.734144755410554" lon="9.65623665531666"><ele>331.5</ele><time>2026-04-07T14:17:25Z</time></trkpt><trkpt lat="45.734205493135704" lon="9.656378462007092"><ele>331.75</ele><time>2026-04-07T14:17:27Z</time></trkpt><trkpt lat="45.73418224185965" lon="9.656555600188689"><ele>332.0</ele><time>2026-04-07T14:17:29Z</time></trkpt><trkpt lat="45.734154975539965" lon="9.656731036131191"><ele>332.0</ele><time>2026-04-07T14:17:31Z</time></trkpt><trkpt lat="45.734149425591866" lon="9.656821982812058"><ele>332.0</ele><time>2026-04-07T14:17:32Z</time></trkpt><trkpt lat="45.734145257616035" lon="9.65691361714234"><ele>332.0</ele><time>2026-04-07T14:17:33Z</time></trkpt><trkpt lat="45.73413920982146" lon="9.65700457197733"><ele>332.0</ele><time>2026-04-07T14:17:34Z</time></trkpt><trkpt lat="45.73412733756781" lon="9.657183457193037"><ele>332.0</ele><time>2026-04-07T14:17:36Z</time></trkpt><trkpt lat="45.73412118320028" lon="9.657363330741958"><ele>332.0</ele><time>2026-04-07T14:17:38Z</time></trkpt><trkpt lat="45.73412601435904" lon="9.657455277530094"><ele>332.20000000000005</ele><time>2026-04-07T14:17:39Z</time></trkpt><trkpt lat="45.734135377585396" lon="9.657633912119868"><ele>332.4</ele><time>2026-04-07T14:17:41Z</time></trkpt><trkpt lat="45.7341589847559" lon="9.65781400297112"><ele>332.6</ele><time>2026-04-07T14:17:43Z</time></trkpt><trkpt lat="45.73417460859693" lon="9.657903177166247"><ele>332.79999999999995</ele><time>2026-04-07T14:17:44Z</time></trkpt><trkpt lat="45.73417375193364" lon="9.658081152493835"><ele>333.0</ele><time>2026-04-07T14:17:46Z</time></trkpt><trkpt lat="45.73415741590872" lon="9.65816928992615"><ele>333.0</ele><time>2026-04-07T14:17:47Z</time></trkpt><trkpt lat="45.73411579348183" lon="9.65833163483313"><ele>333.0</ele><time>2026-04-07T14:17:49Z</time></trkpt><trkpt lat="45.734058865901126" lon="9.658487220935918"><ele>333.0</ele><time>2026-04-07T14:17:51Z</time></trkpt><trkpt lat="45.73403212216525" lon="9.65856898836703"><ele>333.0</ele><time>2026-04-07T14:17:52Z</time></trkpt><trkpt lat="45.734012088587185" lon="9.658743216899401"><ele>333.0</ele><time>2026-04-07T14:17:54Z</time></trkpt><trkpt lat="45.73401140674079" lon="9.658918021285398"><ele>333.0</ele><time>2026-04-07T14:17:56Z</time></trkpt><trkpt lat="45.734019709595714" lon="9.659085551280805"><ele>333.0</ele><time>2026-04-07T14:17:58Z</time></trkpt><trkpt lat="45.73402204915491" lon="9.659265413105288"><ele>333.0</ele><time>2026-04-07T14:18:00Z</time></trkpt><trkpt lat="45.73402396249722" lon="9.659440253308066"><ele>333.0</ele><time>2026-04-07T14:18:02Z</time></trkpt><trkpt lat="45.73402649652726" lon="9.659615556404853"><ele>333.0</ele><time>2026-04-07T14:18:04Z</time></trkpt><trkpt lat="45.73404033507155" lon="9.659789209917323"><ele>333.0</ele><time>2026-04-07T14:18:06Z</time></trkpt><trkpt lat="45.73405447199003" lon="9.65995836596719"><ele>333.0</ele><time>2026-04-07T14:18:08Z</time></trkpt><trkpt lat="45.734080758877774" lon="9.660120481422705"><ele>333.0</ele><time>2026-04-07T14:18:10Z</time></trkpt><trkpt lat="45.7341277927885" lon="9.660271521228974"><ele>333.2</ele><time>2026-04-07T14:18:12Z</time></trkpt><trkpt lat="45.73418532523322" lon="9.660416126142822"><ele>333.4</ele><time>2026-04-07T14:18:14Z</time></trkpt><trkpt lat="45.7342474561256" lon="9.660560206433638"><ele>333.59999999999997</ele><time>2026-04-07T14:18:16Z</time></trkpt><trkpt lat="45.734315457324556" lon="9.660698669297306"><ele>333.79999999999995</ele><time>2026-04-07T14:18:18Z</time></trkpt><trkpt lat="45.73437899606894" lon="9.660798113286214"><ele>334.0</ele><time>2026-04-07T14:18:20Z</time></trkpt><trkpt lat="45.734450049362664" lon="9.660896040012032"><ele>334.5</ele><time>2026-04-07T14:18:22Z</time></trkpt><trkpt lat="45.73452488776218" lon="9.66102027256"><ele>335.0</ele><time>2026-04-07T14:18:24Z</time></trkpt><trkpt lat="45.73460558235864" lon="9.661141944246044"><ele>335.5</ele><time>2026-04-07T14:18:26Z</time></trkpt><trkpt lat="45.734703223162605" lon="9.661227446700336"><ele>336.0</ele><time>2026-04-07T14:18:28Z</time></trkpt><trkpt lat="45.73480689536691" lon="9.661290758971525"><ele>336.25</ele><time>2026-04-07T14:18:30Z</time></trkpt><trkpt lat="45.73491433890474" lon="9.66135275166115"><ele>336.5</ele><time>2026-04-07T14:18:32Z</time></trkpt><trkpt lat="45.73501824684238" lon="9.661418275485769"><ele>336.75</ele><time>2026-04-07T14:18:34Z</time></trkpt><trkpt lat="45.735122087699246" lon="9.661480611299815"><ele>337.0</ele><time>2026-04-07T14:18:36Z</time></trkpt><trkpt lat="45.73522869019085" lon="9.661540912966787"><ele>338.0</ele><time>2026-04-07T14:18:38Z</time></trkpt><trkpt lat="45.735330453465274" lon="9.661616492223322"><ele>339.0</ele><time>2026-04-07T14:18:40Z</time></trkpt><trkpt lat="45.73543514276987" lon="9.66169340343495"><ele>340.0</ele><time>2026-04-07T14:18:42Z</time></trkpt><trkpt lat="45.73549124551881" lon="9.661737337154527"><ele>341.0</ele><time>2026-04-07T14:18:43Z</time></trkpt><trkpt lat="45.7356001596597" lon="9.661819167014182"><ele>342.0</ele><time>2026-04-07T14:18:45Z</time></trkpt><trkpt lat="45.73571021225679" lon="9.661904194347487"><ele>342.0</ele><time>2026-04-07T14:18:47Z</time></trkpt><trkpt lat="45.73581759539626" lon="9.66198115806935"><ele>342.0</ele><time>2026-04-07T14:18:49Z</time></trkpt><trkpt lat="45.73592706143397" lon="9.662051163519797"><ele>342.0</ele><time>2026-04-07T14:18:51Z</time></trkpt><trkpt lat="45.73604041117547" lon="9.662113771246876"><ele>342.0</ele><time>2026-04-07T14:18:53Z</time></trkpt><trkpt lat="45.73610074851276" lon="9.662146713105708"><ele>342.0</ele><time>2026-04-07T14:18:54Z</time></trkpt><trkpt lat="45.73621047925188" lon="9.662202400932367"><ele>343.5</ele><time>2026-04-07T14:18:56Z</time></trkpt><trkpt lat="45.736318923051655" lon="9.662262635048894"><ele>345.0</ele><time>2026-04-07T14:18:58Z</time></trkpt><trkpt lat="45.7364239574642" lon="9.662328499761092"><ele>346.5</ele><time>2026-04-07T14:19:00Z</time></trkpt><trkpt lat="45.736526264754055" lon="9.66239970195386"><ele>348.0</ele><time>2026-04-07T14:19:02Z</time></trkpt><trkpt lat="45.73662176413891" lon="9.662470218914388"><ele>348.0</ele><time>2026-04-07T14:19:04Z</time></trkpt><trkpt lat="45.7367199724102" lon="9.662563584304115"><ele>348.0</ele><time>2026-04-07T14:19:06Z</time></trkpt><trkpt lat="45.736809096658305" lon="9.66266038429109"><ele>348.0</ele><time>2026-04-07T14:19:08Z</time></trkpt><trkpt lat="45.73689051039537" lon="9.66276196916713"><ele>348.0</ele><time>2026-04-07T14:19:10Z</time></trkpt><trkpt lat="45.73694786570085" lon="9.662898130546623"><ele>348.0</ele><time>2026-04-07T14:19:12Z</time></trkpt><trkpt lat="45.73699900556366" lon="9.663033983429193"><ele>349.0</ele><time>2026-04-07T14:19:14Z</time></trkpt><trkpt lat="45.73704445696512" lon="9.663170433743598"><ele>350.0</ele><time>2026-04-07T14:19:16Z</time></trkpt><trkpt lat="45.7370851193203" lon="9.663307981921845"><ele>351.0</ele><time>2026-04-07T14:19:18Z</time></trkpt><trkpt lat="45.73712430458628" lon="9.663442480238944"><ele>352.0</ele><time>2026-04-07T14:19:20Z</time></trkpt><trkpt lat="45.737162016947934" lon="9.663566625627643"><ele>353.0</ele><time>2026-04-07T14:19:22Z</time></trkpt><trkpt lat="45.73717868273779" lon="9.663694434650948"><ele>354.2</ele><time>2026-04-07T14:19:24Z</time></trkpt><trkpt lat="45.73720612381881" lon="9.663863028491186"><ele>355.4</ele><time>2026-04-07T14:19:27Z</time></trkpt><trkpt lat="45.737220481084094" lon="9.663952373458915"><ele>356.59999999999997</ele><time>2026-04-07T14:19:29Z</time></trkpt><trkpt lat="45.73726378055507" lon="9.664087466074195"><ele>357.79999999999995</ele><time>2026-04-07T14:19:32Z</time></trkpt><trkpt lat="45.7373072066719" lon="9.664178955427754"><ele>359.0</ele><time>2026-04-07T14:19:34Z</time></trkpt><trkpt lat="45.73737611197855" lon="9.664258522453812"><ele>359.0</ele><time>2026-04-07T14:19:37Z</time></trkpt><trkpt lat="45.73743545992323" lon="9.664313063554076"><ele>359.0</ele><time>2026-04-07T14:19:39Z</time></trkpt><trkpt lat="45.73749391779578" lon="9.664355693814098"><ele>359.0</ele><time>2026-04-07T14:19:41Z</time></trkpt><trkpt lat="45.737537139387804" lon="9.664451104154033"><ele>359.0</ele><time>2026-04-07T14:19:43Z</time></trkpt><trkpt lat="45.73758501081175" lon="9.664565119524786"><ele>359.0</ele><time>2026-04-07T14:19:45Z</time></trkpt><trkpt lat="45.73762426766058" lon="9.664703340010936"><ele>359.0</ele><time>2026-04-07T14:19:47Z</time></trkpt><trkpt lat="45.73765763590012" lon="9.66485224385465"><ele>360.0</ele><time>2026-04-07T14:19:49Z</time></trkpt><trkpt lat="45.73767082745365" lon="9.664998563503687"><ele>361.0</ele><time>2026-04-07T14:19:51Z</time></trkpt><trkpt lat="45.73767905203001" lon="9.66513582788982"><ele>362.0</ele><time>2026-04-07T14:19:53Z</time></trkpt><trkpt lat="45.73766567186795" lon="9.665274064006551"><ele>363.0</ele><time>2026-04-07T14:19:55Z</time></trkpt><trkpt lat="45.73764784297419" lon="9.665413416607542"><ele>364.0</ele><time>2026-04-07T14:19:57Z</time></trkpt><trkpt lat="45.73763009235126" lon="9.66555217527366"><ele>365.0</ele><time>2026-04-07T14:19:59Z</time></trkpt><trkpt lat="45.73762304817341" lon="9.665701477152115"><ele>366.0</ele><time>2026-04-07T14:20:01Z</time></trkpt><trkpt lat="45.73761025190091" lon="9.665844692327514"><ele>367.0</ele><time>2026-04-07T14:20:03Z</time></trkpt><trkpt lat="45.73760778744323" lon="9.665948367641187"><ele>368.0</ele><time>2026-04-07T14:20:05Z</time></trkpt><trkpt lat="45.73759886546743" lon="9.66605923265133"><ele>369.0</ele><time>2026-04-07T14:20:07Z</time></trkpt><trkpt lat="45.73757535037984" lon="9.666196715029063"><ele>369.2</ele><time>2026-04-07T14:20:09Z</time></trkpt><trkpt lat="45.73756091566934" lon="9.666353681224507"><ele>369.4</ele><time>2026-04-07T14:20:11Z</time></trkpt><trkpt lat="45.73755526384857" lon="9.666507883436406"><ele>369.6</ele><time>2026-04-07T14:20:13Z</time></trkpt><trkpt lat="45.737566172188515" lon="9.666658490056253"><ele>369.8</ele><time>2026-04-07T14:20:15Z</time></trkpt><trkpt lat="45.737578310662116" lon="9.666806271217267"><ele>370.0</ele><time>2026-04-07T14:20:17Z</time></trkpt><trkpt lat="45.73757135337431" lon="9.666953507523633"><ele>371.0</ele><time>2026-04-07T14:20:19Z</time></trkpt><trkpt lat="45.73756307267865" lon="9.66709053200073"><ele>372.0</ele><time>2026-04-07T14:20:21Z</time></trkpt><trkpt lat="45.737551086837684" lon="9.667232594975975"><ele>373.0</ele><time>2026-04-07T14:20:23Z</time></trkpt><trkpt lat="45.73752477865755" lon="9.667370924342986"><ele>374.0</ele><time>2026-04-07T14:20:25Z</time></trkpt><trkpt lat="45.737542767630366" lon="9.6675220343939"><ele>375.0</ele><time>2026-04-07T14:20:27Z</time></trkpt><trkpt lat="45.73754558438016" lon="9.667660589215442"><ele>375.8333333333333</ele><time>2026-04-07T14:20:29Z</time></trkpt><trkpt lat="45.737505021072835" lon="9.667777182594122"><ele>376.6666666666667</ele><time>2026-04-07T14:20:31Z</time></trkpt><trkpt lat="45.73745984188574" lon="9.667877282504005"><ele>377.5</ele><time>2026-04-07T14:20:33Z</time></trkpt><trkpt lat="45.73743228334471" lon="9.667982095360783"><ele>378.33333333333337</ele><time>2026-04-07T14:20:35Z</time></trkpt><trkpt lat="45.737436495519454" lon="9.668076661020423"><ele>379.1666666666667</ele><time>2026-04-07T14:20:37Z</time></trkpt><trkpt lat="45.73747833088433" lon="9.668169430555533"><ele>380.0</ele><time>2026-04-07T14:20:39Z</time></trkpt><trkpt lat="45.73755322443054" lon="9.668193679098637"><ele>380.0</ele><time>2026-04-07T14:20:41Z</time></trkpt><trkpt lat="45.73761713428012" lon="9.668209627863325"><ele>380.0</ele><time>2026-04-07T14:20:43Z</time></trkpt><trkpt lat="45.737546964051326" lon="9.66827372854536"><ele>380.0</ele><time>2026-04-07T14:21:15Z</time></trkpt><trkpt lat="45.73758597444626" lon="9.66836763478273"><ele>380.0</ele><time>2026-04-07T14:21:17Z</time></trkpt><trkpt lat="45.737534712213275" lon="9.668481055991366"><ele>380.0</ele><time>2026-04-07T14:21:20Z</time></trkpt><trkpt lat="45.73749375654349" lon="9.668577085125827"><ele>380.0</ele><time>2026-04-07T14:21:22Z</time></trkpt><trkpt lat="45.7374719982383" lon="9.668681833184227"><ele>381.1666666666667</ele><time>2026-04-07T14:21:24Z</time></trkpt><trkpt lat="45.737431488453765" lon="9.668805301465545"><ele>382.33333333333337</ele><time>2026-04-07T14:21:27Z</time></trkpt><trkpt lat="45.737373000495545" lon="9.668886230876401"><ele>383.5</ele><time>2026-04-07T14:21:31Z</time></trkpt><trkpt lat="45.73731110505688" lon="9.66881771700985"><ele>384.6666666666667</ele><time>2026-04-07T14:21:34Z</time></trkpt><trkpt lat="45.73723648080333" lon="9.668815950416489"><ele>385.8333333333333</ele><time>2026-04-07T14:21:37Z</time></trkpt><trkpt lat="45.73717889906866" lon="9.668917202497253"><ele>387.0</ele><time>2026-04-07T14:21:40Z</time></trkpt><trkpt lat="45.73711337854598" lon="9.66902812585575"><ele>387.0</ele><time>2026-04-07T14:21:42Z</time></trkpt><trkpt lat="45.73707074441635" lon="9.669137264230923"><ele>387.0</ele><time>2026-04-07T14:21:44Z</time></trkpt><trkpt lat="45.73704797862562" lon="9.669241140765983"><ele>387.0</ele><time>2026-04-07T14:21:46Z</time></trkpt><trkpt lat="45.73701947795518" lon="9.669364574707348"><ele>387.0</ele><time>2026-04-07T14:21:48Z</time></trkpt><trkpt lat="45.73704283286124" lon="9.66949713544209"><ele>387.0</ele><time>2026-04-07T14:21:50Z</time></trkpt><trkpt lat="45.73711969755031" lon="9.669574251325981"><ele>387.0</ele><time>2026-04-07T14:21:52Z</time></trkpt><trkpt lat="45.737208837528385" lon="9.669554445631233"><ele>387.0</ele><time>2026-04-07T14:21:54Z</time></trkpt><trkpt lat="45.737278391546155" lon="9.669496043332211"><ele>387.0</ele><time>2026-04-07T14:21:56Z</time></trkpt><trkpt lat="45.73737052814068" lon="9.669488062480339"><ele>387.0</ele><time>2026-04-07T14:21:58Z</time></trkpt><trkpt lat="45.73744323650305" lon="9.669467703655567"><ele>387.0</ele><time>2026-04-07T14:22:00Z</time></trkpt><trkpt lat="45.73750205651806" lon="9.66943288687366"><ele>387.0</ele><time>2026-04-07T14:22:02Z</time></trkpt><trkpt lat="45.73755498753212" lon="9.669361623476066"><ele>387.0</ele><time>2026-04-07T14:22:04Z</time></trkpt><trkpt lat="45.737594076099" lon="9.669213612590312"><ele>387.0</ele><time>2026-04-07T14:22:06Z</time></trkpt><trkpt lat="45.737618241181124" lon="9.66912064848621"><ele>387.0</ele><time>2026-04-07T14:22:07Z</time></trkpt><trkpt lat="45.73764893550331" lon="9.669028597655469"><ele>387.0</ele><time>2026-04-07T14:22:08Z</time></trkpt><trkpt lat="45.73768907691038" lon="9.668949975885193"><ele>387.0</ele><time>2026-04-07T14:22:09Z</time></trkpt><trkpt lat="45.73775104373384" lon="9.668823045816547"><ele>387.0</ele><time>2026-04-07T14:22:11Z</time></trkpt><trkpt lat="45.73780892866722" lon="9.668693934054302"><ele>387.0</ele><time>2026-04-07T14:22:13Z</time></trkpt><trkpt lat="45.737884441153675" lon="9.668587571490722"><ele>389.40000000000003</ele><time>2026-04-07T14:22:15Z</time></trkpt><trkpt lat="45.73797578676563" lon="9.668507594493885"><ele>391.8</ele><time>2026-04-07T14:22:17Z</time></trkpt><trkpt lat="45.73806823705694" lon="9.66842171860879"><ele>394.2</ele><time>2026-04-07T14:22:19Z</time></trkpt><trkpt lat="45.73815192765019" lon="9.668312139497184"><ele>396.6</ele><time>2026-04-07T14:22:21Z</time></trkpt><trkpt lat="45.7382254641817" lon="9.66819493958833"><ele>399.0</ele><time>2026-04-07T14:22:23Z</time></trkpt><trkpt lat="45.73829907710513" lon="9.668067129724633"><ele>399.0</ele><time>2026-04-07T14:22:25Z</time></trkpt><trkpt lat="45.73837365617817" lon="9.667950751766053"><ele>399.0</ele><time>2026-04-07T14:22:27Z</time></trkpt><trkpt lat="45.73843027647326" lon="9.66785601611142"><ele>399.0</ele><time>2026-04-07T14:22:29Z</time></trkpt><trkpt lat="45.73850562792672" lon="9.667752730926793"><ele>399.0</ele><time>2026-04-07T14:22:31Z</time></trkpt><trkpt lat="45.738581274372905" lon="9.667655101845186"><ele>399.0</ele><time>2026-04-07T14:22:33Z</time></trkpt><trkpt lat="45.73866694834709" lon="9.667600631691007"><ele>400.42857142857144</ele><time>2026-04-07T14:22:35Z</time></trkpt><trkpt lat="45.738745079499935" lon="9.667598923070946"><ele>401.8571428571429</ele><time>2026-04-07T14:22:37Z</time></trkpt><trkpt lat="45.73881030691391" lon="9.667613429016212"><ele>403.2857142857143</ele><time>2026-04-07T14:22:39Z</time></trkpt><trkpt lat="45.73889263476" lon="9.667634784772295"><ele>404.7142857142857</ele><time>2026-04-07T14:22:42Z</time></trkpt><trkpt lat="45.73896938221239" lon="9.667669135713073"><ele>406.14285714285717</ele><time>2026-04-07T14:22:45Z</time></trkpt><trkpt lat="45.739027806207766" lon="9.667706979813351"><ele>407.57142857142856</ele><time>2026-04-07T14:22:48Z</time></trkpt><trkpt lat="45.739095656440604" lon="9.667747190980863"><ele>409.0</ele><time>2026-04-07T14:22:51Z</time></trkpt><trkpt lat="45.73917218635563" lon="9.667777151636992"><ele>410.57142857142856</ele><time>2026-04-07T14:22:55Z</time></trkpt><trkpt lat="45.73924630538413" lon="9.667793336809925"><ele>412.14285714285717</ele><time>2026-04-07T14:22:59Z</time></trkpt><trkpt lat="45.73930920067535" lon="9.667825139054882"><ele>413.7142857142857</ele><time>2026-04-07T14:23:03Z</time></trkpt><trkpt lat="45.739374391520805" lon="9.66786831016649"><ele>415.2857142857143</ele><time>2026-04-07T14:23:07Z</time></trkpt><trkpt lat="45.739440943065325" lon="9.667906505358735"><ele>416.8571428571429</ele><time>2026-04-07T14:23:11Z</time></trkpt><trkpt lat="45.73949565803039" lon="9.667959223570634"><ele>418.42857142857144</ele><time>2026-04-07T14:23:15Z</time></trkpt><trkpt lat="45.73956283897944" lon="9.66800829022159"><ele>420.0</ele><time>2026-04-07T14:23:19Z</time></trkpt><trkpt lat="45.739632204984524" lon="9.667988218459241"><ele>422.0</ele><time>2026-04-07T14:23:23Z</time></trkpt><trkpt lat="45.73969263933318" lon="9.668025962712418"><ele>424.0</ele><time>2026-04-07T14:23:27Z</time></trkpt><trkpt lat="45.7397503104577" lon="9.667985561406233"><ele>426.0</ele><time>2026-04-07T14:23:31Z</time></trkpt><trkpt lat="45.73980762816342" lon="9.667929472056892"><ele>428.0</ele><time>2026-04-07T14:23:34Z</time></trkpt><trkpt lat="45.739863478971024" lon="9.667993846634593"><ele>430.0</ele><time>2026-04-07T14:23:38Z</time></trkpt><trkpt lat="45.7399290810572" lon="9.668013343960881"><ele>432.0</ele><time>2026-04-07T14:23:41.999Z</time></trkpt><trkpt lat="45.740011191686776" lon="9.668042187640939"><ele>434.0</ele><time>2026-04-07T14:23:46.999Z</time></trkpt><trkpt lat="45.74007962106138" lon="9.668088687764264"><ele>434.0</ele><time>2026-04-07T14:23:50.999Z</time></trkpt><trkpt lat="45.740153326792594" lon="9.6681500364058"><ele>434.0</ele><time>2026-04-07T14:23:54.999Z</time></trkpt><trkpt lat="45.74021852295219" lon="9.668195242106453"><ele>434.0</ele><time>2026-04-07T14:23:57.999Z</time></trkpt><trkpt lat="45.740282442420956" lon="9.668236655256685"><ele>434.0</ele><time>2026-04-07T14:24:00.999Z</time></trkpt><trkpt lat="45.74034593409306" lon="9.668259214477658"><ele>434.0</ele><time>2026-04-07T14:24:03.999Z</time></trkpt><trkpt lat="45.74041690044107" lon="9.668283999932461"><ele>434.0</ele><time>2026-04-07T14:24:06.999Z</time></trkpt><trkpt lat="45.740489704126794" lon="9.668325020358825"><ele>434.0</ele><time>2026-04-07T14:24:09.999Z</time></trkpt><trkpt lat="45.74057556813287" lon="9.668344141730183"><ele>434.8333333333333</ele><time>2026-04-07T14:24:12.999Z</time></trkpt><trkpt lat="45.74065749227216" lon="9.668339393108129"><ele>435.66666666666663</ele><time>2026-04-07T14:24:15.999Z</time></trkpt><trkpt lat="45.74073899545931" lon="9.668331530237767"><ele>436.5</ele><time>2026-04-07T14:24:18.999Z</time></trkpt><trkpt lat="45.74081602884265" lon="9.668342576093465"><ele>437.33333333333337</ele><time>2026-04-07T14:24:21.999Z</time></trkpt><trkpt lat="45.7408944952382" lon="9.66835847970789"><ele>438.1666666666667</ele><time>2026-04-07T14:24:24.999Z</time></trkpt><trkpt lat="45.74096924799107" lon="9.668374036395786"><ele>439.0</ele><time>2026-04-07T14:24:27.999Z</time></trkpt><trkpt lat="45.741044375592054" lon="9.66839468068537"><ele>437.83333333333337</ele><time>2026-04-07T14:24:30.999Z</time></trkpt><trkpt lat="45.74111922779383" lon="9.668420074171026"><ele>436.6666666666667</ele><time>2026-04-07T14:24:33.999Z</time></trkpt><trkpt lat="45.74118705497039" lon="9.668458379780924"><ele>435.5</ele><time>2026-04-07T14:24:37Z</time></trkpt><trkpt lat="45.74126744286141" lon="9.668501566734491"><ele>434.33333333333337</ele><time>2026-04-07T14:24:40Z</time></trkpt><trkpt lat="45.74135112750909" lon="9.66855500459246"><ele>433.1666666666667</ele><time>2026-04-07T14:24:43Z</time></trkpt><trkpt lat="45.74142213048666" lon="9.668591844380758"><ele>432.0</ele><time>2026-04-07T14:24:45Z</time></trkpt><trkpt lat="45.741506304197124" lon="9.66865478111721"><ele>433.6666666666667</ele><time>2026-04-07T14:24:47Z</time></trkpt><trkpt lat="45.74160506935685" lon="9.66876066389151"><ele>435.33333333333337</ele><time>2026-04-07T14:24:49Z</time></trkpt><trkpt lat="45.74165994380316" lon="9.668817676223842"><ele>437.0</ele><time>2026-04-07T14:24:50Z</time></trkpt><trkpt lat="45.741716305068394" lon="9.66887657377416"><ele>438.6666666666667</ele><time>2026-04-07T14:24:51Z</time></trkpt><trkpt lat="45.74176954526693" lon="9.668930799368418"><ele>440.33333333333337</ele><time>2026-04-07T14:24:52Z</time></trkpt><trkpt lat="45.74186609781053" lon="9.669034387799138"><ele>442.0</ele><time>2026-04-07T14:24:54Z</time></trkpt><trkpt lat="45.741956733085814" lon="9.669104223368642"><ele>442.00000000000006</ele><time>2026-04-07T14:24:56Z</time></trkpt><trkpt lat="45.74203443704009" lon="9.669163067913594"><ele>442.0</ele><time>2026-04-07T14:24:58Z</time></trkpt><trkpt lat="45.742105511092845" lon="9.669224228667467"><ele>442.0</ele><time>2026-04-07T14:25:00Z</time></trkpt><trkpt lat="45.74216681278995" lon="9.66930268385428"><ele>442.0</ele><time>2026-04-07T14:25:02Z</time></trkpt><trkpt lat="45.74223691509297" lon="9.669371567939523"><ele>442.00000000000006</ele><time>2026-04-07T14:25:04Z</time></trkpt><trkpt lat="45.74229952614475" lon="9.66944194836627"><ele>442.0</ele><time>2026-04-07T14:25:06Z</time></trkpt><trkpt lat="45.74237099808025" lon="9.6695270642011"><ele>445.0</ele><time>2026-04-07T14:25:08Z</time></trkpt><trkpt lat="45.74244588766359" lon="9.669605210749067"><ele>448.00000000000006</ele><time>2026-04-07T14:25:10Z</time></trkpt><trkpt lat="45.74252792493401" lon="9.669682983157735"><ele>451.00000000000006</ele><time>2026-04-07T14:25:12Z</time></trkpt><trkpt lat="45.74259274776479" lon="9.669763370384494"><ele>454.0</ele><time>2026-04-07T14:25:14Z</time></trkpt><trkpt lat="45.74268373707636" lon="9.669752913553154"><ele>457.0</ele><time>2026-04-07T14:25:16Z</time></trkpt><trkpt lat="45.74274989355123" lon="9.669678696382562"><ele>458.33333333333337</ele><time>2026-04-07T14:25:18Z</time></trkpt><trkpt lat="45.74282075701619" lon="9.669624389146486"><ele>459.6666666666667</ele><time>2026-04-07T14:25:20Z</time></trkpt><trkpt lat="45.74288603197777" lon="9.669565664629545"><ele>461.0</ele><time>2026-04-07T14:25:22Z</time></trkpt><trkpt lat="45.742973882484506" lon="9.66954552011065"><ele>462.33333333333337</ele><time>2026-04-07T14:25:24Z</time></trkpt><trkpt lat="45.743066121398755" lon="9.669526572106243"><ele>463.6666666666667</ele><time>2026-04-07T14:25:26Z</time></trkpt><trkpt lat="45.743150815271" lon="9.669520946141246"><ele>465.0</ele><time>2026-04-07T14:25:28Z</time></trkpt><trkpt lat="45.74323274221403" lon="9.669495210617292"><ele>465.0</ele><time>2026-04-07T14:25:30Z</time></trkpt><trkpt lat="45.74330809223224" lon="9.6694596776477"><ele>465.0</ele><time>2026-04-07T14:25:32Z</time></trkpt><trkpt lat="45.74338717281163" lon="9.66942354187264"><ele>465.0</ele><time>2026-04-07T14:25:34Z</time></trkpt><trkpt lat="45.743472150203424" lon="9.669398791184822"><ele>465.0</ele><time>2026-04-07T14:25:36Z</time></trkpt><trkpt lat="45.74355005813076" lon="9.669372432331592"><ele>465.0</ele><time>2026-04-07T14:25:38Z</time></trkpt><trkpt lat="45.743620030920376" lon="9.669377292403242"><ele>465.0</ele><time>2026-04-07T14:25:40Z</time></trkpt><trkpt lat="45.74370217094289" lon="9.669407842177774"><ele>466.0</ele><time>2026-04-07T14:25:42Z</time></trkpt><trkpt lat="45.743782116531776" lon="9.669464239613937"><ele>467.0</ele><time>2026-04-07T14:25:44Z</time></trkpt><trkpt lat="45.743868376547" lon="9.669514692092534"><ele>468.0</ele><time>2026-04-07T14:25:46Z</time></trkpt><trkpt lat="45.74394750133987" lon="9.669570163866144"><ele>469.0</ele><time>2026-04-07T14:25:48Z</time></trkpt><trkpt lat="45.74401533962705" lon="9.669615193137231"><ele>470.0</ele><time>2026-04-07T14:25:50Z</time></trkpt><trkpt lat="45.74407862638212" lon="9.669692926689109"><ele>471.0</ele><time>2026-04-07T14:25:53Z</time></trkpt><trkpt lat="45.744148575620045" lon="9.669767313735939"><ele>471.0</ele><time>2026-04-07T14:25:56Z</time></trkpt><trkpt lat="45.74419906739196" lon="9.669824803601882"><ele>471.0</ele><time>2026-04-07T14:25:58Z</time></trkpt><trkpt lat="45.744261742988606" lon="9.669896192515235"><ele>471.0</ele><time>2026-04-07T14:26:01Z</time></trkpt><trkpt lat="45.74431933307533" lon="9.669934533391118"><ele>471.0</ele><time>2026-04-07T14:26:03Z</time></trkpt><trkpt lat="45.744399719085884" lon="9.669960538601682"><ele>471.0</ele><time>2026-04-07T14:26:06Z</time></trkpt><trkpt lat="45.74447737908346" lon="9.669995959399417"><ele>471.0</ele><time>2026-04-07T14:26:09Z</time></trkpt><trkpt lat="45.74454426198704" lon="9.670072166321058"><ele>471.5</ele><time>2026-04-07T14:26:11Z</time></trkpt><trkpt lat="45.744614978284375" lon="9.670104631922705"><ele>472.0</ele><time>2026-04-07T14:26:13Z</time></trkpt><trkpt lat="45.74467289965605" lon="9.670180110794888"><ele>472.5</ele><time>2026-04-07T14:26:15Z</time></trkpt><trkpt lat="45.74473634548938" lon="9.670268431528823"><ele>473.0</ele><time>2026-04-07T14:26:17Z</time></trkpt><trkpt lat="45.74479123350642" lon="9.670344551828217"><ele>473.5</ele><time>2026-04-07T14:26:19Z</time></trkpt><trkpt lat="45.74485392429994" lon="9.670435501036081"><ele>474.0</ele><time>2026-04-07T14:26:21Z</time></trkpt><trkpt lat="45.74492511810423" lon="9.670529609218608"><ele>474.0</ele><time>2026-04-07T14:26:23Z</time></trkpt><trkpt lat="45.74500587174925" lon="9.670627611624912"><ele>474.0</ele><time>2026-04-07T14:26:25Z</time></trkpt><trkpt lat="45.745077463428196" lon="9.670727579914788"><ele>474.0</ele><time>2026-04-07T14:26:27Z</time></trkpt><trkpt lat="45.74514040616069" lon="9.670817763561448"><ele>474.0</ele><time>2026-04-07T14:26:29Z</time></trkpt><trkpt lat="45.745218012896856" lon="9.670882473158072"><ele>474.0</ele><time>2026-04-07T14:26:31Z</time></trkpt><trkpt lat="45.74527970960727" lon="9.670939415532048"><ele>470.0</ele><time>2026-04-07T14:26:33Z</time></trkpt><trkpt lat="45.74532737669056" lon="9.671005580738386"><ele>466.0</ele><time>2026-04-07T14:26:35Z</time></trkpt><trkpt lat="45.745374314176836" lon="9.671108811201895"><ele>462.0</ele><time>2026-04-07T14:26:38Z</time></trkpt><trkpt lat="45.74540551917858" lon="9.671214390363811"><ele>458.0</ele><time>2026-04-07T14:26:41Z</time></trkpt><trkpt lat="45.74545966195921" lon="9.671321923149383"><ele>454.0</ele><time>2026-04-07T14:26:43Z</time></trkpt><trkpt lat="45.745493124524074" lon="9.67143836608731"><ele>450.0</ele><time>2026-04-07T14:26:45Z</time></trkpt><trkpt lat="45.74552448586021" lon="9.671591119400652"><ele>450.0</ele><time>2026-04-07T14:26:47Z</time></trkpt><trkpt lat="45.74556168752176" lon="9.671721276415676"><ele>450.0</ele><time>2026-04-07T14:26:49Z</time></trkpt><trkpt lat="45.74561369291027" lon="9.671847809458763"><ele>450.0</ele><time>2026-04-07T14:26:51Z</time></trkpt><trkpt lat="45.74565895942497" lon="9.671983594033335"><ele>450.0</ele><time>2026-04-07T14:26:53Z</time></trkpt><trkpt lat="45.745679633826796" lon="9.672111049176879"><ele>450.0</ele><time>2026-04-07T14:26:55Z</time></trkpt><trkpt lat="45.74569459312868" lon="9.672248384343208"><ele>451.0</ele><time>2026-04-07T14:26:57Z</time></trkpt><trkpt lat="45.74572121167657" lon="9.672370645796743"><ele>452.0</ele><time>2026-04-07T14:26:59Z</time></trkpt><trkpt lat="45.74571609881565" lon="9.672469194702314"><ele>453.0</ele><time>2026-04-07T14:27:01Z</time></trkpt><trkpt lat="45.74571202990126" lon="9.672597961016436"><ele>454.0</ele><time>2026-04-07T14:27:04Z</time></trkpt><trkpt lat="45.74571153197056" lon="9.672747193401298"><ele>455.0</ele><time>2026-04-07T14:27:07Z</time></trkpt><trkpt lat="45.74571127460981" lon="9.67285065645759"><ele>456.0</ele><time>2026-04-07T14:27:09Z</time></trkpt><trkpt lat="45.74571908028268" lon="9.672943009366438"><ele>455.6666666666667</ele><time>2026-04-07T14:27:11Z</time></trkpt><trkpt lat="45.745744954339585" lon="9.673060449062797"><ele>455.33333333333337</ele><time>2026-04-07T14:27:14Z</time></trkpt><trkpt lat="45.7457357324334" lon="9.673171164876088"><ele>455.0</ele><time>2026-04-07T14:27:16Z</time></trkpt><trkpt lat="45.745714245627866" lon="9.673291343265115"><ele>454.6666666666667</ele><time>2026-04-07T14:27:19Z</time></trkpt><trkpt lat="45.74572543045598" lon="9.673391918207829"><ele>454.33333333333337</ele><time>2026-04-07T14:27:28Z</time></trkpt><trkpt lat="45.74571839217112" lon="9.673510574453866"><ele>454.0</ele><time>2026-04-07T14:27:37Z</time></trkpt><trkpt lat="45.745696158293825" lon="9.673655044477261"><ele>454.00000000000006</ele><time>2026-04-07T14:27:40Z</time></trkpt><trkpt lat="45.74566085050748" lon="9.67376456305724"><ele>454.0</ele><time>2026-04-07T14:27:42Z</time></trkpt><trkpt lat="45.74563515584547" lon="9.673848868614616"><ele>454.0</ele><time>2026-04-07T14:27:44Z</time></trkpt><trkpt lat="45.745600941725726" lon="9.673968139720566"><ele>454.0</ele><time>2026-04-07T14:27:47Z</time></trkpt><trkpt lat="45.745578560052735" lon="9.674061526391593"><ele>454.00000000000006</ele><time>2026-04-07T14:27:49Z</time></trkpt><trkpt lat="45.74550223596978" lon="9.674147760398146"><ele>454.0</ele><time>2026-04-07T14:27:51Z</time></trkpt><trkpt lat="45.745444169173915" lon="9.674211611581622"><ele>454.00000000000006</ele><time>2026-04-07T14:27:52Z</time></trkpt><trkpt lat="45.74554027482574" lon="9.674317517328419"><ele>454.0</ele><time>2026-04-07T14:27:53Z</time></trkpt><trkpt lat="45.745547408946514" lon="9.674427076119368"><ele>454.0</ele><time>2026-04-07T14:27:56Z</time></trkpt><trkpt lat="45.745568111476956" lon="9.674514160420198"><ele>454.0</ele><time>2026-04-07T14:27:58Z</time></trkpt><trkpt lat="45.74556656597342" lon="9.674650075301312"><ele>454.00000000000006</ele><time>2026-04-07T14:28:01Z</time></trkpt><trkpt lat="45.745569505859486" lon="9.674750108167038"><ele>454.0</ele><time>2026-04-07T14:28:03Z</time></trkpt><trkpt lat="45.74556277684454" lon="9.674840393441404"><ele>454.4</ele><time>2026-04-07T14:28:05Z</time></trkpt><trkpt lat="45.74553890742783" lon="9.67495329129128"><ele>454.79999999999995</ele><time>2026-04-07T14:28:08Z</time></trkpt><trkpt lat="45.74549425028712" lon="9.675053894012505"><ele>455.20000000000005</ele><time>2026-04-07T14:28:11Z</time></trkpt><trkpt lat="45.745476707660835" lon="9.675152803794095"><ele>455.6</ele><time>2026-04-07T14:28:14Z</time></trkpt><trkpt lat="45.74546867249309" lon="9.675246922125076"><ele>456.0</ele><time>2026-04-07T14:28:23Z</time></trkpt><trkpt lat="45.74111922779383" lon="9.668420074171026"><ele>454.3333333333333</ele><time>2026-04-07T14:24:33.999Z</time></trkpt><trkpt lat="45.74118705497039" lon="9.668458379780924"><ele>452.66666666666663</ele><time>2026-04-07T14:24:37Z</time></trkpt><trkpt lat="45.74126744286141" lon="9.668501566734491"><ele>451.0</ele><time>2026-04-07T14:24:40Z</time></trkpt><trkpt lat="45.74135112750909" lon="9.66855500459246"><ele>449.3333333333333</ele><time>2026-04-07T14:24:43Z</time></trkpt><trkpt lat="45.74142213048666" lon="9.668591844380758"><ele>447.66666666666663</ele><time>2026-04-07T14:24:45Z</time></trkpt><trkpt lat="45.741506304197124" lon="9.66865478111721"><ele>446.0</ele><time>2026-04-07T14:24:47Z</time></trkpt><trkpt lat="45.74160506935685" lon="9.66876066389151"><ele>445.99999999999994</ele><time>2026-04-07T14:24:49Z</time></trkpt><trkpt lat="45.74165994380316" lon="9.668817676223842"><ele>446.0</ele><time>2026-04-07T14:24:50Z</time></trkpt><trkpt lat="45.741716305068394" lon="9.66887657377416"><ele>446.0</ele><time>2026-04-07T14:24:51Z</time></trkpt><trkpt lat="45.74176954526693" lon="9.668930799368418"><ele>446.0</ele><time>2026-04-07T14:24:52Z</time></trkpt><trkpt lat="45.74186609781053" lon="9.669034387799138"><ele>445.99999999999994</ele><time>2026-04-07T14:24:54Z</time></trkpt><trkpt lat="45.741956733085814" lon="9.669104223368642"><ele>446.0</ele><time>2026-04-07T14:24:56Z</time></trkpt><trkpt lat="45.74203443704009" lon="9.669163067913594"><ele>445.3333333333333</ele><time>2026-04-07T14:24:58Z</time></trkpt><trkpt lat="45.742105511092845" lon="9.669224228667467"><ele>444.66666666666663</ele><time>2026-04-07T14:25:00Z</time></trkpt><trkpt lat="45.74216681278995" lon="9.66930268385428"><ele>444.0</ele><time>2026-04-07T14:25:02Z</time></trkpt><trkpt lat="45.74223691509297" lon="9.669371567939523"><ele>443.33333333333337</ele><time>2026-04-07T14:25:04Z</time></trkpt><trkpt lat="45.74229952614475" lon="9.66944194836627"><ele>442.6666666666667</ele><time>2026-04-07T14:25:06Z</time></trkpt><trkpt lat="45.74237099808025" lon="9.6695270642011"><ele>442.0</ele><time>2026-04-07T14:25:08Z</time></trkpt><trkpt lat="45.74244588766359" lon="9.669605210749067"><ele>444.50000000000006</ele><time>2026-04-07T14:25:10Z</time></trkpt><trkpt lat="45.74252792493401" lon="9.669682983157735"><ele>447.0</ele><time>2026-04-07T14:25:12Z</time></trkpt><trkpt lat="45.74259274776479" lon="9.669763370384494"><ele>449.5</ele><time>2026-04-07T14:25:14Z</time></trkpt><trkpt lat="45.74268373707636" lon="9.669752913553154"><ele>452.0</ele><time>2026-04-07T14:25:16Z</time></trkpt><trkpt lat="45.74274989355123" lon="9.669678696382562"><ele>454.50000000000006</ele><time>2026-04-07T14:25:18Z</time></trkpt><trkpt lat="45.74282075701619" lon="9.669624389146486"><ele>457.0</ele><time>2026-04-07T14:25:20Z</time></trkpt><trkpt lat="45.74288603197777" lon="9.669565664629545"><ele>458.33333333333337</ele><time>2026-04-07T14:25:22Z</time></trkpt><trkpt lat="45.742973882484506" lon="9.66954552011065"><ele>459.6666666666667</ele><time>2026-04-07T14:25:24Z</time></trkpt><trkpt lat="45.743066121398755" lon="9.669526572106243"><ele>461.0</ele><time>2026-04-07T14:25:26Z</time></trkpt><trkpt lat="45.743150815271" lon="9.669520946141246"><ele>462.33333333333337</ele><time>2026-04-07T14:25:28Z</time></trkpt><trkpt lat="45.74323274221403" lon="9.669495210617292"><ele>463.6666666666667</ele><time>2026-04-07T14:25:30Z</time></trkpt><trkpt lat="45.74330809223224" lon="9.6694596776477"><ele>465.0</ele><time>2026-04-07T14:25:32Z</time></trkpt><trkpt lat="45.74338717281163" lon="9.66942354187264"><ele>466.0</ele><time>2026-04-07T14:25:34Z</time></trkpt><trkpt lat="45.743472150203424" lon="9.669398791184822"><ele>467.0</ele><time>2026-04-07T14:25:36Z</time></trkpt><trkpt lat="45.74355005813076" lon="9.669372432331592"><ele>468.0</ele><time>2026-04-07T14:25:38Z</time></trkpt><trkpt lat="45.743620030920376" lon="9.669377292403242"><ele>469.0</ele><time>2026-04-07T14:25:40Z</time></trkpt><trkpt lat="45.74370217094289" lon="9.669407842177774"><ele>470.0</ele><time>2026-04-07T14:25:42Z</time></trkpt><trkpt lat="45.743782116531776" lon="9.669464239613937"><ele>471.0</ele><time>2026-04-07T14:25:44Z</time></trkpt><trkpt lat="45.743868376547" lon="9.669514692092534"><ele>471.0</ele><time>2026-04-07T14:25:46Z</time></trkpt><trkpt lat="45.74394750133987" lon="9.669570163866144"><ele>471.0</ele><time>2026-04-07T14:25:48Z</time></trkpt><trkpt lat="45.74401533962705" lon="9.669615193137231"><ele>471.0</ele><time>2026-04-07T14:25:50Z</time></trkpt><trkpt lat="45.74407862638212" lon="9.669692926689109"><ele>471.0</ele><time>2026-04-07T14:25:53Z</time></trkpt><trkpt lat="45.744148575620045" lon="9.669767313735939"><ele>471.0</ele><time>2026-04-07T14:25:56Z</time></trkpt><trkpt lat="45.74419906739196" lon="9.669824803601882"><ele>471.0</ele><time>2026-04-07T14:25:58Z</time></trkpt><trkpt lat="45.744261742988606" lon="9.669896192515235"><ele>471.0</ele><time>2026-04-07T14:26:01Z</time></trkpt><trkpt lat="45.74431933307533" lon="9.669934533391118"><ele>471.0</ele><time>2026-04-07T14:26:03Z</time></trkpt><trkpt lat="45.744399719085884" lon="9.669960538601682"><ele>471.0</ele><time>2026-04-07T14:26:06Z</time></trkpt><trkpt lat="45.74447737908346" lon="9.669995959399417"><ele>471.0</ele><time>2026-04-07T14:26:09Z</time></trkpt><trkpt lat="45.74454426198704" lon="9.670072166321058"><ele>471.0</ele><time>2026-04-07T14:26:11Z</time></trkpt><trkpt lat="45.744614978284375" lon="9.670104631922705"><ele>471.0</ele><time>2026-04-07T14:26:13Z</time></trkpt><trkpt lat="45.74467289965605" lon="9.670180110794888"><ele>471.6</ele><time>2026-04-07T14:26:15Z</time></trkpt><trkpt lat="45.74473634548938" lon="9.670268431528823"><ele>472.20000000000005</ele><time>2026-04-07T14:26:17Z</time></trkpt><trkpt lat="45.74479123350642" lon="9.670344551828217"><ele>472.79999999999995</ele><time>2026-04-07T14:26:19Z</time></trkpt><trkpt lat="45.74485392429994" lon="9.670435501036081"><ele>473.4</ele><time>2026-04-07T14:26:21Z</time></trkpt><trkpt lat="45.74492511810423" lon="9.670529609218608"><ele>474.0</ele><time>2026-04-07T14:26:23Z</time></trkpt><trkpt lat="45.74500587174925" lon="9.670627611624912"><ele>474.0</ele><time>2026-04-07T14:26:25Z</time></trkpt><trkpt lat="45.745077463428196" lon="9.670727579914788"><ele>474.0</ele><time>2026-04-07T14:26:27Z</time></trkpt><trkpt lat="45.74514040616069" lon="9.670817763561448"><ele>474.0</ele><time>2026-04-07T14:26:29Z</time></trkpt><trkpt lat="45.745218012896856" lon="9.670882473158072"><ele>474.0</ele><time>2026-04-07T14:26:31Z</time></trkpt><trkpt lat="45.74527970960727" lon="9.670939415532048"><ele>474.0</ele><time>2026-04-07T14:26:33Z</time></trkpt><trkpt lat="45.74532737669056" lon="9.671005580738386"><ele>474.0</ele><time>2026-04-07T14:26:35Z</time></trkpt><trkpt lat="45.745374314176836" lon="9.671108811201895"><ele>469.2</ele><time>2026-04-07T14:26:38Z</time></trkpt><trkpt lat="45.74540551917858" lon="9.671214390363811"><ele>464.4</ele><time>2026-04-07T14:26:41Z</time></trkpt><trkpt lat="45.74545966195921" lon="9.671321923149383"><ele>459.6</ele><time>2026-04-07T14:26:43Z</time></trkpt><trkpt lat="45.745493124524074" lon="9.67143836608731"><ele>454.8</ele><time>2026-04-07T14:26:45Z</time></trkpt><trkpt lat="45.74552448586021" lon="9.671591119400652"><ele>450.0</ele><time>2026-04-07T14:26:47Z</time></trkpt><trkpt lat="45.74556168752176" lon="9.671721276415676"><ele>450.0</ele><time>2026-04-07T14:26:49Z</time></trkpt><trkpt lat="45.74561369291027" lon="9.671847809458763"><ele>450.0</ele><time>2026-04-07T14:26:51Z</time></trkpt><trkpt lat="45.74565895942497" lon="9.671983594033335"><ele>450.0</ele><time>2026-04-07T14:26:53Z</time></trkpt><trkpt lat="45.745679633826796" lon="9.672111049176879"><ele>450.0</ele><time>2026-04-07T14:26:55Z</time></trkpt><trkpt lat="45.74569459312868" lon="9.672248384343208"><ele>450.0</ele><time>2026-04-07T14:26:57Z</time></trkpt><trkpt lat="45.74572121167657" lon="9.672370645796743"><ele>451.0</ele><time>2026-04-07T14:26:59Z</time></trkpt><trkpt lat="45.74571609881565" lon="9.672469194702314"><ele>452.0</ele><time>2026-04-07T14:27:01Z</time></trkpt><trkpt lat="45.74571202990126" lon="9.672597961016436"><ele>453.0</ele><time>2026-04-07T14:27:04Z</time></trkpt><trkpt lat="45.74571153197056" lon="9.672747193401298"><ele>454.0</ele><time>2026-04-07T14:27:07Z</time></trkpt><trkpt lat="45.74571127460981" lon="9.67285065645759"><ele>455.0</ele><time>2026-04-07T14:27:09Z</time></trkpt><trkpt lat="45.74571908028268" lon="9.672943009366438"><ele>456.0</ele><time>2026-04-07T14:27:11Z</time></trkpt><trkpt lat="45.745744954339585" lon="9.673060449062797"><ele>455.6666666666667</ele><time>2026-04-07T14:27:14Z</time></trkpt><trkpt lat="45.7457357324334" lon="9.673171164876088"><ele>455.33333333333337</ele><time>2026-04-07T14:27:16Z</time></trkpt><trkpt lat="45.745714245627866" lon="9.673291343265115"><ele>455.0</ele><time>2026-04-07T14:27:19Z</time></trkpt><trkpt lat="45.74572543045598" lon="9.673391918207829"><ele>454.6666666666667</ele><time>2026-04-07T14:27:28Z</time></trkpt><trkpt lat="45.74571839217112" lon="9.673510574453866"><ele>454.33333333333337</ele><time>2026-04-07T14:27:37Z</time></trkpt><trkpt lat="45.745696158293825" lon="9.673655044477261"><ele>454.0</ele><time>2026-04-07T14:27:40Z</time></trkpt><trkpt lat="45.74566085050748" lon="9.67376456305724"><ele>454.00000000000006</ele><time>2026-04-07T14:27:42Z</time></trkpt><trkpt lat="45.74563515584547" lon="9.673848868614616"><ele>454.0</ele><time>2026-04-07T14:27:44Z</time></trkpt><trkpt lat="45.745600941725726" lon="9.673968139720566"><ele>454.0</ele><time>2026-04-07T14:27:47Z</time></trkpt><trkpt lat="45.745578560052735" lon="9.674061526391593"><ele>454.0</ele><time>2026-04-07T14:27:49Z</time></trkpt><trkpt lat="45.74550223596978" lon="9.674147760398146"><ele>454.00000000000006</ele><time>2026-04-07T14:27:51Z</time></trkpt><trkpt lat="45.745444169173915" lon="9.674211611581622"><ele>454.0</ele><time>2026-04-07T14:27:52Z</time></trkpt><trkpt lat="45.74554027482574" lon="9.674317517328419"><ele>454.00000000000006</ele><time>2026-04-07T14:27:53Z</time></trkpt><trkpt lat="45.745547408946514" lon="9.674427076119368"><ele>454.0</ele><time>2026-04-07T14:27:56Z</time></trkpt><trkpt lat="45.745568111476956" lon="9.674514160420198"><ele>454.0</ele><time>2026-04-07T14:27:58Z</time></trkpt><trkpt lat="45.74556656597342" lon="9.674650075301312"><ele>454.0</ele><time>2026-04-07T14:28:01Z</time></trkpt><trkpt lat="45.745569505859486" lon="9.674750108167038"><ele>454.00000000000006</ele><time>2026-04-07T14:28:03Z</time></trkpt><trkpt lat="45.74556277684454" lon="9.674840393441404"><ele>454.0</ele><time>2026-04-07T14:28:05Z</time></trkpt><trkpt lat="45.74553890742783" lon="9.67495329129128"><ele>454.33333333333337</ele><time>2026-04-07T14:28:08Z</time></trkpt><trkpt lat="45.74549425028712" lon="9.675053894012505"><ele>454.6666666666667</ele><time>2026-04-07T14:28:11Z</time></trkpt><trkpt lat="45.745476707660835" lon="9.675152803794095"><ele>455.0</ele><time>2026-04-07T14:28:14Z</time></trkpt><trkpt lat="45.74546867249309" lon="9.675246922125076"><ele>455.33333333333337</ele><time>2026-04-07T14:28:23Z</time></trkpt><trkpt lat="45.74547455361366" lon="9.675362233250002"><ele>455.6666666666667</ele><time>2026-04-07T14:28:58Z</time></trkpt><trkpt lat="45.7454697034676" lon="9.675486744410973"><ele>456.0</ele><time>2026-04-07T14:29:01Z</time></trkpt><trkpt lat="45.74544571376854" lon="9.67561203522754"><ele>457.2857142857143</ele><time>2026-04-07T14:29:04Z</time></trkpt><trkpt lat="45.74543856838529" lon="9.675706861088209"><ele>458.57142857142856</ele><time>2026-04-07T14:29:06Z</time></trkpt><trkpt lat="45.7454604323264" lon="9.675797732010007"><ele>459.85714285714283</ele><time>2026-04-07T14:29:08Z</time></trkpt><trkpt lat="45.745476259320974" lon="9.67591654346258"><ele>461.1428571428571</ele><time>2026-04-07T14:29:11Z</time></trkpt><trkpt lat="45.7454978354815" lon="9.67600510716408"><ele>462.42857142857144</ele><time>2026-04-07T14:29:14Z</time></trkpt><trkpt lat="45.74549787350075" lon="9.676123893733232"><ele>463.71428571428567</ele><time>2026-04-07T14:29:18Z</time></trkpt><trkpt lat="45.74545776271425" lon="9.676203279251153"><ele>465.0</ele><time>2026-04-07T14:29:30Z</time></trkpt><trkpt lat="45.74547201773684" lon="9.67629126823868"><ele>466.0</ele><time>2026-04-07T14:29:52Z</time></trkpt><trkpt lat="45.74543872706087" lon="9.676371775068553"><ele>467.0</ele><time>2026-04-07T14:30:29.999Z</time></trkpt><trkpt lat="45.74541124131428" lon="9.676459993831854"><ele>468.0</ele><time>2026-04-07T14:30:53Z</time></trkpt><trkpt lat="45.74538072231385" lon="9.676546650166536"><ele>469.0</ele><time>2026-04-07T14:31:04Z</time></trkpt><trkpt lat="45.74534855280067" lon="9.676673029123815"><ele>470.0</ele><time>2026-04-07T14:31:31Z</time></trkpt><trkpt lat="45.74532696681681" lon="9.676760834985984"><ele>471.0</ele><time>2026-04-07T14:32:04Z</time></trkpt><trkpt lat="45.745284347293776" lon="9.676850931560557"><ele>472.0</ele><time>2026-04-07T14:32:30.999Z</time></trkpt><trkpt lat="45.74525339951704" lon="9.676929995889676"><ele>475.85714285714283</ele><time>2026-04-07T14:32:59Z</time></trkpt><trkpt lat="45.74520738828025" lon="9.6769950846957"><ele>479.7142857142858</ele><time>2026-04-07T14:33:59Z</time></trkpt><trkpt lat="45.7451600437758" lon="9.67706355612932"><ele>483.5714285714286</ele><time>2026-04-07T14:34:43Z</time></trkpt><trkpt lat="45.745113293490945" lon="9.677126834967392"><ele>487.42857142857144</ele><time>2026-04-07T14:35:19Z</time></trkpt><trkpt lat="45.745070481293666" lon="9.677212181348745"><ele>491.28571428571433</ele><time>2026-04-07T14:35:33Z</time></trkpt><trkpt lat="45.74502089571877" lon="9.677301000426521"><ele>495.1428571428572</ele><time>2026-04-07T14:35:43Z</time></trkpt><trkpt lat="45.744975093307765" lon="9.677377105599827"><ele>499.00000000000006</ele><time>2026-04-07T14:35:51Z</time></trkpt><trkpt lat="45.744947150353674" lon="9.677463924932464"><ele>499.00000000000006</ele><time>2026-04-07T14:35:55Z</time></trkpt><trkpt lat="45.74499214511668" lon="9.677544694354559"><ele>499.0</ele><time>2026-04-07T14:36:38Z</time></trkpt><trkpt lat="45.745057649435594" lon="9.677558358377999"><ele>499.00000000000006</ele><time>2026-04-07T14:36:46Z</time></trkpt><trkpt lat="45.74512354971906" lon="9.677595233955776"><ele>499.00000000000006</ele><time>2026-04-07T14:37:16Z</time></trkpt><trkpt lat="45.7450966833548" lon="9.677713661538784"><ele>499.0</ele><time>2026-04-07T14:38:51Z</time></trkpt><trkpt lat="45.74507417541944" lon="9.677821334025218"><ele>499.00000000000006</ele><time>2026-04-07T14:39:31Z</time></trkpt><trkpt lat="45.74501288797196" lon="9.677878218904503"><ele>499.00000000000006</ele><time>2026-04-07T14:39:56Z</time></trkpt><trkpt lat="45.74502471835625" lon="9.677980403232713"><ele>502.1428571428572</ele><time>2026-04-07T14:41:23Z</time></trkpt><trkpt lat="45.74495688602175" lon="9.678033638898631"><ele>505.28571428571433</ele><time>2026-04-07T14:42:18Z</time></trkpt><trkpt lat="45.744891843948416" lon="9.678061265528587"><ele>508.42857142857144</ele><time>2026-04-07T14:42:27Z</time></trkpt><trkpt lat="45.744917407524774" lon="9.678143911648323"><ele>511.5714285714286</ele><time>2026-04-07T14:43:31Z</time></trkpt><trkpt lat="45.744877908570295" lon="9.678259105693495"><ele>514.7142857142858</ele><time>2026-04-07T14:44:10Z</time></trkpt><trkpt lat="45.74483376798621" lon="9.67832493479837"><ele>517.8571428571429</ele><time>2026-04-07T14:44:29Z</time></trkpt><trkpt lat="45.74476732750632" lon="9.678319541572403"><ele>521.0</ele><time>2026-04-07T14:44:40Z</time></trkpt><trkpt lat="45.74470170670552" lon="9.678344931699069"><ele>521.0</ele><time>2026-04-07T14:45:29.999Z</time></trkpt><trkpt lat="45.74463811305857" lon="9.678262405255722"><ele>521.0</ele><time>2026-04-07T14:46:08Z</time></trkpt><trkpt lat="45.74457160911654" lon="9.678243000902077"><ele>521.0</ele><time>2026-04-07T14:46:11Z</time></trkpt><trkpt lat="45.744494025481494" lon="9.678250198898965"><ele>521.0</ele><time>2026-04-07T14:46:14Z</time></trkpt><trkpt lat="45.744431433876684" lon="9.6782650544182"><ele>521.0</ele><time>2026-04-07T14:46:17Z</time></trkpt><trkpt lat="45.744356509452636" lon="9.67822821258381"><ele>521.0</ele><time>2026-04-07T14:46:21Z</time></trkpt><trkpt lat="45.74427897940287" lon="9.678261457312868"><ele>523.1428571428571</ele><time>2026-04-07T14:46:24Z</time></trkpt><trkpt lat="45.74422420976259" lon="9.678211604610334"><ele>525.2857142857143</ele><time>2026-04-07T14:46:41Z</time></trkpt><trkpt lat="45.744216612243285" lon="9.67808774928996"><ele>527.4285714285714</ele><time>2026-04-07T14:47:26.999Z</time></trkpt><trkpt lat="45.744227008217635" lon="9.677988054691717"><ele>529.5714285714286</ele><time>2026-04-07T14:47:29.999Z</time></trkpt><trkpt lat="45.744248550337026" lon="9.677898007638412"><ele>531.7142857142857</ele><time>2026-04-07T14:47:35.999Z</time></trkpt><trkpt lat="45.74429787302597" lon="9.677821986633361"><ele>533.8571428571429</ele><time>2026-04-07T14:47:39.999Z</time></trkpt><trkpt lat="45.74432875692185" lon="9.677724003335165"><ele>536.0</ele><time>2026-04-07T14:47:43Z</time></trkpt><trkpt lat="45.74433402698212" lon="9.677619623868413"><ele>536.0</ele><time>2026-04-07T14:47:47Z</time></trkpt><trkpt lat="45.74436520633916" lon="9.677509986833142"><ele>536.0</ele><time>2026-04-07T14:47:51Z</time></trkpt><trkpt lat="45.74434918040939" lon="9.677380667663588"><ele>536.0</ele><time>2026-04-07T14:47:54Z</time></trkpt><trkpt lat="45.744308446394356" lon="9.677268026669529"><ele>536.0</ele><time>2026-04-07T14:47:57Z</time></trkpt><trkpt lat="45.744288330393495" lon="9.677173232644936"><ele>536.0</ele><time>2026-04-07T14:48:01Z</time></trkpt><trkpt lat="45.74428730404374" lon="9.677051632919357"><ele>536.0</ele><time>2026-04-07T14:48:05Z</time></trkpt><trkpt lat="45.74427019346398" lon="9.676955231239083"><ele>534.5714285714286</ele><time>2026-04-07T14:48:08Z</time></trkpt><trkpt lat="45.744207076231994" lon="9.676892695483977"><ele>533.1428571428571</ele><time>2026-04-07T14:48:12Z</time></trkpt><trkpt lat="45.74414647913955" lon="9.676835099012216"><ele>531.7142857142857</ele><time>2026-04-07T14:48:16Z</time></trkpt><trkpt lat="45.74409586529281" lon="9.676747697693578"><ele>530.2857142857142</ele><time>2026-04-07T14:48:19Z</time></trkpt><trkpt lat="45.74408087416316" lon="9.676653750759623"><ele>528.8571428571428</ele><time>2026-04-07T14:48:22Z</time></trkpt><trkpt lat="45.74407347846786" lon="9.676557531454387"><ele>527.4285714285714</ele><time>2026-04-07T14:48:25Z</time></trkpt><trkpt lat="45.74405343326992" lon="9.67646486539812"><ele>526.0</ele><time>2026-04-07T14:49:00Z</time></trkpt><trkpt lat="45.744055651922416" lon="9.676363002439517"><ele>526.0</ele><time>2026-04-07T14:49:47Z</time></trkpt><trkpt lat="45.74403837984466" lon="9.6762562200533"><ele>526.0</ele><time>2026-04-07T14:49:51Z</time></trkpt><trkpt lat="45.74410250135272" lon="9.676230839129381"><ele>526.0</ele><time>2026-04-07T14:50:34Z</time></trkpt><trkpt lat="45.74411789925067" lon="9.676123215961882"><ele>526.0</ele><time>2026-04-07T14:50:38Z</time></trkpt><trkpt lat="45.744120343686696" lon="9.676007553050667"><ele>526.0</ele><time>2026-04-07T14:50:40Z</time></trkpt><trkpt lat="45.744155630239085" lon="9.675866236242811"><ele>526.0</ele><time>2026-04-07T14:50:43Z</time></trkpt><trkpt lat="45.74416240719507" lon="9.675747786551998"><ele>525.1666666666667</ele><time>2026-04-07T14:50:46Z</time></trkpt><trkpt lat="45.744133684118665" lon="9.675620673626366"><ele>524.3333333333334</ele><time>2026-04-07T14:50:49Z</time></trkpt><trkpt lat="45.74410385779932" lon="9.675537148815508"><ele>523.5</ele><time>2026-04-07T14:50:51Z</time></trkpt><trkpt lat="45.74406647752204" lon="9.675404687511637"><ele>522.6666666666666</ele><time>2026-04-07T14:50:55Z</time></trkpt><trkpt lat="45.74404246869441" lon="9.675292099629004"><ele>521.8333333333333</ele><time>2026-04-07T14:50:58Z</time></trkpt><trkpt lat="45.7440464346554" lon="9.67517387537931"><ele>521.0</ele><time>2026-04-07T14:51:01Z</time></trkpt><trkpt lat="45.74403322388616" lon="9.675082408560103"><ele>520.1666666666666</ele><time>2026-04-07T14:51:03Z</time></trkpt><trkpt lat="45.744014663422504" lon="9.674956691739808"><ele>519.3333333333333</ele><time>2026-04-07T14:51:06Z</time></trkpt><trkpt lat="45.74399252939228" lon="9.67486647668139"><ele>518.5</ele><time>2026-04-07T14:51:08Z</time></trkpt><trkpt lat="45.743938595178705" lon="9.674768020872447"><ele>517.6666666666666</ele><time>2026-04-07T14:51:11Z</time></trkpt><trkpt lat="45.743903438374275" lon="9.67467313024059"><ele>516.8333333333334</ele><time>2026-04-07T14:51:14Z</time></trkpt><trkpt lat="45.74387429425349" lon="9.674590277911266"><ele>516.0</ele><time>2026-04-07T14:51:17Z</time></trkpt><trkpt lat="45.74382887587347" lon="9.674505751398488"><ele>516.5</ele><time>2026-04-07T14:51:20Z</time></trkpt><trkpt lat="45.743816797222905" lon="9.674394465078407"><ele>517.0</ele><time>2026-04-07T14:51:23Z</time></trkpt><trkpt lat="45.74382736977482" lon="9.67427873218328"><ele>517.5</ele><time>2026-04-07T14:51:26Z</time></trkpt><trkpt lat="45.74384640265163" lon="9.674163840455059"><ele>518.0</ele><time>2026-04-07T14:51:29Z</time></trkpt><trkpt lat="45.743862525903744" lon="9.674045394574001"><ele>518.5</ele><time>2026-04-07T14:51:32Z</time></trkpt><trkpt lat="45.74388439807944" lon="9.673944892314895"><ele>519.0</ele><time>2026-04-07T14:51:35Z</time></trkpt><trkpt lat="45.74391220280995" lon="9.673844379862654"><ele>519.0</ele><time>2026-04-07T14:51:38Z</time></trkpt><trkpt lat="45.74397834921563" lon="9.673762726158733"><ele>519.0</ele><time>2026-04-07T14:51:41Z</time></trkpt><trkpt lat="45.744019314691" lon="9.673678307224435"><ele>519.0</ele><time>2026-04-07T14:51:44Z</time></trkpt><trkpt lat="45.744081542918735" lon="9.673588037488956"><ele>519.0</ele><time>2026-04-07T14:51:47Z</time></trkpt><trkpt lat="45.74413927944258" lon="9.673498224427924"><ele>519.0</ele><time>2026-04-07T14:51:51Z</time></trkpt><trkpt lat="45.744199283315304" lon="9.673404044688898"><ele>519.0</ele><time>2026-04-07T14:51:56Z</time></trkpt><trkpt lat="45.74423843456029" lon="9.67332362563395"><ele>520.0</ele><time>2026-04-07T14:51:58Z</time></trkpt><trkpt lat="45.74430886162534" lon="9.67321289883465"><ele>521.0</ele><time>2026-04-07T14:52:00Z</time></trkpt><trkpt lat="45.74435810114669" lon="9.673093213791907"><ele>522.0</ele><time>2026-04-07T14:52:02Z</time></trkpt><trkpt lat="45.74438816670978" lon="9.672994470902601"><ele>523.0</ele><time>2026-04-07T14:52:04Z</time></trkpt><trkpt lat="45.74442056099087" lon="9.67291395516633"><ele>524.0</ele><time>2026-04-07T14:52:06Z</time></trkpt><trkpt lat="45.74446264353634" lon="9.672827675139178"><ele>525.0</ele><time>2026-04-07T14:52:08Z</time></trkpt><trkpt lat="45.74450119189923" lon="9.672709496251203"><ele>521.5</ele><time>2026-04-07T14:52:10Z</time></trkpt><trkpt lat="45.7445511986798" lon="9.672577023353483"><ele>518.0</ele><time>2026-04-07T14:52:12Z</time></trkpt><trkpt lat="45.74458603754115" lon="9.672455793723458"><ele>514.5</ele><time>2026-04-07T14:52:14Z</time></trkpt><trkpt lat="45.744586298298785" lon="9.672329377351256"><ele>511.0</ele><time>2026-04-07T14:52:16Z</time></trkpt><trkpt lat="45.74455974241036" lon="9.672205124440094"><ele>507.5</ele><time>2026-04-07T14:52:18Z</time></trkpt><trkpt lat="45.744533124860055" lon="9.672107408078569"><ele>504.0</ele><time>2026-04-07T14:52:20Z</time></trkpt><trkpt lat="45.744480222192756" lon="9.672040527697666"><ele>504.0</ele><time>2026-04-07T14:52:22Z</time></trkpt><trkpt lat="45.7443959118391" lon="9.67197469018335"><ele>504.0</ele><time>2026-04-07T14:52:24Z</time></trkpt><trkpt lat="45.744328661508476" lon="9.671941329897919"><ele>504.0</ele><time>2026-04-07T14:52:25Z</time></trkpt><trkpt lat="45.74426511887769" lon="9.67189454007121"><ele>504.0</ele><time>2026-04-07T14:52:26Z</time></trkpt><trkpt lat="45.7442116519032" lon="9.67183935475453"><ele>504.0</ele><time>2026-04-07T14:52:27Z</time></trkpt><trkpt lat="45.7441248017107" lon="9.671760711870375"><ele>504.0</ele><time>2026-04-07T14:52:29Z</time></trkpt><trkpt lat="45.744042142735054" lon="9.671728680758129"><ele>504.4</ele><time>2026-04-07T14:52:31Z</time></trkpt><trkpt lat="45.743972822023096" lon="9.67170360366722"><ele>504.79999999999995</ele><time>2026-04-07T14:52:33Z</time></trkpt><trkpt lat="45.74400948326392" lon="9.671612585884304"><ele>505.20000000000005</ele><time>2026-04-07T14:52:36Z</time></trkpt><trkpt lat="45.74411326409327" lon="9.671616557156725"><ele>505.6</ele><time>2026-04-07T14:52:38Z</time></trkpt><trkpt lat="45.74421003624318" lon="9.67166367545302"><ele>506.0</ele><time>2026-04-07T14:52:40Z</time></trkpt><trkpt lat="45.74430976848007" lon="9.671647992595275"><ele>503.20000000000005</ele><time>2026-04-07T14:52:42Z</time></trkpt><trkpt lat="45.744420669952504" lon="9.671621440750013"><ele>500.40000000000003</ele><time>2026-04-07T14:52:44Z</time></trkpt><trkpt lat="45.744520894085575" lon="9.671593560832955"><ele>497.6</ele><time>2026-04-07T14:52:46Z</time></trkpt><trkpt lat="45.744627023480135" lon="9.671564652167037"><ele>494.8</ele><time>2026-04-07T14:52:48Z</time></trkpt><trkpt lat="45.74473922237104" lon="9.671550830797072"><ele>492.0</ele><time>2026-04-07T14:52:50Z</time></trkpt><trkpt lat="45.74483450612783" lon="9.671596953527343"><ele>492.0</ele><time>2026-04-07T14:52:52Z</time></trkpt><trkpt lat="45.74489993304937" lon="9.671555049631245"><ele>492.00000000000006</ele><time>2026-04-07T14:52:55Z</time></trkpt><trkpt lat="45.74485058282281" lon="9.671445579082226"><ele>492.00000000000006</ele><time>2026-04-07T14:52:57Z</time></trkpt><trkpt lat="45.74474850407509" lon="9.671393769109086"><ele>492.0</ele><time>2026-04-07T14:52:59Z</time></trkpt><trkpt lat="45.74466622929562" lon="9.671314604194645"><ele>492.0</ele><time>2026-04-07T14:53:01Z</time></trkpt><trkpt lat="45.7445843485014" lon="9.671213296905517"><ele>491.6666666666667</ele><time>2026-04-07T14:53:03Z</time></trkpt><trkpt lat="45.7445128315414" lon="9.671092507778647"><ele>491.33333333333337</ele><time>2026-04-07T14:53:05Z</time></trkpt><trkpt lat="45.744472381660394" lon="9.671021182667525"><ele>491.0</ele><time>2026-04-07T14:53:06Z</time></trkpt><trkpt lat="45.74442169984007" lon="9.67091462297258"><ele>490.6666666666667</ele><time>2026-04-07T14:53:08Z</time></trkpt><trkpt lat="45.744397068886165" lon="9.67080569543487"><ele>490.33333333333337</ele><time>2026-04-07T14:53:10Z</time></trkpt><trkpt lat="45.74438262968454" lon="9.670667823658778"><ele>490.0</ele><time>2026-04-07T14:53:12Z</time></trkpt><trkpt lat="45.74435501526157" lon="9.670558271264365"><ele>490.00000000000006</ele><time>2026-04-07T14:53:14Z</time></trkpt><trkpt lat="45.744306574236894" lon="9.670437877796832"><ele>490.0</ele><time>2026-04-07T14:53:16Z</time></trkpt><trkpt lat="45.744244976174805" lon="9.67032494382816"><ele>490.0</ele><time>2026-04-07T14:53:18Z</time></trkpt><trkpt lat="45.7441815009767" lon="9.670207213317045"><ele>490.0</ele><time>2026-04-07T14:53:20Z</time></trkpt><trkpt lat="45.74413307380069" lon="9.670108838677308"><ele>490.00000000000006</ele><time>2026-04-07T14:53:22Z</time></trkpt><trkpt lat="45.744099345330106" lon="9.670030436919296"><ele>490.0</ele><time>2026-04-07T14:53:24Z</time></trkpt><trkpt lat="45.74406617549435" lon="9.669923993612766"><ele>486.83333333333337</ele><time>2026-04-07T14:53:27Z</time></trkpt><trkpt lat="45.744057949035124" lon="9.669813253701793"><ele>483.6666666666667</ele><time>2026-04-07T14:53:29Z</time></trkpt><trkpt lat="45.74405690885317" lon="9.669697681656697"><ele>480.5</ele><time>2026-04-07T14:53:32Z</time></trkpt><trkpt lat="45.743983065337126" lon="9.669650503934355"><ele>477.33333333333337</ele><time>2026-04-07T14:53:34Z</time></trkpt><trkpt lat="45.743903338938715" lon="9.669596778985293"><ele>474.1666666666667</ele><time>2026-04-07T14:53:36Z</time></trkpt><trkpt lat="45.74380818578924" lon="9.669517540603508"><ele>471.0</ele><time>2026-04-07T14:53:38Z</time></trkpt><trkpt lat="45.74375126932466" lon="9.66947546823812"><ele>469.8</ele><time>2026-04-07T14:53:39Z</time></trkpt><trkpt lat="45.74369162369237" lon="9.6694388226208"><ele>468.6</ele><time>2026-04-07T14:53:40Z</time></trkpt><trkpt lat="45.74358106573611" lon="9.669398706578754"><ele>467.4</ele><time>2026-04-07T14:53:42Z</time></trkpt><trkpt lat="45.74348141295947" lon="9.669427776257585"><ele>466.2</ele><time>2026-04-07T14:53:44Z</time></trkpt><trkpt lat="45.74336112778901" lon="9.66946214413871"><ele>465.0</ele><time>2026-04-07T14:53:45.999Z</time></trkpt><trkpt lat="45.74329734087951" lon="9.669500884580295"><ele>465.0</ele><time>2026-04-07T14:53:46.999Z</time></trkpt><trkpt lat="45.74322447282548" lon="9.669537859039375"><ele>465.0</ele><time>2026-04-07T14:53:47.999Z</time></trkpt><trkpt lat="45.74315418468388" lon="9.669567783040385"><ele>465.0</ele><time>2026-04-07T14:53:48.999Z</time></trkpt><trkpt lat="45.74302461559379" lon="9.669593686722692"><ele>465.0</ele><time>2026-04-07T14:53:50.999Z</time></trkpt><trkpt lat="45.742961210910494" lon="9.669610043898734"><ele>465.0</ele><time>2026-04-07T14:53:51.999Z</time></trkpt><trkpt lat="45.74289713464186" lon="9.669633884082456"><ele>465.0</ele><time>2026-04-07T14:53:52.999Z</time></trkpt><trkpt lat="45.74283675108828" lon="9.669670768135385"><ele>465.0</ele><time>2026-04-07T14:53:53.999Z</time></trkpt><trkpt lat="45.74273963869017" lon="9.669750243095809"><ele>465.0</ele><time>2026-04-07T14:53:55.999Z</time></trkpt><trkpt lat="45.742679375644556" lon="9.669806362535288"><ele>465.0</ele><time>2026-04-07T14:53:57.999Z</time></trkpt><trkpt lat="45.742613352950755" lon="9.66980779114323"><ele>465.0</ele><time>2026-04-07T14:54:00Z</time></trkpt><trkpt lat="45.742541890679945" lon="9.669748923560645"><ele>465.0</ele><time>2026-04-07T14:54:02Z</time></trkpt><trkpt lat="45.74247284792467" lon="9.66963007478845"><ele>465.0</ele><time>2026-04-07T14:54:04Z</time></trkpt><trkpt lat="45.742385422899346" lon="9.669535258286045"><ele>460.4</ele><time>2026-04-07T14:54:06Z</time></trkpt><trkpt lat="45.742286177570726" lon="9.669435259585248"><ele>455.8</ele><time>2026-04-07T14:54:08Z</time></trkpt><trkpt lat="45.742195430785735" lon="9.66932468580749"><ele>451.20000000000005</ele><time>2026-04-07T14:54:10Z</time></trkpt><trkpt lat="45.74210152443622" lon="9.669217497662126"><ele>446.6</ele><time>2026-04-07T14:54:12Z</time></trkpt><trkpt lat="45.742052062727865" lon="9.669154160664725"><ele>442.0</ele><time>2026-04-07T14:54:13Z</time></trkpt><trkpt lat="45.74198372167614" lon="9.66913743342429"><ele>442.00000000000006</ele><time>2026-04-07T14:54:14Z</time></trkpt><trkpt lat="45.74192222797514" lon="9.669093624180217"><ele>442.0</ele><time>2026-04-07T14:54:15Z</time></trkpt><trkpt lat="45.74186023273124" lon="9.669037425687357"><ele>442.0</ele><time>2026-04-07T14:54:16Z</time></trkpt><trkpt lat="45.74179780362878" lon="9.668976577451264"><ele>442.0</ele><time>2026-04-07T14:54:17Z</time></trkpt><trkpt lat="45.74174054664567" lon="9.668906909521379"><ele>442.0</ele><time>2026-04-07T14:54:18Z</time></trkpt><trkpt lat="45.74168411469617" lon="9.668846250134633"><ele>442.00000000000006</ele><time>2026-04-07T14:54:19Z</time></trkpt><trkpt lat="45.74162852281333" lon="9.668789881614343"><ele>442.0</ele><time>2026-04-07T14:54:20Z</time></trkpt><trkpt lat="45.7415379375006" lon="9.66868857072335"><ele>442.6666666666667</ele><time>2026-04-07T14:54:22Z</time></trkpt><trkpt lat="45.74145935463307" lon="9.668630553813928"><ele>443.33333333333337</ele><time>2026-04-07T14:54:24Z</time></trkpt><trkpt lat="45.74138849453853" lon="9.668583797515053"><ele>444.0</ele><time>2026-04-07T14:54:26Z</time></trkpt><trkpt lat="45.74131022517954" lon="9.668543452539517"><ele>444.66666666666663</ele><time>2026-04-07T14:54:28Z</time></trkpt><trkpt lat="45.74122709867752" lon="9.668501538835416"><ele>445.3333333333333</ele><time>2026-04-07T14:54:30Z</time></trkpt><trkpt lat="45.74115273574315" lon="9.668453661368602"><ele>446.0</ele><time>2026-04-07T14:54:32Z</time></trkpt><trkpt lat="45.74105911013186" lon="9.668415977005647"><ele>444.8333333333333</ele><time>2026-04-07T14:54:34Z</time></trkpt><trkpt lat="45.74093302685795" lon="9.668387095379309"><ele>443.66666666666663</ele><time>2026-04-07T14:54:36Z</time></trkpt><trkpt lat="45.74085961659329" lon="9.668372070363105"><ele>442.5</ele><time>2026-04-07T14:54:37Z</time></trkpt><trkpt lat="45.740780261887636" lon="9.66835982060726"><ele>441.33333333333337</ele><time>2026-04-07T14:54:38Z</time></trkpt><trkpt lat="45.74070450044537" lon="9.66835728515058"><ele>440.1666666666667</ele><time>2026-04-07T14:54:39Z</time></trkpt><trkpt lat="45.740639472417335" lon="9.668356910334866"><ele>439.0</ele><time>2026-04-07T14:54:40Z</time></trkpt><trkpt lat="45.740535894175096" lon="9.668363988911508"><ele>439.00000000000006</ele><time>2026-04-07T14:54:42Z</time></trkpt><trkpt lat="45.74042470458271" lon="9.668310219503335"><ele>439.0</ele><time>2026-04-07T14:54:44Z</time></trkpt><trkpt lat="45.74036201396517" lon="9.668276761695203"><ele>439.0</ele><time>2026-04-07T14:54:45Z</time></trkpt><trkpt lat="45.74029823236176" lon="9.668246659166531"><ele>439.0</ele><time>2026-04-07T14:54:46Z</time></trkpt><trkpt lat="45.740233512532726" lon="9.66820359783255"><ele>439.00000000000006</ele><time>2026-04-07T14:54:47Z</time></trkpt><trkpt lat="45.74016727623302" lon="9.66815593976798"><ele>439.0</ele><time>2026-04-07T14:54:48Z</time></trkpt><trkpt lat="45.7401015225723" lon="9.668109675433037"><ele>438.1666666666667</ele><time>2026-04-07T14:54:49Z</time></trkpt><trkpt lat="45.74003873079727" lon="9.668068187484955"><ele>437.33333333333337</ele><time>2026-04-07T14:54:50Z</time></trkpt><trkpt lat="45.73994289141898" lon="9.668006259700684"><ele>436.5</ele><time>2026-04-07T14:54:52Z</time></trkpt><trkpt lat="45.73985941965405" lon="9.668033970628846"><ele>435.66666666666663</ele><time>2026-04-07T14:54:55Z</time></trkpt><trkpt lat="45.73984631909822" lon="9.668130371863066"><ele>434.8333333333333</ele><time>2026-04-07T14:54:57Z</time></trkpt><trkpt lat="45.7398548063913" lon="9.668236965516282"><ele>434.0</ele><time>2026-04-07T14:55:00Z</time></trkpt><trkpt lat="45.73986545984275" lon="9.66836665670266"><ele>433.99999999999994</ele><time>2026-04-07T14:55:03Z</time></trkpt><trkpt lat="45.739886356355086" lon="9.66845187938418"><ele>434.0</ele><time>2026-04-07T14:55:05Z</time></trkpt><trkpt lat="45.73989687663296" lon="9.668573972469686"><ele>434.0</ele><time>2026-04-07T14:55:08Z</time></trkpt><trkpt lat="45.739917375360164" lon="9.668692747664092"><ele>434.0</ele><time>2026-04-07T14:55:11Z</time></trkpt><trkpt lat="45.73996852706344" lon="9.668793463500679"><ele>433.99999999999994</ele><time>2026-04-07T14:55:14Z</time></trkpt><trkpt lat="45.740031145395314" lon="9.668874217987028"><ele>434.0</ele><time>2026-04-07T14:55:17Z</time></trkpt><trkpt lat="45.740085734038594" lon="9.668958642453703"><ele>435.66666666666663</ele><time>2026-04-07T14:55:20Z</time></trkpt><trkpt lat="45.740149550634214" lon="9.669027164122618"><ele>437.3333333333333</ele><time>2026-04-07T14:55:23Z</time></trkpt><trkpt lat="45.74021396169516" lon="9.66910377976142"><ele>439.0</ele><time>2026-04-07T14:55:26Z</time></trkpt><trkpt lat="45.740276856658255" lon="9.669185217253926"><ele>440.66666666666663</ele><time>2026-04-07T14:55:29Z</time></trkpt><trkpt lat="45.7403220649708" lon="9.669290390898187"><ele>442.3333333333333</ele><time>2026-04-07T14:55:32Z</time></trkpt><trkpt lat="45.740385019346974" lon="9.66936888671172"><ele>444.0</ele><time>2026-04-07T14:55:35Z</time></trkpt><trkpt lat="45.7404469113839" lon="9.669431816685131"><ele>447.1428571428571</ele><time>2026-04-07T14:55:38Z</time></trkpt><trkpt lat="45.740506355655825" lon="9.669495847813124"><ele>450.28571428571433</ele><time>2026-04-07T14:55:41Z</time></trkpt><trkpt lat="45.7405644675602" lon="9.669570303547816"><ele>453.42857142857144</ele><time>2026-04-07T14:55:44Z</time></trkpt><trkpt lat="45.740630721697315" lon="9.669627756315515"><ele>456.57142857142856</ele><time>2026-04-07T14:55:47Z</time></trkpt><trkpt lat="45.74069412396552" lon="9.669673476245572"><ele>459.71428571428567</ele><time>2026-04-07T14:55:50Z</time></trkpt><trkpt lat="45.74075768889536" lon="9.669719064778546"><ele>462.8571428571429</ele><time>2026-04-07T14:55:52.999Z</time></trkpt><trkpt lat="45.74081195900326" lon="9.669793089345482"><ele>466.0</ele><time>2026-04-07T14:55:55.999Z</time></trkpt><trkpt lat="45.740859029291414" lon="9.669862636164732"><ele>466.0</ele><time>2026-04-07T14:55:58.999Z</time></trkpt><trkpt lat="45.740917685081065" lon="9.669920985241609"><ele>466.0</ele><time>2026-04-07T14:56:01.999Z</time></trkpt><trkpt lat="45.74096291401598" lon="9.670006768891813"><ele>466.0</ele><time>2026-04-07T14:56:05Z</time></trkpt><trkpt lat="45.741000106943794" lon="9.670088832843339"><ele>466.0</ele><time>2026-04-07T14:56:08Z</time></trkpt><trkpt lat="45.74105697151282" lon="9.670132619146136"><ele>466.0</ele><time>2026-04-07T14:56:11Z</time></trkpt><trkpt lat="45.74113115660626" lon="9.670188769868012"><ele>466.0</ele><time>2026-04-07T14:56:15Z</time></trkpt><trkpt lat="45.7411991787682" lon="9.670223462458017"><ele>466.0</ele><time>2026-04-07T14:56:18Z</time></trkpt><trkpt lat="45.741264867257094" lon="9.670269420906484"><ele>469.0</ele><time>2026-04-07T14:56:21Z</time></trkpt><trkpt lat="45.74132017590658" lon="9.670340568824217"><ele>472.0</ele><time>2026-04-07T14:56:24Z</time></trkpt><trkpt lat="45.74137065681786" lon="9.670424438783353"><ele>475.0</ele><time>2026-04-07T14:56:27Z</time></trkpt><trkpt lat="45.74140925214662" lon="9.670502359726253"><ele>478.0</ele><time>2026-04-07T14:56:30Z</time></trkpt><trkpt lat="45.74143447857306" lon="9.670595453799516"><ele>481.0</ele><time>2026-04-07T14:56:33Z</time></trkpt><trkpt lat="45.74146565048454" lon="9.670691620564439"><ele>484.0</ele><time>2026-04-07T14:56:36Z</time></trkpt><trkpt lat="45.74148248304593" lon="9.670782681197238"><ele>487.0</ele><time>2026-04-07T14:56:39Z</time></trkpt><trkpt lat="45.74148190498406" lon="9.670880719764156"><ele>487.0</ele><time>2026-04-07T14:56:42Z</time></trkpt><trkpt lat="45.74148611381997" lon="9.67097982162378"><ele>487.0</ele><time>2026-04-07T14:56:45Z</time></trkpt><trkpt lat="45.74149566228368" lon="9.671085038620312"><ele>487.0</ele><time>2026-04-07T14:56:49Z</time></trkpt><trkpt lat="45.74150224899814" lon="9.67119561593868"><ele>487.0</ele><time>2026-04-07T14:56:52Z</time></trkpt><trkpt lat="45.7415099230547" lon="9.671302593855328"><ele>487.0</ele><time>2026-04-07T14:56:55Z</time></trkpt><trkpt lat="45.741528584462486" lon="9.671403223300834"><ele>487.0</ele><time>2026-04-07T14:56:58Z</time></trkpt><trkpt lat="45.7415603754854" lon="9.671493722410052"><ele>487.0</ele><time>2026-04-07T14:57:01Z</time></trkpt><trkpt lat="45.74159867411612" lon="9.671583361174005"><ele>489.42857142857144</ele><time>2026-04-07T14:57:04Z</time></trkpt><trkpt lat="45.74162806011934" lon="9.67168397467598"><ele>491.85714285714283</ele><time>2026-04-07T14:57:07Z</time></trkpt><trkpt lat="45.74163988310419" lon="9.671783186195869"><ele>494.2857142857143</ele><time>2026-04-07T14:57:10Z</time></trkpt><trkpt lat="45.741673242553375" lon="9.671867094523735"><ele>496.7142857142857</ele><time>2026-04-07T14:57:13Z</time></trkpt><trkpt lat="45.741697943762794" lon="9.671958988831381"><ele>499.1428571428571</ele><time>2026-04-07T14:57:16Z</time></trkpt><trkpt lat="45.741735810960115" lon="9.672037332709172"><ele>501.57142857142856</ele><time>2026-04-07T14:57:19Z</time></trkpt><trkpt lat="45.74171648668625" lon="9.672143469917645"><ele>504.0</ele><time>2026-04-07T14:57:23Z</time></trkpt><trkpt lat="45.74168145106148" lon="9.672220336440974"><ele>506.42857142857144</ele><time>2026-04-07T14:57:26Z</time></trkpt><trkpt lat="45.74160793888417" lon="9.672241468867423"><ele>508.8571428571429</ele><time>2026-04-07T14:57:29Z</time></trkpt><trkpt lat="45.74154441272223" lon="9.672291291851675"><ele>511.2857142857143</ele><time>2026-04-07T14:57:32Z</time></trkpt><trkpt lat="45.7414866858784" lon="9.672351197782286"><ele>513.7142857142858</ele><time>2026-04-07T14:57:35Z</time></trkpt><trkpt lat="45.74143339087298" lon="9.672406421210635"><ele>516.1428571428571</ele><time>2026-04-07T14:57:38Z</time></trkpt><trkpt lat="45.74138275059336" lon="9.672483501754655"><ele>518.5714285714286</ele><time>2026-04-07T14:57:41Z</time></trkpt><trkpt lat="45.74134019988376" lon="9.67256377164342"><ele>521.0</ele><time>2026-04-07T14:57:44Z</time></trkpt><trkpt lat="45.741281422298925" lon="9.672663182413382"><ele>521.0</ele><time>2026-04-07T14:57:47Z</time></trkpt><trkpt lat="45.74123556209588" lon="9.672732387263174"><ele>521.0</ele><time>2026-04-07T14:57:49Z</time></trkpt><trkpt lat="45.741177551500314" lon="9.672796280351475"><ele>521.0</ele><time>2026-04-07T14:57:51Z</time></trkpt><trkpt lat="45.74111720153197" lon="9.672855914075148"><ele>521.0</ele><time>2026-04-07T14:57:53Z</time></trkpt><trkpt lat="45.74105984967172" lon="9.672912112412849"><ele>521.0</ele><time>2026-04-07T14:57:55Z</time></trkpt><trkpt lat="45.74101171956217" lon="9.672986441705856"><ele>521.0</ele><time>2026-04-07T14:57:57Z</time></trkpt><trkpt lat="45.74095908468682" lon="9.673055659203287"><ele>521.0</ele><time>2026-04-07T14:57:59Z</time></trkpt><trkpt lat="45.74091184408909" lon="9.673130081359075"><ele>522.5714285714286</ele><time>2026-04-07T14:58:01Z</time></trkpt><trkpt lat="45.740864966094065" lon="9.67319714822969"><ele>524.1428571428571</ele><time>2026-04-07T14:58:03Z</time></trkpt><trkpt lat="45.74081200234137" lon="9.673260927978898"><ele>525.7142857142858</ele><time>2026-04-07T14:58:05Z</time></trkpt><trkpt lat="45.74075459137603" lon="9.673315349539314"><ele>527.2857142857142</ele><time>2026-04-07T14:58:07Z</time></trkpt><trkpt lat="45.74069642992087" lon="9.673377617775612"><ele>528.8571428571429</ele><time>2026-04-07T14:58:09Z</time></trkpt><trkpt lat="45.74062824293875" lon="9.673468924388116"><ele>530.4285714285714</ele><time>2026-04-07T14:58:12Z</time></trkpt><trkpt lat="45.740577051926074" lon="9.673526052294237"><ele>532.0</ele><time>2026-04-07T14:58:14Z</time></trkpt><trkpt lat="45.7405184880238" lon="9.673618646294742"><ele>534.1428571428571</ele><time>2026-04-07T14:58:17Z</time></trkpt><trkpt lat="45.74044965765863" lon="9.673706296114144"><ele>536.2857142857142</ele><time>2026-04-07T14:58:20Z</time></trkpt><trkpt lat="45.74040211245447" lon="9.673769673186275"><ele>538.4285714285714</ele><time>2026-04-07T14:58:22Z</time></trkpt><trkpt lat="45.74036126348146" lon="9.673846244752871"><ele>540.5714285714286</ele><time>2026-04-07T14:58:24Z</time></trkpt><trkpt lat="45.74033763330206" lon="9.673935115846206"><ele>542.7142857142857</ele><time>2026-04-07T14:58:26Z</time></trkpt><trkpt lat="45.740335810044535" lon="9.674027796652222"><ele>544.8571428571429</ele><time>2026-04-07T14:58:28Z</time></trkpt><trkpt lat="45.74034800507468" lon="9.67412410246119"><ele>547.0</ele><time>2026-04-07T14:58:30Z</time></trkpt><trkpt lat="45.74036931391656" lon="9.674219589084993"><ele>547.0</ele><time>2026-04-07T14:58:32Z</time></trkpt><trkpt lat="45.74037169505276" lon="9.674313407573337"><ele>547.0</ele><time>2026-04-07T14:58:34Z</time></trkpt><trkpt lat="45.740384977679206" lon="9.674407384700137"><ele>547.0</ele><time>2026-04-07T14:58:36Z</time></trkpt><trkpt lat="45.74040550731718" lon="9.674501680585626"><ele>547.0</ele><time>2026-04-07T14:58:38Z</time></trkpt><trkpt lat="45.74043024850622" lon="9.674621974375842"><ele>547.0</ele><time>2026-04-07T14:58:41Z</time></trkpt><trkpt lat="45.740447895509604" lon="9.67471195132388"><ele>547.0</ele><time>2026-04-07T14:58:43Z</time></trkpt><trkpt lat="45.74046371337177" lon="9.67480054658026"><ele>547.0</ele><time>2026-04-07T14:58:45Z</time></trkpt><trkpt lat="45.740480526970785" lon="9.674904382662374"><ele>547.4285714285714</ele><time>2026-04-07T14:58:47Z</time></trkpt><trkpt lat="45.740483762225715" lon="9.674999994776183"><ele>547.8571428571428</ele><time>2026-04-07T14:58:49Z</time></trkpt><trkpt lat="45.74049444986949" lon="9.675111333113934"><ele>548.2857142857142</ele><time>2026-04-07T14:58:51Z</time></trkpt><trkpt lat="45.74051990239684" lon="9.675202890368862"><ele>548.7142857142857</ele><time>2026-04-07T14:58:53Z</time></trkpt><trkpt lat="45.740546334232505" lon="9.675296214366487"><ele>549.1428571428571</ele><time>2026-04-07T14:58:55Z</time></trkpt><trkpt lat="45.7405732188122" lon="9.675388418726744"><ele>549.5714285714286</ele><time>2026-04-07T14:58:57Z</time></trkpt><trkpt lat="45.740604660279885" lon="9.675478976546183"><ele>550.0</ele><time>2026-04-07T14:58:59Z</time></trkpt><trkpt lat="45.7406336898605" lon="9.675567101213947"><ele>550.0</ele><time>2026-04-07T14:59:01Z</time></trkpt><trkpt lat="45.740674697710155" lon="9.67565035560202"><ele>550.0</ele><time>2026-04-07T14:59:03Z</time></trkpt><trkpt lat="45.740695035636406" lon="9.675743605539814"><ele>550.0</ele><time>2026-04-07T14:59:05Z</time></trkpt><trkpt lat="45.740714235073995" lon="9.675836309518608"><ele>550.0</ele><time>2026-04-07T14:59:07Z</time></trkpt><trkpt lat="45.74074564211607" lon="9.675925983844197"><ele>550.0</ele><time>2026-04-07T14:59:09Z</time></trkpt><trkpt lat="45.74078037321556" lon="9.676014109657718"><ele>550.0</ele><time>2026-04-07T14:59:11Z</time></trkpt><trkpt lat="45.74081629804721" lon="9.676139759038305"><ele>550.0</ele><time>2026-04-07T14:59:14Z</time></trkpt><trkpt lat="45.74085840668623" lon="9.676243710069434"><ele>550.6666666666667</ele><time>2026-04-07T14:59:17Z</time></trkpt><trkpt lat="45.74089803295762" lon="9.676314484619002"><ele>551.3333333333334</ele><time>2026-04-07T14:59:19Z</time></trkpt><trkpt lat="45.740958577818645" lon="9.676403729119333"><ele>552.0</ele><time>2026-04-07T14:59:22Z</time></trkpt><trkpt lat="45.74102215056262" lon="9.676498245591835"><ele>552.6666666666666</ele><time>2026-04-07T14:59:25Z</time></trkpt><trkpt lat="45.74107373551943" lon="9.676606068048018"><ele>553.3333333333333</ele><time>2026-04-07T14:59:28Z</time></trkpt><trkpt lat="45.741117815605705" lon="9.6767123796709"><ele>554.0</ele><time>2026-04-07T14:59:31Z</time></trkpt><trkpt lat="45.741167508144194" lon="9.676811617910705"><ele>556.0</ele><time>2026-04-07T14:59:34Z</time></trkpt><trkpt lat="45.741206273832" lon="9.676918966777786"><ele>558.0</ele><time>2026-04-07T14:59:37Z</time></trkpt><trkpt lat="45.741270355010634" lon="9.677018768396845"><ele>560.0</ele><time>2026-04-07T14:59:40Z</time></trkpt><trkpt lat="45.74132112773762" lon="9.67711256470397"><ele>562.0</ele><time>2026-04-07T14:59:43Z</time></trkpt><trkpt lat="45.74135376085711" lon="9.67720884127438"><ele>564.0</ele><time>2026-04-07T14:59:46Z</time></trkpt><trkpt lat="45.74136235384905" lon="9.67730408715062"><ele>566.0</ele><time>2026-04-07T14:59:48Z</time></trkpt><trkpt lat="45.741351016277314" lon="9.67740602505778"><ele>567.6666666666666</ele><time>2026-04-07T14:59:50Z</time></trkpt><trkpt lat="45.74134021742521" lon="9.67750566606598"><ele>569.3333333333333</ele><time>2026-04-07T14:59:52Z</time></trkpt><trkpt lat="45.74132172866326" lon="9.6775943430448"><ele>571.0</ele><time>2026-04-07T14:59:54Z</time></trkpt><trkpt lat="45.74131939761729" lon="9.677732717836143"><ele>572.6666666666666</ele><time>2026-04-07T14:59:57Z</time></trkpt><trkpt lat="45.7413217313078" lon="9.677830043330621"><ele>574.3333333333334</ele><time>2026-04-07T14:59:59Z</time></trkpt><trkpt lat="45.74132512191515" lon="9.677960382620386"><ele>576.0</ele><time>2026-04-07T15:00:02Z</time></trkpt><trkpt lat="45.74135564755003" lon="9.678060181916791"><ele>577.1666666666666</ele><time>2026-04-07T15:00:04Z</time></trkpt><trkpt lat="45.741387446762985" lon="9.678147305120238"><ele>578.3333333333334</ele><time>2026-04-07T15:00:06Z</time></trkpt><trkpt lat="45.74140449744394" lon="9.678286261192035"><ele>579.5</ele><time>2026-04-07T15:00:08Z</time></trkpt><trkpt lat="45.74133941911374" lon="9.678413105138254"><ele>580.6666666666667</ele><time>2026-04-07T15:00:10Z</time></trkpt><trkpt lat="45.741301577383425" lon="9.678503311148459"><ele>581.8333333333334</ele><time>2026-04-07T15:00:12Z</time></trkpt><trkpt lat="45.74123239471994" lon="9.678572466889522"><ele>583.0</ele><time>2026-04-07T15:00:14Z</time></trkpt><trkpt lat="45.741198230937556" lon="9.67866387535916"><ele>584.5</ele><time>2026-04-07T15:00:15.999Z</time></trkpt><trkpt lat="45.74115578903241" lon="9.678758686336705"><ele>586.0</ele><time>2026-04-07T15:00:18Z</time></trkpt><trkpt lat="45.74109990776802" lon="9.67889482660962"><ele>587.5</ele><time>2026-04-07T15:00:20Z</time></trkpt><trkpt lat="45.74104953229456" lon="9.679032341341427"><ele>589.0</ele><time>2026-04-07T15:00:22Z</time></trkpt><trkpt lat="45.74102650197371" lon="9.679128482970293"><ele>590.5</ele><time>2026-04-07T15:00:23Z</time></trkpt><trkpt lat="45.741008873668044" lon="9.67921570632394"><ele>592.0</ele><time>2026-04-07T15:00:24Z</time></trkpt><trkpt lat="45.74098722779159" lon="9.679304523239896"><ele>590.3333333333334</ele><time>2026-04-07T15:00:25Z</time></trkpt><trkpt lat="45.74095266493194" lon="9.679381024150912"><ele>588.6666666666667</ele><time>2026-04-07T15:00:26Z</time></trkpt><trkpt lat="45.74091743057329" lon="9.679456115137917"><ele>587.0</ele><time>2026-04-07T15:00:27Z</time></trkpt><trkpt lat="45.740842573456895" lon="9.679576241184186"><ele>585.3333333333334</ele><time>2026-04-07T15:00:29Z</time></trkpt><trkpt lat="45.74079597116476" lon="9.679682273128554"><ele>583.6666666666666</ele><time>2026-04-07T15:00:31Z</time></trkpt><trkpt lat="45.74075074263508" lon="9.679775924215486"><ele>582.0</ele><time>2026-04-07T15:00:33Z</time></trkpt><trkpt lat="45.74071597294522" lon="9.679869355024953"><ele>582.0</ele><time>2026-04-07T15:00:35Z</time></trkpt><trkpt lat="45.74067236663651" lon="9.679967718376377"><ele>582.0</ele><time>2026-04-07T15:00:37Z</time></trkpt><trkpt lat="45.74061203511457" lon="9.680065613944375"><ele>582.0</ele><time>2026-04-07T15:00:39Z</time></trkpt><trkpt lat="45.74054683141224" lon="9.68017708183931"><ele>582.0</ele><time>2026-04-07T15:00:41Z</time></trkpt><trkpt lat="45.74047560937805" lon="9.68030311773752"><ele>582.0</ele><time>2026-04-07T15:00:43Z</time></trkpt><trkpt lat="45.74043394520557" lon="9.680381800986465"><ele>584.4</ele><time>2026-04-07T15:00:44Z</time></trkpt><trkpt lat="45.7403530975175" lon="9.68051108132204"><ele>586.8000000000001</ele><time>2026-04-07T15:00:46Z</time></trkpt><trkpt lat="45.74026963312289" lon="9.680615106515585"><ele>589.2</ele><time>2026-04-07T15:00:48Z</time></trkpt><trkpt lat="45.740184104192586" lon="9.680712960582868"><ele>591.6</ele><time>2026-04-07T15:00:50Z</time></trkpt><trkpt lat="45.74010787590831" lon="9.680789999205166"><ele>594.0</ele><time>2026-04-07T15:00:52Z</time></trkpt><trkpt lat="45.74003457727897" lon="9.680883153341917"><ele>592.5</ele><time>2026-04-07T15:00:54Z</time></trkpt><trkpt lat="45.73994496667955" lon="9.681009483833012"><ele>591.0</ele><time>2026-04-07T15:00:56Z</time></trkpt><trkpt lat="45.739901482864354" lon="9.681082736411652"><ele>589.5</ele><time>2026-04-07T15:00:57Z</time></trkpt><trkpt lat="45.739847092571765" lon="9.681157290386393"><ele>588.0</ele><time>2026-04-07T15:00:58Z</time></trkpt><trkpt lat="45.739797989758955" lon="9.68122276153291"><ele>586.5</ele><time>2026-04-07T15:00:59Z</time></trkpt><trkpt lat="45.73973775773081" lon="9.68127048298447"><ele>585.0</ele><time>2026-04-07T15:01:00Z</time></trkpt><trkpt lat="45.73964011311195" lon="9.681341275627576"><ele>585.0</ele><time>2026-04-07T15:01:02Z</time></trkpt><trkpt lat="45.7395535875432" lon="9.681434653808834"><ele>585.0</ele><time>2026-04-07T15:01:04Z</time></trkpt><trkpt lat="45.7394686927548" lon="9.681508601959223"><ele>585.0</ele><time>2026-04-07T15:01:06Z</time></trkpt><trkpt lat="45.73937210180875" lon="9.681551591468011"><ele>585.0</ele><time>2026-04-07T15:01:08Z</time></trkpt><trkpt lat="45.73930828348921" lon="9.681563631488991"><ele>585.0</ele><time>2026-04-07T15:01:10Z</time></trkpt><trkpt lat="45.739250544886886" lon="9.68165079248596"><ele>583.8333333333334</ele><time>2026-04-07T15:01:12Z</time></trkpt><trkpt lat="45.73917820618862" lon="9.681730277858856"><ele>582.6666666666666</ele><time>2026-04-07T15:01:14Z</time></trkpt><trkpt lat="45.73911250043116" lon="9.681781821957356"><ele>581.5</ele><time>2026-04-07T15:01:16Z</time></trkpt><trkpt lat="45.739057966836725" lon="9.68183822560723"><ele>580.3333333333333</ele><time>2026-04-07T15:01:18Z</time></trkpt><trkpt lat="45.738986035779995" lon="9.681929392947826"><ele>579.1666666666666</ele><time>2026-04-07T15:01:20Z</time></trkpt><trkpt lat="45.73894744090521" lon="9.682004019020177"><ele>578.0</ele><time>2026-04-07T15:01:21Z</time></trkpt><trkpt lat="45.73891104633375" lon="9.682079466314553"><ele>578.0</ele><time>2026-04-07T15:01:22Z</time></trkpt><trkpt lat="45.738859098036436" lon="9.682142326718958"><ele>578.0</ele><time>2026-04-07T15:01:23Z</time></trkpt><trkpt lat="45.738807910825095" lon="9.682209271629251"><ele>578.0</ele><time>2026-04-07T15:01:24Z</time></trkpt><trkpt lat="45.73870557663821" lon="9.682304418095843"><ele>578.0</ele><time>2026-04-07T15:01:26Z</time></trkpt><trkpt lat="45.73861533980171" lon="9.682394110226683"><ele>578.0</ele><time>2026-04-07T15:01:28Z</time></trkpt><trkpt lat="45.73851874893664" lon="9.682456008960099"><ele>574.8333333333333</ele><time>2026-04-07T15:01:30Z</time></trkpt><trkpt lat="45.73844960606895" lon="9.682510242967583"><ele>571.6666666666666</ele><time>2026-04-07T15:01:32Z</time></trkpt><trkpt lat="45.73837040106043" lon="9.68255211235895"><ele>568.5</ele><time>2026-04-07T15:01:34Z</time></trkpt><trkpt lat="45.73830304331928" lon="9.682589536826802"><ele>565.3333333333334</ele><time>2026-04-07T15:01:36Z</time></trkpt><trkpt lat="45.73824550075069" lon="9.682639619396054"><ele>562.1666666666667</ele><time>2026-04-07T15:01:38Z</time></trkpt><trkpt lat="45.738178768643515" lon="9.682670970864336"><ele>559.0</ele><time>2026-04-07T15:01:40Z</time></trkpt><trkpt lat="45.73809505266634" lon="9.682751652968223"><ele>562.0</ele><time>2026-04-07T15:01:42Z</time></trkpt><trkpt lat="45.738009598807075" lon="9.682867139257814"><ele>565.0</ele><time>2026-04-07T15:01:44Z</time></trkpt><trkpt lat="45.73798325649685" lon="9.682951092618099"><ele>568.0</ele><time>2026-04-07T15:01:45Z</time></trkpt><trkpt lat="45.737917456357685" lon="9.683061207377145"><ele>571.0</ele><time>2026-04-07T15:01:47Z</time></trkpt><trkpt lat="45.73781787030059" lon="9.683100838073438"><ele>574.0</ele><time>2026-04-07T15:01:49Z</time></trkpt><trkpt lat="45.73772796262592" lon="9.68313634076799"><ele>572.5</ele><time>2026-04-07T15:01:51Z</time></trkpt><trkpt lat="45.73763986281183" lon="9.68317896703448"><ele>571.0</ele><time>2026-04-07T15:01:53Z</time></trkpt><trkpt lat="45.737570085050166" lon="9.683222182745041"><ele>569.5</ele><time>2026-04-07T15:01:55Z</time></trkpt><trkpt lat="45.73751301651255" lon="9.683305934118131"><ele>568.0</ele><time>2026-04-07T15:01:57Z</time></trkpt><trkpt lat="45.737442959732434" lon="9.683387168729002"><ele>566.5</ele><time>2026-04-07T15:01:59Z</time></trkpt><trkpt lat="45.737355176773455" lon="9.683370633653597"><ele>565.0</ele><time>2026-04-07T15:02:02Z</time></trkpt><trkpt lat="45.737262884740744" lon="9.683336707849682"><ele>565.0</ele><time>2026-04-07T15:02:04Z</time></trkpt><trkpt lat="45.737165195540044" lon="9.683333240604007"><ele>565.0</ele><time>2026-04-07T15:02:06Z</time></trkpt><trkpt lat="45.73709868221557" lon="9.68333064644086"><ele>565.0</ele><time>2026-04-07T15:02:07Z</time></trkpt><trkpt lat="45.737002079960824" lon="9.68329514034994"><ele>565.0</ele><time>2026-04-07T15:02:09Z</time></trkpt><trkpt lat="45.736915750325515" lon="9.683321300616933"><ele>565.0</ele><time>2026-04-07T15:02:11Z</time></trkpt><trkpt lat="45.736856016187794" lon="9.683429006846817"><ele>565.0</ele><time>2026-04-07T15:02:13Z</time></trkpt><trkpt lat="45.73678681734632" lon="9.683527300804894"><ele>564.5</ele><time>2026-04-07T15:02:15Z</time></trkpt><trkpt lat="45.736714554770565" lon="9.683542110046826"><ele>564.0</ele><time>2026-04-07T15:02:16Z</time></trkpt><trkpt lat="45.73665414834791" lon="9.683513053121738"><ele>563.5</ele><time>2026-04-07T15:02:19Z</time></trkpt><trkpt lat="45.7366358121625" lon="9.683425625693776"><ele>563.0</ele><time>2026-04-07T15:02:20Z</time></trkpt><trkpt lat="45.73661554145015" lon="9.683254892451272"><ele>562.5</ele><time>2026-04-07T15:02:22Z</time></trkpt><trkpt lat="45.73654945137849" lon="9.68317447944091"><ele>562.0</ele><time>2026-04-07T15:02:24Z</time></trkpt><trkpt lat="45.73645996308078" lon="9.683232379827041"><ele>562.0</ele><time>2026-04-07T15:02:26Z</time></trkpt><trkpt lat="45.736360316424275" lon="9.68324740427575"><ele>562.0</ele><time>2026-04-07T15:02:28Z</time></trkpt><trkpt lat="45.736251308875936" lon="9.683260985396721"><ele>562.0</ele><time>2026-04-07T15:02:30Z</time></trkpt><trkpt lat="45.736156488554236" lon="9.683310421227612"><ele>562.0</ele><time>2026-04-07T15:02:32Z</time></trkpt><trkpt lat="45.73606856530143" lon="9.683360125331548"><ele>562.0</ele><time>2026-04-07T15:02:34Z</time></trkpt><trkpt lat="45.735980398854714" lon="9.683327226377425"><ele>563.1666666666667</ele><time>2026-04-07T15:02:36Z</time></trkpt><trkpt lat="45.73590574093267" lon="9.683239107165159"><ele>564.3333333333334</ele><time>2026-04-07T15:02:38Z</time></trkpt><trkpt lat="45.73583708220191" lon="9.683198322270124"><ele>565.5</ele><time>2026-04-07T15:02:40Z</time></trkpt><trkpt lat="45.735745640521074" lon="9.683168807418218"><ele>566.6666666666666</ele><time>2026-04-07T15:02:42Z</time></trkpt><trkpt lat="45.73565383522447" lon="9.68316153360376"><ele>567.8333333333333</ele><time>2026-04-07T15:02:44Z</time></trkpt><trkpt lat="45.73560025173767" lon="9.68308664894113"><ele>569.0</ele><time>2026-04-07T15:02:46Z</time></trkpt><trkpt lat="45.73552531310393" lon="9.68294785897386"><ele>569.0</ele><time>2026-04-07T15:02:49Z</time></trkpt><trkpt lat="45.73547721797316" lon="9.682875331742766"><ele>569.0</ele><time>2026-04-07T15:02:50Z</time></trkpt><trkpt lat="45.735412592777564" lon="9.682766300157226"><ele>569.0</ele><time>2026-04-07T15:02:52Z</time></trkpt><trkpt lat="45.73536629439648" lon="9.682668768283119"><ele>569.0</ele><time>2026-04-07T15:02:54Z</time></trkpt><trkpt lat="45.73529861046525" lon="9.682557594418737"><ele>569.0</ele><time>2026-04-07T15:02:56Z</time></trkpt><trkpt lat="45.735225908994686" lon="9.682451920526947"><ele>568.2</ele><time>2026-04-07T15:02:58Z</time></trkpt><trkpt lat="45.73514377041998" lon="9.682355348662584"><ele>567.4</ele><time>2026-04-07T15:03:01Z</time></trkpt><trkpt lat="45.73507266620224" lon="9.68230014540406"><ele>566.6</ele><time>2026-04-07T15:03:02Z</time></trkpt><trkpt lat="45.734998537192844" lon="9.682254086003088"><ele>565.8</ele><time>2026-04-07T15:03:03Z</time></trkpt><trkpt lat="45.73493489992049" lon="9.682228656619724"><ele>565.0</ele><time>2026-04-07T15:03:05Z</time></trkpt><trkpt lat="45.734824561080565" lon="9.682178448969973"><ele>565.0</ele><time>2026-04-07T15:03:07Z</time></trkpt><trkpt lat="45.73473241951166" lon="9.68213439111043"><ele>565.0</ele><time>2026-04-07T15:03:08Z</time></trkpt><trkpt lat="45.73464710802559" lon="9.682119405292715"><ele>565.0</ele><time>2026-04-07T15:03:09Z</time></trkpt><trkpt lat="45.734522383495026" lon="9.68211282521646"><ele>565.0</ele><time>2026-04-07T15:03:11Z</time></trkpt><trkpt lat="45.734449936673066" lon="9.682109443364713"><ele>565.0</ele><time>2026-04-07T15:03:12Z</time></trkpt><trkpt lat="45.734378689701984" lon="9.682114527232972"><ele>566.0</ele><time>2026-04-07T15:03:13Z</time></trkpt><trkpt lat="45.73431157972511" lon="9.682123331219897"><ele>567.0</ele><time>2026-04-07T15:03:14Z</time></trkpt><trkpt lat="45.73422198977031" lon="9.682205166239372"><ele>568.0</ele><time>2026-04-07T15:03:16Z</time></trkpt><trkpt lat="45.73417181972791" lon="9.682301808641425"><ele>569.0</ele><time>2026-04-07T15:03:18Z</time></trkpt><trkpt lat="45.734135367953286" lon="9.682169974110156"><ele>570.0</ele><time>2026-04-07T15:03:21Z</time></trkpt><trkpt lat="45.73408721412177" lon="9.682059303894192"><ele>571.0</ele><time>2026-04-07T15:03:23Z</time></trkpt><trkpt lat="45.7340197591496" lon="9.68192694838907"><ele>567.8</ele><time>2026-04-07T15:03:25Z</time></trkpt><trkpt lat="45.733925296597896" lon="9.681874141139362"><ele>564.6</ele><time>2026-04-07T15:03:27Z</time></trkpt><trkpt lat="45.733867355217264" lon="9.681822819684283"><ele>561.4</ele><time>2026-04-07T15:03:28Z</time></trkpt><trkpt lat="45.73377906876352" lon="9.681722545746059"><ele>558.2</ele><time>2026-04-07T15:03:30Z</time></trkpt><trkpt lat="45.733684316396214" lon="9.681607265310184"><ele>555.0</ele><time>2026-04-07T15:03:32Z</time></trkpt><trkpt lat="45.733614412774656" lon="9.68148723520037"><ele>555.0</ele><time>2026-04-07T15:03:34Z</time></trkpt><trkpt lat="45.73356124115367" lon="9.681372986664796"><ele>555.0</ele><time>2026-04-07T15:03:36Z</time></trkpt><trkpt lat="45.73352433993576" lon="9.681296851981843"><ele>555.0</ele><time>2026-04-07T15:03:37Z</time></trkpt><trkpt lat="45.73344876647257" lon="9.68116490875541"><ele>555.0</ele><time>2026-04-07T15:03:39Z</time></trkpt><trkpt lat="45.73336953045069" lon="9.68104139523443"><ele>555.0</ele><time>2026-04-07T15:03:41Z</time></trkpt><trkpt lat="45.73331018152302" lon="9.680926873247437"><ele>555.0</ele><time>2026-04-07T15:03:43Z</time></trkpt><trkpt lat="45.733271292546526" lon="9.680847690369848"><ele>555.0</ele><time>2026-04-07T15:03:44Z</time></trkpt><trkpt lat="45.73322380019442" lon="9.680773542566664"><ele>555.0</ele><time>2026-04-07T15:03:45Z</time></trkpt><trkpt lat="45.73317786004089" lon="9.680701876431508"><ele>555.0</ele><time>2026-04-07T15:03:46Z</time></trkpt><trkpt lat="45.733096548768934" lon="9.680567516303407"><ele>555.0</ele><time>2026-04-07T15:03:48Z</time></trkpt><trkpt lat="45.73301325629078" lon="9.68043651212018"><ele>555.0</ele><time>2026-04-07T15:03:50Z</time></trkpt><trkpt lat="45.73293555634626" lon="9.680315382178899"><ele>555.0</ele><time>2026-04-07T15:03:52Z</time></trkpt><trkpt lat="45.732855912262664" lon="9.680206829926881"><ele>555.0</ele><time>2026-04-07T15:03:54Z</time></trkpt><trkpt lat="45.73279280745747" lon="9.680071455910413"><ele>555.0</ele><time>2026-04-07T15:03:56Z</time></trkpt><trkpt lat="45.732744334259166" lon="9.680006583313702"><ele>555.0</ele><time>2026-04-07T15:03:57Z</time></trkpt><trkpt lat="45.73269921122867" lon="9.67993704340247"><ele>555.6</ele><time>2026-04-07T15:03:58Z</time></trkpt><trkpt lat="45.73263064640808" lon="9.679822009065562"><ele>556.2</ele><time>2026-04-07T15:04:00Z</time></trkpt><trkpt lat="45.73256654883662" lon="9.679695082342787"><ele>556.8</ele><time>2026-04-07T15:04:02Z</time></trkpt><trkpt lat="45.7325393078758" lon="9.679566608412532"><ele>557.4</ele><time>2026-04-07T15:04:04Z</time></trkpt><trkpt lat="45.732506035081244" lon="9.679477530715106"><ele>558.0</ele><time>2026-04-07T15:04:05Z</time></trkpt><trkpt lat="45.732439142931064" lon="9.679330601774039"><ele>556.1666666666666</ele><time>2026-04-07T15:04:07Z</time></trkpt><trkpt lat="45.732398866661114" lon="9.679243844580721"><ele>554.3333333333334</ele><time>2026-04-07T15:04:08Z</time></trkpt><trkpt lat="45.732342775482955" lon="9.679109416716063"><ele>552.5</ele><time>2026-04-07T15:04:10Z</time></trkpt><trkpt lat="45.73229270927008" lon="9.679052241852478"><ele>550.6666666666667</ele><time>2026-04-07T15:04:11Z</time></trkpt><trkpt lat="45.732222872213406" lon="9.679001409507375"><ele>548.8333333333334</ele><time>2026-04-07T15:04:12Z</time></trkpt><trkpt lat="45.732118874106085" lon="9.678951235971216"><ele>547.0</ele><time>2026-04-07T15:04:14Z</time></trkpt><trkpt lat="45.73204391056398" lon="9.678939375088298"><ele>547.0</ele><time>2026-04-07T15:04:15Z</time></trkpt><trkpt lat="45.7319828575452" lon="9.67891414383397"><ele>547.0</ele><time>2026-04-07T15:04:16Z</time></trkpt><trkpt lat="45.73191323954016" lon="9.67892116638609"><ele>547.0</ele><time>2026-04-07T15:04:18Z</time></trkpt><trkpt lat="45.73185350838399" lon="9.678874482612784"><ele>547.0</ele><time>2026-04-07T15:04:49Z</time></trkpt><trkpt lat="45.73179762535961" lon="9.678817751837231"><ele>547.0</ele><time>2026-04-07T15:05:09Z</time></trkpt><trkpt lat="45.73175310003082" lon="9.678735646769104"><ele>547.0</ele><time>2026-04-07T15:05:12Z</time></trkpt><trkpt lat="45.73170880080207" lon="9.678665179082607"><ele>547.0</ele><time>2026-04-07T15:05:15Z</time></trkpt><trkpt lat="45.73163060370792" lon="9.678695710257285"><ele>547.3333333333334</ele><time>2026-04-07T15:05:18Z</time></trkpt><trkpt lat="45.73154855259066" lon="9.678748946395313"><ele>547.6666666666667</ele><time>2026-04-07T15:05:22Z</time></trkpt><trkpt lat="45.73147612402433" lon="9.67881080719478"><ele>548.0</ele><time>2026-04-07T15:05:25Z</time></trkpt><trkpt lat="45.73144894475398" lon="9.678718022044528"><ele>548.3333333333334</ele><time>2026-04-07T15:05:28Z</time></trkpt><trkpt lat="45.73150846595143" lon="9.678649843729955"><ele>548.6666666666666</ele><time>2026-04-07T15:05:31Z</time></trkpt><trkpt lat="45.73158699779973" lon="9.678638139667944"><ele>549.0</ele><time>2026-04-07T15:05:34Z</time></trkpt><trkpt lat="45.73163717336509" lon="9.678711827973189"><ele>549.0</ele><time>2026-04-07T15:05:36Z</time></trkpt><trkpt lat="45.73167336151626" lon="9.678804160641759"><ele>549.0</ele><time>2026-04-07T15:05:38Z</time></trkpt><trkpt lat="45.731706481647706" lon="9.678888513128772"><ele>549.0</ele><time>2026-04-07T15:05:40Z</time></trkpt><trkpt lat="45.73176375410405" lon="9.678939427390235"><ele>549.0</ele><time>2026-04-07T15:05:42Z</time></trkpt><trkpt lat="45.73184241786537" lon="9.679006876359912"><ele>549.0</ele><time>2026-04-07T15:05:45Z</time></trkpt><trkpt lat="45.731915595314035" lon="9.679061049774555"><ele>549.0</ele><time>2026-04-07T15:05:48Z</time></trkpt><trkpt lat="45.73198256506679" lon="9.679135357238644"><ele>548.7142857142857</ele><time>2026-04-07T15:05:51Z</time></trkpt><trkpt lat="45.73203225597809" lon="9.679195501548834"><ele>548.4285714285714</ele><time>2026-04-07T15:05:53Z</time></trkpt><trkpt lat="45.732078284284185" lon="9.679268620260391"><ele>548.1428571428571</ele><time>2026-04-07T15:05:55Z</time></trkpt><trkpt lat="45.73211187104905" lon="9.679345926016568"><ele>547.8571428571429</ele><time>2026-04-07T15:05:57Z</time></trkpt><trkpt lat="45.73215011775952" lon="9.679423900924249"><ele>547.5714285714286</ele><time>2026-04-07T15:05:59Z</time></trkpt><trkpt lat="45.73218088529645" lon="9.679506935477331"><ele>547.2857142857142</ele><time>2026-04-07T15:06:01Z</time></trkpt><trkpt lat="45.73221781347165" lon="9.679636841702235"><ele>547.0</ele><time>2026-04-07T15:06:04Z</time></trkpt><trkpt lat="45.732238383236044" lon="9.679724929036164"><ele>548.8333333333334</ele><time>2026-04-07T15:06:06Z</time></trkpt><trkpt lat="45.73226467596865" lon="9.679829964983583"><ele>550.6666666666667</ele><time>2026-04-07T15:06:08Z</time></trkpt><trkpt lat="45.73230080211033" lon="9.67993310556286"><ele>552.5</ele><time>2026-04-07T15:06:10Z</time></trkpt><trkpt lat="45.73233760936531" lon="9.680039073191448"><ele>554.3333333333334</ele><time>2026-04-07T15:06:12Z</time></trkpt><trkpt lat="45.732376462487196" lon="9.680142589368522"><ele>556.1666666666666</ele><time>2026-04-07T15:06:14Z</time></trkpt><trkpt lat="45.73241054496314" lon="9.680247507995565"><ele>558.0</ele><time>2026-04-07T15:06:16Z</time></trkpt><trkpt lat="45.73243651914382" lon="9.680341582301123"><ele>559.5</ele><time>2026-04-07T15:06:18Z</time></trkpt><trkpt lat="45.73245390999609" lon="9.680429856045887"><ele>561.0</ele><time>2026-04-07T15:06:20Z</time></trkpt><trkpt lat="45.732471321655694" lon="9.680527368620085"><ele>562.5</ele><time>2026-04-07T15:06:22Z</time></trkpt><trkpt lat="45.7324958539465" lon="9.680657049463356"><ele>564.0</ele><time>2026-04-07T15:06:25Z</time></trkpt><trkpt lat="45.73252442638808" lon="9.680745502868268"><ele>565.5</ele><time>2026-04-07T15:06:27Z</time></trkpt><trkpt lat="45.73254697314921" lon="9.680832183245094"><ele>567.0</ele><time>2026-04-07T15:06:29Z</time></trkpt><trkpt lat="45.73257339466277" lon="9.680972472313409"><ele>567.0</ele><time>2026-04-07T15:06:32Z</time></trkpt><trkpt lat="45.73257334774898" lon="9.681095029225466"><ele>567.0</ele><time>2026-04-07T15:06:35Z</time></trkpt><trkpt lat="45.73255829376292" lon="9.681228490739766"><ele>567.0</ele><time>2026-04-07T15:06:38Z</time></trkpt><trkpt lat="45.732546437829946" lon="9.681359861317972"><ele>567.0</ele><time>2026-04-07T15:06:41Z</time></trkpt><trkpt lat="45.73254540411525" lon="9.681490421606055"><ele>567.0</ele><time>2026-04-07T15:06:44Z</time></trkpt><trkpt lat="45.73253667669595" lon="9.681580184716047"><ele>567.0</ele><time>2026-04-07T15:06:46Z</time></trkpt><trkpt lat="45.73252363828953" lon="9.68170705835516"><ele>568.4</ele><time>2026-04-07T15:06:49Z</time></trkpt><trkpt lat="45.73252115173734" lon="9.681831774741498"><ele>569.8000000000001</ele><time>2026-04-07T15:06:52Z</time></trkpt><trkpt lat="45.732519732921446" lon="9.681955811813333"><ele>571.2</ele><time>2026-04-07T15:06:55Z</time></trkpt><trkpt lat="45.73251973722271" lon="9.682085368730942"><ele>572.6</ele><time>2026-04-07T15:06:58Z</time></trkpt><trkpt lat="45.73252562631738" lon="9.68221547277889"><ele>574.0</ele><time>2026-04-07T15:07:01Z</time></trkpt><trkpt lat="45.73253770095103" lon="9.682351168791028"><ele>575.5</ele><time>2026-04-07T15:07:04Z</time></trkpt><trkpt lat="45.73253807407853" lon="9.682490113217103"><ele>577.0</ele><time>2026-04-07T15:07:07Z</time></trkpt><trkpt lat="45.732558161519925" lon="9.682576910310903"><ele>578.5</ele><time>2026-04-07T15:07:09Z</time></trkpt><trkpt lat="45.73256917003608" lon="9.682705475737666"><ele>580.0</ele><time>2026-04-07T15:07:12Z</time></trkpt><trkpt lat="45.73258472173428" lon="9.682840909238731"><ele>581.5</ele><time>2026-04-07T15:07:15Z</time></trkpt><trkpt lat="45.73258620788231" lon="9.682940252834946"><ele>583.0</ele><time>2026-04-07T15:07:17Z</time></trkpt><trkpt lat="45.732586732246546" lon="9.683032790257926"><ele>584.8333333333334</ele><time>2026-04-07T15:07:19Z</time></trkpt><trkpt lat="45.73260479941271" lon="9.683162724815503"><ele>586.6666666666667</ele><time>2026-04-07T15:07:22Z</time></trkpt><trkpt lat="45.73264145377055" lon="9.683281757072264"><ele>588.5</ele><time>2026-04-07T15:07:25Z</time></trkpt><trkpt lat="45.73269405652852" lon="9.683379797674544"><ele>590.3333333333334</ele><time>2026-04-07T15:07:28Z</time></trkpt><trkpt lat="45.732737282960684" lon="9.683493622862255"><ele>592.1666666666666</ele><time>2026-04-07T15:07:31Z</time></trkpt><trkpt lat="45.73278860554826" lon="9.683592324865394"><ele>594.0</ele><time>2026-04-07T15:07:34Z</time></trkpt><trkpt lat="45.73283832499192" lon="9.683693189427306"><ele>596.5</ele><time>2026-04-07T15:07:37Z</time></trkpt><trkpt lat="45.73286888624231" lon="9.6837728938087"><ele>599.0</ele><time>2026-04-07T15:07:39Z</time></trkpt><trkpt lat="45.732901211202254" lon="9.683892937355951"><ele>601.5</ele><time>2026-04-07T15:07:42Z</time></trkpt><trkpt lat="45.73291894822306" lon="9.684015460333237"><ele>604.0</ele><time>2026-04-07T15:07:45Z</time></trkpt><trkpt lat="45.73292913713521" lon="9.684133802734927"><ele>606.5</ele><time>2026-04-07T15:07:48Z</time></trkpt><trkpt lat="45.73294755454599" lon="9.684256697048761"><ele>609.0</ele><time>2026-04-07T15:07:51Z</time></trkpt><trkpt lat="45.7329468582161" lon="9.684366252131321"><ele>611.5</ele><time>2026-04-07T15:07:54Z</time></trkpt><trkpt lat="45.7329484541621" lon="9.684477283741245"><ele>614.0</ele><time>2026-04-07T15:07:57Z</time></trkpt><trkpt lat="45.732965112052085" lon="9.68459419288597"><ele>616.5</ele><time>2026-04-07T15:08:00Z</time></trkpt><trkpt lat="45.73300421394498" lon="9.684706101293292"><ele>619.0</ele><time>2026-04-07T15:08:03Z</time></trkpt><trkpt lat="45.733044248809556" lon="9.684826441335053"><ele>621.5</ele><time>2026-04-07T15:08:06Z</time></trkpt><trkpt lat="45.73310633333291" lon="9.684925340322804"><ele>624.0</ele><time>2026-04-07T15:08:09Z</time></trkpt><trkpt lat="45.733152490635824" lon="9.685055775931525"><ele>624.0</ele><time>2026-04-07T15:08:12Z</time></trkpt><trkpt lat="45.73319613941618" lon="9.685160375745449"><ele>624.0</ele><time>2026-04-07T15:08:15Z</time></trkpt><trkpt lat="45.733247384476634" lon="9.685261949401553"><ele>624.0</ele><time>2026-04-07T15:08:18Z</time></trkpt><trkpt lat="45.73328812824262" lon="9.685368549675237"><ele>624.0</ele><time>2026-04-07T15:08:21Z</time></trkpt><trkpt lat="45.73333007078728" lon="9.685467854608817"><ele>624.0</ele><time>2026-04-07T15:08:24Z</time></trkpt><trkpt lat="45.733359166050136" lon="9.68557302350641"><ele>624.0</ele><time>2026-04-07T15:08:27Z</time></trkpt><trkpt lat="45.733397540866655" lon="9.685648722403396"><ele>626.3333333333334</ele><time>2026-04-07T15:08:29Z</time></trkpt><trkpt lat="45.733440711449724" lon="9.68575265772689"><ele>628.6666666666666</ele><time>2026-04-07T15:08:32Z</time></trkpt><trkpt lat="45.733474452761286" lon="9.685876042317133"><ele>631.0</ele><time>2026-04-07T15:08:35Z</time></trkpt><trkpt lat="45.733484458360074" lon="9.685982923258162"><ele>633.3333333333333</ele><time>2026-04-07T15:08:38Z</time></trkpt><trkpt lat="45.733511605729134" lon="9.686091061536118"><ele>635.6666666666666</ele><time>2026-04-07T15:08:41Z</time></trkpt><trkpt lat="45.733571562595806" lon="9.686182147732648"><ele>638.0</ele><time>2026-04-07T15:08:44Z</time></trkpt><trkpt lat="45.73363793061195" lon="9.686278997038967"><ele>639.1666666666666</ele><time>2026-04-07T15:08:47Z</time></trkpt><trkpt lat="45.73369424865681" lon="9.686328480622821"><ele>640.3333333333333</ele><time>2026-04-07T15:08:49Z</time></trkpt><trkpt lat="45.73375003953507" lon="9.686391184353553"><ele>641.5</ele><time>2026-04-07T15:08:51Z</time></trkpt><trkpt lat="45.73379833529839" lon="9.686455824085611"><ele>642.6666666666666</ele><time>2026-04-07T15:08:53Z</time></trkpt><trkpt lat="45.73386205255386" lon="9.686557337598845"><ele>643.8333333333334</ele><time>2026-04-07T15:08:56Z</time></trkpt><trkpt lat="45.73389858990947" lon="9.686634700935674"><ele>645.0</ele><time>2026-04-07T15:08:58Z</time></trkpt><trkpt lat="45.73391598890517" lon="9.686759064529907"><ele>645.0</ele><time>2026-04-07T15:09:01Z</time></trkpt><trkpt lat="45.73389475589468" lon="9.686875052407455"><ele>645.0</ele><time>2026-04-07T15:09:04Z</time></trkpt><trkpt lat="45.73384534537428" lon="9.686983480202082"><ele>645.0</ele><time>2026-04-07T15:09:07Z</time></trkpt><trkpt lat="45.73382595930675" lon="9.68708250298345"><ele>645.0</ele><time>2026-04-07T15:09:09Z</time></trkpt><trkpt lat="45.733815768379415" lon="9.687185669122936"><ele>645.0</ele><time>2026-04-07T15:09:11Z</time></trkpt><trkpt lat="45.73383914413853" lon="9.687291535484238"><ele>645.0</ele><time>2026-04-07T15:09:13Z</time></trkpt><trkpt lat="45.733867233742295" lon="9.687385753309691"><ele>647.8333333333334</ele><time>2026-04-07T15:09:15Z</time></trkpt><trkpt lat="45.73392221957727" lon="9.687460959054118"><ele>650.6666666666666</ele><time>2026-04-07T15:09:17Z</time></trkpt><trkpt lat="45.7339700699287" lon="9.687527018580107"><ele>653.5</ele><time>2026-04-07T15:09:19Z</time></trkpt><trkpt lat="45.734022678763424" lon="9.68759258041897"><ele>656.3333333333333</ele><time>2026-04-07T15:09:21Z</time></trkpt><trkpt lat="45.73409246757798" lon="9.68768207292441"><ele>659.1666666666666</ele><time>2026-04-07T15:09:24Z</time></trkpt><trkpt lat="45.734156682737854" lon="9.687771562871736"><ele>662.0</ele><time>2026-04-07T15:09:27Z</time></trkpt><trkpt lat="45.73422069246976" lon="9.687855532366896"><ele>663.0</ele><time>2026-04-07T15:09:30Z</time></trkpt><trkpt lat="45.73428764552321" lon="9.687925726838788"><ele>664.0</ele><time>2026-04-07T15:09:33Z</time></trkpt><trkpt lat="45.734352593704024" lon="9.688011515940339"><ele>665.0</ele><time>2026-04-07T15:09:36Z</time></trkpt><trkpt lat="45.73442893364083" lon="9.68808595928962"><ele>666.0</ele><time>2026-04-07T15:09:39Z</time></trkpt><trkpt lat="45.734494881474966" lon="9.688160461471393"><ele>667.0</ele><time>2026-04-07T15:09:42Z</time></trkpt><trkpt lat="45.73456151101488" lon="9.688239986347948"><ele>668.0</ele><time>2026-04-07T15:09:45Z</time></trkpt><trkpt lat="45.7346138735019" lon="9.6883001894779"><ele>668.4</ele><time>2026-04-07T15:09:47Z</time></trkpt><trkpt lat="45.73467528819625" lon="9.688364007845797"><ele>668.8</ele><time>2026-04-07T15:09:49Z</time></trkpt><trkpt lat="45.73474531184729" lon="9.688430549724865"><ele>669.2</ele><time>2026-04-07T15:09:51Z</time></trkpt><trkpt lat="45.73481354171746" lon="9.688510334908868"><ele>669.6</ele><time>2026-04-07T15:09:53Z</time></trkpt><trkpt lat="45.73489539276121" lon="9.688601153591637"><ele>670.0</ele><time>2026-04-07T15:09:55Z</time></trkpt><trkpt lat="45.73499211953211" lon="9.688673632628612"><ele>670.0</ele><time>2026-04-07T15:09:57Z</time></trkpt><trkpt lat="45.73509534585687" lon="9.68869025703047"><ele>670.0</ele><time>2026-04-07T15:09:59Z</time></trkpt><trkpt lat="45.735205311005494" lon="9.688688467564946"><ele>670.0</ele><time>2026-04-07T15:10:01Z</time></trkpt><trkpt lat="45.73533919589496" lon="9.688691967292907"><ele>670.0</ele><time>2026-04-07T15:10:03Z</time></trkpt><trkpt lat="45.73540480335788" lon="9.688715374031897"><ele>670.0</ele><time>2026-04-07T15:10:04Z</time></trkpt><trkpt lat="45.735471338986365" lon="9.688756453296318"><ele>670.8333333333334</ele><time>2026-04-07T15:10:05Z</time></trkpt><trkpt lat="45.735539213174945" lon="9.688797193847163"><ele>671.6666666666667</ele><time>2026-04-07T15:10:06Z</time></trkpt><trkpt lat="45.73561402559571" lon="9.688825244949632"><ele>672.5</ele><time>2026-04-07T15:10:07Z</time></trkpt><trkpt lat="45.735689752002884" lon="9.688847266595289"><ele>673.3333333333334</ele><time>2026-04-07T15:10:08Z</time></trkpt><trkpt lat="45.73576244305845" lon="9.688875932863416"><ele>674.1666666666666</ele><time>2026-04-07T15:10:09Z</time></trkpt><trkpt lat="45.7358349503218" lon="9.688909527691383"><ele>675.0</ele><time>2026-04-07T15:10:10Z</time></trkpt><trkpt lat="45.73590346954602" lon="9.688936474120855"><ele>675.0</ele><time>2026-04-07T15:10:11Z</time></trkpt><trkpt lat="45.73597200091926" lon="9.688959318118782"><ele>675.0</ele><time>2026-04-07T15:10:12Z</time></trkpt><trkpt lat="45.736037077719665" lon="9.688979816387834"><ele>675.0</ele><time>2026-04-07T15:10:13Z</time></trkpt><trkpt lat="45.7361001685559" lon="9.689002592000005"><ele>675.0</ele><time>2026-04-07T15:10:14Z</time></trkpt><trkpt lat="45.736215464375476" lon="9.689030086725808"><ele>675.0</ele><time>2026-04-07T15:10:16Z</time></trkpt><trkpt lat="45.7363295469314" lon="9.689029776483641"><ele>675.0</ele><time>2026-04-07T15:10:18Z</time></trkpt><trkpt lat="45.736445081530135" lon="9.689036111447056"><ele>674.75</ele><time>2026-04-07T15:10:20Z</time></trkpt><trkpt lat="45.736560084614055" lon="9.689043668627098"><ele>674.5</ele><time>2026-04-07T15:10:22Z</time></trkpt><trkpt lat="45.736669184871836" lon="9.689041811519859"><ele>674.25</ele><time>2026-04-07T15:10:24Z</time></trkpt><trkpt lat="45.73678670338826" lon="9.689065912024668"><ele>674.0</ele><time>2026-04-07T15:10:26Z</time></trkpt><trkpt lat="45.73689438939116" lon="9.68909170533463"><ele>676.2</ele><time>2026-04-07T15:10:28Z</time></trkpt><trkpt lat="45.73701107546354" lon="9.689060649252385"><ele>678.4000000000001</ele><time>2026-04-07T15:10:30Z</time></trkpt><trkpt lat="45.73706833221559" lon="9.689006853679784"><ele>680.6</ele><time>2026-04-07T15:10:31Z</time></trkpt><trkpt lat="45.7371756109828" lon="9.688924493643075"><ele>682.8</ele><time>2026-04-07T15:10:33Z</time></trkpt><trkpt lat="45.73729500605773" lon="9.688872134926582"><ele>685.0</ele><time>2026-04-07T15:10:35Z</time></trkpt><trkpt lat="45.73741545928096" lon="9.688827117444523"><ele>685.0</ele><time>2026-04-07T15:10:37Z</time></trkpt><trkpt lat="45.73751455470262" lon="9.688734149295827"><ele>685.0</ele><time>2026-04-07T15:10:39Z</time></trkpt><trkpt lat="45.73761874440303" lon="9.6886703779439"><ele>685.0</ele><time>2026-04-07T15:10:41Z</time></trkpt><trkpt lat="45.73771327541801" lon="9.688616180642484"><ele>685.0</ele><time>2026-04-07T15:10:43Z</time></trkpt><trkpt lat="45.737777567597654" lon="9.688594262087067"><ele>685.0</ele><time>2026-04-07T15:10:44Z</time></trkpt><trkpt lat="45.73788646360808" lon="9.688551610230707"><ele>682.5</ele><time>2026-04-07T15:10:46Z</time></trkpt><trkpt lat="45.737991850226216" lon="9.688499841989628"><ele>680.0</ele><time>2026-04-07T15:10:48Z</time></trkpt><trkpt lat="45.73810522210405" lon="9.688459008127404"><ele>677.5</ele><time>2026-04-07T15:10:50Z</time></trkpt><trkpt lat="45.738222767097234" lon="9.688413892700813"><ele>675.0</ele><time>2026-04-07T15:10:52Z</time></trkpt><trkpt lat="45.73833778293763" lon="9.68839826501192"><ele>675.0</ele><time>2026-04-07T15:10:54Z</time></trkpt><trkpt lat="45.73844382301739" lon="9.68837918032335"><ele>675.0</ele><time>2026-04-07T15:10:56Z</time></trkpt><trkpt lat="45.73851214236545" lon="9.688379160474495"><ele>675.0</ele><time>2026-04-07T15:10:57Z</time></trkpt><trkpt lat="45.738581068618714" lon="9.688384484721878"><ele>675.0</ele><time>2026-04-07T15:10:58Z</time></trkpt><trkpt lat="45.738701757054564" lon="9.688371828454166"><ele>675.0</ele><time>2026-04-07T15:11:00Z</time></trkpt><trkpt lat="45.73882212608519" lon="9.688356714513755"><ele>675.2</ele><time>2026-04-07T15:11:02Z</time></trkpt><trkpt lat="45.73893544970831" lon="9.688329738127146"><ele>675.4</ele><time>2026-04-07T15:11:04Z</time></trkpt><trkpt lat="45.739048496438485" lon="9.688290103988814"><ele>675.5999999999999</ele><time>2026-04-07T15:11:06Z</time></trkpt><trkpt lat="45.73915555215037" lon="9.688263511453238"><ele>675.8</ele><time>2026-04-07T15:11:08Z</time></trkpt><trkpt lat="45.73922746607695" lon="9.688267985215987"><ele>676.0</ele><time>2026-04-07T15:11:09Z</time></trkpt><trkpt lat="45.739319102119815" lon="9.688294476086126"><ele>677.0</ele><time>2026-04-07T15:11:11Z</time></trkpt><trkpt lat="45.73940638554491" lon="9.688349943233163"><ele>678.0</ele><time>2026-04-07T15:11:13Z</time></trkpt><trkpt lat="45.7394679136982" lon="9.688371461286852"><ele>679.0</ele><time>2026-04-07T15:11:14Z</time></trkpt><trkpt lat="45.73957620809265" lon="9.688411641950673"><ele>680.0</ele><time>2026-04-07T15:11:16Z</time></trkpt><trkpt lat="45.73964754852313" lon="9.68840000978114"><ele>681.0</ele><time>2026-04-07T15:11:17Z</time></trkpt><trkpt lat="45.73972318144728" lon="9.688391225627646"><ele>682.0</ele><time>2026-04-07T15:11:18Z</time></trkpt><trkpt lat="45.7397981828756" lon="9.688386341994178"><ele>682.0</ele><time>2026-04-07T15:11:19Z</time></trkpt><trkpt lat="45.73986654714348" lon="9.688368899659887"><ele>682.0</ele><time>2026-04-07T15:11:20Z</time></trkpt><trkpt lat="45.739930421631286" lon="9.688352719406451"><ele>682.0</ele><time>2026-04-07T15:11:21Z</time></trkpt><trkpt lat="45.740040864125056" lon="9.688341979993499"><ele>682.0</ele><time>2026-04-07T15:11:23Z</time></trkpt><trkpt lat="45.74010547040472" lon="9.688323043259134"><ele>682.0</ele><time>2026-04-07T15:11:24Z</time></trkpt><trkpt lat="45.7402230739316" lon="9.688338237384729"><ele>682.0</ele><time>2026-04-07T15:11:26Z</time></trkpt><trkpt lat="45.74030375492107" lon="9.688309112579994"><ele>680.4000000000001</ele><time>2026-04-07T15:11:27Z</time></trkpt><trkpt lat="45.74041078593508" lon="9.688284641834946"><ele>678.8000000000001</ele><time>2026-04-07T15:11:29Z</time></trkpt><trkpt lat="45.74047859853841" lon="9.688260637668845"><ele>677.2</ele><time>2026-04-07T15:11:30Z</time></trkpt><trkpt lat="45.74055731488955" lon="9.688225795218548"><ele>675.6</ele><time>2026-04-07T15:11:31Z</time></trkpt><trkpt lat="45.74062452412714" lon="9.688198098887618"><ele>674.0</ele><time>2026-04-07T15:11:32Z</time></trkpt><trkpt lat="45.74073621294988" lon="9.688131912341484"><ele>674.0</ele><time>2026-04-07T15:11:34Z</time></trkpt><trkpt lat="45.740842965532224" lon="9.68806054874085"><ele>674.0</ele><time>2026-04-07T15:11:36Z</time></trkpt><trkpt lat="45.740953598862774" lon="9.687996989045491"><ele>674.0</ele><time>2026-04-07T15:11:38Z</time></trkpt><trkpt lat="45.74106435249782" lon="9.687927410873218"><ele>674.0</ele><time>2026-04-07T15:11:40Z</time></trkpt><trkpt lat="45.741178209841536" lon="9.687864216859971"><ele>675.8000000000001</ele><time>2026-04-07T15:11:42Z</time></trkpt><trkpt lat="45.74127896311902" lon="9.687795041097669"><ele>677.6</ele><time>2026-04-07T15:11:44Z</time></trkpt><trkpt lat="45.741379815638695" lon="9.687732618239894"><ele>679.4</ele><time>2026-04-07T15:11:46Z</time></trkpt><trkpt lat="45.7414412328955" lon="9.687663782036026"><ele>681.2</ele><time>2026-04-07T15:11:48Z</time></trkpt><trkpt lat="45.74151930684955" lon="9.687577349371553"><ele>683.0</ele><time>2026-04-07T15:11:51Z</time></trkpt><trkpt lat="45.741625647509665" lon="9.687497124691197"><ele>683.0</ele><time>2026-04-07T15:11:53Z</time></trkpt><trkpt lat="45.74169520460385" lon="9.687431954870064"><ele>683.0</ele><time>2026-04-07T15:11:55Z</time></trkpt><trkpt lat="45.741764602902656" lon="9.687382804026674"><ele>683.0</ele><time>2026-04-07T15:11:57Z</time></trkpt><trkpt lat="45.741850204179386" lon="9.687314526543307"><ele>683.0</ele><time>2026-04-07T15:11:59Z</time></trkpt><trkpt lat="45.741928556800325" lon="9.687234333005176"><ele>683.0</ele><time>2026-04-07T15:12:01Z</time></trkpt><trkpt lat="45.74202767655717" lon="9.687174907118873"><ele>683.5</ele><time>2026-04-07T15:12:03Z</time></trkpt><trkpt lat="45.7421188872221" lon="9.687091294621977"><ele>684.0</ele><time>2026-04-07T15:12:05Z</time></trkpt><trkpt lat="45.742233478495045" lon="9.68700895693707"><ele>684.5</ele><time>2026-04-07T15:12:07Z</time></trkpt><trkpt lat="45.742333547524446" lon="9.686931919044648"><ele>685.0</ele><time>2026-04-07T15:12:09Z</time></trkpt><trkpt lat="45.742439876660455" lon="9.686862158034574"><ele>685.0</ele><time>2026-04-07T15:12:11Z</time></trkpt><trkpt lat="45.74256255729208" lon="9.686808685423788"><ele>685.0</ele><time>2026-04-07T15:12:13Z</time></trkpt><trkpt lat="45.74262880985589" lon="9.68675919407449"><ele>685.0</ele><time>2026-04-07T15:12:14Z</time></trkpt><trkpt lat="45.742738028756115" lon="9.686667647064194"><ele>685.0</ele><time>2026-04-07T15:12:16Z</time></trkpt><trkpt lat="45.742850609497474" lon="9.686570536651587"><ele>683.2</ele><time>2026-04-07T15:12:18Z</time></trkpt><trkpt lat="45.7429474408986" lon="9.686451938334402"><ele>681.4</ele><time>2026-04-07T15:12:20Z</time></trkpt><trkpt lat="45.743050222036544" lon="9.686339912131752"><ele>679.5999999999999</ele><time>2026-04-07T15:12:22Z</time></trkpt><trkpt lat="45.74314935731403" lon="9.686249861816016"><ele>677.8</ele><time>2026-04-07T15:12:24Z</time></trkpt><trkpt lat="45.743216856546184" lon="9.686229635951753"><ele>676.0</ele><time>2026-04-07T15:12:25Z</time></trkpt><trkpt lat="45.74331067904591" lon="9.686176029855837"><ele>676.0</ele><time>2026-04-07T15:12:27Z</time></trkpt><trkpt lat="45.743404753966175" lon="9.686099285001474"><ele>676.0</ele><time>2026-04-07T15:12:29Z</time></trkpt><trkpt lat="45.74350805380344" lon="9.686032423531385"><ele>676.0</ele><time>2026-04-07T15:12:31Z</time></trkpt><trkpt lat="45.7435711318065" lon="9.685994020691206"><ele>676.0</ele><time>2026-04-07T15:12:32Z</time></trkpt><trkpt lat="45.74364383972672" lon="9.685980873848722"><ele>676.0</ele><time>2026-04-07T15:12:33Z</time></trkpt><trkpt lat="45.74372752971417" lon="9.686017382878958"><ele>677.1666666666667</ele><time>2026-04-07T15:12:34Z</time></trkpt><trkpt lat="45.74379369613059" lon="9.686065530819125"><ele>678.3333333333334</ele><time>2026-04-07T15:12:35Z</time></trkpt><trkpt lat="45.74385523818297" lon="9.68609126255412"><ele>679.5</ele><time>2026-04-07T15:12:36Z</time></trkpt><trkpt lat="45.743940642271276" lon="9.686046300484282"><ele>680.6666666666666</ele><time>2026-04-07T15:12:38Z</time></trkpt><trkpt lat="45.74395060719055" lon="9.685954552865596"><ele>681.8333333333333</ele><time>2026-04-07T15:12:39Z</time></trkpt><trkpt lat="45.74396431904956" lon="9.68586433729192"><ele>683.0</ele><time>2026-04-07T15:12:40Z</time></trkpt><trkpt lat="45.74402792743831" lon="9.68576090956467"><ele>683.0</ele><time>2026-04-07T15:12:42Z</time></trkpt><trkpt lat="45.74410793257144" lon="9.685767462344801"><ele>683.0</ele><time>2026-04-07T15:12:44Z</time></trkpt><trkpt lat="45.74419651915977" lon="9.685817365897766"><ele>683.0</ele><time>2026-04-07T15:12:46Z</time></trkpt><trkpt lat="45.74425894600223" lon="9.685861049702854"><ele>683.0</ele><time>2026-04-07T15:12:47Z</time></trkpt><trkpt lat="45.744328794708125" lon="9.685936814871901"><ele>683.0</ele><time>2026-04-07T15:12:49Z</time></trkpt><trkpt lat="45.744420846771185" lon="9.68600870550748"><ele>683.0</ele><time>2026-04-07T15:12:51Z</time></trkpt><trkpt lat="45.744484813498715" lon="9.68608251284769"><ele>684.8333333333333</ele><time>2026-04-07T15:12:53Z</time></trkpt><trkpt lat="45.744550419832805" lon="9.686169495984709"><ele>686.6666666666666</ele><time>2026-04-07T15:12:55Z</time></trkpt><trkpt lat="45.74458587561629" lon="9.68627691259898"><ele>688.5</ele><time>2026-04-07T15:12:57Z</time></trkpt><trkpt lat="45.744556636715856" lon="9.686364442028317"><ele>690.3333333333334</ele><time>2026-04-07T15:12:59Z</time></trkpt><trkpt lat="45.744499199102066" lon="9.686477597265405"><ele>692.1666666666667</ele><time>2026-04-07T15:13:01Z</time></trkpt><trkpt lat="45.744473434437985" lon="9.686596945390903"><ele>694.0</ele><time>2026-04-07T15:13:03Z</time></trkpt><trkpt lat="45.74449365021513" lon="9.686719582755686"><ele>694.0</ele><time>2026-04-07T15:13:05Z</time></trkpt><trkpt lat="45.74456762046037" lon="9.686821078722632"><ele>694.0</ele><time>2026-04-07T15:13:07Z</time></trkpt><trkpt lat="45.74464145814578" lon="9.686868252668079"><ele>694.0</ele><time>2026-04-07T15:13:09Z</time></trkpt><trkpt lat="45.74474576676127" lon="9.686891548892621"><ele>694.0</ele><time>2026-04-07T15:13:11Z</time></trkpt><trkpt lat="45.74484413753337" lon="9.686873468753321"><ele>694.0</ele><time>2026-04-07T15:13:13Z</time></trkpt><trkpt lat="45.74495548030945" lon="9.686924311168848"><ele>693.6</ele><time>2026-04-07T15:13:15Z</time></trkpt><trkpt lat="45.74500509224106" lon="9.686988965925437"><ele>693.2</ele><time>2026-04-07T15:13:16Z</time></trkpt><trkpt lat="45.74508134711815" lon="9.687128114209386"><ele>692.8000000000001</ele><time>2026-04-07T15:13:18Z</time></trkpt><trkpt lat="45.745167287346284" lon="9.687247399735266"><ele>692.4000000000001</ele><time>2026-04-07T15:13:20Z</time></trkpt><trkpt lat="45.745255237221194" lon="9.687333414169522"><ele>692.0</ele><time>2026-04-07T15:13:22Z</time></trkpt><trkpt lat="45.745359449788346" lon="9.687409037530829"><ele>692.0</ele><time>2026-04-07T15:13:24Z</time></trkpt><trkpt lat="45.74546520503131" lon="9.687410698811926"><ele>692.0</ele><time>2026-04-07T15:13:26Z</time></trkpt><trkpt lat="45.745562369376444" lon="9.68737728461905"><ele>692.0</ele><time>2026-04-07T15:13:28Z</time></trkpt><trkpt lat="45.74565081076426" lon="9.687311000998784"><ele>692.0</ele><time>2026-04-07T15:13:30Z</time></trkpt><trkpt lat="45.74574125401784" lon="9.687321557990309"><ele>692.0</ele><time>2026-04-07T15:13:32Z</time></trkpt><trkpt lat="45.745809360177745" lon="9.68734454445529"><ele>692.0</ele><time>2026-04-07T15:13:34Z</time></trkpt><trkpt lat="45.7459017247229" lon="9.687382861470303"><ele>692.0</ele><time>2026-04-07T15:13:36Z</time></trkpt><trkpt lat="45.74598916931" lon="9.687438905654016"><ele>692.0</ele><time>2026-04-07T15:13:38Z</time></trkpt><trkpt lat="45.746082301287274" lon="9.687444106469243"><ele>692.0</ele><time>2026-04-07T15:13:40Z</time></trkpt><trkpt lat="45.74617017545766" lon="9.687401684518637"><ele>692.0</ele><time>2026-04-07T15:13:42Z</time></trkpt><trkpt lat="45.74624211153846" lon="9.687366761232521"><ele>693.6</ele><time>2026-04-07T15:13:44Z</time></trkpt><trkpt lat="45.74632874157974" lon="9.687337123745516"><ele>695.2</ele><time>2026-04-07T15:13:46Z</time></trkpt><trkpt lat="45.746457180758135" lon="9.687326310427673"><ele>696.8</ele><time>2026-04-07T15:13:48Z</time></trkpt><trkpt lat="45.74659204079948" lon="9.687337900102904"><ele>698.4</ele><time>2026-04-07T15:13:50Z</time></trkpt><trkpt lat="45.74665678550205" lon="9.687345612953617"><ele>700.0</ele><time>2026-04-07T15:13:51Z</time></trkpt><trkpt lat="45.74671404490845" lon="9.687388202435708"><ele>700.0</ele><time>2026-04-07T15:13:52Z</time></trkpt><trkpt lat="45.746758279385766" lon="9.68745642965326"><ele>700.0</ele><time>2026-04-07T15:13:53Z</time></trkpt><trkpt lat="45.746808795257216" lon="9.687515019899381"><ele>700.0</ele><time>2026-04-07T15:13:54Z</time></trkpt><trkpt lat="45.74691991685293" lon="9.687589314736934"><ele>700.0</ele><time>2026-04-07T15:13:56Z</time></trkpt><trkpt lat="45.74701945452678" lon="9.687679687823533"><ele>700.0</ele><time>2026-04-07T15:13:58Z</time></trkpt><trkpt lat="45.74711399613695" lon="9.687779493371696"><ele>699.2</ele><time>2026-04-07T15:14:00Z</time></trkpt><trkpt lat="45.74714322197059" lon="9.68793364726889"><ele>698.4</ele><time>2026-04-07T15:14:02Z</time></trkpt><trkpt lat="45.74716435986214" lon="9.68804446777547"><ele>697.5999999999999</ele><time>2026-04-07T15:14:04Z</time></trkpt><trkpt lat="45.74720988282704" lon="9.688149360265541"><ele>696.8</ele><time>2026-04-07T15:14:07Z</time></trkpt><trkpt lat="45.74729078811096" lon="9.688210482739251"><ele>696.0</ele><time>2026-04-07T15:14:09Z</time></trkpt><trkpt lat="45.747396493049486" lon="9.68825545026589"><ele>696.0</ele><time>2026-04-07T15:14:11Z</time></trkpt><trkpt lat="45.74746891950126" lon="9.68824717525222"><ele>696.0</ele><time>2026-04-07T15:14:12Z</time></trkpt><trkpt lat="45.74754071623729" lon="9.688216282380562"><ele>696.0</ele><time>2026-04-07T15:14:13Z</time></trkpt><trkpt lat="45.74761552836792" lon="9.688181113773302"><ele>696.0</ele><time>2026-04-07T15:14:14Z</time></trkpt><trkpt lat="45.747685985263715" lon="9.68815121388237"><ele>696.0</ele><time>2026-04-07T15:14:15Z</time></trkpt><trkpt lat="45.74779918823099" lon="9.688098068892298"><ele>696.0</ele><time>2026-04-07T15:14:17Z</time></trkpt><trkpt lat="45.747885046467225" lon="9.688048716010972"><ele>694.3333333333334</ele><time>2026-04-07T15:14:19Z</time></trkpt><trkpt lat="45.747983691961174" lon="9.688016365804376"><ele>692.6666666666666</ele><time>2026-04-07T15:14:21Z</time></trkpt><trkpt lat="45.74808298857214" lon="9.687988500177465"><ele>691.0</ele><time>2026-04-07T15:14:23Z</time></trkpt><trkpt lat="45.74815179596581" lon="9.688013749028716"><ele>689.3333333333333</ele><time>2026-04-07T15:14:24Z</time></trkpt><trkpt lat="45.74822147189986" lon="9.688048874748388"><ele>687.6666666666666</ele><time>2026-04-07T15:14:25Z</time></trkpt><trkpt lat="45.74828537240393" lon="9.688072867274443"><ele>686.0</ele><time>2026-04-07T15:14:26Z</time></trkpt><trkpt lat="45.74835723549469" lon="9.688110084459423"><ele>686.0</ele><time>2026-04-07T15:14:28Z</time></trkpt><trkpt lat="45.748461644562894" lon="9.68811466941504"><ele>686.0</ele><time>2026-04-07T15:14:30Z</time></trkpt><trkpt lat="45.74859567601891" lon="9.688060400840639"><ele>686.0</ele><time>2026-04-07T15:14:32Z</time></trkpt><trkpt lat="45.74870167364193" lon="9.688004786587573"><ele>686.0</ele><time>2026-04-07T15:14:34Z</time></trkpt><trkpt lat="45.74877123168857" lon="9.687999679709467"><ele>686.0</ele><time>2026-04-07T15:14:36Z</time></trkpt><trkpt lat="45.748897744920015" lon="9.687953745983874"><ele>689.4</ele><time>2026-04-07T15:14:38Z</time></trkpt><trkpt lat="45.748962415953145" lon="9.687924969474816"><ele>692.8</ele><time>2026-04-07T15:14:39Z</time></trkpt><trkpt lat="45.74907352237826" lon="9.687849528748554"><ele>696.1999999999999</ele><time>2026-04-07T15:14:41Z</time></trkpt><trkpt lat="45.74918285116104" lon="9.687784721804196"><ele>699.5999999999999</ele><time>2026-04-07T15:14:43Z</time></trkpt><trkpt lat="45.74929585998456" lon="9.687741749928007"><ele>703.0</ele><time>2026-04-07T15:14:45Z</time></trkpt><trkpt lat="45.74937311017932" lon="9.687833710020932"><ele>695.5</ele><time>2026-04-07T15:14:47Z</time></trkpt><trkpt lat="45.74945562387211" lon="9.687898128397668"><ele>688.0</ele><time>2026-04-07T15:14:49Z</time></trkpt><trkpt lat="45.749571125105454" lon="9.687866398366166"><ele>680.5</ele><time>2026-04-07T15:14:51Z</time></trkpt><trkpt lat="45.749633566685716" lon="9.687842489479397"><ele>673.0</ele><time>2026-04-07T15:14:52Z</time></trkpt><trkpt lat="45.74971107130148" lon="9.687828352207665"><ele>665.5</ele><time>2026-04-07T15:14:53Z</time></trkpt><trkpt lat="45.74978772082562" lon="9.687805391941929"><ele>658.0</ele><time>2026-04-07T15:14:54Z</time></trkpt><trkpt lat="45.74985424780562" lon="9.687781269370559"><ele>658.0</ele><time>2026-04-07T15:14:55Z</time></trkpt><trkpt lat="45.7499505920116" lon="9.687848254967838"><ele>658.0</ele><time>2026-04-07T15:14:57Z</time></trkpt><trkpt lat="45.750009986952776" lon="9.687892637405698"><ele>658.0</ele><time>2026-04-07T15:14:58Z</time></trkpt><trkpt lat="45.75007437870412" lon="9.687898816734515"><ele>658.0</ele><time>2026-04-07T15:14:59Z</time></trkpt><trkpt lat="45.7501464369695" lon="9.687887619702316"><ele>658.0</ele><time>2026-04-07T15:15:00Z</time></trkpt><trkpt lat="45.75020596786833" lon="9.687853823813713"><ele>658.0</ele><time>2026-04-07T15:15:01Z</time></trkpt><trkpt lat="45.75027027059161" lon="9.687827720680136"><ele>658.0</ele><time>2026-04-07T15:15:02Z</time></trkpt><trkpt lat="45.75039567656364" lon="9.687841403789013"><ele>662.5999999999999</ele><time>2026-04-07T15:15:04Z</time></trkpt><trkpt lat="45.75051232606415" lon="9.687894334949561"><ele>667.1999999999999</ele><time>2026-04-07T15:15:06Z</time></trkpt><trkpt lat="45.750620887025086" lon="9.68790096667517"><ele>671.8</ele><time>2026-04-07T15:15:08Z</time></trkpt><trkpt lat="45.75070957645992" lon="9.687851034992661"><ele>676.4</ele><time>2026-04-07T15:15:10Z</time></trkpt><trkpt lat="45.75078190058582" lon="9.687958399691667"><ele>681.0</ele><time>2026-04-07T15:15:12Z</time></trkpt><trkpt lat="45.7508187306608" lon="9.688128342573933"><ele>681.0</ele><time>2026-04-07T15:15:14Z</time></trkpt><trkpt lat="45.750849449647404" lon="9.688273142282652"><ele>681.0</ele><time>2026-04-07T15:15:16Z</time></trkpt><trkpt lat="45.75089226016279" lon="9.688358472623097"><ele>681.0</ele><time>2026-04-07T15:15:18Z</time></trkpt><trkpt lat="45.75097637996134" lon="9.68845844104711"><ele>681.0</ele><time>2026-04-07T15:15:20Z</time></trkpt><trkpt lat="45.75104149162505" lon="9.688545944991851"><ele>681.0</ele><time>2026-04-07T15:15:22Z</time></trkpt><trkpt lat="45.75106817122308" lon="9.688677499618136"><ele>680.8</ele><time>2026-04-07T15:15:24Z</time></trkpt><trkpt lat="45.75109597342789" lon="9.68879650030027"><ele>680.5999999999999</ele><time>2026-04-07T15:15:26Z</time></trkpt><trkpt lat="45.751101052463994" lon="9.688942978094419"><ele>680.4</ele><time>2026-04-07T15:15:28Z</time></trkpt><trkpt lat="45.75108869147123" lon="9.689076520612787"><ele>680.2</ele><time>2026-04-07T15:15:30Z</time></trkpt><trkpt lat="45.75111311240753" lon="9.689202083575754"><ele>680.0</ele><time>2026-04-07T15:15:32Z</time></trkpt><trkpt lat="45.75120657126639" lon="9.689272696186341"><ele>680.0</ele><time>2026-04-07T15:15:34Z</time></trkpt><trkpt lat="45.751319957873356" lon="9.689265552210626"><ele>680.0</ele><time>2026-04-07T15:15:36Z</time></trkpt><trkpt lat="45.75137851045498" lon="9.689231250579597"><ele>680.0</ele><time>2026-04-07T15:15:37Z</time></trkpt><trkpt lat="45.75144471808781" lon="9.689199646523925"><ele>680.0</ele><time>2026-04-07T15:15:38Z</time></trkpt><trkpt lat="45.751509830711456" lon="9.689170726210287"><ele>680.0</ele><time>2026-04-07T15:15:39Z</time></trkpt><trkpt lat="45.751578905169616" lon="9.689151280020672"><ele>680.0</ele><time>2026-04-07T15:15:40Z</time></trkpt><trkpt lat="45.75164471015824" lon="9.689128838340423"><ele>680.0</ele><time>2026-04-07T15:15:41Z</time></trkpt><trkpt lat="45.75170937680712" lon="9.68910947948417"><ele>680.0</ele><time>2026-04-07T15:15:42Z</time></trkpt><trkpt lat="45.75181578011969" lon="9.689090028283422"><ele>680.0</ele><time>2026-04-07T15:15:44Z</time></trkpt><trkpt lat="45.75193608823336" lon="9.689093624411118"><ele>680.0</ele><time>2026-04-07T15:15:46Z</time></trkpt><trkpt lat="45.752001926826495" lon="9.689038260456753"><ele>680.0</ele><time>2026-04-07T15:15:49Z</time></trkpt><trkpt lat="45.75199291457609" lon="9.688946714779684"><ele>680.0</ele><time>2026-04-07T15:15:51Z</time></trkpt><trkpt lat="45.7519943577665" lon="9.688834769282504"><ele>680.0</ele><time>2026-04-07T15:15:53Z</time></trkpt><trkpt lat="45.75206940641263" lon="9.688717492570971"><ele>680.0</ele><time>2026-04-07T15:15:55Z</time></trkpt><trkpt lat="45.75212653724989" lon="9.688669619752426"><ele>680.0</ele><time>2026-04-07T15:15:56Z</time></trkpt><trkpt lat="45.75219688053918" lon="9.688638630977065"><ele>680.0</ele><time>2026-04-07T15:15:57Z</time></trkpt><trkpt lat="45.752290803463424" lon="9.688565250652854"><ele>680.0</ele><time>2026-04-07T15:15:59Z</time></trkpt><trkpt lat="45.75238417984568" lon="9.688489622975727"><ele>680.0</ele><time>2026-04-07T15:16:01Z</time></trkpt><trkpt lat="45.75244699386156" lon="9.688457540786043"><ele>680.0</ele><time>2026-04-07T15:16:02Z</time></trkpt><trkpt lat="45.7525327270919" lon="9.68837809565852"><ele>680.0</ele><time>2026-04-07T15:16:04Z</time></trkpt><trkpt lat="45.75262806110716" lon="9.688260106262932"><ele>680.0</ele><time>2026-04-07T15:16:06Z</time></trkpt><trkpt lat="45.752675591157086" lon="9.688194763521059"><ele>680.0</ele><time>2026-04-07T15:16:07Z</time></trkpt><trkpt lat="45.752772235752275" lon="9.688104818920785"><ele>672.8</ele><time>2026-04-07T15:16:09Z</time></trkpt><trkpt lat="45.752892978188086" lon="9.688065135022425"><ele>665.6</ele><time>2026-04-07T15:16:11Z</time></trkpt><trkpt lat="45.752994600747634" lon="9.688047150377677"><ele>658.4000000000001</ele><time>2026-04-07T15:16:13Z</time></trkpt><trkpt lat="45.753067505978606" lon="9.688043926638224"><ele>651.2</ele><time>2026-04-07T15:16:14Z</time></trkpt><trkpt lat="45.75315019391464" lon="9.688035264019536"><ele>644.0</ele><time>2026-04-07T15:16:15Z</time></trkpt><trkpt lat="45.75322745179429" lon="9.687999436040696"><ele>644.0</ele><time>2026-04-07T15:16:16Z</time></trkpt><trkpt lat="45.75329760048658" lon="9.687947814067673"><ele>644.0</ele><time>2026-04-07T15:16:17Z</time></trkpt><trkpt lat="45.75336721699307" lon="9.687904491026925"><ele>644.0</ele><time>2026-04-07T15:16:18Z</time></trkpt><trkpt lat="45.753437539207944" lon="9.687854089033097"><ele>644.0</ele><time>2026-04-07T15:16:19Z</time></trkpt><trkpt lat="45.753558894282044" lon="9.687777857575883"><ele>644.0</ele><time>2026-04-07T15:16:21Z</time></trkpt><trkpt lat="45.75362715386356" lon="9.687736521154136"><ele>644.0</ele><time>2026-04-07T15:16:22Z</time></trkpt><trkpt lat="45.7536976168287" lon="9.687695774873903"><ele>646.4000000000001</ele><time>2026-04-07T15:16:23Z</time></trkpt><trkpt lat="45.75379334525864" lon="9.687655063050126"><ele>648.8</ele><time>2026-04-07T15:16:24Z</time></trkpt><trkpt lat="45.75386812237032" lon="9.687594136447014"><ele>651.2</ele><time>2026-04-07T15:16:26Z</time></trkpt><trkpt lat="45.75395468075262" lon="9.687615492147977"><ele>653.5999999999999</ele><time>2026-04-07T15:16:28Z</time></trkpt><trkpt lat="45.75405262695626" lon="9.687550712661881"><ele>656.0</ele><time>2026-04-07T15:16:30Z</time></trkpt><trkpt lat="45.75412392305369" lon="9.687537120139377"><ele>656.0</ele><time>2026-04-07T15:16:32Z</time></trkpt><trkpt lat="45.7542041285784" lon="9.687461850843544"><ele>656.0</ele><time>2026-04-07T15:16:34Z</time></trkpt><trkpt lat="45.75429230037623" lon="9.687382046143652"><ele>656.0</ele><time>2026-04-07T15:16:36Z</time></trkpt><trkpt lat="45.754341221104156" lon="9.687325040668476"><ele>656.0</ele><time>2026-04-07T15:16:37Z</time></trkpt><trkpt lat="45.75442787130704" lon="9.687187027759704"><ele>656.0</ele><time>2026-04-07T15:16:39Z</time></trkpt><trkpt lat="45.754468844303254" lon="9.687113639947215"><ele>651.75</ele><time>2026-04-07T15:16:40Z</time></trkpt><trkpt lat="45.75453701050633" lon="9.686984613615175"><ele>647.5</ele><time>2026-04-07T15:16:42Z</time></trkpt><trkpt lat="45.75460308945471" lon="9.686846993426888"><ele>643.25</ele><time>2026-04-07T15:16:44Z</time></trkpt><trkpt lat="45.75468537886849" lon="9.686714613364858"><ele>639.0</ele><time>2026-04-07T15:16:46Z</time></trkpt><trkpt lat="45.75477593410167" lon="9.686610895999417"><ele>639.0</ele><time>2026-04-07T15:16:48Z</time></trkpt><trkpt lat="45.75485797293743" lon="9.686556429593464"><ele>639.0</ele><time>2026-04-07T15:16:50Z</time></trkpt><trkpt lat="45.754953367460175" lon="9.686414128121939"><ele>639.0</ele><time>2026-04-07T15:16:52Z</time></trkpt><trkpt lat="45.75497716258487" lon="9.686320865419923"><ele>639.0</ele><time>2026-04-07T15:16:53Z</time></trkpt><trkpt lat="45.75503400057843" lon="9.686202520585546"><ele>639.0</ele><time>2026-04-07T15:16:55Z</time></trkpt><trkpt lat="45.75510941286935" lon="9.686094160869658"><ele>642.0</ele><time>2026-04-07T15:16:57Z</time></trkpt><trkpt lat="45.755154323478955" lon="9.68602920009585"><ele>645.0</ele><time>2026-04-07T15:16:58Z</time></trkpt><trkpt lat="45.75525949701297" lon="9.685955987047672"><ele>648.0</ele><time>2026-04-07T15:17:00Z</time></trkpt><trkpt lat="45.7553399801634" lon="9.685838291757728"><ele>651.0</ele><time>2026-04-07T15:17:02Z</time></trkpt><trkpt lat="45.755382962741756" lon="9.685762731710854"><ele>654.0</ele><time>2026-04-07T15:17:03Z</time></trkpt><trkpt lat="45.75543898847968" lon="9.685678830995936"><ele>657.0</ele><time>2026-04-07T15:17:04Z</time></trkpt><trkpt lat="45.755494604161" lon="9.685594142502714"><ele>651.5714285714286</ele><time>2026-04-07T15:17:05Z</time></trkpt><trkpt lat="45.755548174404744" lon="9.685513802661102"><ele>646.1428571428572</ele><time>2026-04-07T15:17:06Z</time></trkpt><trkpt lat="45.75559958631477" lon="9.685441082845848"><ele>640.7142857142858</ele><time>2026-04-07T15:17:07Z</time></trkpt><trkpt lat="45.755646663358554" lon="9.685374808718164"><ele>635.2857142857142</ele><time>2026-04-07T15:17:08Z</time></trkpt><trkpt lat="45.755697862174436" lon="9.685308616930758"><ele>629.8571428571429</ele><time>2026-04-07T15:17:09Z</time></trkpt><trkpt lat="45.75574964137172" lon="9.68523292043042"><ele>624.4285714285714</ele><time>2026-04-07T15:17:10Z</time></trkpt><trkpt lat="45.755802753875656" lon="9.685148936823065"><ele>619.0</ele><time>2026-04-07T15:17:11Z</time></trkpt><trkpt lat="45.75585614762386" lon="9.68506309141132"><ele>619.0</ele><time>2026-04-07T15:17:12Z</time></trkpt><trkpt lat="45.75590597179581" lon="9.684983359340325"><ele>619.0</ele><time>2026-04-07T15:17:13Z</time></trkpt><trkpt lat="45.755956366741216" lon="9.684902349999554"><ele>619.0</ele><time>2026-04-07T15:17:14Z</time></trkpt><trkpt lat="45.75600396065711" lon="9.684830140623736"><ele>619.0</ele><time>2026-04-07T15:17:15Z</time></trkpt><trkpt lat="45.75604691040878" lon="9.684759998916018"><ele>619.0</ele><time>2026-04-07T15:17:16Z</time></trkpt><trkpt lat="45.75610973967813" lon="9.684636747916162"><ele>619.0</ele><time>2026-04-07T15:17:18Z</time></trkpt><trkpt lat="45.75615413945087" lon="9.684532039638414"><ele>611.3333333333334</ele><time>2026-04-07T15:17:20Z</time></trkpt><trkpt lat="45.75618878034496" lon="9.68443065142601"><ele>603.6666666666667</ele><time>2026-04-07T15:17:22Z</time></trkpt><trkpt lat="45.75623943910455" lon="9.684298381354427"><ele>596.0</ele><time>2026-04-07T15:17:24Z</time></trkpt><trkpt lat="45.75627804288366" lon="9.6842220206298"><ele>588.3333333333334</ele><time>2026-04-07T15:17:25Z</time></trkpt><trkpt lat="45.756323792513484" lon="9.684135485476293"><ele>580.6666666666666</ele><time>2026-04-07T15:17:26Z</time></trkpt><trkpt lat="45.756359108714776" lon="9.684044575637984"><ele>573.0</ele><time>2026-04-07T15:17:27Z</time></trkpt><trkpt lat="45.756390705798985" lon="9.6839533032765"><ele>573.0</ele><time>2026-04-07T15:17:28Z</time></trkpt><trkpt lat="45.75645149249483" lon="9.683802633677095"><ele>573.0</ele><time>2026-04-07T15:17:30Z</time></trkpt><trkpt lat="45.75649574233964" lon="9.683677905471626"><ele>573.0</ele><time>2026-04-07T15:17:32Z</time></trkpt><trkpt lat="45.7565592491099" lon="9.683550672062374"><ele>573.0</ele><time>2026-04-07T15:17:34Z</time></trkpt><trkpt lat="45.75659457527659" lon="9.683424053857822"><ele>573.0</ele><time>2026-04-07T15:17:36Z</time></trkpt><trkpt lat="45.75665161148547" lon="9.683321330657577"><ele>573.0</ele><time>2026-04-07T15:17:38Z</time></trkpt><trkpt lat="45.75671827110527" lon="9.68318002745162"><ele>573.0</ele><time>2026-04-07T15:17:40Z</time></trkpt><trkpt lat="45.75677004816637" lon="9.683050504700557"><ele>573.0</ele><time>2026-04-07T15:17:42Z</time></trkpt><trkpt lat="45.75682704327002" lon="9.682928137619017"><ele>573.0</ele><time>2026-04-07T15:17:44Z</time></trkpt><trkpt lat="45.756880784736545" lon="9.682867028296053"><ele>573.0</ele><time>2026-04-07T15:17:45Z</time></trkpt><trkpt lat="45.75693315408621" lon="9.682718674246937"><ele>573.0</ele><time>2026-04-07T15:17:47Z</time></trkpt><trkpt lat="45.756952896957316" lon="9.682562025136887"><ele>573.0</ele><time>2026-04-07T15:17:49Z</time></trkpt><trkpt lat="45.75703889512215" lon="9.68247388212636"><ele>573.0</ele><time>2026-04-07T15:17:51Z</time></trkpt><trkpt lat="45.75710693215905" lon="9.682446417882172"><ele>573.0</ele><time>2026-04-07T15:17:53Z</time></trkpt><trkpt lat="45.75719059611075" lon="9.682445806632852"><ele>573.0</ele><time>2026-04-07T15:17:56Z</time></trkpt><trkpt lat="45.757262241930604" lon="9.682593125793758"><ele>573.0</ele><time>2026-04-07T15:17:58Z</time></trkpt><trkpt lat="45.75728138304327" lon="9.682720141727588"><ele>573.0</ele><time>2026-04-07T15:18:01Z</time></trkpt><trkpt lat="45.757247593017915" lon="9.682868240827178"><ele>573.0</ele><time>2026-04-07T15:18:03Z</time></trkpt><trkpt lat="45.757258084753694" lon="9.682996310871957"><ele>573.0</ele><time>2026-04-07T15:18:05Z</time></trkpt><trkpt lat="45.75720592498862" lon="9.683138662944815"><ele>573.0</ele><time>2026-04-07T15:18:07Z</time></trkpt><trkpt lat="45.7571562574351" lon="9.683229182652003"><ele>571.8</ele><time>2026-04-07T15:18:09Z</time></trkpt><trkpt lat="45.75713630141179" lon="9.683376305598546"><ele>570.5999999999999</ele><time>2026-04-07T15:18:11Z</time></trkpt><trkpt lat="45.75717556872604" lon="9.683505390699233"><ele>569.4000000000001</ele><time>2026-04-07T15:18:13Z</time></trkpt><trkpt lat="45.757160344768195" lon="9.68361045648037"><ele>568.2</ele><time>2026-04-07T15:18:15Z</time></trkpt><trkpt lat="45.75710356107977" lon="9.683677719796101"><ele>567.0</ele><time>2026-04-07T15:18:17Z</time></trkpt><trkpt lat="45.75708763613196" lon="9.68384093964654"><ele>565.1666666666666</ele><time>2026-04-07T15:18:19Z</time></trkpt><trkpt lat="45.757094875186496" lon="9.683951658655337"><ele>563.3333333333334</ele><time>2026-04-07T15:18:20Z</time></trkpt><trkpt lat="45.757104867797956" lon="9.684047513135203"><ele>561.5</ele><time>2026-04-07T15:18:21Z</time></trkpt><trkpt lat="45.757117083334265" lon="9.684136521848595"><ele>559.6666666666667</ele><time>2026-04-07T15:18:22Z</time></trkpt><trkpt lat="45.7571351814481" lon="9.684230424939534"><ele>557.8333333333334</ele><time>2026-04-07T15:18:23Z</time></trkpt><trkpt lat="45.757144251686256" lon="9.684322650200704"><ele>556.0</ele><time>2026-04-07T15:18:24Z</time></trkpt><trkpt lat="45.7571423031856" lon="9.684491061846472"><ele>554.2</ele><time>2026-04-07T15:18:26Z</time></trkpt><trkpt lat="45.75716961852341" lon="9.684672152099592"><ele>552.4000000000001</ele><time>2026-04-07T15:18:28Z</time></trkpt><trkpt lat="45.75719784846888" lon="9.68484008799643"><ele>550.6</ele><time>2026-04-07T15:18:30Z</time></trkpt><trkpt lat="45.75721863021649" lon="9.684943571946421"><ele>548.8000000000001</ele><time>2026-04-07T15:18:31Z</time></trkpt><trkpt lat="45.757230301350894" lon="9.685046294027693"><ele>547.0</ele><time>2026-04-07T15:18:32Z</time></trkpt><trkpt lat="45.75724232418694" lon="9.685203864431065"><ele>545.2</ele><time>2026-04-07T15:18:34Z</time></trkpt><trkpt lat="45.75728139350038" lon="9.685325239043122"><ele>543.4000000000001</ele><time>2026-04-07T15:18:36Z</time></trkpt><trkpt lat="45.757366494596226" lon="9.685389448416977"><ele>541.5999999999999</ele><time>2026-04-07T15:18:38Z</time></trkpt><trkpt lat="45.75740302398863" lon="9.685490803723921"><ele>539.8</ele><time>2026-04-07T15:18:40Z</time></trkpt><trkpt lat="45.7573214597984" lon="9.685581276180137"><ele>538.0</ele><time>2026-04-07T15:18:42Z</time></trkpt><trkpt lat="45.757281707798434" lon="9.685707145427672"><ele>538.0</ele><time>2026-04-07T15:18:44Z</time></trkpt><trkpt lat="45.75727132831243" lon="9.685875370012521"><ele>538.0</ele><time>2026-04-07T15:18:46Z</time></trkpt><trkpt lat="45.75723611493719" lon="9.686041915406715"><ele>538.0</ele><time>2026-04-07T15:18:48Z</time></trkpt><trkpt lat="45.75726503493078" lon="9.686199576971447"><ele>538.0</ele><time>2026-04-07T15:18:50Z</time></trkpt><trkpt lat="45.75731811990297" lon="9.686264351364153"><ele>538.0</ele><time>2026-04-07T15:18:52Z</time></trkpt><trkpt lat="45.757396201245555" lon="9.68636999323903"><ele>535.8</ele><time>2026-04-07T15:18:54Z</time></trkpt><trkpt lat="45.757459664344985" lon="9.686494367985308"><ele>533.5999999999999</ele><time>2026-04-07T15:18:56Z</time></trkpt><trkpt lat="45.75752709055157" lon="9.686563425409854"><ele>531.4000000000001</ele><time>2026-04-07T15:18:58Z</time></trkpt><trkpt lat="45.75762125426457" lon="9.686666131616684"><ele>529.2</ele><time>2026-04-07T15:19:00Z</time></trkpt><trkpt lat="45.75767422688763" lon="9.686717501671467"><ele>527.0</ele><time>2026-04-07T15:19:01Z</time></trkpt><trkpt lat="45.75774638984554" lon="9.686856072566849"><ele>526.4</ele><time>2026-04-07T15:19:03Z</time></trkpt><trkpt lat="45.757774287313964" lon="9.686938211455427"><ele>525.8000000000001</ele><time>2026-04-07T15:19:04Z</time></trkpt><trkpt lat="45.75778692126224" lon="9.687079095066666"><ele>525.2</ele><time>2026-04-07T15:19:06Z</time></trkpt><trkpt lat="45.75773796078569" lon="9.687179557212984"><ele>524.6</ele><time>2026-04-07T15:19:08Z</time></trkpt><trkpt lat="45.75763162161964" lon="9.687266378799462"><ele>524.0</ele><time>2026-04-07T15:19:10Z</time></trkpt><trkpt lat="45.757559411627966" lon="9.687413852583354"><ele>524.0</ele><time>2026-04-07T15:19:12Z</time></trkpt><trkpt lat="45.7575271641969" lon="9.687493318326252"><ele>524.0</ele><time>2026-04-07T15:19:13Z</time></trkpt><trkpt lat="45.75749013808088" lon="9.687571408954286"><ele>524.0</ele><time>2026-04-07T15:19:14Z</time></trkpt><trkpt lat="45.757460809304966" lon="9.687652510695195"><ele>524.0</ele><time>2026-04-07T15:19:15Z</time></trkpt><trkpt lat="45.757454704858574" lon="9.687829085171785"><ele>524.0</ele><time>2026-04-07T15:19:17Z</time></trkpt><trkpt lat="45.75747645814291" lon="9.68791939892703"><ele>524.0</ele><time>2026-04-07T15:19:18Z</time></trkpt><trkpt lat="45.757506521816424" lon="9.688093120589683"><ele>524.2</ele><time>2026-04-07T15:19:20Z</time></trkpt><trkpt lat="45.7575342739323" lon="9.68826760398494"><ele>524.4</ele><time>2026-04-07T15:19:22Z</time></trkpt><trkpt lat="45.75756988530607" lon="9.68841111343726"><ele>524.6</ele><time>2026-04-07T15:19:24Z</time></trkpt><trkpt lat="45.757507289991295" lon="9.68851673030536"><ele>524.8</ele><time>2026-04-07T15:19:26Z</time></trkpt><trkpt lat="45.757421680095064" lon="9.688577050696756"><ele>525.0</ele><time>2026-04-07T15:19:28Z</time></trkpt><trkpt lat="45.757349522673174" lon="9.688663624175527"><ele>526.2</ele><time>2026-04-07T15:19:30Z</time></trkpt><trkpt lat="45.75728580284104" lon="9.68878395113918"><ele>527.4</ele><time>2026-04-07T15:19:32Z</time></trkpt><trkpt lat="45.75720898773423" lon="9.688930159229534"><ele>528.6</ele><time>2026-04-07T15:19:34Z</time></trkpt><trkpt lat="45.75715228175867" lon="9.68900665349433"><ele>529.8</ele><time>2026-04-07T15:19:35Z</time></trkpt><trkpt lat="45.75708865443739" lon="9.689084232331002"><ele>531.0</ele><time>2026-04-07T15:19:36Z</time></trkpt><trkpt lat="45.75702238687647" lon="9.68915508141853"><ele>531.0</ele><time>2026-04-07T15:19:37Z</time></trkpt><trkpt lat="45.75696017425324" lon="9.689216410583473"><ele>531.0</ele><time>2026-04-07T15:19:38Z</time></trkpt><trkpt lat="45.75686263930498" lon="9.6892960890691"><ele>531.0</ele><time>2026-04-07T15:19:40Z</time></trkpt><trkpt lat="45.75680380807977" lon="9.689346598429296"><ele>531.0</ele><time>2026-04-07T15:19:41Z</time></trkpt><trkpt lat="45.75672954980564" lon="9.68940773837287"><ele>531.0</ele><time>2026-04-07T15:19:42Z</time></trkpt><trkpt lat="45.7566496632841" lon="9.68946813500378"><ele>531.0</ele><time>2026-04-07T15:19:43Z</time></trkpt><trkpt lat="45.75656150453574" lon="9.68953420559992"><ele>528.8</ele><time>2026-04-07T15:19:44Z</time></trkpt><trkpt lat="45.75647160253772" lon="9.689609283714411"><ele>526.6</ele><time>2026-04-07T15:19:45Z</time></trkpt><trkpt lat="45.75638817304448" lon="9.689683916484048"><ele>524.4</ele><time>2026-04-07T15:19:46Z</time></trkpt><trkpt lat="45.75631266248366" lon="9.689742844192237"><ele>522.2</ele><time>2026-04-07T15:19:47Z</time></trkpt><trkpt lat="45.75622854008238" lon="9.689806068625519"><ele>520.0</ele><time>2026-04-07T15:19:48Z</time></trkpt><trkpt lat="45.75613950848735" lon="9.689887691516487"><ele>520.0</ele><time>2026-04-07T15:19:49Z</time></trkpt><trkpt lat="45.7560560406408" lon="9.689999218816437"><ele>520.0</ele><time>2026-04-07T15:19:50Z</time></trkpt><trkpt lat="45.75597982093915" lon="9.690125002311499"><ele>520.0</ele><time>2026-04-07T15:19:51Z</time></trkpt><trkpt lat="45.75590225193751" lon="9.690259521748851"><ele>520.0</ele><time>2026-04-07T15:19:52Z</time></trkpt><trkpt lat="45.755818100609105" lon="9.69039354441037"><ele>514.75</ele><time>2026-04-07T15:19:53Z</time></trkpt><trkpt lat="45.75573297640339" lon="9.690529760716124"><ele>509.5</ele><time>2026-04-07T15:19:54Z</time></trkpt><trkpt lat="45.75565167630541" lon="9.690667797991383"><ele>504.25</ele><time>2026-04-07T15:19:55Z</time></trkpt><trkpt lat="45.75557574757981" lon="9.69082084808104"><ele>499.0</ele><time>2026-04-07T15:19:56Z</time></trkpt><trkpt lat="45.75550786579023" lon="9.690990177380215"><ele>498.5</ele><time>2026-04-07T15:19:57Z</time></trkpt><trkpt lat="45.75544873706379" lon="9.691167693287671"><ele>498.0</ele><time>2026-04-07T15:19:58Z</time></trkpt><trkpt lat="45.75539479094196" lon="9.691351040092506"><ele>497.5</ele><time>2026-04-07T15:19:59Z</time></trkpt><trkpt lat="45.75533945426545" lon="9.691531484648287"><ele>497.0</ele><time>2026-04-07T15:20:00Z</time></trkpt><trkpt lat="45.75528304945347" lon="9.69169873707778"><ele>497.0</ele><time>2026-04-07T15:20:01Z</time></trkpt><trkpt lat="45.755237062739525" lon="9.691832129511068"><ele>497.00000000000006</ele><time>2026-04-07T15:20:02Z</time></trkpt><trkpt lat="45.7552103394303" lon="9.691942971078372"><ele>497.00000000000006</ele><time>2026-04-07T15:20:03Z</time></trkpt><trkpt lat="45.755212694616446" lon="9.692079290120153"><ele>497.0</ele><time>2026-04-07T15:20:04Z</time></trkpt><trkpt lat="45.755235427671046" lon="9.692231514346803"><ele>497.0</ele><time>2026-04-07T15:20:05Z</time></trkpt><trkpt lat="45.755272411200174" lon="9.692384994573773"><ele>496.8</ele><time>2026-04-07T15:20:06Z</time></trkpt><trkpt lat="45.75530034369579" lon="9.692532550713995"><ele>496.6</ele><time>2026-04-07T15:20:07Z</time></trkpt><trkpt lat="45.75532595923072" lon="9.692686411694071"><ele>496.40000000000003</ele><time>2026-04-07T15:20:08Z</time></trkpt><trkpt lat="45.755343139151094" lon="9.692828513337703"><ele>496.20000000000005</ele><time>2026-04-07T15:20:09Z</time></trkpt><trkpt lat="45.75534784314522" lon="9.692951136733106"><ele>496.0</ele><time>2026-04-07T15:20:10Z</time></trkpt><trkpt lat="45.75532940986911" lon="9.693078521616169"><ele>496.0</ele><time>2026-04-07T15:20:11Z</time></trkpt><trkpt lat="45.75528252785676" lon="9.693208090223093"><ele>496.0</ele><time>2026-04-07T15:20:12Z</time></trkpt><trkpt lat="45.755212700678555" lon="9.693322319588898"><ele>496.0</ele><time>2026-04-07T15:20:13Z</time></trkpt><trkpt lat="45.7551463457599" lon="9.693433839231957"><ele>496.0</ele><time>2026-04-07T15:20:14Z</time></trkpt><trkpt lat="45.755092366237044" lon="9.693565823963139"><ele>496.0</ele><time>2026-04-07T15:20:15Z</time></trkpt><trkpt lat="45.755045378096625" lon="9.693719885546951"><ele>489.0</ele><time>2026-04-07T15:20:16Z</time></trkpt><trkpt lat="45.75499225623914" lon="9.693874386210055"><ele>482.0</ele><time>2026-04-07T15:20:17Z</time></trkpt><trkpt lat="45.75493909021998" lon="9.694028448008012"><ele>475.0</ele><time>2026-04-07T15:20:18Z</time></trkpt><trkpt lat="45.75489312554805" lon="9.694175970313493"><ele>468.0</ele><time>2026-04-07T15:20:19Z</time></trkpt><trkpt lat="45.75485851392049" lon="9.694318687125925"><ele>467.0</ele><time>2026-04-07T15:20:20Z</time></trkpt><trkpt lat="45.754836864882" lon="9.694455045895724"><ele>465.99999999999994</ele><time>2026-04-07T15:20:21Z</time></trkpt><trkpt lat="45.75483594697766" lon="9.694580345992698"><ele>464.99999999999994</ele><time>2026-04-07T15:20:22Z</time></trkpt><trkpt lat="45.754853275678656" lon="9.694701226485906"><ele>464.0</ele><time>2026-04-07T15:20:23Z</time></trkpt><trkpt lat="45.75490384984169" lon="9.694808844319592"><ele>463.0</ele><time>2026-04-07T15:20:24Z</time></trkpt><trkpt lat="45.75496617571922" lon="9.694911183995991"><ele>463.0</ele><time>2026-04-07T15:20:25Z</time></trkpt><trkpt lat="45.755021296578214" lon="9.695024904427017"><ele>462.99999999999994</ele><time>2026-04-07T15:20:26Z</time></trkpt><trkpt lat="45.75506630947644" lon="9.695123041941404"><ele>462.99999999999994</ele><time>2026-04-07T15:20:27Z</time></trkpt><trkpt lat="45.75509600130383" lon="9.695211972192192"><ele>463.0</ele><time>2026-04-07T15:20:28Z</time></trkpt><trkpt lat="45.75506477742187" lon="9.69538540305336"><ele>463.0</ele><time>2026-04-07T15:20:30Z</time></trkpt><trkpt lat="45.75499286834008" lon="9.69543062174377"><ele>464.50000000000006</ele><time>2026-04-07T15:20:31Z</time></trkpt><trkpt lat="45.75491328015428" lon="9.695415341577068"><ele>466.0</ele><time>2026-04-07T15:20:32Z</time></trkpt><trkpt lat="45.754837102075484" lon="9.695398678414719"><ele>467.5</ele><time>2026-04-07T15:20:33Z</time></trkpt><trkpt lat="45.7547542010795" lon="9.695390104891969"><ele>469.0</ele><time>2026-04-07T15:20:34Z</time></trkpt><trkpt lat="45.75466546534015" lon="9.695383750549448"><ele>470.50000000000006</ele><time>2026-04-07T15:20:35Z</time></trkpt><trkpt lat="45.754571238235116" lon="9.695386475453095"><ele>472.0</ele><time>2026-04-07T15:20:36Z</time></trkpt><trkpt lat="45.75447179689144" lon="9.695393171513883"><ele>467.40000000000003</ele><time>2026-04-07T15:20:37Z</time></trkpt><trkpt lat="45.75436733945531" lon="9.695416785531071"><ele>462.80000000000007</ele><time>2026-04-07T15:20:38Z</time></trkpt><trkpt lat="45.75426289543409" lon="9.695462833292387"><ele>458.2</ele><time>2026-04-07T15:20:39Z</time></trkpt><trkpt lat="45.754160892693996" lon="9.69553108127342"><ele>453.6</ele><time>2026-04-07T15:20:40Z</time></trkpt><trkpt lat="45.754065702815936" lon="9.695594801241088"><ele>449.0</ele><time>2026-04-07T15:20:41Z</time></trkpt><trkpt lat="45.75398901058745" lon="9.695655335683385"><ele>449.0</ele><time>2026-04-07T15:20:42Z</time></trkpt><trkpt lat="45.753931023631544" lon="9.695768277137901"><ele>449.0</ele><time>2026-04-07T15:20:43Z</time></trkpt><trkpt lat="45.75389475918845" lon="9.695902206575408"><ele>449.0</ele><time>2026-04-07T15:20:44Z</time></trkpt><trkpt lat="45.75386612694698" lon="9.696042722897449"><ele>449.0</ele><time>2026-04-07T15:20:45Z</time></trkpt><trkpt lat="45.75385161745865" lon="9.696194710679453"><ele>449.0</ele><time>2026-04-07T15:20:46Z</time></trkpt><trkpt lat="45.7538412450218" lon="9.696350448279539"><ele>449.75</ele><time>2026-04-07T15:20:47Z</time></trkpt><trkpt lat="45.753824844824145" lon="9.696500039357225"><ele>450.5</ele><time>2026-04-07T15:20:48Z</time></trkpt><trkpt lat="45.75378196432682" lon="9.696650362608473"><ele>451.25</ele><time>2026-04-07T15:20:49Z</time></trkpt><trkpt lat="45.753718296554" lon="9.696789642342765"><ele>452.0</ele><time>2026-04-07T15:20:50Z</time></trkpt><trkpt lat="45.753661412988386" lon="9.696937510976989"><ele>453.0</ele><time>2026-04-07T15:20:51Z</time></trkpt><trkpt lat="45.753618037347614" lon="9.69709615551962"><ele>454.0</ele><time>2026-04-07T15:20:52Z</time></trkpt><trkpt lat="45.75357938342748" lon="9.697261136115289"><ele>455.0</ele><time>2026-04-07T15:20:53Z</time></trkpt><trkpt lat="45.7535352770276" lon="9.697418928757713"><ele>456.0</ele><time>2026-04-07T15:20:54Z</time></trkpt><trkpt lat="45.75348125540801" lon="9.697556445515804"><ele>450.0</ele><time>2026-04-07T15:20:55Z</time></trkpt><trkpt lat="45.75341095405388" lon="9.697670614236642"><ele>444.0</ele><time>2026-04-07T15:20:56Z</time></trkpt><trkpt lat="45.75333265850735" lon="9.697761383814434"><ele>438.0</ele><time>2026-04-07T15:20:57Z</time></trkpt><trkpt lat="45.75328541507503" lon="9.69786450844593"><ele>432.0</ele><time>2026-04-07T15:20:58Z</time></trkpt><trkpt lat="45.7532623005883" lon="9.698003323631958"><ele>426.0</ele><time>2026-04-07T15:20:59Z</time></trkpt><trkpt lat="45.75324505440752" lon="9.69813766571804"><ele>426.0</ele><time>2026-04-07T15:21:00Z</time></trkpt><trkpt lat="45.753228394819075" lon="9.698273129091577"><ele>426.0</ele><time>2026-04-07T15:21:01Z</time></trkpt><trkpt lat="45.75323008845556" lon="9.698409001304013"><ele>426.0</ele><time>2026-04-07T15:21:02Z</time></trkpt><trkpt lat="45.753243824789934" lon="9.698554769980532"><ele>426.0</ele><time>2026-04-07T15:21:03Z</time></trkpt><trkpt lat="45.75326136625282" lon="9.698695367891167"><ele>426.0</ele><time>2026-04-07T15:21:04Z</time></trkpt><trkpt lat="45.75326237796424" lon="9.698833696843494"><ele>426.1666666666667</ele><time>2026-04-07T15:21:05Z</time></trkpt><trkpt lat="45.75322922778615" lon="9.698954828881796"><ele>426.33333333333337</ele><time>2026-04-07T15:21:06Z</time></trkpt><trkpt lat="45.753159974727915" lon="9.699048425753476"><ele>426.5</ele><time>2026-04-07T15:21:07Z</time></trkpt><trkpt lat="45.75306261971127" lon="9.699073060398288"><ele>426.6666666666667</ele><time>2026-04-07T15:21:08Z</time></trkpt><trkpt lat="45.75299040398309" lon="9.699115643031163"><ele>426.83333333333337</ele><time>2026-04-07T15:21:09Z</time></trkpt><trkpt lat="45.75291976090367" lon="9.699155011523233"><ele>427.0</ele><time>2026-04-07T15:21:10Z</time></trkpt><trkpt lat="45.75285682601607" lon="9.699218479001422"><ele>427.0</ele><time>2026-04-07T15:21:11Z</time></trkpt><trkpt lat="45.75280327792048" lon="9.699290435406365"><ele>427.0</ele><time>2026-04-07T15:21:12Z</time></trkpt><trkpt lat="45.75274393741349" lon="9.699354156496979"><ele>427.0</ele><time>2026-04-07T15:21:13Z</time></trkpt><trkpt lat="45.75268399362783" lon="9.699416931819698"><ele>427.0</ele><time>2026-04-07T15:21:14Z</time></trkpt><trkpt lat="45.75261444222789" lon="9.699456643283188"><ele>427.0</ele><time>2026-04-07T15:21:15Z</time></trkpt><trkpt lat="45.75253685871591" lon="9.699456903845839"><ele>427.0</ele><time>2026-04-07T15:21:16Z</time></trkpt><trkpt lat="45.75246246160315" lon="9.699457915990273"><ele>427.0</ele><time>2026-04-07T15:21:17Z</time></trkpt><trkpt lat="45.75238945937194" lon="9.699484374593508"><ele>428.00000000000006</ele><time>2026-04-07T15:21:18Z</time></trkpt><trkpt lat="45.752317852624024" lon="9.6995348359153"><ele>429.0</ele><time>2026-04-07T15:21:19Z</time></trkpt><trkpt lat="45.7522534943554" lon="9.699606300114965"><ele>430.0</ele><time>2026-04-07T15:21:20Z</time></trkpt><trkpt lat="45.75219224046931" lon="9.699693480889259"><ele>431.0</ele><time>2026-04-07T15:21:21Z</time></trkpt><trkpt lat="45.75212758078431" lon="9.699782917197155"><ele>432.00000000000006</ele><time>2026-04-07T15:21:22Z</time></trkpt><trkpt lat="45.752060938116585" lon="9.699878453885642"><ele>433.0</ele><time>2026-04-07T15:21:23Z</time></trkpt><trkpt lat="45.751990426513935" lon="9.699975749928052"><ele>433.0</ele><time>2026-04-07T15:21:24Z</time></trkpt><trkpt lat="45.75192402989301" lon="9.700077798098434"><ele>432.99999999999994</ele><time>2026-04-07T15:21:25Z</time></trkpt><trkpt lat="45.751858478672816" lon="9.700182293673837"><ele>432.99999999999994</ele><time>2026-04-07T15:21:26Z</time></trkpt><trkpt lat="45.75179430600204" lon="9.700287875168062"><ele>433.0</ele><time>2026-04-07T15:21:27Z</time></trkpt><trkpt lat="45.75172527224199" lon="9.700393001210449"><ele>433.0</ele><time>2026-04-07T15:21:28Z</time></trkpt><trkpt lat="45.75164981556932" lon="9.70049323592242"><ele>429.79999999999995</ele><time>2026-04-07T15:21:29Z</time></trkpt><trkpt lat="45.75158507460081" lon="9.700610162701237"><ele>426.59999999999997</ele><time>2026-04-07T15:21:30Z</time></trkpt><trkpt lat="45.75153081661733" lon="9.70075024620095"><ele>423.4</ele><time>2026-04-07T15:21:31Z</time></trkpt><trkpt lat="45.75148644889233" lon="9.700899593085117"><ele>420.20000000000005</ele><time>2026-04-07T15:21:32Z</time></trkpt><trkpt lat="45.75145331763715" lon="9.701053272026554"><ele>417.0</ele><time>2026-04-07T15:21:33Z</time></trkpt><trkpt lat="45.751427154374646" lon="9.701198873455741"><ele>417.0</ele><time>2026-04-07T15:21:34Z</time></trkpt><trkpt lat="45.75140400235241" lon="9.701346184467912"><ele>417.0</ele><time>2026-04-07T15:21:35Z</time></trkpt><trkpt lat="45.7514000443773" lon="9.701501607651993"><ele>417.0</ele><time>2026-04-07T15:21:36Z</time></trkpt><trkpt lat="45.7514145612591" lon="9.701644350426038"><ele>417.0</ele><time>2026-04-07T15:21:37Z</time></trkpt><trkpt lat="45.75143256082762" lon="9.701770033039763"><ele>417.0</ele><time>2026-04-07T15:21:38Z</time></trkpt><trkpt lat="45.75145013397364" lon="9.7018796404014"><ele>417.0</ele><time>2026-04-07T15:21:39Z</time></trkpt><trkpt lat="45.75144200207568" lon="9.702031350611817"><ele>417.0</ele><time>2026-04-07T15:21:41Z</time></trkpt><trkpt lat="45.751338954565476" lon="9.702020633763453"><ele>417.0</ele><time>2026-04-07T15:21:43Z</time></trkpt><trkpt lat="45.751314694107" lon="9.701923773714421"><ele>417.0</ele><time>2026-04-07T15:21:44Z</time></trkpt><trkpt lat="45.75131666974874" lon="9.701817007312115"><ele>417.0</ele><time>2026-04-07T15:21:45Z</time></trkpt><trkpt lat="45.75131209911645" lon="9.70171200979425"><ele>417.0</ele><time>2026-04-07T15:21:46Z</time></trkpt><trkpt lat="45.75130220511646" lon="9.701601253046892"><ele>417.0</ele><time>2026-04-07T15:21:47Z</time></trkpt><trkpt lat="45.75129898145153" lon="9.701483397820633"><ele>417.0</ele><time>2026-04-07T15:21:48Z</time></trkpt><trkpt lat="45.75130016096357" lon="9.70136007303429"><ele>417.0</ele><time>2026-04-07T15:21:49Z</time></trkpt><trkpt lat="45.75132029952332" lon="9.701231761794473"><ele>417.0</ele><time>2026-04-07T15:21:50Z</time></trkpt><trkpt lat="45.751360664584155" lon="9.70112129447654"><ele>417.0</ele><time>2026-04-07T15:21:51Z</time></trkpt><trkpt lat="45.75139254366764" lon="9.701037101347765"><ele>417.0</ele><time>2026-04-07T15:21:52Z</time></trkpt><trkpt lat="45.75131517828062" lon="9.700922154609946"><ele>417.0</ele><time>2026-04-07T15:21:54Z</time></trkpt><trkpt lat="45.75125393561787" lon="9.70095372375284"><ele>417.0</ele><time>2026-04-07T15:21:55Z</time></trkpt><trkpt lat="45.75121849227884" lon="9.701041218286521"><ele>417.0</ele><time>2026-04-07T15:21:56Z</time></trkpt><trkpt lat="45.751215145689535" lon="9.701147336667526"><ele>417.0</ele><time>2026-04-07T15:21:57Z</time></trkpt><trkpt lat="45.75121153398917" lon="9.701245064262126"><ele>417.0</ele><time>2026-04-07T15:21:58Z</time></trkpt><trkpt lat="45.75120618025129" lon="9.701342826914344"><ele>417.0</ele><time>2026-04-07T15:21:59Z</time></trkpt><trkpt lat="45.75119865111677" lon="9.701443712435895"><ele>417.0</ele><time>2026-04-07T15:22:00Z</time></trkpt><trkpt lat="45.751188810345" lon="9.701549178890808"><ele>417.0</ele><time>2026-04-07T15:22:01Z</time></trkpt><trkpt lat="45.75117579835558" lon="9.701657978210761"><ele>417.0</ele><time>2026-04-07T15:22:02Z</time></trkpt><trkpt lat="45.75115969720788" lon="9.701767680058792"><ele>417.0</ele><time>2026-04-07T15:22:03Z</time></trkpt><trkpt lat="45.75115131866502" lon="9.70188168440574"><ele>417.0</ele><time>2026-04-07T15:22:04Z</time></trkpt><trkpt lat="45.75114726265988" lon="9.702000013738179"><ele>417.0</ele><time>2026-04-07T15:22:05Z</time></trkpt><trkpt lat="45.751149694724454" lon="9.702118102077089"><ele>417.0</ele><time>2026-04-07T15:22:06Z</time></trkpt><trkpt lat="45.751160354256214" lon="9.702236628460389"><ele>416.0</ele><time>2026-04-07T15:22:07Z</time></trkpt><trkpt lat="45.751177866585266" lon="9.702357889760188"><ele>415.0</ele><time>2026-04-07T15:22:08Z</time></trkpt><trkpt lat="45.751203041294026" lon="9.702475554735463"><ele>414.0</ele><time>2026-04-07T15:22:09Z</time></trkpt><trkpt lat="45.75122781247223" lon="9.702598839810479"><ele>413.0</ele><time>2026-04-07T15:22:10Z</time></trkpt><trkpt lat="45.75125127605124" lon="9.702724699087756"><ele>412.0</ele><time>2026-04-07T15:22:11Z</time></trkpt><trkpt lat="45.75127967923542" lon="9.702847964302846"><ele>411.0</ele><time>2026-04-07T15:22:12Z</time></trkpt><trkpt lat="45.75131048179203" lon="9.702980286985433"><ele>408.8</ele><time>2026-04-07T15:22:13Z</time></trkpt><trkpt lat="45.7513401126204" lon="9.70311478173403"><ele>406.6</ele><time>2026-04-07T15:22:14Z</time></trkpt><trkpt lat="45.7513694888228" lon="9.703255651298424"><ele>404.4</ele><time>2026-04-07T15:22:15Z</time></trkpt><trkpt lat="45.75137455505724" lon="9.703393786042406"><ele>402.2</ele><time>2026-04-07T15:22:16Z</time></trkpt><trkpt lat="45.75139590718954" lon="9.703539739869395"><ele>400.0</ele><time>2026-04-07T15:22:17Z</time></trkpt><trkpt lat="45.751460546068216" lon="9.703705990330464"><ele>396.0</ele><time>2026-04-07T15:22:18Z</time></trkpt><trkpt lat="45.751491835191636" lon="9.703861085887208"><ele>392.0</ele><time>2026-04-07T15:22:19Z</time></trkpt><trkpt lat="45.75150415363726" lon="9.703987176985567"><ele>388.0</ele><time>2026-04-07T15:22:20Z</time></trkpt><trkpt lat="45.75146773047832" lon="9.704212573561636"><ele>384.0</ele><time>2026-04-07T15:22:21Z</time></trkpt><trkpt lat="45.75142538392063" lon="9.704389951483185"><ele>384.5</ele><time>2026-04-07T15:22:22Z</time></trkpt><trkpt lat="45.751376506382265" lon="9.704560485370418"><ele>385.0</ele><time>2026-04-07T15:22:23Z</time></trkpt><trkpt lat="45.75133378418599" lon="9.70474010993116"><ele>385.5</ele><time>2026-04-07T15:22:24Z</time></trkpt><trkpt lat="45.75129228625047" lon="9.704921057118991"><ele>386.0</ele><time>2026-04-07T15:22:25Z</time></trkpt><trkpt lat="45.751250411168506" lon="9.70510321161041"><ele>386.75</ele><time>2026-04-07T15:22:26Z</time></trkpt><trkpt lat="45.75120761966233" lon="9.705283418277764"><ele>387.5</ele><time>2026-04-07T15:22:27Z</time></trkpt><trkpt lat="45.751167398509956" lon="9.705471096616721"><ele>388.25</ele><time>2026-04-07T15:22:28Z</time></trkpt><trkpt lat="45.751127307255054" lon="9.705661300710474"><ele>389.0</ele><time>2026-04-07T15:22:29Z</time></trkpt><trkpt lat="45.75108598485752" lon="9.705845962189198"><ele>389.0</ele><time>2026-04-07T15:22:30Z</time></trkpt><trkpt lat="45.751048278354716" lon="9.706028667648537"><ele>389.0</ele><time>2026-04-07T15:22:31Z</time></trkpt><trkpt lat="45.751013112849996" lon="9.706217630541138"><ele>389.0</ele><time>2026-04-07T15:22:32Z</time></trkpt><trkpt lat="45.750984599436386" lon="9.70640292474372"><ele>389.0</ele><time>2026-04-07T15:22:33Z</time></trkpt><trkpt lat="45.75097124946836" lon="9.706594987394624"><ele>384.25</ele><time>2026-04-07T15:22:34Z</time></trkpt><trkpt lat="45.750960421403164" lon="9.70680124910653"><ele>379.5</ele><time>2026-04-07T15:22:35Z</time></trkpt><trkpt lat="45.75095106997839" lon="9.706997574882424"><ele>374.75</ele><time>2026-04-07T15:22:36Z</time></trkpt><trkpt lat="45.750955868495595" lon="9.707171408775217"><ele>370.0</ele><time>2026-04-07T15:22:37Z</time></trkpt><trkpt lat="45.75095876951444" lon="9.707361116280742"><ele>368.75</ele><time>2026-04-07T15:22:38Z</time></trkpt><trkpt lat="45.75096692922784" lon="9.7075441012557"><ele>367.5</ele><time>2026-04-07T15:22:39Z</time></trkpt><trkpt lat="45.75096999106922" lon="9.707725338195454"><ele>366.25</ele><time>2026-04-07T15:22:40Z</time></trkpt><trkpt lat="45.75096222401641" lon="9.707902229382542"><ele>365.0</ele><time>2026-04-07T15:22:41Z</time></trkpt><trkpt lat="45.75095093085848" lon="9.70807925555251"><ele>364.5</ele><time>2026-04-07T15:22:42Z</time></trkpt><trkpt lat="45.75093492082232" lon="9.70825183620062"><ele>364.0</ele><time>2026-04-07T15:22:43Z</time></trkpt><trkpt lat="45.7509078578478" lon="9.708421559063186"><ele>363.5</ele><time>2026-04-07T15:22:44Z</time></trkpt><trkpt lat="45.750871855195776" lon="9.708584064726653"><ele>363.0</ele><time>2026-04-07T15:22:45Z</time></trkpt><trkpt lat="45.75082818888564" lon="9.708739107037857"><ele>362.75</ele><time>2026-04-07T15:22:46Z</time></trkpt><trkpt lat="45.75077754535029" lon="9.708886678996848"><ele>362.5</ele><time>2026-04-07T15:22:47Z</time></trkpt><trkpt lat="45.75073136435452" lon="9.709034324046797"><ele>362.25</ele><time>2026-04-07T15:22:48Z</time></trkpt><trkpt lat="45.75069948321987" lon="9.709187487943643"><ele>362.0</ele><time>2026-04-07T15:22:49Z</time></trkpt><trkpt lat="45.75068188916684" lon="9.709347601260054"><ele>362.6</ele><time>2026-04-07T15:22:50Z</time></trkpt><trkpt lat="45.75067287642826" lon="9.709501529872234"><ele>363.20000000000005</ele><time>2026-04-07T15:22:51Z</time></trkpt><trkpt lat="45.750665757380204" lon="9.709655556013601"><ele>363.8</ele><time>2026-04-07T15:22:52Z</time></trkpt><trkpt lat="45.75066210114844" lon="9.709808788483505"><ele>364.4</ele><time>2026-04-07T15:22:53Z</time></trkpt><trkpt lat="45.75066430338289" lon="9.709956403021517"><ele>365.0</ele><time>2026-04-07T15:22:54Z</time></trkpt><trkpt lat="45.750669751301594" lon="9.710107103168921"><ele>364.4</ele><time>2026-04-07T15:22:55Z</time></trkpt><trkpt lat="45.75066939815124" lon="9.71025840037596"><ele>363.8</ele><time>2026-04-07T15:22:56Z</time></trkpt><trkpt lat="45.75066268252303" lon="9.710403595935338"><ele>363.20000000000005</ele><time>2026-04-07T15:22:57Z</time></trkpt><trkpt lat="45.7506564098067" lon="9.710547156817933"><ele>362.6</ele><time>2026-04-07T15:22:58Z</time></trkpt><trkpt lat="45.75064396686902" lon="9.710685819028082"><ele>362.0</ele><time>2026-04-07T15:22:59Z</time></trkpt><trkpt lat="45.75062395320588" lon="9.710823959898486"><ele>362.0</ele><time>2026-04-07T15:23:00Z</time></trkpt><trkpt lat="45.75058654846303" lon="9.710955101586277"><ele>362.0</ele><time>2026-04-07T15:23:01Z</time></trkpt><trkpt lat="45.75053156312036" lon="9.711070050224599"><ele>362.0</ele><time>2026-04-07T15:23:02Z</time></trkpt><trkpt lat="45.75046743569312" lon="9.711178094682001"><ele>362.0</ele><time>2026-04-07T15:23:03Z</time></trkpt><trkpt lat="45.75040917165515" lon="9.711286605428175"><ele>362.0</ele><time>2026-04-07T15:23:04Z</time></trkpt><trkpt lat="45.75035221082908" lon="9.71139843816632"><ele>362.20000000000005</ele><time>2026-04-07T15:23:05Z</time></trkpt><trkpt lat="45.75029517885646" lon="9.711505130348524"><ele>362.4</ele><time>2026-04-07T15:23:06Z</time></trkpt><trkpt lat="45.75024123592591" lon="9.711612270466471"><ele>362.6</ele><time>2026-04-07T15:23:07Z</time></trkpt><trkpt lat="45.75018510817142" lon="9.711716864713683"><ele>362.79999999999995</ele><time>2026-04-07T15:23:08Z</time></trkpt><trkpt lat="45.75012593484377" lon="9.711816332738543"><ele>363.0</ele><time>2026-04-07T15:23:09Z</time></trkpt><trkpt lat="45.75007384555537" lon="9.711925913031696"><ele>359.2</ele><time>2026-04-07T15:23:10Z</time></trkpt><trkpt lat="45.750022464078214" lon="9.712032513707076"><ele>355.4</ele><time>2026-04-07T15:23:11Z</time></trkpt><trkpt lat="45.74996577389877" lon="9.71213728182536"><ele>351.59999999999997</ele><time>2026-04-07T15:23:12Z</time></trkpt><trkpt lat="45.749904277833664" lon="9.712233997748102"><ele>347.79999999999995</ele><time>2026-04-07T15:23:13Z</time></trkpt><trkpt lat="45.749846740720756" lon="9.712335936330392"><ele>344.0</ele><time>2026-04-07T15:23:14Z</time></trkpt><trkpt lat="45.74979316037716" lon="9.712441713620777"><ele>344.0</ele><time>2026-04-07T15:23:15Z</time></trkpt><trkpt lat="45.74974028846598" lon="9.712543136262276"><ele>344.0</ele><time>2026-04-07T15:23:16Z</time></trkpt><trkpt lat="45.749684561401544" lon="9.712646571977555"><ele>344.0</ele><time>2026-04-07T15:23:17Z</time></trkpt><trkpt lat="45.74962738833378" lon="9.712747214272916"><ele>344.0</ele><time>2026-04-07T15:23:18Z</time></trkpt><trkpt lat="45.749566142116436" lon="9.712846242240698"><ele>344.0</ele><time>2026-04-07T15:23:19Z</time></trkpt><trkpt lat="45.74950778100414" lon="9.712946957855948"><ele>343.6666666666667</ele><time>2026-04-07T15:23:20Z</time></trkpt><trkpt lat="45.749453870672404" lon="9.713050264438005"><ele>343.33333333333337</ele><time>2026-04-07T15:23:21Z</time></trkpt><trkpt lat="45.74940017653301" lon="9.713154500535099"><ele>343.0</ele><time>2026-04-07T15:23:22Z</time></trkpt><trkpt lat="45.749342050515345" lon="9.713251531505374"><ele>342.6666666666667</ele><time>2026-04-07T15:23:23Z</time></trkpt><trkpt lat="45.74928338741136" lon="9.713345815370557"><ele>342.3333333333333</ele><time>2026-04-07T15:23:24Z</time></trkpt><trkpt lat="45.74921749252831" lon="9.713428832195056"><ele>342.0</ele><time>2026-04-07T15:23:25Z</time></trkpt><trkpt lat="45.749140122913495" lon="9.71348766232931"><ele>342.0</ele><time>2026-04-07T15:23:26Z</time></trkpt><trkpt lat="45.74906069426509" lon="9.713529715475033"><ele>342.0</ele><time>2026-04-07T15:23:27Z</time></trkpt><trkpt lat="45.74898069069851" lon="9.713561993771833"><ele>342.0</ele><time>2026-04-07T15:23:28Z</time></trkpt><trkpt lat="45.74890227217599" lon="9.713598175220392"><ele>342.0</ele><time>2026-04-07T15:23:29Z</time></trkpt><trkpt lat="45.74883397742134" lon="9.71365400423161"><ele>342.0</ele><time>2026-04-07T15:23:30Z</time></trkpt><trkpt lat="45.7487755599096" lon="9.713730484768861"><ele>342.0</ele><time>2026-04-07T15:23:31Z</time></trkpt><trkpt lat="45.74872444365569" lon="9.713813899505379"><ele>341.2857142857143</ele><time>2026-04-07T15:23:32Z</time></trkpt><trkpt lat="45.748675121500156" lon="9.713893633409173"><ele>340.57142857142856</ele><time>2026-04-07T15:23:33Z</time></trkpt><trkpt lat="45.74862746185948" lon="9.713969599269616"><ele>339.8571428571429</ele><time>2026-04-07T15:23:34Z</time></trkpt><trkpt lat="45.7485793838416" lon="9.714044896882244"><ele>339.1428571428571</ele><time>2026-04-07T15:23:35Z</time></trkpt><trkpt lat="45.74853128682633" lon="9.714122327378963"><ele>338.42857142857144</ele><time>2026-04-07T15:23:36Z</time></trkpt><trkpt lat="45.74848698597397" lon="9.71420021618943"><ele>337.7142857142857</ele><time>2026-04-07T15:23:37Z</time></trkpt><trkpt lat="45.74844286148352" lon="9.714275077871514"><ele>337.0</ele><time>2026-04-07T15:23:38Z</time></trkpt><trkpt lat="45.74839901300703" lon="9.714349351992555"><ele>336.5</ele><time>2026-04-07T15:23:39Z</time></trkpt><trkpt lat="45.748351593467774" lon="9.71442623131243"><ele>336.0</ele><time>2026-04-07T15:23:40Z</time></trkpt><trkpt lat="45.748295643344456" lon="9.7145051122142"><ele>335.5</ele><time>2026-04-07T15:23:41Z</time></trkpt><trkpt lat="45.748244659345524" lon="9.714590655262732"><ele>335.0</ele><time>2026-04-07T15:23:42Z</time></trkpt><trkpt lat="45.7481953208348" lon="9.714675737323725"><ele>334.5</ele><time>2026-04-07T15:23:43Z</time></trkpt><trkpt lat="45.74814212199072" lon="9.714758136131653"><ele>334.0</ele><time>2026-04-07T15:23:44Z</time></trkpt><trkpt lat="45.748088270317254" lon="9.714841727711953"><ele>334.0</ele><time>2026-04-07T15:23:45Z</time></trkpt><trkpt lat="45.748035757769614" lon="9.714929666607604"><ele>334.0</ele><time>2026-04-07T15:23:46Z</time></trkpt><trkpt lat="45.74798023114533" lon="9.71501452689855"><ele>334.0</ele><time>2026-04-07T15:23:47Z</time></trkpt><trkpt lat="45.74792111980727" lon="9.715098047664894"><ele>334.0</ele><time>2026-04-07T15:23:48Z</time></trkpt><trkpt lat="45.74786010039903" lon="9.71518275244277"><ele>334.0</ele><time>2026-04-07T15:23:49Z</time></trkpt><trkpt lat="45.747798723493204" lon="9.71526660943759"><ele>334.0</ele><time>2026-04-07T15:23:50Z</time></trkpt><trkpt lat="45.74773938850345" lon="9.715359538996104"><ele>332.66666666666663</ele><time>2026-04-07T15:23:51Z</time></trkpt><trkpt lat="45.747679168641326" lon="9.715447834394626"><ele>331.3333333333333</ele><time>2026-04-07T15:23:52Z</time></trkpt><trkpt lat="45.74762615934767" lon="9.715547635501528"><ele>330.0</ele><time>2026-04-07T15:23:53Z</time></trkpt><trkpt lat="45.74757629003249" lon="9.715649764898188"><ele>328.6666666666667</ele><time>2026-04-07T15:23:54Z</time></trkpt><trkpt lat="45.74750816929585" lon="9.715739166892613"><ele>327.33333333333337</ele><time>2026-04-07T15:23:55Z</time></trkpt><trkpt lat="45.747425639414786" lon="9.71581028502076"><ele>326.0</ele><time>2026-04-07T15:23:56Z</time></trkpt><trkpt lat="45.74734181630154" lon="9.71587621686966"><ele>326.0</ele><time>2026-04-07T15:23:57Z</time></trkpt><trkpt lat="45.747264038671396" lon="9.715951355918005"><ele>326.0</ele><time>2026-04-07T15:23:58Z</time></trkpt><trkpt lat="45.74719004947941" lon="9.716021349799279"><ele>326.0</ele><time>2026-04-07T15:23:59Z</time></trkpt><trkpt lat="45.747119743034524" lon="9.716074420101396"><ele>326.0</ele><time>2026-04-07T15:24:00Z</time></trkpt><trkpt lat="45.74704272215424" lon="9.71609905375761"><ele>326.0</ele><time>2026-04-07T15:24:01Z</time></trkpt><trkpt lat="45.74695961356899" lon="9.716083356668456"><ele>326.0</ele><time>2026-04-07T15:24:02Z</time></trkpt><trkpt lat="45.74688039530953" lon="9.716047419234226"><ele>326.14285714285717</ele><time>2026-04-07T15:24:03Z</time></trkpt><trkpt lat="45.74680663558002" lon="9.716020620332966"><ele>326.2857142857143</ele><time>2026-04-07T15:24:04Z</time></trkpt><trkpt lat="45.746734232010205" lon="9.71601398093834"><ele>326.42857142857144</ele><time>2026-04-07T15:24:05Z</time></trkpt><trkpt lat="45.74666130618362" lon="9.716020840295322"><ele>326.57142857142856</ele><time>2026-04-07T15:24:06Z</time></trkpt><trkpt lat="45.746588671860906" lon="9.716039170862942"><ele>326.7142857142857</ele><time>2026-04-07T15:24:07Z</time></trkpt><trkpt lat="45.74651856898614" lon="9.71607278515228"><ele>326.85714285714283</ele><time>2026-04-07T15:24:08Z</time></trkpt><trkpt lat="45.746448626205" lon="9.716119172549442"><ele>327.0</ele><time>2026-04-07T15:24:09Z</time></trkpt><trkpt lat="45.746380871275086" lon="9.716174242747332"><ele>326.0</ele><time>2026-04-07T15:24:10Z</time></trkpt><trkpt lat="45.746310560816326" lon="9.716229009825017"><ele>325.0</ele><time>2026-04-07T15:24:11Z</time></trkpt><trkpt lat="45.74624017513562" lon="9.716288134758573"><ele>324.0</ele><time>2026-04-07T15:24:12Z</time></trkpt><trkpt lat="45.74616519307414" lon="9.716340415042069"><ele>323.0</ele><time>2026-04-07T15:24:13Z</time></trkpt><trkpt lat="45.74608618363439" lon="9.716392906490032"><ele>322.0</ele><time>2026-04-07T15:24:14Z</time></trkpt><trkpt lat="45.7460041055204" lon="9.716451162011293"><ele>321.0</ele><time>2026-04-07T15:24:15Z</time></trkpt><trkpt lat="45.74592137191179" lon="9.716512671601986"><ele>320.6</ele><time>2026-04-07T15:24:16Z</time></trkpt><trkpt lat="45.74583556464728" lon="9.716580390293839"><ele>320.20000000000005</ele><time>2026-04-07T15:24:17Z</time></trkpt><trkpt lat="45.745744696779006" lon="9.716635617725748"><ele>319.79999999999995</ele><time>2026-04-07T15:24:18Z</time></trkpt><trkpt lat="45.745648497073674" lon="9.716671545196682"><ele>319.4</ele><time>2026-04-07T15:24:19Z</time></trkpt><trkpt lat="45.74554963913186" lon="9.716696516250916"><ele>319.0</ele><time>2026-04-07T15:24:20Z</time></trkpt><trkpt lat="45.745455013536464" lon="9.716716389367654"><ele>319.0</ele><time>2026-04-07T15:24:21Z</time></trkpt><trkpt lat="45.74536027273624" lon="9.716710765213426"><ele>319.0</ele><time>2026-04-07T15:24:22Z</time></trkpt><trkpt lat="45.74527137869519" lon="9.71666976583957"><ele>319.0</ele><time>2026-04-07T15:24:23Z</time></trkpt><trkpt lat="45.74519482896317" lon="9.716598446077958"><ele>319.0</ele><time>2026-04-07T15:24:24Z</time></trkpt><trkpt lat="45.74512208673582" lon="9.716536244256334"><ele>319.0</ele><time>2026-04-07T15:24:25Z</time></trkpt><trkpt lat="45.74504721584513" lon="9.716480784458865"><ele>319.0</ele><time>2026-04-07T15:24:26Z</time></trkpt><trkpt lat="45.744975036505956" lon="9.716430515985655"><ele>318.8571428571429</ele><time>2026-04-07T15:24:27Z</time></trkpt><trkpt lat="45.744909640015955" lon="9.71637223593339"><ele>318.71428571428567</ele><time>2026-04-07T15:24:28Z</time></trkpt><trkpt lat="45.74484598740559" lon="9.716311821959689"><ele>318.57142857142856</ele><time>2026-04-07T15:24:29Z</time></trkpt><trkpt lat="45.744783424817946" lon="9.71625596688072"><ele>318.42857142857144</ele><time>2026-04-07T15:24:30Z</time></trkpt><trkpt lat="45.74472206759117" lon="9.716200513215137"><ele>318.28571428571433</ele><time>2026-04-07T15:24:31Z</time></trkpt><trkpt lat="45.744662523273576" lon="9.716149624217762"><ele>318.1428571428571</ele><time>2026-04-07T15:24:32Z</time></trkpt><trkpt lat="45.7446025913972" lon="9.716102615955123"><ele>318.0</ele><time>2026-04-07T15:24:33Z</time></trkpt><trkpt lat="45.74454603725921" lon="9.71605465611525"><ele>318.2857142857143</ele><time>2026-04-07T15:24:34Z</time></trkpt><trkpt lat="45.74449107350432" lon="9.716006424848805"><ele>318.5714285714286</ele><time>2026-04-07T15:24:35Z</time></trkpt><trkpt lat="45.74443483898334" lon="9.715962930333593"><ele>318.8571428571429</ele><time>2026-04-07T15:24:36Z</time></trkpt><trkpt lat="45.7443749532004" lon="9.715930888489936"><ele>319.1428571428571</ele><time>2026-04-07T15:24:37Z</time></trkpt><trkpt lat="45.744313114263775" lon="9.715902759296267"><ele>319.42857142857144</ele><time>2026-04-07T15:24:38Z</time></trkpt><trkpt lat="45.744249434125905" lon="9.715888187979107"><ele>319.7142857142857</ele><time>2026-04-07T15:24:39Z</time></trkpt><trkpt lat="45.7441850787013" lon="9.715877822132677"><ele>320.0</ele><time>2026-04-07T15:24:40Z</time></trkpt><trkpt lat="45.74412127187245" lon="9.715881629691076"><ele>320.0</ele><time>2026-04-07T15:24:41Z</time></trkpt><trkpt lat="45.74400015983934" lon="9.71591450347661"><ele>320.0</ele><time>2026-04-07T15:24:43Z</time></trkpt><trkpt lat="45.74388460794838" lon="9.71596857364143"><ele>320.0</ele><time>2026-04-07T15:24:45Z</time></trkpt><trkpt lat="45.743772384664275" lon="9.716022947643655"><ele>320.0</ele><time>2026-04-07T15:24:47Z</time></trkpt><trkpt lat="45.743658618253356" lon="9.716085667819119"><ele>319.0</ele><time>2026-04-07T15:24:49Z</time></trkpt><trkpt lat="45.74353954357556" lon="9.716145942915213"><ele>318.0</ele><time>2026-04-07T15:24:51Z</time></trkpt><trkpt lat="45.74342175103715" lon="9.716211212683858"><ele>317.0</ele><time>2026-04-07T15:24:53Z</time></trkpt><trkpt lat="45.74330020116744" lon="9.716253645101391"><ele>316.0</ele><time>2026-04-07T15:24:55Z</time></trkpt><trkpt lat="45.74317676160096" lon="9.716278076157137"><ele>316.0</ele><time>2026-04-07T15:24:57Z</time></trkpt><trkpt lat="45.743052126144754" lon="9.716288641385663"><ele>316.0</ele><time>2026-04-07T15:24:59Z</time></trkpt><trkpt lat="45.74298902563996" lon="9.716295798721339"><ele>316.0</ele><time>2026-04-07T15:25:00Z</time></trkpt><trkpt lat="45.74292589192159" lon="9.716303618122337"><ele>316.0</ele><time>2026-04-07T15:25:01Z</time></trkpt><trkpt lat="45.742800640523335" lon="9.71631789227966"><ele>316.0</ele><time>2026-04-07T15:25:03Z</time></trkpt><trkpt lat="45.74273786167971" lon="9.716327469447801"><ele>316.0</ele><time>2026-04-07T15:25:04Z</time></trkpt><trkpt lat="45.742614228241756" lon="9.71634591548673"><ele>316.16666666666663</ele><time>2026-04-07T15:25:06Z</time></trkpt><trkpt lat="45.742488480289964" lon="9.716358678866348"><ele>316.3333333333333</ele><time>2026-04-07T15:25:08Z</time></trkpt><trkpt lat="45.742364601541276" lon="9.716385211826962"><ele>316.5</ele><time>2026-04-07T15:25:10Z</time></trkpt><trkpt lat="45.74230188705731" lon="9.716399779591201"><ele>316.6666666666667</ele><time>2026-04-07T15:25:11Z</time></trkpt><trkpt lat="45.7422375597699" lon="9.716412638687077"><ele>316.83333333333337</ele><time>2026-04-07T15:25:12Z</time></trkpt><trkpt lat="45.742174403753594" lon="9.716429973368978"><ele>317.0</ele><time>2026-04-07T15:25:13Z</time></trkpt><trkpt lat="45.742109747730865" lon="9.716446325843199"><ele>317.0</ele><time>2026-04-07T15:25:14Z</time></trkpt><trkpt lat="45.74204638662921" lon="9.716458704626264"><ele>317.0</ele><time>2026-04-07T15:25:15Z</time></trkpt><trkpt lat="45.741981884461076" lon="9.71647452769493"><ele>317.0</ele><time>2026-04-07T15:25:16Z</time></trkpt><trkpt lat="45.741918230962014" lon="9.71648801825747"><ele>317.0</ele><time>2026-04-07T15:25:17Z</time></trkpt><trkpt lat="45.741790863258146" lon="9.716510994378948"><ele>317.0</ele><time>2026-04-07T15:25:19Z</time></trkpt><trkpt lat="45.741725552336185" lon="9.716523735210004"><ele>317.0</ele><time>2026-04-07T15:25:20Z</time></trkpt><trkpt lat="45.74166027234899" lon="9.716538660239523"><ele>317.2857142857143</ele><time>2026-04-07T15:25:21Z</time></trkpt><trkpt lat="45.74159601992672" lon="9.716554164643217"><ele>317.57142857142856</ele><time>2026-04-07T15:25:22Z</time></trkpt><trkpt lat="45.74153197295164" lon="9.716576761800127"><ele>317.8571428571429</ele><time>2026-04-07T15:25:23Z</time></trkpt><trkpt lat="45.74146918116227" lon="9.716593555860113"><ele>318.1428571428571</ele><time>2026-04-07T15:25:24Z</time></trkpt><trkpt lat="45.74140602943626" lon="9.716603675672259"><ele>318.4285714285714</ele><time>2026-04-07T15:25:25Z</time></trkpt><trkpt lat="45.74134065229095" lon="9.716609852615584"><ele>318.7142857142857</ele><time>2026-04-07T15:25:26Z</time></trkpt><trkpt lat="45.741277621282414" lon="9.716622189291185"><ele>319.0</ele><time>2026-04-07T15:25:27Z</time></trkpt><trkpt lat="45.741211117665884" lon="9.716637541438596"><ele>319.0</ele><time>2026-04-07T15:25:28Z</time></trkpt><trkpt lat="45.741145450194" lon="9.716650020934122"><ele>319.0</ele><time>2026-04-07T15:25:29Z</time></trkpt><trkpt lat="45.741079212232876" lon="9.716663231581663"><ele>319.0</ele><time>2026-04-07T15:25:30Z</time></trkpt><trkpt lat="45.741011451831994" lon="9.71667619985883"><ele>319.0</ele><time>2026-04-07T15:25:31Z</time></trkpt><trkpt lat="45.740944176808114" lon="9.716691617869248"><ele>319.0</ele><time>2026-04-07T15:25:32Z</time></trkpt><trkpt lat="45.740876993133035" lon="9.71670804929995"><ele>319.0</ele><time>2026-04-07T15:25:33Z</time></trkpt><trkpt lat="45.74081048648171" lon="9.716720473795466"><ele>319.0</ele><time>2026-04-07T15:25:34Z</time></trkpt><trkpt lat="45.7407443834785" lon="9.716737813276158"><ele>318.5714285714286</ele><time>2026-04-07T15:25:35Z</time></trkpt><trkpt lat="45.74067867662839" lon="9.716758929729103"><ele>318.1428571428571</ele><time>2026-04-07T15:25:36Z</time></trkpt><trkpt lat="45.740612401633314" lon="9.7167880933539"><ele>317.7142857142857</ele><time>2026-04-07T15:25:37Z</time></trkpt><trkpt lat="45.74054512357518" lon="9.716820059505485"><ele>317.28571428571433</ele><time>2026-04-07T15:25:38Z</time></trkpt><trkpt lat="45.7404762789286" lon="9.716854979983532"><ele>316.8571428571429</ele><time>2026-04-07T15:25:39Z</time></trkpt><trkpt lat="45.740408605698214" lon="9.716895562449396"><ele>316.42857142857144</ele><time>2026-04-07T15:25:40Z</time></trkpt><trkpt lat="45.74033707099962" lon="9.716930810591663"><ele>316.0</ele><time>2026-04-07T15:25:41Z</time></trkpt><trkpt lat="45.74026410143476" lon="9.716969695775326"><ele>314.5</ele><time>2026-04-07T15:25:42Z</time></trkpt><trkpt lat="45.74019086779277" lon="9.71701699943085"><ele>313.0</ele><time>2026-04-07T15:25:43Z</time></trkpt><trkpt lat="45.7401094148277" lon="9.717060533316843"><ele>311.5</ele><time>2026-04-07T15:25:44Z</time></trkpt><trkpt lat="45.74002958500429" lon="9.71710129598028"><ele>310.0</ele><time>2026-04-07T15:25:45Z</time></trkpt><trkpt lat="45.73994683164597" lon="9.71715193513815"><ele>308.5</ele><time>2026-04-07T15:25:46Z</time></trkpt><trkpt lat="45.7398633692924" lon="9.717205428119433"><ele>307.0</ele><time>2026-04-07T15:25:47Z</time></trkpt><trkpt lat="45.73977843883586" lon="9.71725531437489"><ele>307.0</ele><time>2026-04-07T15:25:48Z</time></trkpt><trkpt lat="45.73969002760198" lon="9.717302788438827"><ele>307.0</ele><time>2026-04-07T15:25:49Z</time></trkpt><trkpt lat="45.73960014830308" lon="9.717346642898956"><ele>307.0</ele><time>2026-04-07T15:25:50Z</time></trkpt><trkpt lat="45.73951012804694" lon="9.71740285772225"><ele>307.0</ele><time>2026-04-07T15:25:51Z</time></trkpt><trkpt lat="45.73942546222003" lon="9.71747085346554"><ele>307.0</ele><time>2026-04-07T15:25:52Z</time></trkpt><trkpt lat="45.73933617217334" lon="9.717536620805172"><ele>306.6</ele><time>2026-04-07T15:25:53Z</time></trkpt><trkpt lat="45.739249814362886" lon="9.717592065458662"><ele>306.2</ele><time>2026-04-07T15:25:54Z</time></trkpt><trkpt lat="45.73916127077145" lon="9.71764618915039"><ele>305.8</ele><time>2026-04-07T15:25:55Z</time></trkpt><trkpt lat="45.73907678061158" lon="9.717697169938635"><ele>305.4</ele><time>2026-04-07T15:25:56Z</time></trkpt><trkpt lat="45.738997519006" lon="9.717748252571356"><ele>305.0</ele><time>2026-04-07T15:25:57Z</time></trkpt><trkpt lat="45.738918189691674" lon="9.717793288838791"><ele>304.83333333333337</ele><time>2026-04-07T15:25:58Z</time></trkpt><trkpt lat="45.73884317877938" lon="9.717834234893452"><ele>304.6666666666667</ele><time>2026-04-07T15:25:59Z</time></trkpt><trkpt lat="45.73877063706021" lon="9.71788184861318"><ele>304.5</ele><time>2026-04-07T15:26:00Z</time></trkpt><trkpt lat="45.73870431543232" lon="9.717929797581002"><ele>304.3333333333333</ele><time>2026-04-07T15:26:01Z</time></trkpt><trkpt lat="45.73863378786321" lon="9.717967608650227"><ele>304.16666666666663</ele><time>2026-04-07T15:26:02Z</time></trkpt><trkpt lat="45.73856939369732" lon="9.718013853158446"><ele>304.0</ele><time>2026-04-07T15:26:03Z</time></trkpt><trkpt lat="45.7385056614842" lon="9.718055879181687"><ele>303.7142857142857</ele><time>2026-04-07T15:26:04Z</time></trkpt><trkpt lat="45.73843914421741" lon="9.718092702590615"><ele>303.42857142857144</ele><time>2026-04-07T15:26:05Z</time></trkpt><trkpt lat="45.738379422649444" lon="9.718137541516642"><ele>303.14285714285717</ele><time>2026-04-07T15:26:06Z</time></trkpt><trkpt lat="45.73832311817051" lon="9.718184806858112"><ele>302.8571428571429</ele><time>2026-04-07T15:26:07Z</time></trkpt><trkpt lat="45.73826764424587" lon="9.718241998557646"><ele>302.57142857142856</ele><time>2026-04-07T15:26:08Z</time></trkpt><trkpt lat="45.73821618101557" lon="9.71830187390379"><ele>302.28571428571433</ele><time>2026-04-07T15:26:09Z</time></trkpt><trkpt lat="45.73816009716137" lon="9.718364943683115"><ele>302.0</ele><time>2026-04-07T15:26:10Z</time></trkpt><trkpt lat="45.73810339217189" lon="9.718425212017568"><ele>302.0</ele><time>2026-04-07T15:26:11Z</time></trkpt><trkpt lat="45.73804526904597" lon="9.71848908390781"><ele>302.0</ele><time>2026-04-07T15:26:12Z</time></trkpt><trkpt lat="45.73798576714384" lon="9.718551817740359"><ele>302.0</ele><time>2026-04-07T15:26:13Z</time></trkpt><trkpt lat="45.737923085789056" lon="9.718612221937967"><ele>302.0</ele><time>2026-04-07T15:26:14Z</time></trkpt><trkpt lat="45.737861521162436" lon="9.718676337791756"><ele>302.0</ele><time>2026-04-07T15:26:15Z</time></trkpt><trkpt lat="45.73780176953877" lon="9.718742392611109"><ele>302.0</ele><time>2026-04-07T15:26:16Z</time></trkpt><trkpt lat="45.737740566415304" lon="9.718808794865634"><ele>301.6666666666667</ele><time>2026-04-07T15:26:17Z</time></trkpt><trkpt lat="45.73768048060956" lon="9.718878074023628"><ele>301.33333333333337</ele><time>2026-04-07T15:26:18Z</time></trkpt><trkpt lat="45.73761864919402" lon="9.718942014371555"><ele>301.0</ele><time>2026-04-07T15:26:19Z</time></trkpt><trkpt lat="45.73755331165087" lon="9.719007388424227"><ele>300.6666666666667</ele><time>2026-04-07T15:26:20Z</time></trkpt><trkpt lat="45.737487628332744" lon="9.719067860359747"><ele>300.3333333333333</ele><time>2026-04-07T15:26:21Z</time></trkpt><trkpt lat="45.73741963622634" lon="9.719129961418115"><ele>300.0</ele><time>2026-04-07T15:26:22Z</time></trkpt><trkpt lat="45.73735231842848" lon="9.71919123966717"><ele>300.0</ele><time>2026-04-07T15:26:23Z</time></trkpt><trkpt lat="45.737283566255144" lon="9.719246368024448"><ele>300.0</ele><time>2026-04-07T15:26:24Z</time></trkpt><trkpt lat="45.73721279745341" lon="9.719294309995329"><ele>300.0</ele><time>2026-04-07T15:26:25Z</time></trkpt><trkpt lat="45.737145274878074" lon="9.71934920543193"><ele>300.0</ele><time>2026-04-07T15:26:26Z</time></trkpt><trkpt lat="45.73707981285925" lon="9.719398997495807"><ele>300.0</ele><time>2026-04-07T15:26:27Z</time></trkpt><trkpt lat="45.73701760717964" lon="9.719451111697074"><ele>300.0</ele><time>2026-04-07T15:26:28Z</time></trkpt><trkpt lat="45.73695717746906" lon="9.719499533429953"><ele>300.1428571428571</ele><time>2026-04-07T15:26:29Z</time></trkpt><trkpt lat="45.7369000104134" lon="9.719543411543304"><ele>300.2857142857143</ele><time>2026-04-07T15:26:30Z</time></trkpt><trkpt lat="45.736838673545726" lon="9.719576428634284"><ele>300.42857142857144</ele><time>2026-04-07T15:26:31Z</time></trkpt><trkpt lat="45.73675111207325" lon="9.719681201973641"><ele>300.57142857142856</ele><time>2026-04-07T15:26:33Z</time></trkpt><trkpt lat="45.736766205150545" lon="9.719772327268663"><ele>300.7142857142857</ele><time>2026-04-07T15:26:34Z</time></trkpt><trkpt lat="45.73680819745536" lon="9.719856785228718"><ele>300.85714285714283</ele><time>2026-04-07T15:26:35Z</time></trkpt><trkpt lat="45.73683054722357" lon="9.719945097213914"><ele>301.0</ele><time>2026-04-07T15:26:36Z</time></trkpt><trkpt lat="45.73683757100364" lon="9.720118499290852"><ele>302.75</ele><time>2026-04-07T15:26:38Z</time></trkpt><trkpt lat="45.73685303303649" lon="9.7202883788361"><ele>304.5</ele><time>2026-04-07T15:26:40Z</time></trkpt><trkpt lat="45.73686363983323" lon="9.720455439928756"><ele>306.25</ele><time>2026-04-07T15:26:42Z</time></trkpt><trkpt lat="45.736860177655196" lon="9.720616872693617"><ele>308.0</ele><time>2026-04-07T15:26:44Z</time></trkpt><trkpt lat="45.73680953137694" lon="9.72076243018876"><ele>308.0</ele><time>2026-04-07T15:26:46Z</time></trkpt><trkpt lat="45.73671944743791" lon="9.72086424436124"><ele>308.0</ele><time>2026-04-07T15:26:48Z</time></trkpt><trkpt lat="45.73664073293858" lon="9.720968649963917"><ele>308.0</ele><time>2026-04-07T15:26:50Z</time></trkpt><trkpt lat="45.73659832749886" lon="9.721114119175159"><ele>308.0</ele><time>2026-04-07T15:26:52Z</time></trkpt><trkpt lat="45.7365607526833" lon="9.721275612214537"><ele>308.0</ele><time>2026-04-07T15:26:54Z</time></trkpt><trkpt lat="45.73653614676952" lon="9.721359762135775"><ele>308.0</ele><time>2026-04-07T15:26:55Z</time></trkpt><trkpt lat="45.736510631495115" lon="9.721446996901593"><ele>308.0</ele><time>2026-04-07T15:26:56Z</time></trkpt><trkpt lat="45.73648912856117" lon="9.721532482899208"><ele>308.0</ele><time>2026-04-07T15:26:57Z</time></trkpt><trkpt lat="45.73648089131204" lon="9.721712425230335"><ele>308.0</ele><time>2026-04-07T15:26:59Z</time></trkpt><trkpt lat="45.73649143365096" lon="9.721801607035665"><ele>308.0</ele><time>2026-04-07T15:27:00Z</time></trkpt><trkpt lat="45.736499545032984" lon="9.721975171864937"><ele>308.6</ele><time>2026-04-07T15:27:02Z</time></trkpt><trkpt lat="45.73650438227919" lon="9.722101056191535"><ele>309.20000000000005</ele><time>2026-04-07T15:27:04Z</time></trkpt><trkpt lat="45.73658303116207" lon="9.72214908150517"><ele>309.8</ele><time>2026-04-07T15:27:07Z</time></trkpt><trkpt lat="45.736703965618936" lon="9.722099877349482"><ele>310.40000000000003</ele><time>2026-04-07T15:27:09Z</time></trkpt><trkpt lat="45.73676622186157" lon="9.722064154318268"><ele>311.0</ele><time>2026-04-07T15:27:10Z</time></trkpt><trkpt lat="45.73688743633144" lon="9.722002718500955"><ele>311.0</ele><time>2026-04-07T15:27:12Z</time></trkpt><trkpt lat="45.73694603544898" lon="9.721964345024118"><ele>311.0</ele><time>2026-04-07T15:27:13Z</time></trkpt><trkpt lat="45.73704625201157" lon="9.721866583493041"><ele>311.0</ele><time>2026-04-07T15:27:15Z</time></trkpt><trkpt lat="45.73709257795364" lon="9.721804353647391"><ele>311.0</ele><time>2026-04-07T15:27:16Z</time></trkpt><trkpt lat="45.737173065524026" lon="9.721684521761349"><ele>311.0</ele><time>2026-04-07T15:27:18Z</time></trkpt><trkpt lat="45.73728920424716" lon="9.721664148064622"><ele>311.0</ele><time>2026-04-07T15:27:20Z</time></trkpt><trkpt lat="45.737380821919835" lon="9.721736095091076"><ele>311.0</ele><time>2026-04-07T15:27:22Z</time></trkpt><trkpt lat="45.73740897258285" lon="9.721820061015185"><ele>311.0</ele><time>2026-04-07T15:27:23Z</time></trkpt><trkpt lat="45.73740656994182" lon="9.721916545456882"><ele>311.0</ele><time>2026-04-07T15:27:24Z</time></trkpt><trkpt lat="45.73742524332827" lon="9.722080753097858"><ele>311.0</ele><time>2026-04-07T15:27:26Z</time></trkpt><trkpt lat="45.73745213258875" lon="9.722242222022729"><ele>311.0</ele><time>2026-04-07T15:27:28Z</time></trkpt><trkpt lat="45.73747766837917" lon="9.722399633316034"><ele>311.0</ele><time>2026-04-07T15:27:30Z</time></trkpt><trkpt lat="45.7375119516401" lon="9.722559096878522"><ele>311.0</ele><time>2026-04-07T15:27:32Z</time></trkpt><trkpt lat="45.73755078464166" lon="9.72272415693814"><ele>311.0</ele><time>2026-04-07T15:27:34Z</time></trkpt><trkpt lat="45.73757828000998" lon="9.722886215892956"><ele>312.0</ele><time>2026-04-07T15:27:36Z</time></trkpt><trkpt lat="45.73760827963772" lon="9.723040848932488"><ele>313.0</ele><time>2026-04-07T15:27:38Z</time></trkpt><trkpt lat="45.73764106345438" lon="9.723203346597568"><ele>314.0</ele><time>2026-04-07T15:27:40Z</time></trkpt><trkpt lat="45.737653145210324" lon="9.723366874166773"><ele>315.0</ele><time>2026-04-07T15:27:42Z</time></trkpt><trkpt lat="45.737679882232285" lon="9.72352613149196"><ele>317.75</ele><time>2026-04-07T15:27:44Z</time></trkpt><trkpt lat="45.73771715432398" lon="9.723681940274057"><ele>320.5</ele><time>2026-04-07T15:27:46Z</time></trkpt><trkpt lat="45.737796054306635" lon="9.723790265952156"><ele>323.25</ele><time>2026-04-07T15:27:48Z</time></trkpt><trkpt lat="45.73791230801219" lon="9.723784725109414"><ele>326.0</ele><time>2026-04-07T15:27:50Z</time></trkpt><trkpt lat="45.73802545638257" lon="9.723718610834343"><ele>326.0</ele><time>2026-04-07T15:27:52Z</time></trkpt><trkpt lat="45.73813185621602" lon="9.723661953781153"><ele>326.0</ele><time>2026-04-07T15:27:54Z</time></trkpt><trkpt lat="45.738237267889076" lon="9.723619762571365"><ele>326.0</ele><time>2026-04-07T15:27:56Z</time></trkpt><trkpt lat="45.73833507951899" lon="9.723560308954157"><ele>326.0</ele><time>2026-04-07T15:27:58Z</time></trkpt><trkpt lat="45.73843240601089" lon="9.72351858782985"><ele>326.0</ele><time>2026-04-07T15:28:00Z</time></trkpt><trkpt lat="45.73853934979161" lon="9.723477606009395"><ele>328.6</ele><time>2026-04-07T15:28:02Z</time></trkpt><trkpt lat="45.738636534659825" lon="9.723423965188989"><ele>331.20000000000005</ele><time>2026-04-07T15:28:04Z</time></trkpt><trkpt lat="45.738734850942045" lon="9.723372908041997"><ele>333.79999999999995</ele><time>2026-04-07T15:28:06Z</time></trkpt><trkpt lat="45.73883126499738" lon="9.723332279896834"><ele>336.4</ele><time>2026-04-07T15:28:08Z</time></trkpt><trkpt lat="45.73892222759157" lon="9.723298971486809"><ele>339.0</ele><time>2026-04-07T15:28:10Z</time></trkpt><trkpt lat="45.73901314855818" lon="9.723287892659137"><ele>339.0</ele><time>2026-04-07T15:28:12Z</time></trkpt><trkpt lat="45.73910690733476" lon="9.723313772304461"><ele>339.0</ele><time>2026-04-07T15:28:14Z</time></trkpt><trkpt lat="45.73917647568286" lon="9.723409718574066"><ele>339.0</ele><time>2026-04-07T15:28:16Z</time></trkpt><trkpt lat="45.7391464290571" lon="9.723551215431634"><ele>339.0</ele><time>2026-04-07T15:28:18Z</time></trkpt><trkpt lat="45.73907047641592" lon="9.723645092261444"><ele>339.0</ele><time>2026-04-07T15:28:20Z</time></trkpt><trkpt lat="45.73897854996842" lon="9.72370187411747"><ele>342.0</ele><time>2026-04-07T15:28:22Z</time></trkpt><trkpt lat="45.73890464399773" lon="9.723808120684271"><ele>345.0</ele><time>2026-04-07T15:28:24Z</time></trkpt><trkpt lat="45.738849916798955" lon="9.723932153508057"><ele>348.0</ele><time>2026-04-07T15:28:26Z</time></trkpt><trkpt lat="45.73879323534851" lon="9.724054813258906"><ele>351.0</ele><time>2026-04-07T15:28:28Z</time></trkpt><trkpt lat="45.73873016705262" lon="9.72417419324699"><ele>354.0</ele><time>2026-04-07T15:28:30Z</time></trkpt><trkpt lat="45.73866648107074" lon="9.724294374440705"><ele>352.6</ele><time>2026-04-07T15:28:32Z</time></trkpt><trkpt lat="45.7385977192773" lon="9.724410884749537"><ele>351.2</ele><time>2026-04-07T15:28:34Z</time></trkpt><trkpt lat="45.73852032526529" lon="9.724511625289425"><ele>349.8</ele><time>2026-04-07T15:28:36Z</time></trkpt><trkpt lat="45.738444467970666" lon="9.724620044339426"><ele>348.40000000000003</ele><time>2026-04-07T15:28:38Z</time></trkpt><trkpt lat="45.73837036545312" lon="9.724713869425745"><ele>347.0</ele><time>2026-04-07T15:28:40Z</time></trkpt><trkpt lat="45.73829816730628" lon="9.724820490788229"><ele>347.0</ele><time>2026-04-07T15:28:42Z</time></trkpt><trkpt lat="45.7382445160823" lon="9.724947683859188"><ele>347.0</ele><time>2026-04-07T15:28:44Z</time></trkpt><trkpt lat="45.738223993994794" lon="9.725082679100412"><ele>347.0</ele><time>2026-04-07T15:28:46Z</time></trkpt><trkpt lat="45.73823734709491" lon="9.725207301361626"><ele>347.0</ele><time>2026-04-07T15:28:48Z</time></trkpt><trkpt lat="45.73823540785082" lon="9.725314819533038"><ele>347.0</ele><time>2026-04-07T15:28:50Z</time></trkpt><trkpt lat="45.738202465951744" lon="9.725438689726166"><ele>348.83333333333337</ele><time>2026-04-07T15:28:53Z</time></trkpt><trkpt lat="45.73813047835537" lon="9.725559317892941"><ele>350.6666666666667</ele><time>2026-04-07T15:28:55Z</time></trkpt><trkpt lat="45.738081672669686" lon="9.725633794611282"><ele>352.5</ele><time>2026-04-07T15:28:56Z</time></trkpt><trkpt lat="45.738028194290095" lon="9.725717345422916"><ele>354.3333333333333</ele><time>2026-04-07T15:28:57Z</time></trkpt><trkpt lat="45.73797246409705" lon="9.725814101340848"><ele>356.16666666666663</ele><time>2026-04-07T15:28:58Z</time></trkpt><trkpt lat="45.737910551356435" lon="9.725916015544062"><ele>358.0</ele><time>2026-04-07T15:28:59Z</time></trkpt><trkpt lat="45.73782491965681" lon="9.72599536749619"><ele>357.0</ele><time>2026-04-07T15:29:00Z</time></trkpt><trkpt lat="45.73771546368125" lon="9.726036086307278"><ele>356.0</ele><time>2026-04-07T15:29:01Z</time></trkpt><trkpt lat="45.737599336071675" lon="9.726057712320877"><ele>355.0</ele><time>2026-04-07T15:29:02Z</time></trkpt><trkpt lat="45.737485547493584" lon="9.726075839138462"><ele>354.0</ele><time>2026-04-07T15:29:03Z</time></trkpt><trkpt lat="45.737377982286304" lon="9.726096121200875"><ele>354.0</ele><time>2026-04-07T15:29:04Z</time></trkpt><trkpt lat="45.73727708040753" lon="9.72610653598433"><ele>354.0</ele><time>2026-04-07T15:29:05Z</time></trkpt><trkpt lat="45.73717871945383" lon="9.726075251461037"><ele>354.0</ele><time>2026-04-07T15:29:06Z</time></trkpt><trkpt lat="45.737094542593304" lon="9.726035365701618"><ele>354.0</ele><time>2026-04-07T15:29:07Z</time></trkpt><trkpt lat="45.73702530455641" lon="9.726003661783013"><ele>354.0</ele><time>2026-04-07T15:29:08Z</time></trkpt><trkpt lat="45.73693868910113" lon="9.725884447749804"><ele>351.7142857142857</ele><time>2026-04-07T15:29:10Z</time></trkpt><trkpt lat="45.73694449218192" lon="9.725792046175455"><ele>349.4285714285714</ele><time>2026-04-07T15:29:11Z</time></trkpt><trkpt lat="45.737000183658175" lon="9.725707786858225"><ele>347.1428571428571</ele><time>2026-04-07T15:29:12Z</time></trkpt><trkpt lat="45.73708677783218" lon="9.725703907580286"><ele>344.8571428571429</ele><time>2026-04-07T15:29:13Z</time></trkpt><trkpt lat="45.737159805677955" lon="9.72570616128364"><ele>342.57142857142856</ele><time>2026-04-07T15:29:14Z</time></trkpt><trkpt lat="45.73722935072732" lon="9.725698289491422"><ele>340.2857142857143</ele><time>2026-04-07T15:29:15Z</time></trkpt><trkpt lat="45.737302297926774" lon="9.725683476500357"><ele>338.0</ele><time>2026-04-07T15:29:16Z</time></trkpt><trkpt lat="45.737367341938864" lon="9.725643542720926"><ele>338.0</ele><time>2026-04-07T15:29:17Z</time></trkpt><trkpt lat="45.73741340409965" lon="9.725559210675994"><ele>338.0</ele><time>2026-04-07T15:29:18Z</time></trkpt><trkpt lat="45.73743140957013" lon="9.72545909964007"><ele>338.0</ele><time>2026-04-07T15:29:19Z</time></trkpt><trkpt lat="45.73742126871895" lon="9.725354510859471"><ele>338.0</ele><time>2026-04-07T15:29:20Z</time></trkpt><trkpt lat="45.73737712383808" lon="9.725263380239296"><ele>338.0</ele><time>2026-04-07T15:29:21Z</time></trkpt><trkpt lat="45.73730452330724" lon="9.725203001394576"><ele>338.0</ele><time>2026-04-07T15:29:22Z</time></trkpt><trkpt lat="45.73722313641505" lon="9.725194238673163"><ele>338.0</ele><time>2026-04-07T15:29:23Z</time></trkpt><trkpt lat="45.737137520992" lon="9.72522390906052"><ele>338.0</ele><time>2026-04-07T15:29:24Z</time></trkpt><trkpt lat="45.73704991688487" lon="9.725258024138496"><ele>338.0</ele><time>2026-04-07T15:29:25Z</time></trkpt><trkpt lat="45.73695291452407" lon="9.725275417177237"><ele>338.0</ele><time>2026-04-07T15:29:26Z</time></trkpt><trkpt lat="45.73685504705382" lon="9.725295705174098"><ele>338.0</ele><time>2026-04-07T15:29:27Z</time></trkpt><trkpt lat="45.736755179132075" lon="9.72531509916732"><ele>335.4</ele><time>2026-04-07T15:29:28Z</time></trkpt><trkpt lat="45.73665030486621" lon="9.725335547205708"><ele>332.79999999999995</ele><time>2026-04-07T15:29:29Z</time></trkpt><trkpt lat="45.73654680356075" lon="9.725361470962202"><ele>330.2</ele><time>2026-04-07T15:29:30Z</time></trkpt><trkpt lat="45.73644987914465" lon="9.725383244697984"><ele>327.6</ele><time>2026-04-07T15:29:31Z</time></trkpt><trkpt lat="45.73635688577767" lon="9.7254078059778"><ele>325.0</ele><time>2026-04-07T15:29:32Z</time></trkpt><trkpt lat="45.7362597380117" lon="9.725447159146578"><ele>325.0</ele><time>2026-04-07T15:29:33Z</time></trkpt><trkpt lat="45.73615627786705" lon="9.725497111108469"><ele>325.0</ele><time>2026-04-07T15:29:34Z</time></trkpt><trkpt lat="45.736049907721764" lon="9.72556606736285"><ele>325.0</ele><time>2026-04-07T15:29:35Z</time></trkpt><trkpt lat="45.73594073379081" lon="9.725632569814733"><ele>325.0</ele><time>2026-04-07T15:29:36Z</time></trkpt><trkpt lat="45.73582568576574" lon="9.725696084304737"><ele>321.75</ele><time>2026-04-07T15:29:37Z</time></trkpt><trkpt lat="45.73570979790311" lon="9.72576248824545"><ele>318.5</ele><time>2026-04-07T15:29:38Z</time></trkpt><trkpt lat="45.73559179616913" lon="9.725823539744926"><ele>315.25</ele><time>2026-04-07T15:29:39Z</time></trkpt><trkpt lat="45.735481425320344" lon="9.72586780057432"><ele>312.0</ele><time>2026-04-07T15:29:40Z</time></trkpt><trkpt lat="45.73538230766238" lon="9.725891953832626"><ele>312.0</ele><time>2026-04-07T15:29:41Z</time></trkpt><trkpt lat="45.73529381632179" lon="9.725902004056033"><ele>312.0</ele><time>2026-04-07T15:29:42Z</time></trkpt><trkpt lat="45.735213241400515" lon="9.725897318764469"><ele>312.0</ele><time>2026-04-07T15:29:43Z</time></trkpt><trkpt lat="45.735149710735705" lon="9.72586274291724"><ele>312.0</ele><time>2026-04-07T15:29:44Z</time></trkpt><trkpt lat="45.73507475090236" lon="9.725827399621167"><ele>312.0</ele><time>2026-04-07T15:29:46Z</time></trkpt><trkpt lat="45.734987741978294" lon="9.725940110457195"><ele>312.0</ele><time>2026-04-07T15:29:48Z</time></trkpt><trkpt lat="45.73492414240778" lon="9.72608042553605"><ele>311.2</ele><time>2026-04-07T15:29:50Z</time></trkpt><trkpt lat="45.73490300950112" lon="9.72623056652232"><ele>310.4</ele><time>2026-04-07T15:29:52Z</time></trkpt><trkpt lat="45.734871065055984" lon="9.726331782997288"><ele>309.6</ele><time>2026-04-07T15:29:54Z</time></trkpt><trkpt lat="45.734816160592516" lon="9.726434042608858"><ele>308.8</ele><time>2026-04-07T15:29:56Z</time></trkpt><trkpt lat="45.73487487610834" lon="9.726581785276638"><ele>308.0</ele><time>2026-04-07T15:29:58Z</time></trkpt><trkpt lat="45.73491002872392" lon="9.726657865478083"><ele>308.0</ele><time>2026-04-07T15:29:59Z</time></trkpt><trkpt lat="45.73493768973999" lon="9.726741556101375"><ele>308.0</ele><time>2026-04-07T15:30:00Z</time></trkpt><trkpt lat="45.73497233918463" lon="9.726822696831944"><ele>308.0</ele><time>2026-04-07T15:30:01Z</time></trkpt><trkpt lat="45.735005417982244" lon="9.726901340966936"><ele>308.0</ele><time>2026-04-07T15:30:02Z</time></trkpt><trkpt lat="45.73504169222375" lon="9.726976854382748"><ele>308.0</ele><time>2026-04-07T15:30:03Z</time></trkpt><trkpt lat="45.73511538031481" lon="9.727117736903823"><ele>308.0</ele><time>2026-04-07T15:30:05Z</time></trkpt><trkpt lat="45.735156222463765" lon="9.727190762821177"><ele>308.0</ele><time>2026-04-07T15:30:06Z</time></trkpt><trkpt lat="45.73518703509468" lon="9.727269689100945"><ele>309.33333333333337</ele><time>2026-04-07T15:30:07Z</time></trkpt><trkpt lat="45.73524922169149" lon="9.72743093217144"><ele>310.6666666666667</ele><time>2026-04-07T15:30:09Z</time></trkpt><trkpt lat="45.7352838453614" lon="9.727507358058741"><ele>312.0</ele><time>2026-04-07T15:30:10Z</time></trkpt><trkpt lat="45.73531150074328" lon="9.72758913169934"><ele>313.3333333333333</ele><time>2026-04-07T15:30:11Z</time></trkpt><trkpt lat="45.735378337836586" lon="9.72774021884885"><ele>314.66666666666663</ele><time>2026-04-07T15:30:13Z</time></trkpt><trkpt lat="45.73541438658617" lon="9.727814508397334"><ele>316.0</ele><time>2026-04-07T15:30:14Z</time></trkpt><trkpt lat="45.73544932186844" lon="9.727890077030159"><ele>316.0</ele><time>2026-04-07T15:30:15Z</time></trkpt><trkpt lat="45.73551651180131" lon="9.728040457660127"><ele>316.0</ele><time>2026-04-07T15:30:17Z</time></trkpt><trkpt lat="45.73557976658932" lon="9.728192867813018"><ele>316.0</ele><time>2026-04-07T15:30:19Z</time></trkpt><trkpt lat="45.73561098869279" lon="9.728272154331362"><ele>316.0</ele><time>2026-04-07T15:30:20Z</time></trkpt><trkpt lat="45.73563692107265" lon="9.72835435772967"><ele>316.0</ele><time>2026-04-07T15:30:21Z</time></trkpt><trkpt lat="45.735687270650814" lon="9.728518656850508"><ele>314.8333333333333</ele><time>2026-04-07T15:30:23Z</time></trkpt><trkpt lat="45.73573808433263" lon="9.72868180345783"><ele>313.66666666666663</ele><time>2026-04-07T15:30:25Z</time></trkpt><trkpt lat="45.7357646782328" lon="9.728765002439943"><ele>312.5</ele><time>2026-04-07T15:30:26Z</time></trkpt><trkpt lat="45.73578661295202" lon="9.728849616711173"><ele>311.3333333333333</ele><time>2026-04-07T15:30:27Z</time></trkpt><trkpt lat="45.735811168261634" lon="9.728933004572367"><ele>310.1666666666667</ele><time>2026-04-07T15:30:28Z</time></trkpt><trkpt lat="45.73586196817049" lon="9.729094131742944"><ele>309.0</ele><time>2026-04-07T15:30:30Z</time></trkpt><trkpt lat="45.735915521661965" lon="9.729257370125477"><ele>308.8</ele><time>2026-04-07T15:30:32Z</time></trkpt><trkpt lat="45.735964441536645" lon="9.729423784640657"><ele>308.59999999999997</ele><time>2026-04-07T15:30:34Z</time></trkpt><trkpt lat="45.735990923512986" lon="9.729509483406531"><ele>308.4</ele><time>2026-04-07T15:30:35Z</time></trkpt><trkpt lat="45.736039303418245" lon="9.729669040201594"><ele>308.2</ele><time>2026-04-07T15:30:37Z</time></trkpt><trkpt lat="45.73606482464871" lon="9.729753949116509"><ele>308.0</ele><time>2026-04-07T15:30:38Z</time></trkpt><trkpt lat="45.73611365935177" lon="9.729914821891448"><ele>310.4</ele><time>2026-04-07T15:30:40Z</time></trkpt><trkpt lat="45.736164770063134" lon="9.730073790069525"><ele>312.8</ele><time>2026-04-07T15:30:42Z</time></trkpt><trkpt lat="45.73619398293737" lon="9.73015813835918"><ele>315.2</ele><time>2026-04-07T15:30:43Z</time></trkpt><trkpt lat="45.73624596795363" lon="9.730316652454102"><ele>317.6</ele><time>2026-04-07T15:30:45Z</time></trkpt><trkpt lat="45.736270468086296" lon="9.730405410311795"><ele>320.0</ele><time>2026-04-07T15:30:46Z</time></trkpt><trkpt lat="45.73631809069862" lon="9.730569725570483"><ele>320.0</ele><time>2026-04-07T15:30:48Z</time></trkpt><trkpt lat="45.73636800080841" lon="9.730734889252624"><ele>320.0</ele><time>2026-04-07T15:30:50Z</time></trkpt><trkpt lat="45.73639409341151" lon="9.730817620095634"><ele>320.0</ele><time>2026-04-07T15:30:51Z</time></trkpt><trkpt lat="45.73644350073641" lon="9.730981782423214"><ele>320.0</ele><time>2026-04-07T15:30:53Z</time></trkpt><trkpt lat="45.736469836025435" lon="9.731071893862008"><ele>320.0</ele><time>2026-04-07T15:30:54Z</time></trkpt><trkpt lat="45.736516095709064" lon="9.731237266325039"><ele>318.8</ele><time>2026-04-07T15:30:56Z</time></trkpt><trkpt lat="45.73654478161162" lon="9.731323938255372"><ele>317.6</ele><time>2026-04-07T15:30:57Z</time></trkpt><trkpt lat="45.73659188508196" lon="9.731488439036514"><ele>316.4</ele><time>2026-04-07T15:30:59Z</time></trkpt><trkpt lat="45.73664331561234" lon="9.73165062067467"><ele>315.2</ele><time>2026-04-07T15:31:01Z</time></trkpt><trkpt lat="45.73669083589535" lon="9.731810367966252"><ele>314.0</ele><time>2026-04-07T15:31:03Z</time></trkpt><trkpt lat="45.73671463371345" lon="9.731896260191956"><ele>313.25</ele><time>2026-04-07T15:31:04Z</time></trkpt><trkpt lat="45.736764553600445" lon="9.73205733789531"><ele>312.5</ele><time>2026-04-07T15:31:06Z</time></trkpt><trkpt lat="45.736810456057874" lon="9.732208261780814"><ele>311.75</ele><time>2026-04-07T15:31:08Z</time></trkpt><trkpt lat="45.73685494330016" lon="9.73236022533212"><ele>311.0</ele><time>2026-04-07T15:31:10Z</time></trkpt><trkpt lat="45.7368987514895" lon="9.732508012677508"><ele>312.2</ele><time>2026-04-07T15:31:12Z</time></trkpt><trkpt lat="45.736950089479194" lon="9.732668414980376"><ele>313.40000000000003</ele><time>2026-04-07T15:31:14Z</time></trkpt><trkpt lat="45.73699695440932" lon="9.732837208120436"><ele>314.6</ele><time>2026-04-07T15:31:16Z</time></trkpt><trkpt lat="45.73702445761911" lon="9.732922072839058"><ele>315.8</ele><time>2026-04-07T15:31:17Z</time></trkpt><trkpt lat="45.737073391236024" lon="9.733086863249694"><ele>317.0</ele><time>2026-04-07T15:31:19Z</time></trkpt><trkpt lat="45.737100647141624" lon="9.733171433879457"><ele>317.0</ele><time>2026-04-07T15:31:20Z</time></trkpt><trkpt lat="45.73715527322459" lon="9.733335718001712"><ele>317.0</ele><time>2026-04-07T15:31:22Z</time></trkpt><trkpt lat="45.73718177627474" lon="9.733418911791016"><ele>317.0</ele><time>2026-04-07T15:31:23Z</time></trkpt><trkpt lat="45.73720840072518" lon="9.73350536232756"><ele>317.0</ele><time>2026-04-07T15:31:24Z</time></trkpt><trkpt lat="45.737231331552024" lon="9.73359297666396"><ele>317.0</ele><time>2026-04-07T15:31:25Z</time></trkpt><trkpt lat="45.737254776532815" lon="9.733679363234714"><ele>317.0</ele><time>2026-04-07T15:31:26Z</time></trkpt><trkpt lat="45.737281791534485" lon="9.733763883616605"><ele>316.5</ele><time>2026-04-07T15:31:27Z</time></trkpt><trkpt lat="45.73733105930669" lon="9.733931499473263"><ele>316.0</ele><time>2026-04-07T15:31:29Z</time></trkpt><trkpt lat="45.73738179582394" lon="9.734095677659525"><ele>315.5</ele><time>2026-04-07T15:31:31Z</time></trkpt><trkpt lat="45.73743281740902" lon="9.73425963675781"><ele>315.0</ele><time>2026-04-07T15:31:33Z</time></trkpt><trkpt lat="45.73748408334522" lon="9.734427262335513"><ele>314.42857142857144</ele><time>2026-04-07T15:31:35Z</time></trkpt><trkpt lat="45.73751003766894" lon="9.734516284057069"><ele>313.8571428571429</ele><time>2026-04-07T15:31:36Z</time></trkpt><trkpt lat="45.737534486507165" lon="9.734604886158067"><ele>313.2857142857143</ele><time>2026-04-07T15:31:37Z</time></trkpt><trkpt lat="45.73756228749755" lon="9.734695817844209"><ele>312.7142857142857</ele><time>2026-04-07T15:31:38Z</time></trkpt><trkpt lat="45.73758986796032" lon="9.734788911908296"><ele>312.14285714285717</ele><time>2026-04-07T15:31:39Z</time></trkpt><trkpt lat="45.737620883381254" lon="9.734883978167156"><ele>311.57142857142856</ele><time>2026-04-07T15:31:40Z</time></trkpt><trkpt lat="45.73765566490027" lon="9.734973956469982"><ele>311.0</ele><time>2026-04-07T15:31:41Z</time></trkpt><trkpt lat="45.73768783415154" lon="9.735071732602083"><ele>311.0</ele><time>2026-04-07T15:31:42Z</time></trkpt><trkpt lat="45.73771373693112" lon="9.735162906330359"><ele>311.0</ele><time>2026-04-07T15:31:43Z</time></trkpt><trkpt lat="45.73774547265137" lon="9.735256330392007"><ele>311.0</ele><time>2026-04-07T15:31:44Z</time></trkpt><trkpt lat="45.73777728238262" lon="9.735348443830782"><ele>311.0</ele><time>2026-04-07T15:31:45Z</time></trkpt><trkpt lat="45.73780338941969" lon="9.73544861043668"><ele>311.0</ele><time>2026-04-07T15:31:46Z</time></trkpt><trkpt lat="45.73783316081858" lon="9.735546584972667"><ele>311.0</ele><time>2026-04-07T15:31:47Z</time></trkpt><trkpt lat="45.737857143061944" lon="9.735652034220687"><ele>311.0</ele><time>2026-04-07T15:31:48Z</time></trkpt><trkpt lat="45.737874016846185" lon="9.735756319002526"><ele>310.6666666666667</ele><time>2026-04-07T15:31:49Z</time></trkpt><trkpt lat="45.737887577814575" lon="9.735864571992304"><ele>310.33333333333337</ele><time>2026-04-07T15:31:50Z</time></trkpt><trkpt lat="45.737894419592536" lon="9.735977246751231"><ele>310.0</ele><time>2026-04-07T15:31:51Z</time></trkpt><trkpt lat="45.737899704045326" lon="9.736091626959649"><ele>309.6666666666667</ele><time>2026-04-07T15:31:52Z</time></trkpt><trkpt lat="45.737904766894175" lon="9.736194123310504"><ele>309.3333333333333</ele><time>2026-04-07T15:31:53Z</time></trkpt><trkpt lat="45.73790687067276" lon="9.736293499061862"><ele>309.0</ele><time>2026-04-07T15:31:54Z</time></trkpt><trkpt lat="45.737897844718496" lon="9.736451322081306"><ele>309.00000000000006</ele><time>2026-04-07T15:31:56Z</time></trkpt><trkpt lat="45.73786304114651" lon="9.736584139087089"><ele>309.0</ele><time>2026-04-07T15:31:58Z</time></trkpt><trkpt lat="45.73783859749951" lon="9.736670852707821"><ele>309.0</ele><time>2026-04-07T15:31:59Z</time></trkpt><trkpt lat="45.73783232710302" lon="9.736763595386766"><ele>309.0</ele><time>2026-04-07T15:32:00Z</time></trkpt><trkpt lat="45.73782571732295" lon="9.73686323180562"><ele>309.0</ele><time>2026-04-07T15:32:01Z</time></trkpt><trkpt lat="45.73781254486442" lon="9.736963788635695"><ele>309.00000000000006</ele><time>2026-04-07T15:32:02Z</time></trkpt><trkpt lat="45.737802849635806" lon="9.737064886882767"><ele>309.0</ele><time>2026-04-07T15:32:03Z</time></trkpt><trkpt lat="45.73779249579586" lon="9.737168582890224"><ele>309.0</ele><time>2026-04-07T15:32:04Z</time></trkpt><trkpt lat="45.73778298667768" lon="9.737274694399796"><ele>309.0</ele><time>2026-04-07T15:32:05Z</time></trkpt><trkpt lat="45.73777550621465" lon="9.737380586234966"><ele>309.0</ele><time>2026-04-07T15:32:06Z</time></trkpt><trkpt lat="45.737769272689235" lon="9.737488994080003"><ele>309.0</ele><time>2026-04-07T15:32:07Z</time></trkpt><trkpt lat="45.737756189407904" lon="9.737595546996218"><ele>309.0</ele><time>2026-04-07T15:32:08Z</time></trkpt><trkpt lat="45.73774622406813" lon="9.73770402179333"><ele>309.0</ele><time>2026-04-07T15:32:09Z</time></trkpt><trkpt lat="45.737734999636956" lon="9.737814536580007"><ele>309.0</ele><time>2026-04-07T15:32:10Z</time></trkpt><trkpt lat="45.737724804054835" lon="9.737925095980753"><ele>309.0</ele><time>2026-04-07T15:32:11Z</time></trkpt><trkpt lat="45.7377154455159" lon="9.738035917149878"><ele>309.0</ele><time>2026-04-07T15:32:12Z</time></trkpt><trkpt lat="45.737707758740996" lon="9.73814466057605"><ele>309.0</ele><time>2026-04-07T15:32:13Z</time></trkpt><trkpt lat="45.73768769971128" lon="9.738247326923974"><ele>309.0</ele><time>2026-04-07T15:32:14Z</time></trkpt><trkpt lat="45.73766176299352" lon="9.738353150703308"><ele>309.0</ele><time>2026-04-07T15:32:15Z</time></trkpt><trkpt lat="45.7376404716102" lon="9.738459089887955"><ele>308.7142857142857</ele><time>2026-04-07T15:32:16Z</time></trkpt><trkpt lat="45.73765334345537" lon="9.73857161578407"><ele>308.42857142857144</ele><time>2026-04-07T15:32:17Z</time></trkpt><trkpt lat="45.73768590749054" lon="9.738672339765378"><ele>308.1428571428571</ele><time>2026-04-07T15:32:18Z</time></trkpt><trkpt lat="45.737714222438626" lon="9.738768067207086"><ele>307.8571428571429</ele><time>2026-04-07T15:32:19Z</time></trkpt><trkpt lat="45.73774296754106" lon="9.738859311848177"><ele>307.57142857142856</ele><time>2026-04-07T15:32:20Z</time></trkpt><trkpt lat="45.73776489267173" lon="9.738952518658706"><ele>307.2857142857143</ele><time>2026-04-07T15:32:21Z</time></trkpt><trkpt lat="45.737789809658906" lon="9.739042853476645"><ele>307.0</ele><time>2026-04-07T15:32:22Z</time></trkpt><trkpt lat="45.737808503190855" lon="9.739130005927493"><ele>307.0</ele><time>2026-04-07T15:32:23Z</time></trkpt><trkpt lat="45.737829959503145" lon="9.739216034034223"><ele>307.0</ele><time>2026-04-07T15:32:24Z</time></trkpt><trkpt lat="45.737874047312374" lon="9.73938368093982"><ele>307.0</ele><time>2026-04-07T15:32:26Z</time></trkpt><trkpt lat="45.73791710276682" lon="9.739552313601134"><ele>307.0</ele><time>2026-04-07T15:32:28Z</time></trkpt><trkpt lat="45.737940192696776" lon="9.73963701695641"><ele>307.0</ele><time>2026-04-07T15:32:29Z</time></trkpt><trkpt lat="45.737982097960376" lon="9.739806735100316"><ele>307.0</ele><time>2026-04-07T15:32:31Z</time></trkpt><trkpt lat="45.73800186165288" lon="9.73989387636572"><ele>307.0</ele><time>2026-04-07T15:32:32Z</time></trkpt><trkpt lat="45.738043995644325" lon="9.74006176101846"><ele>307.0</ele><time>2026-04-07T15:32:34Z</time></trkpt><trkpt lat="45.738067623535734" lon="9.74014639752245"><ele>307.0</ele><time>2026-04-07T15:32:35Z</time></trkpt><trkpt lat="45.73810846778058" lon="9.740312940551343"><ele>307.0</ele><time>2026-04-07T15:32:37Z</time></trkpt><trkpt lat="45.73813377481072" lon="9.740401929143127"><ele>307.0</ele><time>2026-04-07T15:32:38Z</time></trkpt><trkpt lat="45.738157873665045" lon="9.740486988757457"><ele>306.8</ele><time>2026-04-07T15:32:39Z</time></trkpt><trkpt lat="45.7381911902849" lon="9.740659241930631"><ele>306.6</ele><time>2026-04-07T15:32:41Z</time></trkpt><trkpt lat="45.73821368499405" lon="9.740748874588327"><ele>306.40000000000003</ele><time>2026-04-07T15:32:42Z</time></trkpt><trkpt lat="45.73824870809847" lon="9.740915570709554"><ele>306.2</ele><time>2026-04-07T15:32:44Z</time></trkpt><trkpt lat="45.73825899325172" lon="9.741011410370762"><ele>306.0</ele><time>2026-04-07T15:32:45Z</time></trkpt><trkpt lat="45.738264782181716" lon="9.741188697937986"><ele>305.40000000000003</ele><time>2026-04-07T15:32:47Z</time></trkpt><trkpt lat="45.738272980273386" lon="9.741373667797747"><ele>304.8</ele><time>2026-04-07T15:32:49Z</time></trkpt><trkpt lat="45.73829264302632" lon="9.741464500135825"><ele>304.20000000000005</ele><time>2026-04-07T15:32:50Z</time></trkpt><trkpt lat="45.738340891699345" lon="9.741534718085909"><ele>303.6</ele><time>2026-04-07T15:32:51Z</time></trkpt><trkpt lat="45.738447822980646" lon="9.741631836842226"><ele>303.0</ele><time>2026-04-07T15:32:53Z</time></trkpt><trkpt lat="45.73849286094483" lon="9.741799775445582"><ele>302.8</ele><time>2026-04-07T15:32:55Z</time></trkpt><trkpt lat="45.738509221673574" lon="9.741888135504864"><ele>302.6</ele><time>2026-04-07T15:32:56Z</time></trkpt><trkpt lat="45.73853272307829" lon="9.741973152534404"><ele>302.4</ele><time>2026-04-07T15:32:57Z</time></trkpt><trkpt lat="45.738577201508015" lon="9.742143078067459"><ele>302.2</ele><time>2026-04-07T15:32:59Z</time></trkpt><trkpt lat="45.73861869101782" lon="9.742313157815637"><ele>302.0</ele><time>2026-04-07T15:33:01Z</time></trkpt><trkpt lat="45.738660651476465" lon="9.742481534185115"><ele>302.0</ele><time>2026-04-07T15:33:03Z</time></trkpt><trkpt lat="45.73868360992323" lon="9.742567527018641"><ele>302.0</ele><time>2026-04-07T15:33:04Z</time></trkpt><trkpt lat="45.738727678539796" lon="9.742731995163592"><ele>302.0</ele><time>2026-04-07T15:33:06Z</time></trkpt><trkpt lat="45.73876458555949" lon="9.7429022494469"><ele>302.0</ele><time>2026-04-07T15:33:08Z</time></trkpt><trkpt lat="45.738806549537955" lon="9.743070561258365"><ele>302.0</ele><time>2026-04-07T15:33:10Z</time></trkpt><trkpt lat="45.7388516488532" lon="9.743235870117164"><ele>302.75</ele><time>2026-04-07T15:33:12Z</time></trkpt><trkpt lat="45.7388893136491" lon="9.743407122088172"><ele>303.5</ele><time>2026-04-07T15:33:14Z</time></trkpt><trkpt lat="45.73893449064999" lon="9.743568479716076"><ele>304.25</ele><time>2026-04-07T15:33:16Z</time></trkpt><trkpt lat="45.73897846672137" lon="9.743734317244227"><ele>305.0</ele><time>2026-04-07T15:33:18Z</time></trkpt><trkpt lat="45.739022684877355" lon="9.743898264054364"><ele>305.0</ele><time>2026-04-07T15:33:20Z</time></trkpt><trkpt lat="45.7390620528159" lon="9.744064572318363"><ele>305.0</ele><time>2026-04-07T15:33:22Z</time></trkpt><trkpt lat="45.73910438018608" lon="9.744229136630397"><ele>305.0</ele><time>2026-04-07T15:33:24Z</time></trkpt><trkpt lat="45.73914763492003" lon="9.744389275637191"><ele>305.0</ele><time>2026-04-07T15:33:26Z</time></trkpt><trkpt lat="45.73916886910908" lon="9.744475345211466"><ele>305.0</ele><time>2026-04-07T15:33:27Z</time></trkpt><trkpt lat="45.7392068107986" lon="9.744643791314225"><ele>305.0</ele><time>2026-04-07T15:33:29Z</time></trkpt><trkpt lat="45.739228927855905" lon="9.744729290483988"><ele>305.0</ele><time>2026-04-07T15:33:30Z</time></trkpt><trkpt lat="45.73925065112607" lon="9.744813966862186"><ele>305.0</ele><time>2026-04-07T15:33:31Z</time></trkpt><trkpt lat="45.739290532619286" lon="9.744981806299275"><ele>305.0</ele><time>2026-04-07T15:33:33Z</time></trkpt><trkpt lat="45.739332391212365" lon="9.745146747813964"><ele>305.0</ele><time>2026-04-07T15:33:35Z</time></trkpt><trkpt lat="45.739377056396926" lon="9.74531286372504"><ele>305.4</ele><time>2026-04-07T15:33:37Z</time></trkpt><trkpt lat="45.73940160602938" lon="9.74539627558872"><ele>305.8</ele><time>2026-04-07T15:33:38Z</time></trkpt><trkpt lat="45.739442935700424" lon="9.745558090867311"><ele>306.2</ele><time>2026-04-07T15:33:40Z</time></trkpt><trkpt lat="45.739488243408246" lon="9.745703419531862"><ele>306.6</ele><time>2026-04-07T15:33:42Z</time></trkpt><trkpt lat="45.73952512907702" lon="9.745843173590723"><ele>307.0</ele><time>2026-04-07T15:33:44Z</time></trkpt><trkpt lat="45.739555089660946" lon="9.745983408538537"><ele>307.25</ele><time>2026-04-07T15:33:46Z</time></trkpt><trkpt lat="45.73959439975949" lon="9.746130597638842"><ele>307.5</ele><time>2026-04-07T15:33:48Z</time></trkpt><trkpt lat="45.73963278136978" lon="9.74630028078093"><ele>307.75</ele><time>2026-04-07T15:33:50Z</time></trkpt><trkpt lat="45.739677973816555" lon="9.746464585680714"><ele>308.0</ele><time>2026-04-07T15:33:52Z</time></trkpt><trkpt lat="45.73971925466308" lon="9.746630681457567"><ele>308.0</ele><time>2026-04-07T15:33:54Z</time></trkpt><trkpt lat="45.73977103475954" lon="9.746789984646947"><ele>308.0</ele><time>2026-04-07T15:33:56Z</time></trkpt><trkpt lat="45.739799807655444" lon="9.746873301185762"><ele>308.0</ele><time>2026-04-07T15:33:57Z</time></trkpt><trkpt lat="45.73983261370977" lon="9.747044471678029"><ele>308.0</ele><time>2026-04-07T15:33:59Z</time></trkpt><trkpt lat="45.73985400377273" lon="9.747132571302167"><ele>308.0</ele><time>2026-04-07T15:34:00Z</time></trkpt><trkpt lat="45.739892835788" lon="9.747301709706157"><ele>307.8</ele><time>2026-04-07T15:34:02Z</time></trkpt><trkpt lat="45.73993502649301" lon="9.747465271167961"><ele>307.6</ele><time>2026-04-07T15:34:04Z</time></trkpt><trkpt lat="45.73997113599319" lon="9.747618325546707"><ele>307.4</ele><time>2026-04-07T15:34:06Z</time></trkpt><trkpt lat="45.739985449473174" lon="9.74776413839294"><ele>307.2</ele><time>2026-04-07T15:34:08Z</time></trkpt><trkpt lat="45.73995820379916" lon="9.747910821026252"><ele>307.0</ele><time>2026-04-07T15:34:10Z</time></trkpt><trkpt lat="45.73994992552887" lon="9.748089346385797"><ele>307.4</ele><time>2026-04-07T15:34:12Z</time></trkpt><trkpt lat="45.7399669681829" lon="9.748178236681207"><ele>307.79999999999995</ele><time>2026-04-07T15:34:13Z</time></trkpt><trkpt lat="45.74002247201406" lon="9.748336386451903"><ele>308.2</ele><time>2026-04-07T15:34:15Z</time></trkpt><trkpt lat="45.740044625843574" lon="9.748422646502387"><ele>308.59999999999997</ele><time>2026-04-07T15:34:16Z</time></trkpt><trkpt lat="45.7400478272761" lon="9.748598172223021"><ele>309.0</ele><time>2026-04-07T15:34:18Z</time></trkpt><trkpt lat="45.74004245253517" lon="9.748770112236521"><ele>309.2</ele><time>2026-04-07T15:34:20Z</time></trkpt><trkpt lat="45.740038958627345" lon="9.748860627971373"><ele>309.4</ele><time>2026-04-07T15:34:21Z</time></trkpt><trkpt lat="45.740043367355256" lon="9.748950711614855"><ele>309.6</ele><time>2026-04-07T15:34:22Z</time></trkpt><trkpt lat="45.74004235599435" lon="9.749132407981175"><ele>309.8</ele><time>2026-04-07T15:34:24Z</time></trkpt><trkpt lat="45.7400321785118" lon="9.749308813323061"><ele>310.0</ele><time>2026-04-07T15:34:26Z</time></trkpt><trkpt lat="45.7400362065607" lon="9.749485434525367"><ele>309.5</ele><time>2026-04-07T15:34:28Z</time></trkpt><trkpt lat="45.74003605529722" lon="9.749665118631677"><ele>309.0</ele><time>2026-04-07T15:34:30Z</time></trkpt><trkpt lat="45.74003327002934" lon="9.749842594312419"><ele>308.5</ele><time>2026-04-07T15:34:32Z</time></trkpt><trkpt lat="45.740034882963975" lon="9.750020551167824"><ele>308.0</ele><time>2026-04-07T15:34:34Z</time></trkpt><trkpt lat="45.740036157551664" lon="9.750195483238922"><ele>308.0</ele><time>2026-04-07T15:34:36Z</time></trkpt><trkpt lat="45.74003514619439" lon="9.75035569644142"><ele>308.0</ele><time>2026-04-07T15:34:38Z</time></trkpt><trkpt lat="45.740037623738736" lon="9.750516926161442"><ele>308.0</ele><time>2026-04-07T15:34:40Z</time></trkpt><trkpt lat="45.74003303962531" lon="9.750667612182006"><ele>308.0</ele><time>2026-04-07T15:34:42Z</time></trkpt><trkpt lat="45.74003281524367" lon="9.750813756038962"><ele>308.0</ele><time>2026-04-07T15:34:44Z</time></trkpt><trkpt lat="45.740037693328254" lon="9.750981442795945"><ele>307.6</ele><time>2026-04-07T15:34:46Z</time></trkpt><trkpt lat="45.740036289257866" lon="9.751072771558166"><ele>307.20000000000005</ele><time>2026-04-07T15:34:47Z</time></trkpt><trkpt lat="45.740040678738396" lon="9.75124925878944"><ele>306.8</ele><time>2026-04-07T15:34:49Z</time></trkpt><trkpt lat="45.74005478548561" lon="9.751429657554477"><ele>306.40000000000003</ele><time>2026-04-07T15:34:51Z</time></trkpt><trkpt lat="45.74007418925295" lon="9.751601494138928"><ele>306.0</ele><time>2026-04-07T15:34:53Z</time></trkpt><trkpt lat="45.740104287984785" lon="9.751775963876405"><ele>305.6</ele><time>2026-04-07T15:34:55Z</time></trkpt><trkpt lat="45.74014173102134" lon="9.751938736538273"><ele>305.20000000000005</ele><time>2026-04-07T15:34:57Z</time></trkpt><trkpt lat="45.74018317139677" lon="9.75209086548402"><ele>304.79999999999995</ele><time>2026-04-07T15:34:59Z</time></trkpt><trkpt lat="45.74022844214793" lon="9.752232066961477"><ele>304.4</ele><time>2026-04-07T15:35:01Z</time></trkpt><trkpt lat="45.740280445650896" lon="9.752364193334673"><ele>304.0</ele><time>2026-04-07T15:35:03Z</time></trkpt><trkpt lat="45.74031311166161" lon="9.752481285135707"><ele>304.66666666666663</ele><time>2026-04-07T15:35:05Z</time></trkpt><trkpt lat="45.74032954990212" lon="9.752600374213829"><ele>305.3333333333333</ele><time>2026-04-07T15:35:08Z</time></trkpt><trkpt lat="45.74029985610169" lon="9.752765653842667"><ele>306.0</ele><time>2026-04-07T15:35:10Z</time></trkpt><trkpt lat="45.74031866276299" lon="9.75285390120478"><ele>306.6666666666667</ele><time>2026-04-07T15:35:11Z</time></trkpt><trkpt lat="45.74034826620202" lon="9.752937420766173"><ele>307.33333333333337</ele><time>2026-04-07T15:35:12Z</time></trkpt><trkpt lat="45.740388522276994" lon="9.753007026643601"><ele>308.0</ele><time>2026-04-07T15:35:13Z</time></trkpt><trkpt lat="45.74046585975826" lon="9.753148062434533"><ele>308.0</ele><time>2026-04-07T15:35:15Z</time></trkpt><trkpt lat="45.74049983545894" lon="9.753225834579615"><ele>308.0</ele><time>2026-04-07T15:35:16Z</time></trkpt><trkpt lat="45.74054040468508" lon="9.753298718011827"><ele>308.0</ele><time>2026-04-07T15:35:17Z</time></trkpt><trkpt lat="45.740615400114464" lon="9.75344357427095"><ele>308.0</ele><time>2026-04-07T15:35:19Z</time></trkpt><trkpt lat="45.74064883008612" lon="9.753520899229782"><ele>308.0</ele><time>2026-04-07T15:35:20Z</time></trkpt><trkpt lat="45.74070789524098" lon="9.75368209265126"><ele>308.0</ele><time>2026-04-07T15:35:22Z</time></trkpt><trkpt lat="45.740737384917026" lon="9.753765425431945"><ele>308.33333333333337</ele><time>2026-04-07T15:35:23Z</time></trkpt><trkpt lat="45.74077010193795" lon="9.753847026789526"><ele>308.6666666666667</ele><time>2026-04-07T15:35:24Z</time></trkpt><trkpt lat="45.740799940802674" lon="9.753929306659295"><ele>309.0</ele><time>2026-04-07T15:35:25Z</time></trkpt><trkpt lat="45.74086017597921" lon="9.75409190284407"><ele>309.3333333333333</ele><time>2026-04-07T15:35:27Z</time></trkpt><trkpt lat="45.740889230951495" lon="9.754173689478971"><ele>309.66666666666663</ele><time>2026-04-07T15:35:28Z</time></trkpt><trkpt lat="45.7409394212202" lon="9.75433965376624"><ele>310.0</ele><time>2026-04-07T15:35:30Z</time></trkpt><trkpt lat="45.74096521651774" lon="9.754422348201244"><ele>310.4</ele><time>2026-04-07T15:35:31Z</time></trkpt><trkpt lat="45.74102095427426" lon="9.754578562074254"><ele>310.8</ele><time>2026-04-07T15:35:33Z</time></trkpt><trkpt lat="45.74104839050118" lon="9.754662070259657"><ele>311.2</ele><time>2026-04-07T15:35:34Z</time></trkpt><trkpt lat="45.74110116203746" lon="9.754818962956945"><ele>311.6</ele><time>2026-04-07T15:35:36Z</time></trkpt><trkpt lat="45.741157190609705" lon="9.754978394925631"><ele>312.0</ele><time>2026-04-07T15:35:38Z</time></trkpt><trkpt lat="45.741213612767126" lon="9.755137262893541"><ele>312.2</ele><time>2026-04-07T15:35:40Z</time></trkpt><trkpt lat="45.741267776156924" lon="9.755301710098363"><ele>312.4</ele><time>2026-04-07T15:35:42Z</time></trkpt><trkpt lat="45.741293970559546" lon="9.755387096872624"><ele>312.6</ele><time>2026-04-07T15:35:43Z</time></trkpt><trkpt lat="45.741353026016455" lon="9.75553846852813"><ele>312.8</ele><time>2026-04-07T15:35:45Z</time></trkpt><trkpt lat="45.74140852596302" lon="9.75570005531"><ele>313.0</ele><time>2026-04-07T15:35:47Z</time></trkpt><trkpt lat="45.74146783080515" lon="9.75585577300368"><ele>313.0</ele><time>2026-04-07T15:35:49Z</time></trkpt><trkpt lat="45.74152109003232" lon="9.756014787385249"><ele>313.0</ele><time>2026-04-07T15:35:51Z</time></trkpt><trkpt lat="45.74157697899966" lon="9.756172576634327"><ele>313.0</ele><time>2026-04-07T15:35:53Z</time></trkpt><trkpt lat="45.741628033692315" lon="9.75633399003978"><ele>313.0</ele><time>2026-04-07T15:35:55Z</time></trkpt><trkpt lat="45.7416551074437" lon="9.75641738868263"><ele>313.0</ele><time>2026-04-07T15:35:56Z</time></trkpt><trkpt lat="45.741708447734666" lon="9.756579707493694"><ele>313.0</ele><time>2026-04-07T15:35:58Z</time></trkpt><trkpt lat="45.74173637252597" lon="9.756660658304362"><ele>313.0</ele><time>2026-04-07T15:35:59Z</time></trkpt><trkpt lat="45.74179760670358" lon="9.756814438184074"><ele>313.0</ele><time>2026-04-07T15:36:01Z</time></trkpt><trkpt lat="45.74182658833961" lon="9.756895667039235"><ele>313.0</ele><time>2026-04-07T15:36:02Z</time></trkpt><trkpt lat="45.74188320771157" lon="9.75704940255532"><ele>313.0</ele><time>2026-04-07T15:36:04Z</time></trkpt><trkpt lat="45.74191615467879" lon="9.75712659278091"><ele>313.0</ele><time>2026-04-07T15:36:05Z</time></trkpt><trkpt lat="45.741974725392765" lon="9.757279714696802"><ele>313.0</ele><time>2026-04-07T15:36:07Z</time></trkpt><trkpt lat="45.742039814678364" lon="9.75743802999842"><ele>313.0</ele><time>2026-04-07T15:36:09Z</time></trkpt><trkpt lat="45.74208511454899" lon="9.757598582807171"><ele>313.0</ele><time>2026-04-07T15:36:11Z</time></trkpt><trkpt lat="45.742129328494364" lon="9.75776613782665"><ele>313.0</ele><time>2026-04-07T15:36:13Z</time></trkpt><trkpt lat="45.74216760438659" lon="9.757925675071458"><ele>313.0</ele><time>2026-04-07T15:36:15Z</time></trkpt><trkpt lat="45.742216927444005" lon="9.758075773324268"><ele>313.0</ele><time>2026-04-07T15:36:17Z</time></trkpt><trkpt lat="45.74227171361803" lon="9.758222244899349"><ele>313.0</ele><time>2026-04-07T15:36:19Z</time></trkpt><trkpt lat="45.74232508406835" lon="9.758377247501054"><ele>313.0</ele><time>2026-04-07T15:36:21Z</time></trkpt><trkpt lat="45.74238518416432" lon="9.758533255846006"><ele>312.8333333333333</ele><time>2026-04-07T15:36:23Z</time></trkpt><trkpt lat="45.742440539761" lon="9.758692489097236"><ele>312.66666666666663</ele><time>2026-04-07T15:36:25Z</time></trkpt><trkpt lat="45.742501934806256" lon="9.758852387903419"><ele>312.5</ele><time>2026-04-07T15:36:27Z</time></trkpt><trkpt lat="45.74253284564463" lon="9.75893174935115"><ele>312.3333333333333</ele><time>2026-04-07T15:36:28Z</time></trkpt><trkpt lat="45.74256486832083" lon="9.759009695657197"><ele>312.1666666666667</ele><time>2026-04-07T15:36:29Z</time></trkpt><trkpt lat="45.742595477753014" lon="9.759092077143032"><ele>312.0</ele><time>2026-04-07T15:36:30Z</time></trkpt><trkpt lat="45.74261878567733" lon="9.759184760924368"><ele>312.0</ele><time>2026-04-07T15:36:31Z</time></trkpt><trkpt lat="45.74261120839814" lon="9.759276813050118"><ele>312.0</ele><time>2026-04-07T15:36:32Z</time></trkpt><trkpt lat="45.74257545447982" lon="9.759369000749981"><ele>312.0</ele><time>2026-04-07T15:36:33Z</time></trkpt><trkpt lat="45.742517640250945" lon="9.759445835520964"><ele>312.0</ele><time>2026-04-07T15:36:34Z</time></trkpt><trkpt lat="45.7424492605887" lon="9.759494180509519"><ele>312.0</ele><time>2026-04-07T15:36:35Z</time></trkpt><trkpt lat="45.7423683974968" lon="9.759521102389485"><ele>312.0</ele><time>2026-04-07T15:36:36Z</time></trkpt><trkpt lat="45.742287119164274" lon="9.759528405557248"><ele>311.8333333333333</ele><time>2026-04-07T15:36:37Z</time></trkpt><trkpt lat="45.742204236148396" lon="9.75951054326792"><ele>311.6666666666667</ele><time>2026-04-07T15:36:38Z</time></trkpt><trkpt lat="45.74212935493313" lon="9.759510644611446"><ele>311.5</ele><time>2026-04-07T15:36:39Z</time></trkpt><trkpt lat="45.74205432042404" lon="9.759518366554504"><ele>311.33333333333337</ele><time>2026-04-07T15:36:40Z</time></trkpt><trkpt lat="45.74197966421778" lon="9.759536617243159"><ele>311.1666666666667</ele><time>2026-04-07T15:36:41Z</time></trkpt><trkpt lat="45.7419088286506" lon="9.759554000292741"><ele>311.0</ele><time>2026-04-07T15:36:42Z</time></trkpt><trkpt lat="45.741837799368554" lon="9.759566640798113"><ele>310.85714285714283</ele><time>2026-04-07T15:36:43Z</time></trkpt><trkpt lat="45.74176795048174" lon="9.759592915494364"><ele>310.7142857142857</ele><time>2026-04-07T15:36:44Z</time></trkpt><trkpt lat="45.74170101155341" lon="9.759630590185441"><ele>310.57142857142856</ele><time>2026-04-07T15:36:45Z</time></trkpt><trkpt lat="45.74163594882321" lon="9.759662924670952"><ele>310.42857142857144</ele><time>2026-04-07T15:36:46Z</time></trkpt><trkpt lat="45.741569907314314" lon="9.759698982358286"><ele>310.2857142857143</ele><time>2026-04-07T15:36:47Z</time></trkpt><trkpt lat="45.74150578499355" lon="9.759730724443116"><ele>310.14285714285717</ele><time>2026-04-07T15:36:48Z</time></trkpt><trkpt lat="45.74143906062376" lon="9.759760328226772"><ele>310.0</ele><time>2026-04-07T15:36:49Z</time></trkpt><trkpt lat="45.741399062818516" lon="9.759925135658623"><ele>310.0</ele><time>2026-04-07T15:36:51Z</time></trkpt><trkpt lat="45.74143998947896" lon="9.76001309767575"><ele>310.0</ele><time>2026-04-07T15:36:52Z</time></trkpt><trkpt lat="45.74147613186608" lon="9.760094028126737"><ele>310.0</ele><time>2026-04-07T15:36:53Z</time></trkpt><trkpt lat="45.74150339987646" lon="9.760178448409441"><ele>310.0</ele><time>2026-04-07T15:36:54Z</time></trkpt><trkpt lat="45.74152921067952" lon="9.760263188136696"><ele>310.0</ele><time>2026-04-07T15:36:55Z</time></trkpt><trkpt lat="45.74155788688933" lon="9.760348803414605"><ele>310.0</ele><time>2026-04-07T15:36:56Z</time></trkpt><trkpt lat="45.74158320079693" lon="9.760432301227922"><ele>310.0</ele><time>2026-04-07T15:36:57Z</time></trkpt><trkpt lat="45.74160909627691" lon="9.760517694530948"><ele>309.66666666666663</ele><time>2026-04-07T15:36:58Z</time></trkpt><trkpt lat="45.74165440765231" lon="9.760689102931485"><ele>309.3333333333333</ele><time>2026-04-07T15:37:00Z</time></trkpt><trkpt lat="45.74167969324662" lon="9.760773935325801"><ele>309.0</ele><time>2026-04-07T15:37:01Z</time></trkpt><trkpt lat="45.74170641053745" lon="9.760860041026122"><ele>308.6666666666667</ele><time>2026-04-07T15:37:02Z</time></trkpt><trkpt lat="45.74173472624185" lon="9.7609414843589"><ele>308.33333333333337</ele><time>2026-04-07T15:37:03Z</time></trkpt><trkpt lat="45.7417568136654" lon="9.761028728249963"><ele>308.0</ele><time>2026-04-07T15:37:04Z</time></trkpt><trkpt lat="45.74178220804071" lon="9.761115149464953"><ele>308.0</ele><time>2026-04-07T15:37:05Z</time></trkpt><trkpt lat="45.74180977660322" lon="9.761201591340434"><ele>308.0</ele><time>2026-04-07T15:37:06Z</time></trkpt><trkpt lat="45.7418377899642" lon="9.761285980988"><ele>308.0</ele><time>2026-04-07T15:37:07Z</time></trkpt><trkpt lat="45.741866207489785" lon="9.76136692939332"><ele>308.0</ele><time>2026-04-07T15:37:08Z</time></trkpt><trkpt lat="45.74189438924589" lon="9.761454563987158"><ele>308.0</ele><time>2026-04-07T15:37:09Z</time></trkpt><trkpt lat="45.741917012266015" lon="9.761543382679651"><ele>308.0</ele><time>2026-04-07T15:37:10Z</time></trkpt><trkpt lat="45.7419462002074" lon="9.761714758518513"><ele>307.6666666666667</ele><time>2026-04-07T15:37:12Z</time></trkpt><trkpt lat="45.74190430241329" lon="9.761887816822416"><ele>307.33333333333337</ele><time>2026-04-07T15:37:14Z</time></trkpt><trkpt lat="45.74184786575798" lon="9.76194645762524"><ele>307.0</ele><time>2026-04-07T15:37:15Z</time></trkpt><trkpt lat="45.74178293483028" lon="9.761972171879265"><ele>306.6666666666667</ele><time>2026-04-07T15:37:16Z</time></trkpt><trkpt lat="45.74172077443766" lon="9.761999926011143"><ele>306.3333333333333</ele><time>2026-04-07T15:37:17Z</time></trkpt><trkpt lat="45.74165891432738" lon="9.762033870626565"><ele>306.0</ele><time>2026-04-07T15:37:18Z</time></trkpt><trkpt lat="45.74159552148115" lon="9.762070567114636"><ele>305.7142857142857</ele><time>2026-04-07T15:37:19Z</time></trkpt><trkpt lat="45.74153338559996" lon="9.762107776266706"><ele>305.42857142857144</ele><time>2026-04-07T15:37:20Z</time></trkpt><trkpt lat="45.74147154766407" lon="9.76214423638468"><ele>305.1428571428571</ele><time>2026-04-07T15:37:21Z</time></trkpt><trkpt lat="45.74140739293085" lon="9.762182322418296"><ele>304.8571428571429</ele><time>2026-04-07T15:37:22Z</time></trkpt><trkpt lat="45.74134369856798" lon="9.762218725790095"><ele>304.5714285714286</ele><time>2026-04-07T15:37:23Z</time></trkpt><trkpt lat="45.74127902315174" lon="9.762248584082315"><ele>304.2857142857143</ele><time>2026-04-07T15:37:24Z</time></trkpt><trkpt lat="45.74121250166411" lon="9.76226447449997"><ele>304.0</ele><time>2026-04-07T15:37:25Z</time></trkpt><trkpt lat="45.74114686789552" lon="9.762277261630846"><ele>304.0</ele><time>2026-04-07T15:37:26Z</time></trkpt><trkpt lat="45.74108401113381" lon="9.762296121099476"><ele>304.0</ele><time>2026-04-07T15:37:27Z</time></trkpt><trkpt lat="45.74098886398655" lon="9.762411624135208"><ele>304.0</ele><time>2026-04-07T15:37:29Z</time></trkpt><trkpt lat="45.74095229533576" lon="9.762490414632657"><ele>304.0</ele><time>2026-04-07T15:37:30Z</time></trkpt><trkpt lat="45.740909755411636" lon="9.762560600577066"><ele>304.0</ele><time>2026-04-07T15:37:31Z</time></trkpt><trkpt lat="45.74085736910231" lon="9.762614104410618"><ele>304.0</ele><time>2026-04-07T15:37:32Z</time></trkpt><trkpt lat="45.74079583315491" lon="9.762657034869786"><ele>303.85714285714283</ele><time>2026-04-07T15:37:33Z</time></trkpt><trkpt lat="45.74073509559097" lon="9.762697549038041"><ele>303.7142857142857</ele><time>2026-04-07T15:37:34Z</time></trkpt><trkpt lat="45.740675938168856" lon="9.762743828017774"><ele>303.57142857142856</ele><time>2026-04-07T15:37:35Z</time></trkpt><trkpt lat="45.74061667916336" lon="9.762793907726357"><ele>303.42857142857144</ele><time>2026-04-07T15:37:36Z</time></trkpt><trkpt lat="45.74055346403358" lon="9.76284381269747"><ele>303.2857142857143</ele><time>2026-04-07T15:37:37Z</time></trkpt><trkpt lat="45.74049123388589" lon="9.762893037337767"><ele>303.14285714285717</ele><time>2026-04-07T15:37:38Z</time></trkpt><trkpt lat="45.74042959081018" lon="9.762942040222006"><ele>303.0</ele><time>2026-04-07T15:37:39Z</time></trkpt><trkpt lat="45.74036847444312" lon="9.762987535946122"><ele>303.0</ele><time>2026-04-07T15:37:40Z</time></trkpt><trkpt lat="45.7403111030706" lon="9.763037677019222"><ele>303.0</ele><time>2026-04-07T15:37:41Z</time></trkpt><trkpt lat="45.74025484535509" lon="9.76308189887701"><ele>303.0</ele><time>2026-04-07T15:37:42Z</time></trkpt><trkpt lat="45.74014223645972" lon="9.763155123580205"><ele>303.0</ele><time>2026-04-07T15:37:44Z</time></trkpt><trkpt lat="45.74003010278694" lon="9.763230349242198"><ele>303.0</ele><time>2026-04-07T15:37:46Z</time></trkpt><trkpt lat="45.73991847776257" lon="9.763313671750801"><ele>302.7142857142857</ele><time>2026-04-07T15:37:48Z</time></trkpt><trkpt lat="45.739860849683694" lon="9.763350181900432"><ele>302.42857142857144</ele><time>2026-04-07T15:37:49Z</time></trkpt><trkpt lat="45.73980425943965" lon="9.763391869089514"><ele>302.1428571428571</ele><time>2026-04-07T15:37:50Z</time></trkpt><trkpt lat="45.739744457849724" lon="9.763421924527039"><ele>301.8571428571429</ele><time>2026-04-07T15:37:51Z</time></trkpt><trkpt lat="45.73962761613425" lon="9.763482207099042"><ele>301.57142857142856</ele><time>2026-04-07T15:37:53Z</time></trkpt><trkpt lat="45.73957344706078" lon="9.763528388192288"><ele>301.2857142857143</ele><time>2026-04-07T15:37:54Z</time></trkpt><trkpt lat="45.73950773352623" lon="9.763554227100135"><ele>301.0</ele><time>2026-04-07T15:37:55Z</time></trkpt><trkpt lat="45.73938575616778" lon="9.763562724402053"><ele>300.0</ele><time>2026-04-07T15:37:57Z</time></trkpt><trkpt lat="45.73928194392341" lon="9.76365946086382"><ele>299.0</ele><time>2026-04-07T15:37:59Z</time></trkpt><trkpt lat="45.739174012892676" lon="9.76370059918961"><ele>298.0</ele><time>2026-04-07T15:38:01Z</time></trkpt><trkpt lat="45.73907307809305" lon="9.763665816299198"><ele>297.0</ele><time>2026-04-07T15:38:03Z</time></trkpt><trkpt lat="45.738983446789256" lon="9.76353465673981"><ele>297.0</ele><time>2026-04-07T15:38:05Z</time></trkpt><trkpt lat="45.73894762683914" lon="9.763453448663972"><ele>297.0</ele><time>2026-04-07T15:38:06Z</time></trkpt><trkpt lat="45.73892192990828" lon="9.763368094924342"><ele>297.0</ele><time>2026-04-07T15:38:07Z</time></trkpt><trkpt lat="45.73889756262527" lon="9.76328150788453"><ele>297.0</ele><time>2026-04-07T15:38:08Z</time></trkpt><trkpt lat="45.7388751594504" lon="9.763193963110398"><ele>297.0</ele><time>2026-04-07T15:38:09Z</time></trkpt><trkpt lat="45.738863156419555" lon="9.763094364504745"><ele>297.0</ele><time>2026-04-07T15:38:10Z</time></trkpt><trkpt lat="45.7388553671208" lon="9.763003455672486"><ele>297.0</ele><time>2026-04-07T15:38:11Z</time></trkpt><trkpt lat="45.738852869524976" lon="9.762904934807095"><ele>297.0</ele><time>2026-04-07T15:38:12Z</time></trkpt><trkpt lat="45.73884350811274" lon="9.762807275882777"><ele>297.0</ele><time>2026-04-07T15:38:13Z</time></trkpt><trkpt lat="45.73883415128568" lon="9.762708479557256"><ele>297.0</ele><time>2026-04-07T15:38:14Z</time></trkpt><trkpt lat="45.738824816984916" lon="9.762609106566066"><ele>297.0</ele><time>2026-04-07T15:38:15Z</time></trkpt><trkpt lat="45.73880170853117" lon="9.762508604861722"><ele>297.0</ele><time>2026-04-07T15:38:16Z</time></trkpt><trkpt lat="45.73877393619428" lon="9.76241724647404"><ele>297.0</ele><time>2026-04-07T15:38:17Z</time></trkpt><trkpt lat="45.73875138056769" lon="9.762316271918216"><ele>297.0</ele><time>2026-04-07T15:38:18Z</time></trkpt><trkpt lat="45.73872236305284" lon="9.762225125912808"><ele>296.8333333333333</ele><time>2026-04-07T15:38:19Z</time></trkpt><trkpt lat="45.73865664536613" lon="9.762126022581372"><ele>296.6666666666667</ele><time>2026-04-07T15:38:21Z</time></trkpt><trkpt lat="45.7385933919371" lon="9.762122567728825"><ele>296.5</ele><time>2026-04-07T15:38:22Z</time></trkpt><trkpt lat="45.73852662156105" lon="9.762123613005137"><ele>296.33333333333337</ele><time>2026-04-07T15:38:23Z</time></trkpt><trkpt lat="45.73846258497221" lon="9.762114008876804"><ele>296.1666666666667</ele><time>2026-04-07T15:38:24Z</time></trkpt><trkpt lat="45.73833841943577" lon="9.762092838242763"><ele>296.0</ele><time>2026-04-07T15:38:26Z</time></trkpt><trkpt lat="45.73821274567075" lon="9.762074784869418"><ele>295.2</ele><time>2026-04-07T15:38:28Z</time></trkpt><trkpt lat="45.73809209424101" lon="9.762068298892276"><ele>294.40000000000003</ele><time>2026-04-07T15:38:30Z</time></trkpt><trkpt lat="45.73798399583691" lon="9.762035423005733"><ele>293.6</ele><time>2026-04-07T15:38:32Z</time></trkpt><trkpt lat="45.737923954785856" lon="9.761984190671235"><ele>292.8</ele><time>2026-04-07T15:38:35Z</time></trkpt><trkpt lat="45.737912326442796" lon="9.761845926830825"><ele>292.0</ele><time>2026-04-07T15:38:37Z</time></trkpt><trkpt lat="45.73790571692073" lon="9.76167462488509"><ele>292.0</ele><time>2026-04-07T15:38:39Z</time></trkpt><trkpt lat="45.73790708577066" lon="9.761493427411526"><ele>292.0</ele><time>2026-04-07T15:38:41Z</time></trkpt><trkpt lat="45.73791412557282" lon="9.76139928668222"><ele>292.0</ele><time>2026-04-07T15:38:42Z</time></trkpt><trkpt lat="45.737926989681384" lon="9.761305036842995"><ele>292.0</ele><time>2026-04-07T15:38:43Z</time></trkpt><trkpt lat="45.73793993862749" lon="9.761209753678141"><ele>292.0</ele><time>2026-04-07T15:38:44Z</time></trkpt><trkpt lat="45.73795414377829" lon="9.761116981647925"><ele>292.0</ele><time>2026-04-07T15:38:45Z</time></trkpt><trkpt lat="45.73795340829231" lon="9.761023494008993"><ele>292.0</ele><time>2026-04-07T15:38:46Z</time></trkpt><trkpt lat="45.737936224274165" lon="9.760928095366292"><ele>292.0</ele><time>2026-04-07T15:38:47Z</time></trkpt><trkpt lat="45.73791286919651" lon="9.760840806184751"><ele>292.0</ele><time>2026-04-07T15:38:48Z</time></trkpt><trkpt lat="45.737895280241226" lon="9.760751801668997"><ele>292.0</ele><time>2026-04-07T15:38:49Z</time></trkpt><trkpt lat="45.737876361884446" lon="9.760664511757058"><ele>292.0</ele><time>2026-04-07T15:38:50Z</time></trkpt><trkpt lat="45.737858699231566" lon="9.760574265041226"><ele>292.0</ele><time>2026-04-07T15:38:51Z</time></trkpt><trkpt lat="45.73783914420272" lon="9.760486155493338"><ele>292.0</ele><time>2026-04-07T15:38:52Z</time></trkpt><trkpt lat="45.73779660575738" lon="9.760312900327882"><ele>292.0</ele><time>2026-04-07T15:38:54Z</time></trkpt><trkpt lat="45.737775399390465" lon="9.760224993164687"><ele>292.0</ele><time>2026-04-07T15:38:55Z</time></trkpt><trkpt lat="45.73775462172457" lon="9.76013658615353"><ele>292.0</ele><time>2026-04-07T15:38:56Z</time></trkpt><trkpt lat="45.73773333463867" lon="9.760050530885472"><ele>292.0</ele><time>2026-04-07T15:38:57Z</time></trkpt><trkpt lat="45.73770680166556" lon="9.759960356116439"><ele>292.0</ele><time>2026-04-07T15:38:58Z</time></trkpt><trkpt lat="45.73765588205912" lon="9.759794450923142"><ele>292.0</ele><time>2026-04-07T15:39:00Z</time></trkpt><trkpt lat="45.73759803633107" lon="9.75964361185344"><ele>292.4</ele><time>2026-04-07T15:39:02Z</time></trkpt><trkpt lat="45.73754102528478" lon="9.759488853105738"><ele>292.79999999999995</ele><time>2026-04-07T15:39:04Z</time></trkpt><trkpt lat="45.73751578092402" lon="9.759402402723142"><ele>293.2</ele><time>2026-04-07T15:39:05Z</time></trkpt><trkpt lat="45.73746942387851" lon="9.759249309101676"><ele>293.59999999999997</ele><time>2026-04-07T15:39:07Z</time></trkpt><trkpt lat="45.73742790608726" lon="9.759096513379346"><ele>294.0</ele><time>2026-04-07T15:39:09Z</time></trkpt><trkpt lat="45.73738343107618" lon="9.758949058576505"><ele>294.0</ele><time>2026-04-07T15:39:11Z</time></trkpt><trkpt lat="45.73733414851469" lon="9.758802671209349"><ele>294.0</ele><time>2026-04-07T15:39:13Z</time></trkpt><trkpt lat="45.737279077133984" lon="9.758671565846614"><ele>294.0</ele><time>2026-04-07T15:39:15Z</time></trkpt><trkpt lat="45.73722939571849" lon="9.758540123851306"><ele>294.0</ele><time>2026-04-07T15:39:17Z</time></trkpt><trkpt lat="45.7371820789447" lon="9.758407507036068"><ele>294.0</ele><time>2026-04-07T15:39:19Z</time></trkpt><trkpt lat="45.73712760324921" lon="9.75826041647222"><ele>294.25</ele><time>2026-04-07T15:39:21Z</time></trkpt><trkpt lat="45.73707350779981" lon="9.758100190430849"><ele>294.5</ele><time>2026-04-07T15:39:23Z</time></trkpt><trkpt lat="45.737014469619346" lon="9.757954402831743"><ele>294.75</ele><time>2026-04-07T15:39:25Z</time></trkpt><trkpt lat="45.73696752996192" lon="9.757808483934289"><ele>295.0</ele><time>2026-04-07T15:39:27Z</time></trkpt><trkpt lat="45.73692568915025" lon="9.757669013164458"><ele>295.2</ele><time>2026-04-07T15:39:29Z</time></trkpt><trkpt lat="45.736881056092024" lon="9.757523889928882"><ele>295.4</ele><time>2026-04-07T15:39:31Z</time></trkpt><trkpt lat="45.736829193862434" lon="9.757358571765383"><ele>295.6</ele><time>2026-04-07T15:39:33Z</time></trkpt><trkpt lat="45.73677432970137" lon="9.757193796855669"><ele>295.8</ele><time>2026-04-07T15:39:35Z</time></trkpt><trkpt lat="45.736743675198" lon="9.757113140535315"><ele>296.0</ele><time>2026-04-07T15:39:36Z</time></trkpt><trkpt lat="45.73671172050576" lon="9.757034465898277"><ele>296.0</ele><time>2026-04-07T15:39:37Z</time></trkpt><trkpt lat="45.73662243591114" lon="9.756899165798101"><ele>296.0</ele><time>2026-04-07T15:39:39Z</time></trkpt><trkpt lat="45.73653141573733" lon="9.756778449616503"><ele>296.0</ele><time>2026-04-07T15:39:41Z</time></trkpt><trkpt lat="45.73648128109" lon="9.75672341032974"><ele>296.0</ele><time>2026-04-07T15:39:42Z</time></trkpt><trkpt lat="45.73639472284251" lon="9.756601104189055"><ele>296.0</ele><time>2026-04-07T15:39:44Z</time></trkpt><trkpt lat="45.736303915387836" lon="9.756481646849686"><ele>296.0</ele><time>2026-04-07T15:39:46Z</time></trkpt><trkpt lat="45.73621432429536" lon="9.756365115474766"><ele>296.0</ele><time>2026-04-07T15:39:48Z</time></trkpt><trkpt lat="45.73617148128406" lon="9.756298509996638"><ele>296.0</ele><time>2026-04-07T15:39:49Z</time></trkpt><trkpt lat="45.73608728790057" lon="9.75617531773813"><ele>296.0</ele><time>2026-04-07T15:39:51Z</time></trkpt><trkpt lat="45.73601224060163" lon="9.756042573328067"><ele>296.0</ele><time>2026-04-07T15:39:53Z</time></trkpt><trkpt lat="45.735944318230686" lon="9.755907945385752"><ele>295.0</ele><time>2026-04-07T15:39:55Z</time></trkpt><trkpt lat="45.735871765321214" lon="9.755777244032611"><ele>294.0</ele><time>2026-04-07T15:39:57Z</time></trkpt><trkpt lat="45.73582626325742" lon="9.755616320556305"><ele>293.0</ele><time>2026-04-07T15:39:59Z</time></trkpt><trkpt lat="45.73579759702867" lon="9.755532613969036"><ele>292.0</ele><time>2026-04-07T15:40:00Z</time></trkpt><trkpt lat="45.735726584359085" lon="9.75541594906811"><ele>291.0</ele><time>2026-04-07T15:40:02Z</time></trkpt><trkpt lat="45.73563722568037" lon="9.755410348530432"><ele>291.0</ele><time>2026-04-07T15:40:04Z</time></trkpt><trkpt lat="45.735551323374274" lon="9.755482608333898"><ele>291.0</ele><time>2026-04-07T15:40:06Z</time></trkpt><trkpt lat="45.73547789733198" lon="9.755571261592777"><ele>291.0</ele><time>2026-04-07T15:40:08Z</time></trkpt><trkpt lat="45.73538165005705" lon="9.755546076653973"><ele>291.0</ele><time>2026-04-07T15:40:10Z</time></trkpt><trkpt lat="45.735263815045805" lon="9.75555527817997"><ele>291.0</ele><time>2026-04-07T15:40:12Z</time></trkpt><trkpt lat="45.73520697223226" lon="9.755605652038938"><ele>291.6666666666667</ele><time>2026-04-07T15:40:13Z</time></trkpt><trkpt lat="45.735162389131695" lon="9.755669730897019"><ele>292.3333333333333</ele><time>2026-04-07T15:40:14Z</time></trkpt><trkpt lat="45.73511737506061" lon="9.75573729872977"><ele>293.0</ele><time>2026-04-07T15:40:15Z</time></trkpt><trkpt lat="45.7350671354377" lon="9.755800148430522"><ele>293.66666666666663</ele><time>2026-04-07T15:40:16Z</time></trkpt><trkpt lat="45.73494546733115" lon="9.75584400828808"><ele>294.3333333333333</ele><time>2026-04-07T15:40:18Z</time></trkpt><trkpt lat="45.73481937621298" lon="9.755874193414794"><ele>295.0</ele><time>2026-04-07T15:40:20Z</time></trkpt><trkpt lat="45.73475768918942" lon="9.75589690576503"><ele>295.0</ele><time>2026-04-07T15:40:21Z</time></trkpt><trkpt lat="45.73469413511065" lon="9.7559144942461"><ele>295.0</ele><time>2026-04-07T15:40:22Z</time></trkpt><trkpt lat="45.73463073491369" lon="9.75593557872259"><ele>295.0</ele><time>2026-04-07T15:40:23Z</time></trkpt><trkpt lat="45.734569747670704" lon="9.755963023845725"><ele>295.0</ele><time>2026-04-07T15:40:24Z</time></trkpt><trkpt lat="45.734507685990884" lon="9.755993274275983"><ele>295.0</ele><time>2026-04-07T15:40:25Z</time></trkpt><trkpt lat="45.73439403214105" lon="9.756063802074731"><ele>295.0</ele><time>2026-04-07T15:40:27Z</time></trkpt><trkpt lat="45.734321414935415" lon="9.756199773883369"><ele>296.00000000000006</ele><time>2026-04-07T15:40:29Z</time></trkpt><trkpt lat="45.73432121504537" lon="9.756296162731525"><ele>297.0</ele><time>2026-04-07T15:40:30Z</time></trkpt><trkpt lat="45.73431905257339" lon="9.756390465684747"><ele>298.0</ele><time>2026-04-07T15:40:31Z</time></trkpt><trkpt lat="45.734299355073425" lon="9.756481302891252"><ele>299.0</ele><time>2026-04-07T15:40:32Z</time></trkpt><trkpt lat="45.734255983976325" lon="9.756558545336338"><ele>300.0</ele><time>2026-04-07T15:40:33Z</time></trkpt><trkpt lat="45.73419700873857" lon="9.756608513428487"><ele>301.00000000000006</ele><time>2026-04-07T15:40:34Z</time></trkpt><trkpt lat="45.73412422463477" lon="9.75664240909482"><ele>302.0</ele><time>2026-04-07T15:40:35Z</time></trkpt><trkpt lat="45.73405847261825" lon="9.756669250291512"><ele>302.00000000000006</ele><time>2026-04-07T15:40:36Z</time></trkpt><trkpt lat="45.73399214689268" lon="9.75670173207144"><ele>302.0</ele><time>2026-04-07T15:40:37Z</time></trkpt><trkpt lat="45.73392639189681" lon="9.756735470590876"><ele>302.0</ele><time>2026-04-07T15:40:38Z</time></trkpt><trkpt lat="45.733864363069365" lon="9.756769220746756"><ele>302.0</ele><time>2026-04-07T15:40:39Z</time></trkpt><trkpt lat="45.733796792801904" lon="9.756800787863535"><ele>302.0</ele><time>2026-04-07T15:40:40Z</time></trkpt><trkpt lat="45.73373342317435" lon="9.756829681083733"><ele>302.00000000000006</ele><time>2026-04-07T15:40:41Z</time></trkpt><trkpt lat="45.73366994654918" lon="9.756863885085703"><ele>302.0</ele><time>2026-04-07T15:40:42Z</time></trkpt><trkpt lat="45.733607149479376" lon="9.756904530457334"><ele>302.00000000000006</ele><time>2026-04-07T15:40:43Z</time></trkpt><trkpt lat="45.73355629961449" lon="9.75695865151615"><ele>302.0</ele><time>2026-04-07T15:40:44Z</time></trkpt><trkpt lat="45.73351272029855" lon="9.757028962322467"><ele>302.0</ele><time>2026-04-07T15:40:45Z</time></trkpt><trkpt lat="45.73342527079465" lon="9.757048414618756"><ele>302.0</ele><time>2026-04-07T15:40:46Z</time></trkpt><trkpt lat="45.733362742079855" lon="9.757100580561552"><ele>302.0</ele><time>2026-04-07T15:40:47Z</time></trkpt><trkpt lat="45.73331083856499" lon="9.757167872817169"><ele>302.00000000000006</ele><time>2026-04-07T15:40:48Z</time></trkpt><trkpt lat="45.73325545638779" lon="9.757239746871122"><ele>302.0</ele><time>2026-04-07T15:40:49Z</time></trkpt><trkpt lat="45.7332153421944" lon="9.757322366831241"><ele>302.0</ele><time>2026-04-07T15:40:50Z</time></trkpt><trkpt lat="45.73316155645344" lon="9.757374426775355"><ele>302.0</ele><time>2026-04-07T15:40:51Z</time></trkpt><trkpt lat="45.73309288497041" lon="9.757394304778053"><ele>302.0</ele><time>2026-04-07T15:40:52Z</time></trkpt><trkpt lat="45.733031731481695" lon="9.757416729717985"><ele>302.0</ele><time>2026-04-07T15:40:53Z</time></trkpt><trkpt lat="45.732967433027014" lon="9.757428497433033"><ele>302.0</ele><time>2026-04-07T15:40:54Z</time></trkpt><trkpt lat="45.73284474167485" lon="9.757453575783359"><ele>302.0</ele><time>2026-04-07T15:40:56Z</time></trkpt><trkpt lat="45.732719868942034" lon="9.757489274814356"><ele>302.33333333333337</ele><time>2026-04-07T15:40:58Z</time></trkpt><trkpt lat="45.7326587581033" lon="9.757512114592194"><ele>302.6666666666667</ele><time>2026-04-07T15:40:59Z</time></trkpt><trkpt lat="45.73259844852705" lon="9.757540524856141"><ele>303.0</ele><time>2026-04-07T15:41:00Z</time></trkpt><trkpt lat="45.732538064602146" lon="9.75757011454317"><ele>303.3333333333333</ele><time>2026-04-07T15:41:01Z</time></trkpt><trkpt lat="45.73247806158443" lon="9.757601020772322"><ele>303.66666666666663</ele><time>2026-04-07T15:41:02Z</time></trkpt><trkpt lat="45.73236211764861" lon="9.757663355496033"><ele>304.0</ele><time>2026-04-07T15:41:04Z</time></trkpt><trkpt lat="45.732245502012674" lon="9.757715723381672"><ele>304.0</ele><time>2026-04-07T15:41:06Z</time></trkpt><trkpt lat="45.73218608254161" lon="9.757745653033123"><ele>304.0</ele><time>2026-04-07T15:41:07Z</time></trkpt><trkpt lat="45.732072271203016" lon="9.757829182648745"><ele>304.0</ele><time>2026-04-07T15:41:09Z</time></trkpt><trkpt lat="45.73197250495101" lon="9.757935897914082"><ele>304.0</ele><time>2026-04-07T15:41:11Z</time></trkpt><trkpt lat="45.7318716417717" lon="9.758026550336007"><ele>304.0</ele><time>2026-04-07T15:41:13Z</time></trkpt><trkpt lat="45.73177650544858" lon="9.75808971905364"><ele>304.4</ele><time>2026-04-07T15:41:15Z</time></trkpt><trkpt lat="45.731695060978986" lon="9.758131742908912"><ele>304.79999999999995</ele><time>2026-04-07T15:41:17Z</time></trkpt><trkpt lat="45.73163593474829" lon="9.7581821984097"><ele>305.20000000000005</ele><time>2026-04-07T15:41:19Z</time></trkpt><trkpt lat="45.73155695733884" lon="9.75827276167765"><ele>305.6</ele><time>2026-04-07T15:41:21Z</time></trkpt><trkpt lat="45.731454185531746" lon="9.758358820530084"><ele>306.0</ele><time>2026-04-07T15:41:23Z</time></trkpt><trkpt lat="45.73140165392309" lon="9.758468497963978"><ele>306.1666666666667</ele><time>2026-04-07T15:41:25Z</time></trkpt><trkpt lat="45.731433820494686" lon="9.758594980075934"><ele>306.3333333333333</ele><time>2026-04-07T15:41:27Z</time></trkpt><trkpt lat="45.731431021372174" lon="9.758713485742579"><ele>306.5</ele><time>2026-04-07T15:41:29Z</time></trkpt><trkpt lat="45.73138822052436" lon="9.758800535850982"><ele>306.66666666666663</ele><time>2026-04-07T15:41:31Z</time></trkpt><trkpt lat="45.73129245861968" lon="9.758825629311291"><ele>306.8333333333333</ele><time>2026-04-07T15:41:33Z</time></trkpt><trkpt lat="45.73122488594128" lon="9.7588199884493"><ele>307.0</ele><time>2026-04-07T15:41:34Z</time></trkpt><trkpt lat="45.73110062357398" lon="9.758853442968652"><ele>306.8</ele><time>2026-04-07T15:41:36Z</time></trkpt><trkpt lat="45.73098910254462" lon="9.758914897663736"><ele>306.6</ele><time>2026-04-07T15:41:38Z</time></trkpt><trkpt lat="45.73088423396423" lon="9.758991251346808"><ele>306.40000000000003</ele><time>2026-04-07T15:41:40Z</time></trkpt><trkpt lat="45.73077748270225" lon="9.759070623720651"><ele>306.2</ele><time>2026-04-07T15:41:42Z</time></trkpt><trkpt lat="45.73071990775941" lon="9.759108369389589"><ele>306.0</ele><time>2026-04-07T15:41:43Z</time></trkpt><trkpt lat="45.73060158521119" lon="9.759164207928162"><ele>306.0</ele><time>2026-04-07T15:41:45Z</time></trkpt><trkpt lat="45.730480026374494" lon="9.759209987980334"><ele>306.0</ele><time>2026-04-07T15:41:47Z</time></trkpt><trkpt lat="45.7303519741039" lon="9.759234691057967"><ele>306.0</ele><time>2026-04-07T15:41:49Z</time></trkpt><trkpt lat="45.73028645562385" lon="9.759235189483759"><ele>306.0</ele><time>2026-04-07T15:41:50Z</time></trkpt><trkpt lat="45.73016637132706" lon="9.759254101410844"><ele>306.0</ele><time>2026-04-07T15:41:52Z</time></trkpt><trkpt lat="45.73003923651912" lon="9.759271847304543"><ele>306.0</ele><time>2026-04-07T15:41:54Z</time></trkpt><trkpt lat="45.72997503412604" lon="9.759275068747014"><ele>306.0</ele><time>2026-04-07T15:41:55Z</time></trkpt><trkpt lat="45.7299086064869" lon="9.759279296988453"><ele>306.0</ele><time>2026-04-07T15:41:56Z</time></trkpt><trkpt lat="45.729842710140886" lon="9.759282449625177"><ele>306.0</ele><time>2026-04-07T15:41:57Z</time></trkpt><trkpt lat="45.72977708166217" lon="9.759291309141643"><ele>306.0</ele><time>2026-04-07T15:41:58Z</time></trkpt><trkpt lat="45.72971287053334" lon="9.75929362560975"><ele>306.0</ele><time>2026-04-07T15:41:59Z</time></trkpt><trkpt lat="45.72964943294897" lon="9.75929631617877"><ele>306.0</ele><time>2026-04-07T15:42:00Z</time></trkpt><trkpt lat="45.729585040750294" lon="9.759297584368984"><ele>306.0</ele><time>2026-04-07T15:42:01Z</time></trkpt><trkpt lat="45.729521198206186" lon="9.759303700213005"><ele>306.0</ele><time>2026-04-07T15:42:02Z</time></trkpt><trkpt lat="45.729394341367936" lon="9.759298544804988"><ele>306.0</ele><time>2026-04-07T15:42:04Z</time></trkpt><trkpt lat="45.729269902311145" lon="9.759313826449427"><ele>306.0</ele><time>2026-04-07T15:42:06Z</time></trkpt><trkpt lat="45.729206191637196" lon="9.75933251060349"><ele>306.0</ele><time>2026-04-07T15:42:07Z</time></trkpt><trkpt lat="45.72908552128311" lon="9.759360228264818"><ele>307.3333333333333</ele><time>2026-04-07T15:42:09Z</time></trkpt><trkpt lat="45.729018763764174" lon="9.759374530254746"><ele>308.6666666666667</ele><time>2026-04-07T15:42:10Z</time></trkpt><trkpt lat="45.728955721314485" lon="9.759388028002304"><ele>310.0</ele><time>2026-04-07T15:42:11Z</time></trkpt><trkpt lat="45.72883791083787" lon="9.759438799272653"><ele>311.33333333333337</ele><time>2026-04-07T15:42:13Z</time></trkpt><trkpt lat="45.72877761221523" lon="9.759475815898202"><ele>312.6666666666667</ele><time>2026-04-07T15:42:14Z</time></trkpt><trkpt lat="45.72866096748929" lon="9.75953094519629"><ele>314.0</ele><time>2026-04-07T15:42:16Z</time></trkpt><trkpt lat="45.72859914344392" lon="9.759564085827044"><ele>313.33333333333337</ele><time>2026-04-07T15:42:17Z</time></trkpt><trkpt lat="45.72848053807995" lon="9.75962678468714"><ele>312.6666666666667</ele><time>2026-04-07T15:42:19Z</time></trkpt><trkpt lat="45.728421705986705" lon="9.759659126124475"><ele>312.0</ele><time>2026-04-07T15:42:20Z</time></trkpt><trkpt lat="45.72836075621117" lon="9.75968687265811"><ele>311.3333333333333</ele><time>2026-04-07T15:42:21Z</time></trkpt><trkpt lat="45.728298832262006" lon="9.759712881138139"><ele>310.66666666666663</ele><time>2026-04-07T15:42:22Z</time></trkpt><trkpt lat="45.72818656892118" lon="9.759777977242557"><ele>310.0</ele><time>2026-04-07T15:42:24Z</time></trkpt><trkpt lat="45.72807124125185" lon="9.759834529509467"><ele>310.0</ele><time>2026-04-07T15:42:26Z</time></trkpt><trkpt lat="45.728007427099676" lon="9.759850825320704"><ele>310.0</ele><time>2026-04-07T15:42:27Z</time></trkpt><trkpt lat="45.72788854172273" lon="9.759913178109157"><ele>310.0</ele><time>2026-04-07T15:42:29Z</time></trkpt><trkpt lat="45.72777209880461" lon="9.75997053392965"><ele>310.0</ele><time>2026-04-07T15:42:31Z</time></trkpt><trkpt lat="45.72771221925309" lon="9.760003872925294"><ele>310.0</ele><time>2026-04-07T15:42:32Z</time></trkpt><trkpt lat="45.727652966592665" lon="9.760036285653907"><ele>310.0</ele><time>2026-04-07T15:42:33Z</time></trkpt><trkpt lat="45.72759287993337" lon="9.760063902067246"><ele>310.0</ele><time>2026-04-07T15:42:34Z</time></trkpt><trkpt lat="45.72747598154736" lon="9.760119724154602"><ele>310.0</ele><time>2026-04-07T15:42:36Z</time></trkpt><trkpt lat="45.72735861139328" lon="9.760171968379685"><ele>310.0</ele><time>2026-04-07T15:42:38Z</time></trkpt><trkpt lat="45.7272393293602" lon="9.760214312667348"><ele>310.0</ele><time>2026-04-07T15:42:40Z</time></trkpt><trkpt lat="45.727117018787766" lon="9.760246931998138"><ele>310.75</ele><time>2026-04-07T15:42:42Z</time></trkpt><trkpt lat="45.72699674480038" lon="9.760282164201698"><ele>311.5</ele><time>2026-04-07T15:42:44Z</time></trkpt><trkpt lat="45.72687626447202" lon="9.760312445985166"><ele>312.25</ele><time>2026-04-07T15:42:46Z</time></trkpt><trkpt lat="45.72675563168837" lon="9.760352342078875"><ele>313.0</ele><time>2026-04-07T15:42:48Z</time></trkpt><trkpt lat="45.726633905152276" lon="9.760404407114256"><ele>313.0</ele><time>2026-04-07T15:42:50Z</time></trkpt><trkpt lat="45.72651736442068" lon="9.760451192729182"><ele>313.0</ele><time>2026-04-07T15:42:52Z</time></trkpt><trkpt lat="45.726399342274654" lon="9.760501521550918"><ele>313.0</ele><time>2026-04-07T15:42:54Z</time></trkpt><trkpt lat="45.72627689751042" lon="9.76055086698213"><ele>313.0</ele><time>2026-04-07T15:42:56Z</time></trkpt><trkpt lat="45.726159145426514" lon="9.76059829634932"><ele>312.4</ele><time>2026-04-07T15:42:58Z</time></trkpt><trkpt lat="45.72603941551348" lon="9.760646191985233"><ele>311.8</ele><time>2026-04-07T15:43:00Z</time></trkpt><trkpt lat="45.72591954837894" lon="9.760695573831097"><ele>311.2</ele><time>2026-04-07T15:43:02Z</time></trkpt><trkpt lat="45.725801370005755" lon="9.760744912978646"><ele>310.6</ele><time>2026-04-07T15:43:04Z</time></trkpt><trkpt lat="45.7257362732037" lon="9.760769533410476"><ele>310.0</ele><time>2026-04-07T15:43:05Z</time></trkpt><trkpt lat="45.7256211189739" lon="9.760821409824985"><ele>310.0</ele><time>2026-04-07T15:43:07Z</time></trkpt><trkpt lat="45.72550017406199" lon="9.760872950161511"><ele>310.0</ele><time>2026-04-07T15:43:09Z</time></trkpt><trkpt lat="45.725380065569105" lon="9.760919967208771"><ele>310.0</ele><time>2026-04-07T15:43:11Z</time></trkpt><trkpt lat="45.72526509056082" lon="9.760977140254349"><ele>310.0</ele><time>2026-04-07T15:43:13Z</time></trkpt><trkpt lat="45.72520705496659" lon="9.761017409616779"><ele>310.0</ele><time>2026-04-07T15:43:14Z</time></trkpt><trkpt lat="45.72510056558091" lon="9.76108588575147"><ele>311.0</ele><time>2026-04-07T15:43:16Z</time></trkpt><trkpt lat="45.72498851074244" lon="9.76115984709109"><ele>312.0</ele><time>2026-04-07T15:43:18Z</time></trkpt><trkpt lat="45.72493204547062" lon="9.7612029166393"><ele>313.0</ele><time>2026-04-07T15:43:19Z</time></trkpt><trkpt lat="45.72482964931218" lon="9.761296700133208"><ele>314.0</ele><time>2026-04-07T15:43:21Z</time></trkpt><trkpt lat="45.72473645216646" lon="9.761413824401464"><ele>315.0</ele><time>2026-04-07T15:43:23Z</time></trkpt><trkpt lat="45.72464693147554" lon="9.761541269195202"><ele>315.0</ele><time>2026-04-07T15:43:25Z</time></trkpt><trkpt lat="45.72457251812308" lon="9.761686758120895"><ele>315.0</ele><time>2026-04-07T15:43:27Z</time></trkpt><trkpt lat="45.72451278631419" lon="9.76184371336296"><ele>315.0</ele><time>2026-04-07T15:43:29Z</time></trkpt><trkpt lat="45.724450098258245" lon="9.761995910827935"><ele>315.0</ele><time>2026-04-07T15:43:31Z</time></trkpt><trkpt lat="45.72438729707701" lon="9.762147104569038"><ele>314.75</ele><time>2026-04-07T15:43:33Z</time></trkpt><trkpt lat="45.72432225344364" lon="9.76229466495692"><ele>314.5</ele><time>2026-04-07T15:43:35Z</time></trkpt><trkpt lat="45.72424953284733" lon="9.76243815648449"><ele>314.25</ele><time>2026-04-07T15:43:37Z</time></trkpt><trkpt lat="45.724168424454" lon="9.762571093611678"><ele>314.0</ele><time>2026-04-07T15:43:39Z</time></trkpt><trkpt lat="45.72408162197012" lon="9.76269291844932"><ele>314.75</ele><time>2026-04-07T15:43:41Z</time></trkpt><trkpt lat="45.723981254361476" lon="9.762799167815194"><ele>315.5</ele><time>2026-04-07T15:43:43Z</time></trkpt><trkpt lat="45.72388206301498" lon="9.762915070382627"><ele>316.25</ele><time>2026-04-07T15:43:45Z</time></trkpt><trkpt lat="45.72377976966196" lon="9.763027442403557"><ele>317.0</ele><time>2026-04-07T15:43:47Z</time></trkpt><trkpt lat="45.723678351800814" lon="9.76312907027215"><ele>317.0</ele><time>2026-04-07T15:43:49Z</time></trkpt><trkpt lat="45.72358340996792" lon="9.763244724149581"><ele>317.0</ele><time>2026-04-07T15:43:51Z</time></trkpt><trkpt lat="45.72353916879805" lon="9.763309173667139"><ele>317.0</ele><time>2026-04-07T15:43:52Z</time></trkpt><trkpt lat="45.72345237135142" lon="9.763435893491359"><ele>317.0</ele><time>2026-04-07T15:43:54Z</time></trkpt><trkpt lat="45.72336172176645" lon="9.763562080196504"><ele>317.0</ele><time>2026-04-07T15:43:56Z</time></trkpt><trkpt lat="45.723274828969416" lon="9.763683979073894"><ele>316.4</ele><time>2026-04-07T15:43:58Z</time></trkpt><trkpt lat="45.72318558532063" lon="9.763814908589229"><ele>315.79999999999995</ele><time>2026-04-07T15:44:00Z</time></trkpt><trkpt lat="45.72313624829362" lon="9.763871225061528"><ele>315.2</ele><time>2026-04-07T15:44:01Z</time></trkpt><trkpt lat="45.72303999661693" lon="9.763985084655594"><ele>314.59999999999997</ele><time>2026-04-07T15:44:03Z</time></trkpt><trkpt lat="45.72294292334223" lon="9.76409699769485"><ele>314.0</ele><time>2026-04-07T15:44:05Z</time></trkpt><trkpt lat="45.72289045987177" lon="9.764147166825198"><ele>314.0</ele><time>2026-04-07T15:44:06Z</time></trkpt><trkpt lat="45.72279754312591" lon="9.764251731934735"><ele>314.0</ele><time>2026-04-07T15:44:08Z</time></trkpt><trkpt lat="45.7227433501588" lon="9.76429941308334"><ele>314.0</ele><time>2026-04-07T15:44:09Z</time></trkpt><trkpt lat="45.72264620406995" lon="9.764398939677484"><ele>314.0</ele><time>2026-04-07T15:44:11Z</time></trkpt><trkpt lat="45.72253901873979" lon="9.764486922143702"><ele>314.0</ele><time>2026-04-07T15:44:13Z</time></trkpt><trkpt lat="45.72244104358383" lon="9.764587496987051"><ele>315.0</ele><time>2026-04-07T15:44:15Z</time></trkpt><trkpt lat="45.72238568663008" lon="9.76463493484864"><ele>316.0</ele><time>2026-04-07T15:44:16Z</time></trkpt><trkpt lat="45.722286258874654" lon="9.76472975910935"><ele>317.0</ele><time>2026-04-07T15:44:18Z</time></trkpt><trkpt lat="45.722188336125264" lon="9.764832265414652"><ele>318.0</ele><time>2026-04-07T15:44:20Z</time></trkpt><trkpt lat="45.72209338379776" lon="9.76493027722172"><ele>319.0</ele><time>2026-04-07T15:44:22Z</time></trkpt><trkpt lat="45.72199570247853" lon="9.765029333089698"><ele>319.0</ele><time>2026-04-07T15:44:24Z</time></trkpt><trkpt lat="45.721942828229146" lon="9.765078875092408"><ele>319.0</ele><time>2026-04-07T15:44:25Z</time></trkpt><trkpt lat="45.72184715178574" lon="9.765177580976003"><ele>319.0</ele><time>2026-04-07T15:44:27Z</time></trkpt><trkpt lat="45.72174777466229" lon="9.765272553808316"><ele>319.0</ele><time>2026-04-07T15:44:29Z</time></trkpt><trkpt lat="45.721659235716125" lon="9.76536399122002"><ele>319.0</ele><time>2026-04-07T15:44:31Z</time></trkpt><trkpt lat="45.721576387766675" lon="9.765449687506262"><ele>319.0</ele><time>2026-04-07T15:44:33Z</time></trkpt><trkpt lat="45.721506544763294" lon="9.765539572412383"><ele>319.0</ele><time>2026-04-07T15:44:35Z</time></trkpt><trkpt lat="45.72143070180063" lon="9.765611975226507"><ele>319.0</ele><time>2026-04-07T15:44:37Z</time></trkpt><trkpt lat="45.721340979156956" lon="9.765710511086548"><ele>319.0</ele><time>2026-04-07T15:44:39Z</time></trkpt><trkpt lat="45.721251106947705" lon="9.765812455114935"><ele>319.0</ele><time>2026-04-07T15:44:41Z</time></trkpt><trkpt lat="45.72115567180339" lon="9.765914823971357"><ele>319.25</ele><time>2026-04-07T15:44:43Z</time></trkpt><trkpt lat="45.72106276061902" lon="9.766027814373492"><ele>319.5</ele><time>2026-04-07T15:44:45Z</time></trkpt><trkpt lat="45.72097312769052" lon="9.766147284405358"><ele>319.75</ele><time>2026-04-07T15:44:47Z</time></trkpt><trkpt lat="45.72088509478874" lon="9.766261930226582"><ele>320.0</ele><time>2026-04-07T15:44:49Z</time></trkpt><trkpt lat="45.72079584864661" lon="9.76637899707186"><ele>320.4</ele><time>2026-04-07T15:44:51Z</time></trkpt><trkpt lat="45.72070416089619" lon="9.766490331570058"><ele>320.8</ele><time>2026-04-07T15:44:53Z</time></trkpt><trkpt lat="45.720613927753014" lon="9.766603954211963"><ele>321.20000000000005</ele><time>2026-04-07T15:44:55Z</time></trkpt><trkpt lat="45.72051592085786" lon="9.766707257917927"><ele>321.6</ele><time>2026-04-07T15:44:57Z</time></trkpt><trkpt lat="45.720460995174946" lon="9.766757206135368"><ele>322.0</ele><time>2026-04-07T15:44:58Z</time></trkpt><trkpt lat="45.72036336853554" lon="9.766854869026965"><ele>323.0</ele><time>2026-04-07T15:45:00Z</time></trkpt><trkpt lat="45.720269087323395" lon="9.766953893106392"><ele>324.0</ele><time>2026-04-07T15:45:02Z</time></trkpt><trkpt lat="45.72018159701269" lon="9.767040182740052"><ele>325.0</ele><time>2026-04-07T15:45:04Z</time></trkpt><trkpt lat="45.72008509475104" lon="9.767136257172778"><ele>326.0</ele><time>2026-04-07T15:45:06Z</time></trkpt><trkpt lat="45.71998050466751" lon="9.767234567459873"><ele>326.0</ele><time>2026-04-07T15:45:08Z</time></trkpt><trkpt lat="45.71988416463085" lon="9.767338123156136"><ele>326.0</ele><time>2026-04-07T15:45:10Z</time></trkpt><trkpt lat="45.71978608569491" lon="9.767438398402781"><ele>326.0</ele><time>2026-04-07T15:45:12Z</time></trkpt><trkpt lat="45.719686776085595" lon="9.767537957596511"><ele>326.0</ele><time>2026-04-07T15:45:14Z</time></trkpt><trkpt lat="45.719586143312206" lon="9.767635809854728"><ele>325.4</ele><time>2026-04-07T15:45:16Z</time></trkpt><trkpt lat="45.719486668298075" lon="9.767733351454423"><ele>324.8</ele><time>2026-04-07T15:45:18Z</time></trkpt><trkpt lat="45.71938934635478" lon="9.76783258360799"><ele>324.2</ele><time>2026-04-07T15:45:20Z</time></trkpt><trkpt lat="45.719289187664934" lon="9.767932001291573"><ele>323.59999999999997</ele><time>2026-04-07T15:45:22Z</time></trkpt><trkpt lat="45.71923708159922" lon="9.767982694872387"><ele>323.0</ele><time>2026-04-07T15:45:23Z</time></trkpt><trkpt lat="45.719139458757695" lon="9.768084783973627"><ele>323.0</ele><time>2026-04-07T15:45:25Z</time></trkpt><trkpt lat="45.719035345311916" lon="9.768184077569106"><ele>323.0</ele><time>2026-04-07T15:45:27Z</time></trkpt><trkpt lat="45.71893337319129" lon="9.768288605511128"><ele>323.0</ele><time>2026-04-07T15:45:29Z</time></trkpt><trkpt lat="45.71882468540724" lon="9.76838446960556"><ele>323.0</ele><time>2026-04-07T15:45:31Z</time></trkpt><trkpt lat="45.71877224137254" lon="9.76843580710391"><ele>323.0</ele><time>2026-04-07T15:45:32Z</time></trkpt><trkpt lat="45.718720449001424" lon="9.768487447801258"><ele>322.79999999999995</ele><time>2026-04-07T15:45:33Z</time></trkpt><trkpt lat="45.71861936048793" lon="9.768588762784935"><ele>322.6</ele><time>2026-04-07T15:45:35Z</time></trkpt><trkpt lat="45.7185166706941" lon="9.768683954323004"><ele>322.4</ele><time>2026-04-07T15:45:37Z</time></trkpt><trkpt lat="45.71846309128569" lon="9.768732183648215"><ele>322.20000000000005</ele><time>2026-04-07T15:45:38Z</time></trkpt><trkpt lat="45.718359331842144" lon="9.768830538922085"><ele>322.0</ele><time>2026-04-07T15:45:40Z</time></trkpt><trkpt lat="45.71826782363607" lon="9.768938198419812"><ele>322.0</ele><time>2026-04-07T15:45:42Z</time></trkpt><trkpt lat="45.71818124607147" lon="9.76905460336001"><ele>322.0</ele><time>2026-04-07T15:45:44Z</time></trkpt><trkpt lat="45.718095645450624" lon="9.769178627533751"><ele>322.0</ele><time>2026-04-07T15:45:46Z</time></trkpt><trkpt lat="45.71801111734513" lon="9.769305538795042"><ele>322.0</ele><time>2026-04-07T15:45:48Z</time></trkpt><trkpt lat="45.717968359822756" lon="9.769371955533794"><ele>322.0</ele><time>2026-04-07T15:45:49Z</time></trkpt><trkpt lat="45.71789459134018" lon="9.769498107404782"><ele>322.25</ele><time>2026-04-07T15:45:51Z</time></trkpt><trkpt lat="45.71782111086462" lon="9.769614705501581"><ele>322.5</ele><time>2026-04-07T15:45:53Z</time></trkpt><trkpt lat="45.71773935275146" lon="9.769742059131827"><ele>322.75</ele><time>2026-04-07T15:45:55Z</time></trkpt><trkpt lat="45.717657243956886" lon="9.769874261806702"><ele>323.0</ele><time>2026-04-07T15:45:57Z</time></trkpt><trkpt lat="45.7175747766548" lon="9.770002250708464"><ele>323.0</ele><time>2026-04-07T15:45:59Z</time></trkpt><trkpt lat="45.71749516842134" lon="9.770128861368825"><ele>323.0</ele><time>2026-04-07T15:46:01Z</time></trkpt><trkpt lat="45.717416422980584" lon="9.770254437324674"><ele>323.0</ele><time>2026-04-07T15:46:03Z</time></trkpt><trkpt lat="45.71733976724385" lon="9.770382770798145"><ele>323.0</ele><time>2026-04-07T15:46:05Z</time></trkpt><trkpt lat="45.71726206203536" lon="9.770507345530019"><ele>323.75</ele><time>2026-04-07T15:46:07Z</time></trkpt><trkpt lat="45.71719367162482" lon="9.770644084441535"><ele>324.5</ele><time>2026-04-07T15:46:09Z</time></trkpt><trkpt lat="45.717126162719474" lon="9.770776387196445"><ele>325.25</ele><time>2026-04-07T15:46:11Z</time></trkpt><trkpt lat="45.71706160350876" lon="9.770913983860584"><ele>326.0</ele><time>2026-04-07T15:46:13Z</time></trkpt><trkpt lat="45.717002496118106" lon="9.771043334093187"><ele>326.6</ele><time>2026-04-07T15:46:15Z</time></trkpt><trkpt lat="45.71696908578174" lon="9.771170187922358"><ele>327.20000000000005</ele><time>2026-04-07T15:46:17Z</time></trkpt><trkpt lat="45.71696168711162" lon="9.771300371778857"><ele>327.79999999999995</ele><time>2026-04-07T15:46:19Z</time></trkpt><trkpt lat="45.71703837273468" lon="9.771380528803327"><ele>328.4</ele><time>2026-04-07T15:46:21Z</time></trkpt><trkpt lat="45.71712769544507" lon="9.771423596674678"><ele>329.0</ele><time>2026-04-07T15:46:23Z</time></trkpt><trkpt lat="45.717223933015376" lon="9.771435266657974"><ele>329.0</ele><time>2026-04-07T15:46:25Z</time></trkpt><trkpt lat="45.71730237633931" lon="9.771477047403678"><ele>329.0</ele><time>2026-04-07T15:46:27Z</time></trkpt><trkpt lat="45.71739014246576" lon="9.771512699651971"><ele>329.0</ele><time>2026-04-07T15:46:30Z</time></trkpt><trkpt lat="45.717463421320424" lon="9.77151057036552"><ele>329.0</ele><time>2026-04-07T15:46:32Z</time></trkpt><trkpt lat="45.7175251953026" lon="9.771429431983437"><ele>329.0</ele><time>2026-04-07T15:46:34Z</time></trkpt><trkpt lat="45.717553795506895" lon="9.771299576736006"><ele>329.0</ele><time>2026-04-07T15:46:36Z</time></trkpt><trkpt lat="45.71759288019256" lon="9.771162904966545"><ele>329.0</ele><time>2026-04-07T15:46:38Z</time></trkpt><trkpt lat="45.71763510832659" lon="9.77102685114004"><ele>329.0</ele><time>2026-04-07T15:46:40Z</time></trkpt><trkpt lat="45.71770187409369" lon="9.770903435778479"><ele>329.0</ele><time>2026-04-07T15:46:42Z</time></trkpt><trkpt lat="45.71777606115587" lon="9.77079456677444"><ele>329.0</ele><time>2026-04-07T15:46:44Z</time></trkpt><trkpt lat="45.717836974055025" lon="9.770677454473685"><ele>329.0</ele><time>2026-04-07T15:46:46Z</time></trkpt><trkpt lat="45.717913693991584" lon="9.770593559257582"><ele>329.6666666666667</ele><time>2026-04-07T15:46:48Z</time></trkpt><trkpt lat="45.718011297133906" lon="9.77063088120357"><ele>330.33333333333337</ele><time>2026-04-07T15:46:50Z</time></trkpt><trkpt lat="45.71809349577795" lon="9.770700956045708"><ele>331.0</ele><time>2026-04-07T15:46:52Z</time></trkpt><trkpt lat="45.71816485114014" lon="9.77073772966592"><ele>331.6666666666667</ele><time>2026-04-07T15:46:54Z</time></trkpt><trkpt lat="45.71822706160359" lon="9.770770905707094"><ele>332.3333333333333</ele><time>2026-04-07T15:46:56Z</time></trkpt><trkpt lat="45.71830510552474" lon="9.770829353401853"><ele>333.0</ele><time>2026-04-07T15:46:59Z</time></trkpt><trkpt lat="45.718372092479804" lon="9.770870970662648"><ele>333.0</ele><time>2026-04-07T15:47:02Z</time></trkpt><trkpt lat="45.718444575695415" lon="9.770909482546013"><ele>333.0</ele><time>2026-04-07T15:47:05Z</time></trkpt><trkpt lat="45.71850975450188" lon="9.770967586264854"><ele>333.0</ele><time>2026-04-07T15:47:08Z</time></trkpt><trkpt lat="45.71857392866504" lon="9.771036115506549"><ele>333.0</ele><time>2026-04-07T15:47:11Z</time></trkpt><trkpt lat="45.71865385673944" lon="9.77108231362382"><ele>333.0</ele><time>2026-04-07T15:47:14Z</time></trkpt><trkpt lat="45.71873468987275" lon="9.771114082203704"><ele>333.0</ele><time>2026-04-07T15:47:17Z</time></trkpt><trkpt lat="45.71881955974868" lon="9.771138151442644"><ele>345.0</ele><time>2026-04-07T15:47:20Z</time></trkpt><trkpt lat="45.7189014190188" lon="9.771165071745934"><ele>345.0</ele><time>2026-04-07T15:47:23Z</time></trkpt><trkpt lat="45.718964008424344" lon="9.771185561808709"><ele>345.0</ele><time>2026-04-07T15:47:26Z</time></trkpt></trkseg></trk></gpx>